GFSNW_sfc_wetblb_000.txt.gz
Wetbulb
51.97 50.83 49.75 51.35 51.84 52.51 52.02 43.45 38.67 50.28 47.32 39.36 37.38 36.50 43.52 46.14 44.22 45.70 45.09 43.91 41.71 39.73 40.53 39.45 38.62 38.98 40.39 43.51 43.25 38.16 38.71 34.99 28.37 33.85 39.04 40.16 37.26 34.79 32.97 24.60 26.22 24.57 21.64 25.74
51.11 49.66 50.17 51.28 51.74 53.48 50.58 43.79 48.33 53.68 46.72 31.71 29.23 38.98 44.03 45.55 43.22 43.29 43.41 42.75 43.79 43.58 40.86 37.56 39.98 40.66 43.30 41.92 41.29 39.38 39.36 32.80 27.74 32.04 35.73 37.52 35.16 36.60 34.48 31.76 28.60 27.34 20.89 25.67
49.90 50.77 50.74 51.06 51.55 53.28 50.65 46.88 41.63 45.38 43.14 39.80 38.38 38.42 39.78 41.62 45.03 44.21 44.70 43.82 44.54 42.26 40.61 41.96 39.69 39.88 42.71 42.01 41.73 44.43 42.18 34.87 31.37 27.80 30.65 32.82 31.42 35.09 34.41 32.81 24.66 26.31 26.11 28.76
49.58 49.87 50.89 51.02 51.38 52.04 51.55 43.95 41.67 44.50 35.92 38.35 38.78 40.28 41.79 40.80 40.62 44.21 44.53 42.41 42.73 41.52 36.90 37.55 37.52 40.54 40.02 42.05 43.70 41.81 38.12 32.00 32.08 32.83 33.95 33.73 32.49 32.91 34.47 32.83 31.77 28.87 30.23 30.39
48.38 49.06 50.58 50.70 50.96 51.14 49.16 45.97 41.40 39.45 38.67 43.08 42.81 39.89 41.51 41.87 41.93 42.63 41.13 41.37 42.14 41.50 38.15 40.05 38.70 39.89 37.47 36.53 41.35 38.25 36.34 28.99 29.41 30.68 33.75 32.89 31.36 33.07 33.01 33.16 33.02 33.07 32.13 32.48
48.89 50.52 50.27 50.39 50.83 51.01 47.07 48.09 47.68 43.63 37.04 37.74 39.74 38.40 43.01 43.72 44.04 43.61 44.36 43.69 41.32 38.66 42.02 42.72 41.83 41.50 40.78 40.77 39.79 34.25 30.90 28.67 25.96 23.18 28.98 27.70 24.55 31.17 32.69 32.60 33.65 33.95 30.16 34.84
50.66 50.16 49.94 50.19 50.46 51.00 50.11 50.05 48.63 41.47 31.95 34.08 38.75 43.04 44.37 43.65 43.07 42.62 43.72 43.90 41.07 43.12 45.65 43.41 41.94 40.40 41.01 41.60 39.60 37.29 28.89 27.08 23.25 21.54 21.93 17.04 31.59 34.68 35.64 34.85 35.79 36.92 35.61 36.45
49.86 49.48 49.48 49.80 50.27 51.00 51.95 51.23 48.77 42.84 30.71 36.38 40.47 43.23 43.63 44.19 44.15 42.99 44.02 45.73 44.83 45.37 39.93 34.82 34.15 31.30 32.80 32.95 38.15 35.15 33.91 26.65 23.74 21.07 19.86 26.75 31.10 36.14 35.48 34.30 33.86 38.15 36.82 36.56
49.18 49.02 49.07 49.04 50.16 51.09 52.02 52.06 49.49 46.59 39.79 38.62 44.68 43.14 43.21 37.08 37.77 37.58 41.16 46.96 45.26 41.20 30.62 29.37 26.39 26.71 30.69 29.74 34.54 36.88 33.41 27.99 25.18 17.41 16.40 15.96 29.66 34.84 39.05 37.64 29.72 38.61 38.28 36.69
48.98 49.00 48.86 48.93 50.00 51.45 53.60 51.35 51.18 48.41 43.11 45.50 45.61 42.22 42.21 42.66 39.52 36.94 40.86 41.98 40.63 39.46 26.41 22.94 24.32 26.36 32.47 28.97 27.68 25.51 26.71 24.84 19.15 16.09 14.61 24.46 32.41 37.79 39.10 29.21 31.20 38.95 38.89 38.12
49.01 49.01 49.03 49.19 49.54 51.45 53.50 52.30 52.69 49.74 45.50 46.01 48.69 47.78 44.28 43.91 42.18 38.18 42.30 40.23 38.51 32.14 29.22 25.97 25.99 23.31 30.05 29.12 31.89 31.06 29.93 25.06 22.66 21.61 15.81 21.65 36.32 37.64 33.10 37.14 36.25 38.99 39.13 38.52
48.26 47.85 47.70 48.21 49.73 51.10 53.50 52.77 54.72 51.96 48.03 47.01 49.56 49.77 49.30 48.37 47.13 44.26 41.23 42.08 40.38 38.49 32.52 25.06 30.56 30.03 31.99 26.01 26.57 34.34 29.22 30.90 27.38 28.50 28.34 35.34 37.80 37.85 39.35 39.44 38.51 39.41 39.37 39.95
48.17 48.78 49.41 49.47 50.51 51.36 53.33 52.33 49.52 47.75 43.17 45.12 46.93 46.47 50.44 52.07 50.32 49.40 43.18 40.05 43.87 40.23 38.35 31.96 27.53 25.80 30.19 27.61 29.33 29.30 34.89 36.28 30.25 32.26 36.19 37.04 38.52 39.89 40.85 41.49 40.39 41.01 41.08 40.83
48.94 49.55 50.00 50.16 50.67 51.19 51.94 50.58 49.00 45.55 41.16 36.08 41.75 49.11 48.56 51.31 51.78 50.12 48.20 45.99 43.22 41.01 38.60 32.54 33.18 26.73 33.94 25.48 31.38 29.86 34.70 37.27 34.09 32.87 37.39 37.70 39.83 41.00 41.76 42.05 42.27 41.74 41.84 41.33
49.31 49.68 50.23 49.87 51.20 51.32 51.20 49.68 48.71 48.96 45.01 36.95 37.36 45.90 47.55 49.39 50.15 48.54 47.81 46.27 43.64 39.33 34.09 30.87 31.91 28.85 33.27 33.69 32.32 31.03 37.11 35.86 31.81 31.42 38.58 37.82 38.18 40.32 42.02 42.10 42.16 42.22 41.00 38.70
48.53 48.81 49.44 49.80 50.10 50.10 45.28 42.80 48.32 49.69 46.95 41.46 36.29 41.87 43.77 46.40 48.34 48.23 47.37 46.29 43.05 41.07 37.92 32.16 33.60 38.03 34.58 33.33 30.94 38.41 39.50 40.64 39.99 38.51 39.21 39.70 40.06 41.86 42.43 42.51 42.24 41.88 38.73 34.19
48.60 48.99 49.14 49.43 49.52 49.65 43.76 40.35 46.02 47.83 45.95 39.57 35.69 34.65 40.54 42.57 44.87 42.93 43.71 44.41 42.52 41.29 37.47 33.40 31.08 36.06 37.16 33.36 28.55 39.93 40.70 42.38 42.51 42.54 41.41 39.60 40.24 41.34 41.83 42.15 39.65 36.13 34.24 34.87
48.83 48.65 48.81 49.14 49.27 49.17 47.68 48.44 47.68 47.38 42.77 39.26 33.25 32.94 35.21 42.63 37.21 37.38 42.23 38.27 41.01 40.35 36.89 37.00 34.37 36.54 35.12 33.71 37.64 39.46 41.36 42.12 42.13 42.15 42.31 40.86 41.28 37.16 33.73 34.21 33.95 32.79 32.73 33.32
48.15 47.97 48.42 48.67 47.40 46.20 47.38 47.70 47.29 47.50 44.41 35.66 34.71 33.13 32.93 40.79 37.85 36.63 37.85 39.96 33.74 39.34 36.24 35.55 38.22 33.21 33.76 35.76 35.93 37.86 39.25 39.03 39.84 39.97 40.45 38.64 34.01 32.96 33.30 33.75 33.89 32.74 31.87 32.10
47.62 46.59 42.56 39.68 44.42 47.82 47.34 44.65 40.15 39.17 38.40 40.06 33.75 37.27 34.78 41.93 34.13 34.13 34.73 34.11 34.61 34.62 35.51 38.56 34.31 34.29 36.13 34.84 35.60 36.46 37.28 39.27 40.10 36.83 33.80 32.61 32.32 32.95 34.56 33.94 33.41 33.10 33.90 35.83
43.88 40.59 38.66 44.74 46.15 43.60 37.67 34.61 34.45 37.53 35.96 37.58 36.77 35.35 35.15 40.04 35.85 34.67 34.28 33.01 32.85 31.96 31.69 35.17 32.56 31.79 31.13 31.40 32.39 34.60 35.78 36.34 35.77 36.03 36.33 37.06 36.68 35.15 34.43 33.72 33.64 34.24 34.04 32.06
43.18 44.14 43.69 40.85 38.58 36.19 34.06 32.62 33.74 34.96 32.87 34.63 35.74 35.74 38.45 36.29 38.29 35.82 34.46 33.48 32.45 30.96 33.96 32.66 29.62 29.84 30.04 32.69 33.58 36.01 36.64 35.72 35.22 36.54 35.93 36.18 36.46 36.83 35.12 33.79 31.70 29.69 29.20 26.04
41.42 38.17 34.34 37.60 34.08 33.49 31.86 31.34 32.42 32.27 32.66 33.75 33.40 33.93 33.39 36.08 37.01 33.93 33.19 32.47 31.60 32.74 31.35 30.05 30.03 33.05 36.99 37.62 35.73 33.36 35.16 35.30 35.19 35.31 35.59 34.06 30.52 29.72 28.71 28.95 28.19 27.48 28.62 29.36
36.17 34.48 32.56 31.91 30.78 29.86 29.68 30.78 31.52 31.91 32.30 32.48 32.85 32.48 33.03 32.48 33.18 32.11 31.76 31.17 31.00 28.94 23.58 21.40 31.55 34.93 35.67 32.52 32.13 31.41 30.98 32.03 32.99 30.69 29.38 28.27 28.32 28.04 27.19 26.70 26.59 25.19 26.76 26.92
31.90 32.16 27.49 27.95 29.86 31.52 31.71 31.95 32.30 32.66 33.87 33.03 32.83 32.62 34.01 31.89 31.25 30.60 28.84 25.35 21.05 20.41 18.81 30.25 32.42 35.15 34.81 30.04 29.78 30.06 29.90 26.57 28.81 29.91 28.00 26.59 25.65 24.54 26.13 25.44 24.07 25.86 25.66 24.66
30.72 31.11 29.23 30.61 30.86 30.82 31.95 31.97 32.15 34.97 33.21 33.03 33.15 31.50 29.79 28.52 29.09 25.66 22.79 21.08 19.49 25.84 31.00 32.29 33.84 33.17 31.30 32.44 31.82 31.78 32.73 32.09 32.16 30.31 28.81 28.00 24.92 24.74 26.57 25.99 24.18 22.36 22.00 21.74
31.58 30.04 32.14 30.90 31.79 31.76 31.97 32.33 33.78 35.45 33.18 30.42 29.11 25.47 24.66 28.77 23.95 24.50 29.32 26.27 29.41 32.27 32.74 33.30 34.00 33.76 31.64 33.03 33.18 30.54 30.68 31.70 30.91 29.30 29.99 27.46 24.78 23.50 25.05 27.20 29.52 27.11 25.37 20.46

GFSNW_sfc_wetblb_003.txt.gz
Wetbulb
52.36 52.31 52.45 51.97 51.84 51.32 51.31 46.28 41.35 51.63 48.85 41.79 39.31 38.70 42.27 45.45 46.68 47.35 46.98 45.20 43.74 41.89 42.94 41.79 41.30 41.27 43.67 46.03 46.89 43.06 42.57 39.86 36.28 38.13 42.45 43.79 42.21 39.25 38.00 33.57 30.29 29.94 30.79 34.83
51.93 51.85 51.53 50.63 51.44 52.46 50.01 43.49 49.05 54.76 48.66 35.58 34.75 41.03 44.85 46.91 45.02 45.09 46.04 45.41 46.08 46.52 43.07 40.31 42.58 43.15 45.81 44.94 44.77 42.90 42.90 38.38 34.16 36.64 39.74 41.81 40.57 39.46 36.95 35.32 34.07 30.73 33.36 35.04
51.81 51.43 50.12 50.62 51.72 52.73 50.98 48.20 43.90 47.98 43.51 41.52 40.31 40.19 41.68 42.84 45.99 45.99 46.40 45.25 46.50 44.92 43.61 43.83 41.59 42.42 45.02 45.38 44.78 44.05 44.03 37.65 36.77 34.01 35.67 37.86 36.92 38.20 37.47 37.67 33.70 32.23 34.21 36.78
51.33 50.15 50.30 50.77 51.62 52.27 50.17 45.75 43.34 47.42 39.27 38.25 39.81 41.51 41.92 42.05 42.45 46.57 46.63 45.35 45.24 43.77 40.21 41.21 40.65 43.01 42.87 44.55 44.68 43.70 42.27 37.11 36.54 35.92 36.25 37.07 36.89 37.20 36.83 36.29 36.52 35.52 36.37 35.13
50.30 50.22 50.49 50.71 51.37 52.33 48.93 43.73 42.86 41.49 41.42 42.73 40.55 39.51 42.52 42.77 43.99 45.04 44.20 44.04 45.11 45.80 41.34 42.78 40.71 42.21 41.03 41.04 43.44 41.01 39.24 35.10 34.90 34.60 35.58 35.26 35.43 36.85 37.02 36.95 36.81 36.08 36.27 36.97
49.63 49.61 50.15 50.56 51.37 52.63 48.70 48.88 47.44 45.34 36.98 40.51 39.59 39.20 41.53 43.74 45.76 45.38 46.23 45.78 44.15 42.25 45.15 45.17 43.72 43.21 42.58 43.39 42.24 37.54 36.21 33.37 32.42 29.56 31.21 31.65 30.89 34.79 36.51 36.83 37.84 39.51 35.53 41.36
48.82 49.27 50.36 50.59 51.50 51.51 50.93 50.56 47.60 42.12 33.89 37.70 39.00 43.05 45.06 44.65 44.92 44.26 45.88 46.42 44.71 45.65 47.31 45.67 45.09 43.10 42.38 42.03 38.97 38.83 32.71 31.18 29.15 30.83 27.44 27.51 36.91 39.08 38.69 37.69 38.04 39.31 39.08 40.34
50.27 50.00 50.05 50.24 51.37 51.94 53.13 52.07 48.73 42.50 33.33 38.08 40.20 43.35 44.22 44.90 45.57 45.06 45.72 46.58 46.79 47.70 43.68 39.48 37.02 35.79 36.10 36.27 37.64 36.20 36.49 32.59 27.86 30.89 28.42 31.20 35.97 36.10 37.89 37.62 38.63 41.54 40.46 41.05
49.29 49.38 49.78 50.10 50.62 51.45 52.84 52.57 50.39 46.80 39.39 38.33 43.63 43.85 44.34 40.47 40.61 41.50 43.91 47.09 46.89 43.12 36.00 35.20 32.89 33.00 35.04 34.06 37.16 38.54 35.36 32.51 33.94 27.31 28.58 26.26 35.03 37.75 42.52 42.09 35.30 42.13 42.22 40.48
48.96 48.91 49.11 49.61 50.35 51.38 53.52 53.11 51.73 50.07 43.58 46.18 46.26 44.05 43.46 44.02 42.58 41.06 42.59 43.75 43.97 43.22 34.27 32.75 33.53 34.04 35.32 33.00 30.85 30.30 32.76 29.81 30.26 23.19 30.28 31.24 36.58 40.36 42.21 34.13 37.02 41.56 42.14 41.84
48.72 48.88 49.02 49.61 50.21 51.25 54.01 52.93 53.51 51.16 46.97 47.94 50.10 48.10 44.79 44.69 44.99 41.71 44.20 43.34 42.74 37.42 35.67 35.24 33.62 33.85 35.05 34.18 35.03 33.66 33.53 31.38 29.26 25.04 26.42 28.62 38.48 41.07 37.95 43.06 42.44 42.59 42.81 42.88
47.08 47.77 48.94 49.79 50.34 51.13 52.86 53.01 54.42 53.27 49.30 48.44 50.75 51.08 51.14 51.17 48.90 45.91 43.88 45.34 42.89 42.21 37.32 33.69 33.39 33.15 32.97 30.63 33.49 36.81 33.16 35.83 34.33 33.37 34.67 40.19 40.79 42.73 44.00 43.12 42.91 43.81 43.47 44.07
49.04 49.19 49.23 50.39 51.25 51.35 53.31 53.71 51.72 50.39 46.48 48.14 49.33 48.75 51.97 52.36 51.38 51.86 45.60 42.40 45.62 42.19 41.60 36.40 34.40 33.95 34.05 32.58 33.12 34.66 37.33 37.70 35.78 36.08 39.58 38.49 40.39 43.03 43.41 44.23 44.49 44.65 44.84 45.44
49.07 49.54 49.72 50.58 51.24 51.67 52.65 51.99 50.05 48.54 44.56 37.55 44.62 50.46 49.18 51.04 52.05 51.22 49.72 46.01 43.72 42.35 41.03 35.95 34.57 34.97 36.05 32.64 36.20 35.69 38.24 38.38 36.81 36.43 39.56 40.73 42.23 43.34 45.39 45.52 44.51 44.47 45.14 44.89
49.92 50.32 50.63 50.38 51.15 51.84 52.95 51.32 50.73 49.37 48.26 39.62 40.90 47.26 47.83 49.60 49.78 48.06 47.91 46.68 44.67 41.98 38.57 34.98 36.69 34.76 35.99 35.13 35.43 35.03 38.94 38.67 37.46 37.19 42.44 42.67 42.65 43.99 44.63 44.87 45.40 46.24 44.88 42.30
48.95 49.53 49.88 50.85 50.36 49.17 49.54 47.29 50.26 49.11 47.78 43.34 38.72 43.27 44.49 46.53 48.39 47.79 47.27 46.48 44.10 43.22 41.47 36.72 37.36 39.14 38.80 34.63 35.07 40.71 41.18 42.19 43.22 42.78 43.46 43.28 44.27 44.07 45.72 45.49 46.35 45.52 44.00 39.74
48.86 49.13 49.68 49.93 49.31 50.37 44.41 43.06 47.11 47.39 46.99 41.75 37.29 37.85 42.76 43.75 45.52 44.14 44.79 45.87 43.56 43.69 39.54 36.24 36.41 38.41 38.82 33.90 34.28 41.55 41.98 43.39 43.89 44.32 44.09 43.57 44.16 44.74 44.28 42.67 37.71 36.75 36.01 35.84
48.34 48.73 48.92 49.00 48.91 48.79 48.39 48.76 48.09 47.28 43.17 40.67 35.17 34.76 37.84 43.74 39.90 38.92 42.70 40.36 42.72 41.56 39.03 37.30 36.47 38.07 37.82 35.88 38.62 38.69 40.38 41.57 42.95 43.55 44.49 44.09 39.34 36.82 35.38 35.92 36.08 34.92 35.33 36.69
47.58 47.77 48.33 48.91 47.81 46.14 47.70 47.88 46.83 47.48 44.44 36.53 33.74 34.49 34.51 42.03 38.74 37.80 40.00 41.37 36.28 39.87 37.00 37.48 40.15 34.28 33.84 33.90 33.72 35.02 36.21 37.21 39.52 38.11 36.12 35.66 34.31 33.84 34.74 35.13 34.66 33.97 34.16 35.87
47.49 47.27 43.82 39.71 45.14 47.68 47.17 44.53 40.98 40.20 39.21 41.25 34.10 37.82 35.73 41.98 35.37 35.19 36.26 36.82 34.28 34.65 36.98 39.26 35.37 35.16 33.00 31.50 33.36 34.74 35.40 36.07 40.31 39.14 33.81 33.81 33.71 33.18 33.63 34.42 35.96 35.33 35.28 36.34
45.02 41.85 40.09 45.46 46.20 44.24 37.95 35.07 35.39 37.30 34.44 38.38 37.32 36.23 36.99 40.68 37.32 35.73 35.55 33.92 34.10 32.73 34.48 35.73 34.27 31.60 30.28 33.70 34.94 35.79 35.93 36.86 36.95 37.26 37.15 37.22 36.37 35.15 34.53 34.97 35.75 35.97 36.49 36.32
44.38 44.62 44.24 42.09 39.58 35.91 34.63 33.15 34.65 32.60 32.37 34.95 35.72 36.26 39.44 36.97 40.73 36.83 35.48 34.44 33.56 32.32 35.87 33.20 30.93 28.84 31.18 34.48 34.44 35.57 36.79 37.21 37.32 38.28 37.43 37.39 36.88 37.50 37.05 36.52 35.95 33.80 32.18 30.90
42.95 39.50 35.94 38.07 34.87 31.65 26.57 31.03 33.00 32.65 33.02 33.92 33.73 34.09 34.47 37.14 37.46 34.28 34.47 33.20 33.02 34.54 32.47 30.86 29.33 30.69 35.72 34.49 34.29 34.49 36.02 36.86 36.64 36.50 36.80 35.15 32.91 31.57 30.33 31.21 31.05 30.83 31.03 30.99
34.36 33.72 31.19 30.56 32.09 30.95 31.31 32.09 32.29 32.29 32.65 33.02 33.74 33.02 33.92 33.02 33.74 32.65 33.38 31.52 31.84 30.06 28.33 26.81 29.91 34.37 33.01 34.20 34.12 35.69 35.40 32.93 32.42 31.81 31.30 30.28 29.40 29.04 29.05 29.15 28.99 28.12 29.82 29.15
32.74 32.96 26.94 28.47 30.43 31.84 31.90 32.11 32.47 32.83 34.03 33.92 33.74 33.38 34.54 32.29 31.81 31.04 30.85 28.28 25.42 25.35 25.48 31.09 32.52 32.93 31.72 30.75 31.26 31.24 31.50 27.77 30.32 32.44 30.34 27.88 27.22 26.16 28.72 28.11 28.33 28.85 28.52 28.41
32.64 31.71 29.75 30.90 31.45 31.38 32.11 32.29 32.29 35.11 33.35 33.35 33.66 31.66 31.11 28.94 30.09 28.62 26.72 25.72 22.45 27.50 31.09 32.77 33.71 33.39 33.87 33.48 32.23 32.47 33.72 33.46 33.67 31.81 30.29 29.74 28.05 27.46 28.81 28.64 28.57 26.56 26.90 25.89
31.52 30.56 32.29 31.93 32.29 31.75 32.11 32.65 33.18 35.40 33.29 31.57 31.12 29.05 26.93 30.29 26.44 26.08 29.64 26.74 29.91 32.28 32.82 35.18 35.42 34.11 33.39 33.53 33.46 31.29 31.29 32.27 31.72 30.90 30.34 28.97 27.20 26.75 28.31 27.13 28.31 28.26 29.00 28.95

GFSNW_sfc_wetblb_006.txt.gz
Wetbulb
52.49 53.39 52.72 52.33 52.12 51.34 51.42 54.76 48.32 58.36 59.01 50.97 50.47 47.16 47.61 47.71 50.71 50.55 49.71 49.30 47.78 46.84 47.58 46.03 45.90 45.04 47.34 50.16 50.08 46.83 47.67 46.85 42.15 43.41 46.42 47.55 46.88 44.67 43.91 38.96 35.99 38.91 38.31 39.01
51.89 52.83 52.32 52.04 51.38 51.84 52.05 51.12 54.02 57.37 54.66 46.07 47.76 47.32 48.03 50.41 49.12 48.93 49.68 48.44 49.71 49.82 48.12 44.96 47.16 47.41 47.84 48.76 49.40 48.24 48.18 45.16 39.45 40.48 43.95 46.06 44.57 45.12 43.68 42.69 42.01 37.12 37.66 39.25
51.49 52.56 51.89 51.62 51.28 52.12 56.49 53.14 49.53 53.72 51.93 51.68 48.81 46.41 46.54 46.00 50.24 49.60 50.23 49.64 51.02 49.57 47.35 48.54 46.47 46.88 47.14 48.47 48.76 43.86 47.62 45.51 43.33 39.75 41.12 44.54 42.07 43.63 44.08 43.47 38.92 38.71 39.69 41.09
50.60 52.06 51.60 51.07 51.18 51.73 55.32 53.87 50.92 53.05 47.29 47.30 48.66 48.77 47.37 45.46 46.62 50.22 50.86 49.09 49.87 49.11 45.79 46.03 46.07 47.62 46.11 47.88 45.64 48.13 48.54 43.26 42.68 41.83 41.86 41.76 42.17 43.00 43.01 41.73 43.00 39.19 41.15 41.47
49.32 51.49 50.85 50.71 50.96 51.91 53.74 51.51 50.77 51.53 50.37 48.91 47.47 45.02 45.71 45.62 47.78 49.34 48.38 48.79 49.85 50.52 47.61 48.33 46.39 47.92 47.29 46.87 48.08 47.91 45.65 42.92 41.08 39.29 40.89 40.86 40.04 42.72 43.82 43.78 43.81 42.74 43.17 42.64
51.07 50.96 50.42 50.42 50.55 52.80 53.74 56.21 54.38 53.76 43.39 47.67 46.67 45.54 46.76 46.46 51.04 49.50 50.30 51.38 50.61 48.80 49.29 51.00 51.56 50.36 49.88 49.47 48.22 46.06 44.65 41.35 39.01 36.93 37.87 38.37 36.41 40.79 42.87 43.47 45.03 44.31 41.11 45.63
51.20 50.53 49.89 50.06 50.73 54.00 57.96 58.54 56.08 51.75 45.07 47.25 46.25 46.56 47.44 49.57 51.01 49.90 49.81 51.86 51.11 49.68 52.39 52.37 51.42 49.88 48.31 47.64 45.14 45.71 40.18 40.09 38.71 37.88 34.09 32.42 41.42 43.79 43.40 43.70 44.68 45.88 45.57 46.20
50.20 49.76 49.73 50.13 50.92 52.55 58.79 59.23 56.44 51.92 41.21 48.28 46.72 47.27 47.30 49.79 50.57 50.19 50.43 50.44 51.53 53.26 50.76 48.17 43.96 44.53 43.75 43.32 43.63 43.08 43.85 41.59 35.97 37.36 35.69 39.08 40.52 40.50 40.96 41.40 41.99 46.51 45.69 46.80
48.72 48.93 49.39 50.12 50.99 52.21 60.00 60.31 59.40 56.57 49.01 46.77 49.27 47.91 49.81 49.04 49.96 49.46 47.60 50.54 52.56 49.72 49.02 46.34 41.42 39.30 40.93 39.48 41.54 43.60 41.30 41.37 41.86 35.54 36.29 34.09 40.34 42.21 46.49 45.92 39.04 46.36 46.74 46.81
48.77 49.09 49.36 50.07 50.74 52.07 59.15 59.85 58.22 56.64 50.64 51.77 51.60 48.70 48.72 52.28 51.70 50.13 48.40 48.25 48.37 48.79 46.34 43.67 43.93 41.86 41.78 39.15 37.14 36.16 39.29 39.13 37.70 36.36 37.22 39.23 42.85 44.32 46.36 36.38 39.69 47.30 47.91 48.21
49.14 49.24 49.49 49.73 50.58 51.46 57.68 59.04 59.47 59.34 54.84 52.34 53.38 53.37 51.30 50.43 53.03 49.93 49.72 49.16 48.59 47.87 45.82 46.26 43.81 42.81 42.34 40.93 41.31 39.66 39.42 38.53 37.29 34.77 35.34 33.58 43.68 44.66 41.20 46.60 49.02 48.48 48.67 49.61
48.60 48.89 49.29 49.71 50.41 51.42 55.33 58.48 58.85 60.08 56.72 53.95 55.97 55.16 55.10 55.36 56.90 54.15 51.86 52.14 50.61 52.08 48.23 46.01 44.44 38.88 37.10 40.63 40.10 42.15 39.01 43.01 42.53 40.96 42.40 45.30 46.83 48.69 49.91 48.66 48.50 49.28 49.25 50.05
48.10 48.35 49.28 49.62 50.52 51.60 55.36 58.78 58.52 58.41 55.70 53.84 54.65 53.08 55.47 56.64 55.94 57.78 52.43 51.90 52.23 50.47 50.90 48.42 46.57 38.41 44.28 37.58 41.70 41.96 43.31 43.34 42.56 40.83 44.59 45.56 46.69 48.48 49.07 49.38 48.96 50.35 50.68 50.23
48.12 48.28 49.34 49.40 50.53 52.17 55.20 58.20 56.79 58.20 54.83 44.03 51.11 54.77 53.25 55.21 56.04 55.56 55.56 53.99 51.42 50.22 52.03 48.84 41.81 42.52 44.68 43.56 43.73 44.17 45.29 43.76 42.95 42.73 45.58 46.81 47.62 48.49 49.18 49.59 50.90 50.54 51.25 50.81
49.12 49.06 49.79 50.29 51.29 52.17 56.16 56.16 55.66 56.06 55.38 47.74 50.85 52.25 52.68 54.22 53.91 53.41 54.07 53.47 52.56 51.69 48.61 42.94 46.26 44.89 44.37 43.01 43.71 43.24 44.93 44.91 42.90 42.56 47.07 47.12 47.63 49.14 49.88 49.41 50.09 50.54 49.92 49.85
49.56 50.16 50.75 51.33 51.63 52.61 59.21 51.33 55.56 53.80 56.32 53.57 48.03 50.82 50.20 52.38 53.87 53.14 52.01 52.32 51.87 52.21 51.28 46.76 46.08 44.05 46.89 39.81 42.62 46.49 46.22 47.57 47.90 46.03 47.97 48.01 49.08 50.04 50.15 49.58 47.34 47.70 46.40 45.67
49.65 49.82 49.54 49.23 49.94 55.33 53.98 51.63 52.17 49.37 53.46 52.51 46.93 47.86 49.44 49.11 51.41 49.58 52.14 52.56 50.85 52.80 48.98 45.38 46.76 45.80 47.17 39.32 42.72 44.00 44.26 45.30 47.14 48.53 48.48 47.63 47.33 45.27 44.44 43.32 41.68 41.27 41.68 41.59
48.93 49.05 49.09 49.29 49.49 51.19 53.27 53.65 49.85 48.63 51.54 52.78 44.79 43.55 47.60 49.27 47.53 45.26 47.30 46.52 51.19 46.15 43.81 41.96 42.09 42.60 45.05 41.66 42.32 41.54 42.31 43.36 45.95 43.82 46.31 46.17 43.17 40.71 39.32 41.19 42.46 40.26 37.77 36.91
47.95 48.60 49.08 53.91 51.70 52.93 53.15 47.94 47.84 53.76 52.91 47.43 46.30 43.31 40.58 47.55 41.88 43.52 45.42 47.99 40.75 44.31 40.92 41.73 45.09 38.30 38.47 35.97 36.38 38.92 39.67 39.91 41.16 41.36 42.18 40.66 37.61 37.01 37.02 37.47 37.25 35.89 35.60 36.21
48.33 51.82 50.81 47.58 49.60 47.26 48.28 50.59 50.47 49.46 48.21 46.15 37.51 42.33 40.09 45.18 40.77 40.04 41.68 44.07 38.89 39.45 41.39 42.49 40.50 37.14 34.69 34.80 36.32 38.39 39.87 41.59 44.45 41.47 38.44 37.26 36.46 37.07 37.17 36.43 37.03 37.17 37.13 38.07
51.33 48.64 46.12 51.10 47.37 50.46 45.97 42.20 42.59 44.01 40.98 41.80 40.15 40.88 40.70 44.44 41.27 39.07 40.91 37.32 39.33 35.51 40.15 38.93 37.48 34.42 34.25 37.19 37.08 38.39 39.80 40.44 41.13 41.15 40.35 39.72 38.03 36.85 37.34 37.41 38.57 38.89 38.85 38.42
49.25 49.29 48.34 48.44 45.61 43.84 37.36 36.09 39.50 39.68 37.90 38.63 40.08 39.76 42.19 41.21 44.04 41.48 39.04 37.14 37.13 33.76 40.27 36.52 34.33 32.72 33.60 35.00 35.67 37.21 39.14 39.92 39.77 40.51 39.14 39.54 39.71 40.09 39.55 38.58 36.64 34.23 33.51 33.56
49.22 45.88 40.40 42.96 38.83 34.60 35.87 32.23 34.56 34.71 35.69 35.46 35.65 35.66 39.29 41.58 43.72 37.51 39.48 36.42 35.33 39.87 34.86 33.62 32.90 33.11 35.10 35.35 36.31 37.40 39.05 39.54 39.57 39.23 38.71 36.93 35.49 34.98 34.13 33.85 33.44 33.88 34.65 34.43
39.42 37.13 34.06 34.79 33.88 34.24 32.96 34.60 34.42 33.34 33.70 36.24 38.05 35.51 39.68 35.69 37.14 36.05 36.60 32.79 34.01 31.59 30.79 31.17 31.30 34.30 35.73 36.69 38.68 38.95 38.15 35.74 35.14 35.74 34.80 34.58 33.07 33.23 32.79 32.25 32.25 32.43 32.43 33.32
35.66 37.65 30.78 31.33 32.23 33.34 32.43 32.79 33.88 34.41 35.80 37.14 37.67 37.13 38.89 34.42 33.70 33.15 32.61 31.16 30.93 32.22 32.06 32.49 33.85 34.15 36.97 37.35 37.12 36.31 37.41 33.77 34.88 36.98 34.87 33.70 33.75 33.15 33.19 32.79 32.76 32.54 31.69 31.33
34.80 33.65 32.04 32.43 32.61 32.07 32.43 32.61 32.61 36.05 35.33 36.95 36.60 32.97 32.61 31.07 33.52 32.07 31.69 31.45 29.74 31.61 33.26 33.17 34.39 34.42 36.28 35.79 35.45 36.48 36.88 36.22 37.06 35.13 34.31 33.53 31.80 31.34 32.44 31.38 29.62 29.71 29.63 29.15
33.83 32.07 32.25 32.43 32.25 31.89 32.07 32.43 33.15 35.84 34.24 32.07 34.24 32.61 30.41 33.61 31.95 30.62 33.68 31.67 33.49 33.15 33.62 35.35 36.91 37.26 37.56 38.23 37.19 35.54 35.19 35.40 34.84 33.66 32.59 30.78 30.39 29.68 29.13 27.69 27.79 28.01 28.82 28.37

GFSNW_sfc_wetblb_009.txt.gz
Wetbulb
50.65 51.81 53.11 53.19 52.40 51.68 51.51 54.13 47.97 60.55 62.45 50.26 52.10 49.00 50.32 49.32 51.42 53.48 50.64 50.58 48.28 47.37 47.80 46.37 46.04 45.64 47.93 52.67 52.15 47.18 49.56 47.69 43.74 45.22 49.23 50.26 49.55 47.32 46.86 40.64 38.94 41.59 40.26 40.13
50.07 51.26 52.47 52.67 52.01 51.72 53.75 51.62 53.37 60.18 59.49 46.87 50.55 51.43 49.97 50.46 50.90 50.80 50.36 48.42 49.96 50.07 47.88 44.90 47.16 47.81 51.55 52.38 51.78 48.94 50.85 45.90 40.92 42.53 46.45 48.24 45.54 47.35 47.17 45.51 44.35 39.64 37.77 40.47
48.89 50.87 52.04 52.45 51.66 51.86 56.58 53.11 48.84 52.72 52.82 54.99 51.05 48.91 48.35 47.75 52.46 51.19 51.86 49.73 51.46 50.36 48.42 50.36 47.91 48.68 50.00 51.59 52.06 45.50 49.38 47.19 44.21 40.33 43.39 46.89 44.11 45.04 46.48 45.07 40.60 40.76 41.57 42.58
48.69 50.67 52.07 52.10 51.42 51.73 55.12 53.86 50.54 53.57 47.98 51.21 51.70 50.99 48.99 46.96 47.35 52.03 53.14 50.88 50.03 48.96 46.24 47.99 47.91 50.67 49.08 50.39 46.65 49.50 50.70 44.55 46.19 46.75 45.96 45.17 44.92 44.85 45.43 43.67 44.08 41.59 42.94 42.12
49.30 50.21 51.34 51.41 51.37 51.63 52.83 51.46 51.78 54.31 52.98 52.66 50.83 47.63 47.70 47.48 49.10 50.58 49.84 49.26 50.11 50.79 48.22 49.06 47.06 50.43 50.01 49.03 50.94 50.50 50.77 45.17 45.27 42.97 45.88 44.92 43.23 45.04 44.65 45.03 45.10 44.18 44.26 43.61
49.68 49.77 50.36 51.18 51.26 52.15 52.75 57.44 57.44 55.51 49.38 51.78 49.13 49.16 48.29 48.61 51.62 52.44 52.89 51.66 51.45 49.87 51.75 54.68 54.68 54.80 53.82 53.04 51.12 49.70 48.46 45.94 42.01 38.53 42.15 42.54 37.62 43.01 44.91 45.23 46.36 45.63 42.53 46.48
49.55 49.25 47.89 50.93 51.08 52.83 56.61 57.64 57.25 50.97 48.04 51.29 48.71 48.94 49.37 49.05 51.16 50.91 52.50 53.98 52.27 53.49 56.28 55.60 54.50 52.81 51.41 50.48 49.82 52.09 45.72 45.15 43.20 39.40 36.25 31.17 43.26 46.84 45.99 45.32 46.66 47.76 47.15 47.74
48.37 48.71 48.21 50.74 50.69 51.58 58.07 60.86 57.84 53.95 46.29 50.24 48.92 48.90 48.54 50.72 53.01 53.09 53.04 53.48 55.71 56.75 54.74 49.29 45.60 45.95 45.51 45.51 46.87 46.50 48.60 45.75 39.80 39.02 37.53 41.05 42.48 43.66 43.26 42.85 43.13 47.70 46.91 47.49
48.15 48.23 48.77 50.31 50.37 51.52 56.57 58.95 62.40 57.33 51.37 49.70 51.11 49.04 49.43 50.31 51.30 51.69 50.57 54.38 56.87 54.58 53.61 49.09 41.78 39.97 42.99 42.29 44.57 46.74 44.88 45.76 42.99 38.34 35.69 32.85 42.79 45.47 48.54 47.78 40.04 47.43 47.54 47.30
48.72 49.61 49.53 49.83 50.19 50.95 56.17 61.18 63.18 56.96 50.80 52.85 52.67 49.25 48.93 51.99 52.54 51.96 51.30 51.33 50.85 53.19 50.15 44.45 44.11 42.78 45.88 40.68 39.27 38.35 41.20 42.00 39.27 38.97 38.14 41.38 45.87 46.48 48.33 37.82 41.57 48.45 49.10 48.61
48.41 49.25 49.23 49.29 49.89 50.46 53.75 61.63 63.50 58.24 52.83 54.32 54.36 53.79 52.11 52.33 52.95 51.58 53.12 51.21 51.71 51.23 46.84 47.03 46.67 45.22 45.82 44.11 45.03 42.87 41.51 40.48 39.62 40.59 35.75 34.01 46.74 46.66 42.37 48.41 50.10 49.84 50.22 50.27
48.61 48.86 48.88 49.08 49.66 50.26 52.44 59.99 62.89 64.59 56.22 56.28 58.62 58.94 58.62 57.67 57.36 56.05 54.52 53.56 53.17 53.84 51.22 49.77 50.92 42.90 40.69 44.99 40.65 46.94 41.85 45.57 44.75 43.49 43.94 48.49 49.24 48.30 50.39 50.88 49.89 49.99 50.07 50.67
48.13 48.36 48.76 49.28 49.83 50.43 53.14 61.85 62.10 61.19 58.09 55.78 55.26 54.50 57.56 59.17 59.44 61.03 54.51 56.70 57.11 55.61 58.20 53.73 51.99 42.28 48.36 40.25 44.91 46.04 47.01 47.38 44.67 43.51 46.11 47.28 48.58 50.15 50.62 50.78 50.54 51.62 52.10 52.02
48.42 48.49 48.74 49.33 49.89 50.57 52.45 61.37 63.26 60.16 57.26 49.95 53.21 57.80 55.94 57.79 58.69 59.05 59.36 58.68 57.43 56.64 56.76 53.70 45.18 44.73 50.31 47.65 47.91 46.44 48.16 47.26 45.04 45.11 47.27 47.89 48.80 49.88 50.55 51.14 52.16 52.16 52.97 52.52
48.31 48.77 49.24 49.59 50.31 51.26 57.23 60.92 59.90 61.36 57.00 49.04 52.41 55.67 55.31 56.91 57.67 57.39 57.54 57.04 55.41 54.13 51.48 45.27 49.10 49.82 48.78 48.57 47.97 46.21 48.46 45.62 44.58 43.20 48.44 48.51 48.80 51.30 51.94 51.06 51.04 51.27 50.59 50.31
47.99 48.45 49.34 49.78 50.83 53.05 59.11 56.34 58.53 57.63 60.41 54.65 49.38 55.10 52.99 56.01 57.00 56.68 56.38 56.83 56.47 56.32 53.59 50.06 51.45 49.67 50.53 42.99 43.76 47.87 49.17 49.73 49.84 47.82 50.67 50.51 51.11 51.23 49.60 47.62 46.93 46.60 45.74 45.31
48.26 48.78 49.51 50.38 51.01 59.11 55.10 52.76 55.00 52.82 60.06 54.67 49.11 50.26 52.69 53.68 55.32 55.04 55.00 56.21 55.31 55.99 53.25 51.55 50.82 49.34 50.00 43.61 43.07 47.19 46.72 47.14 49.02 49.61 50.49 49.46 46.93 45.33 46.09 45.43 45.25 43.65 42.82 42.12
49.10 49.37 49.86 50.13 50.14 50.22 55.18 52.07 49.23 51.05 55.33 55.15 47.33 46.59 50.87 53.48 51.51 50.36 53.38 53.27 54.82 51.09 48.60 48.40 48.66 47.69 49.61 44.33 45.66 44.83 45.25 46.77 47.23 46.10 48.38 46.21 45.26 44.62 43.56 43.31 40.93 38.53 37.56 37.37
49.49 49.88 50.18 56.94 56.05 55.90 53.07 47.36 48.71 55.30 53.27 50.09 48.89 43.32 41.84 51.80 46.56 48.13 50.25 53.20 46.04 48.95 42.71 45.88 48.17 41.32 41.70 41.44 41.68 42.90 43.26 43.71 44.47 44.99 44.73 43.68 41.54 40.30 39.40 38.90 38.34 36.51 36.72 38.82
49.06 55.87 53.92 51.72 53.11 47.25 49.24 49.64 51.35 52.36 52.48 50.44 41.57 48.64 43.93 49.64 44.92 42.48 45.20 44.54 42.78 40.48 43.47 46.54 42.96 41.54 40.43 40.25 41.76 43.22 44.49 45.62 46.16 41.87 40.31 40.72 39.88 38.51 37.98 37.41 38.50 38.85 39.36 39.08
55.46 51.72 46.15 52.53 48.46 53.09 49.64 45.17 46.33 47.44 43.63 44.21 42.65 44.46 44.43 47.82 42.93 39.23 43.10 40.12 41.95 37.59 42.16 40.53 39.60 37.24 38.26 40.92 41.58 42.35 43.01 44.19 44.03 43.87 42.75 41.48 39.77 38.76 38.13 38.50 39.18 38.57 37.16 36.39
51.37 52.13 51.90 51.93 49.11 46.46 39.81 38.77 41.49 42.39 39.44 39.89 40.76 41.06 43.73 43.73 48.34 42.75 42.53 38.15 39.45 35.83 43.33 38.89 35.51 35.30 37.27 37.31 38.31 40.64 42.14 42.21 41.44 41.44 40.47 39.88 39.67 39.82 37.43 36.30 35.32 34.38 34.17 33.14
54.00 48.86 42.46 45.08 41.02 36.50 34.87 33.24 36.36 34.95 38.13 37.41 38.48 37.32 42.90 43.77 45.22 41.08 40.78 35.03 37.77 42.65 37.43 36.12 36.20 35.59 35.76 36.76 38.22 39.82 41.41 41.79 41.17 39.89 39.20 38.02 36.29 35.86 36.14 34.69 32.65 34.03 35.84 36.34
42.79 39.74 34.69 36.50 34.32 33.96 33.42 34.69 34.32 34.14 34.87 38.85 40.78 38.49 40.29 39.93 38.13 37.40 35.77 34.32 38.50 34.14 32.49 33.88 34.54 34.79 36.21 37.81 39.18 39.73 38.95 37.68 37.28 36.97 36.10 35.20 33.83 32.83 32.51 32.48 33.01 32.46 31.71 33.42
36.13 38.45 32.13 32.15 33.05 33.42 32.87 33.24 34.50 35.03 37.43 39.74 41.47 40.97 42.77 36.86 35.77 36.14 35.23 32.15 32.80 34.22 33.16 33.84 34.35 35.32 37.00 38.22 39.23 38.95 35.83 34.74 37.74 38.07 34.92 33.96 34.74 33.39 31.67 30.90 31.16 31.01 30.83 30.57
36.23 34.32 32.51 33.24 33.24 32.15 32.51 32.69 32.69 36.23 36.86 40.06 41.48 35.77 35.05 33.24 35.23 33.96 33.57 33.84 32.90 33.02 33.73 34.59 34.81 36.10 38.20 38.01 37.79 38.96 38.75 37.70 38.26 36.89 35.23 33.25 31.46 31.56 30.93 30.86 29.75 31.31 29.99 28.44
35.21 32.87 32.69 32.87 32.51 31.78 32.15 32.87 33.20 36.25 35.23 32.69 35.41 33.42 31.42 35.00 33.42 31.97 35.05 33.05 33.78 32.69 33.51 36.36 36.70 37.29 37.48 37.95 38.47 36.33 37.78 37.80 36.55 34.73 32.12 31.05 31.17 31.35 29.95 28.83 28.53 29.00 28.78 27.88

GFSNW_sfc_wetblb_012.txt.gz
Wetbulb
48.53 49.80 51.10 52.10 53.19 52.44 51.14 52.86 44.23 58.62 59.41 46.70 46.68 46.14 49.33 49.88 50.83 51.95 50.55 49.77 47.68 46.33 47.65 45.48 45.02 45.04 48.58 52.53 50.97 46.94 49.18 46.89 43.68 44.38 48.94 49.73 48.31 46.76 45.16 41.15 38.32 42.86 40.31 39.16
48.07 49.25 50.37 51.48 52.70 52.09 51.45 48.88 51.10 59.05 58.11 41.88 45.38 48.83 49.71 50.89 50.10 50.28 50.16 48.23 49.92 49.80 47.54 44.78 46.50 47.10 52.76 53.33 50.69 48.10 49.58 45.41 40.33 42.04 46.44 48.75 45.45 45.78 46.94 46.76 45.54 39.96 37.41 39.59
47.51 49.22 49.88 50.79 52.28 52.29 53.29 49.96 44.88 51.65 53.92 51.56 48.27 47.59 47.33 47.60 52.46 50.52 51.16 49.60 50.59 48.36 46.82 48.94 46.42 47.21 50.66 52.55 51.94 46.86 51.75 46.62 43.16 39.27 42.44 46.25 44.18 44.71 45.27 44.91 40.45 39.93 39.61 41.55
46.01 48.73 49.82 50.60 52.03 51.97 51.45 52.06 48.46 51.48 43.63 48.06 49.85 51.09 49.47 47.02 46.61 51.19 52.00 48.86 48.16 48.47 45.62 46.86 46.42 49.10 49.95 50.90 47.00 49.94 50.10 43.39 44.98 45.21 46.30 46.39 45.59 44.71 44.94 42.97 44.09 39.52 42.88 42.44
45.83 48.78 49.46 50.48 51.64 51.83 49.60 49.38 49.51 53.32 50.36 50.67 49.62 48.75 48.54 47.46 48.03 49.45 48.73 48.54 49.37 49.86 47.54 47.82 46.41 48.72 50.12 48.34 50.53 49.59 50.73 45.01 46.28 44.25 46.19 46.00 43.55 45.45 45.28 44.58 44.55 44.23 44.13 43.61
47.59 48.84 48.84 50.37 51.15 51.38 49.47 53.78 55.94 53.07 48.68 49.40 49.06 49.32 49.74 48.96 50.64 51.70 52.27 51.01 50.10 49.08 51.68 53.97 54.68 54.94 54.35 53.06 50.60 49.19 49.29 47.15 43.17 39.34 42.40 41.87 36.44 43.01 44.31 45.47 46.00 45.21 41.38 46.20
48.20 48.63 48.81 49.81 50.55 51.08 53.14 54.83 56.26 49.58 46.81 48.79 49.40 50.64 50.78 49.35 50.41 50.70 52.67 53.56 52.01 54.27 57.05 56.36 54.84 53.15 52.14 52.30 51.33 53.11 47.20 45.92 43.74 39.96 36.39 31.51 42.64 47.55 46.67 45.01 46.16 47.09 46.65 47.61
48.18 48.69 48.71 49.83 50.44 51.20 52.59 57.43 55.22 51.28 45.28 50.82 50.41 51.47 51.69 51.16 51.76 52.17 52.40 54.45 56.48 58.06 54.88 49.28 45.27 46.59 44.23 46.03 48.08 48.45 50.41 46.69 41.66 37.28 36.82 40.25 42.49 44.45 43.63 42.84 42.95 47.21 46.26 47.07
48.03 48.30 48.34 48.37 49.07 51.13 52.01 54.94 58.34 55.40 50.80 50.26 52.63 50.59 51.63 49.31 51.42 51.97 51.21 55.95 59.11 57.52 54.65 49.91 41.62 39.87 42.43 41.85 43.80 47.18 46.33 48.00 44.88 39.06 36.34 32.84 43.40 46.13 48.48 47.53 39.19 47.04 47.41 47.10
47.91 48.10 48.20 48.00 47.83 49.81 51.85 52.97 57.85 56.28 52.01 54.76 52.97 50.08 49.47 52.68 53.84 51.28 51.73 51.55 51.57 55.16 50.35 42.38 46.02 44.02 46.25 41.07 39.80 37.69 41.19 42.78 37.88 38.88 37.88 40.91 46.68 47.34 48.03 38.36 41.17 48.62 48.93 48.80
47.66 47.50 47.46 47.71 47.65 48.68 50.86 52.70 57.17 57.02 52.49 54.38 56.39 55.67 52.21 53.22 54.62 50.87 53.04 50.98 52.40 53.69 47.49 46.06 48.25 44.64 47.14 45.39 45.28 42.17 40.76 40.55 38.60 41.82 35.27 32.71 47.60 46.45 42.28 48.82 51.74 50.02 49.92 50.40
47.67 47.44 47.52 47.57 48.00 49.62 50.74 49.93 56.18 61.15 56.59 55.38 60.55 59.03 59.22 57.93 56.95 55.77 55.18 53.71 52.96 53.94 51.43 49.56 51.53 40.36 39.97 43.16 40.82 48.03 42.27 46.24 45.23 43.06 42.62 49.85 49.51 49.01 51.09 51.93 50.72 50.11 50.26 50.51
47.87 48.23 48.47 48.81 49.33 49.74 50.77 52.03 55.79 60.52 57.26 55.49 55.15 54.48 58.56 60.45 59.63 62.22 54.33 56.03 57.77 56.75 59.82 55.53 53.10 40.46 48.84 39.21 45.57 47.57 47.91 49.07 46.20 45.68 46.22 47.33 49.03 50.04 51.03 50.48 50.90 51.15 51.67 51.86
47.71 48.14 48.73 48.96 49.25 49.47 50.57 51.72 57.25 60.04 57.38 46.93 52.81 58.55 56.76 58.75 59.43 60.40 60.56 59.99 60.47 59.83 58.44 54.93 43.94 43.56 51.75 47.80 49.71 49.11 48.65 47.74 45.09 45.12 47.49 48.50 48.66 50.48 50.88 51.14 51.86 52.08 52.26 51.33
48.35 48.33 48.71 48.96 49.25 49.66 51.81 53.67 57.40 61.20 55.67 49.72 52.39 55.92 56.29 57.59 58.24 58.23 58.92 59.08 58.04 55.97 51.77 43.25 49.97 51.96 50.13 49.87 50.13 48.09 48.83 46.70 45.85 44.25 48.52 48.44 48.79 50.72 51.23 49.81 48.45 48.20 47.93 45.96
47.97 48.47 48.93 48.96 49.44 50.49 53.70 51.85 59.26 60.49 62.08 55.15 48.55 54.65 53.95 56.30 57.43 57.11 56.51 58.13 57.62 56.84 53.59 50.66 52.35 51.75 51.67 43.46 44.71 48.31 49.48 49.94 49.67 47.87 50.42 50.20 49.70 48.31 47.45 46.01 45.95 45.90 44.86 44.52
47.68 48.07 48.87 49.55 49.74 55.52 53.31 50.87 52.72 50.91 61.50 55.09 47.97 47.67 52.60 56.35 56.43 55.92 55.61 57.21 56.58 55.77 53.95 52.57 50.48 49.52 50.37 42.35 44.23 47.07 47.19 48.01 48.12 49.01 49.69 46.46 46.74 43.84 46.35 44.19 43.05 41.90 41.25 40.49
48.19 48.76 49.17 49.95 49.33 50.31 52.90 52.98 51.16 51.89 55.08 52.89 46.40 42.01 49.22 54.47 52.52 50.44 54.70 54.31 54.45 51.48 48.75 50.76 50.16 48.00 51.24 45.01 45.75 46.03 45.92 47.57 46.51 46.72 47.05 45.49 45.55 44.88 42.47 41.86 40.37 38.30 37.71 38.31
48.68 49.07 49.29 53.28 55.16 55.05 53.90 48.48 50.04 58.88 54.61 43.51 47.47 41.18 40.02 52.38 47.93 49.06 51.31 53.21 47.29 49.58 43.61 49.26 48.72 42.16 42.08 44.83 44.56 44.05 44.68 45.73 45.10 45.32 45.09 44.06 41.91 40.52 39.82 39.29 38.67 37.76 37.46 37.98
49.40 53.31 54.24 49.30 50.92 49.39 49.52 53.12 50.43 50.12 49.27 49.34 43.46 46.82 43.83 47.94 43.26 42.17 44.15 45.42 45.12 40.02 43.57 46.92 44.73 41.91 42.42 42.94 44.31 45.06 45.27 46.95 45.64 41.41 39.57 40.27 38.98 38.11 37.57 37.81 38.53 38.05 37.75 37.11
56.59 52.90 47.95 51.87 49.35 52.84 50.26 44.46 45.52 42.92 40.51 44.44 44.03 44.54 44.10 48.48 42.44 39.10 43.13 40.93 41.83 37.47 41.36 41.26 38.90 37.42 39.94 42.78 42.44 43.76 44.83 44.96 44.59 43.54 42.39 40.71 38.99 37.65 37.89 37.04 36.91 35.55 35.17 32.93
53.44 52.85 52.99 52.35 49.03 46.55 38.72 38.17 41.32 41.72 39.77 39.49 39.69 42.92 44.35 44.97 49.05 41.84 41.24 37.30 40.02 36.23 42.46 38.23 35.65 38.07 39.95 39.60 40.14 41.90 42.87 42.45 41.07 40.88 39.68 39.60 38.93 38.17 36.40 35.02 34.06 32.77 32.50 31.43
54.48 48.94 41.10 44.81 40.77 35.67 34.76 32.75 36.16 35.33 36.03 37.04 38.67 36.87 43.16 43.86 45.07 40.59 39.71 34.94 35.85 43.23 35.48 35.09 36.38 37.29 37.76 38.83 40.48 40.69 41.57 41.71 40.43 38.41 37.75 36.47 35.46 35.46 33.79 32.12 32.04 33.82 33.91 32.32
43.21 38.21 33.49 34.94 33.49 33.13 32.95 33.13 33.31 33.49 33.67 36.57 40.02 37.66 39.11 38.75 36.03 36.94 35.12 34.22 38.72 33.67 32.56 33.92 34.52 35.65 36.53 38.19 40.10 39.53 37.71 35.48 35.68 35.73 34.50 33.10 31.67 31.07 31.65 31.56 31.58 30.97 29.68 30.07
36.93 37.68 31.30 31.30 32.39 32.95 32.77 32.95 33.86 34.57 37.54 38.02 41.44 40.55 40.84 36.21 34.22 35.49 34.40 32.59 32.59 33.31 33.24 34.14 35.13 36.31 37.05 37.95 38.89 36.17 35.20 34.70 35.44 34.96 33.12 32.23 31.74 30.68 29.77 30.11 30.35 30.16 28.30 27.80
34.74 33.22 32.04 32.59 32.77 32.03 32.22 32.22 32.59 35.98 36.57 40.69 41.38 36.94 34.76 32.95 34.94 34.58 33.31 33.88 32.67 32.22 32.95 33.57 35.18 35.37 36.56 37.91 37.12 35.69 37.02 37.58 35.79 34.57 32.54 31.81 31.36 30.85 29.96 29.45 29.29 27.39 26.71 24.22
33.49 31.86 31.86 32.41 32.19 31.48 31.86 32.41 32.92 36.64 36.39 32.95 36.00 32.95 30.58 34.92 33.12 31.58 33.09 31.12 32.41 32.04 32.69 34.58 35.69 35.58 36.28 37.71 36.75 36.45 37.04 36.36 35.09 32.87 31.86 30.54 31.21 30.89 30.31 28.26 28.12 29.13 28.44 24.84

GFSNW_sfc_wetblb_015.txt.gz
Wetbulb
46.87 47.79 49.26 50.27 51.51 52.51 51.28 50.19 41.98 51.50 54.86 43.71 43.89 39.66 45.10 47.56 49.26 51.45 49.55 48.28 45.61 43.33 45.20 42.71 41.56 42.33 46.71 51.24 48.44 44.54 46.02 42.51 34.43 41.42 46.68 47.01 44.42 42.23 41.55 29.99 31.76 31.83 29.32 32.33
46.95 47.60 48.99 49.83 51.01 52.06 49.58 46.65 47.08 53.61 51.32 36.64 38.73 42.47 45.33 48.60 48.47 48.37 47.74 47.12 47.68 47.61 44.97 41.38 42.91 45.90 50.26 50.75 48.39 44.94 45.96 38.81 29.70 35.67 42.09 45.32 41.59 42.93 43.01 42.75 35.77 31.76 25.57 31.30
47.00 47.78 48.23 49.71 50.32 52.07 50.54 47.37 41.35 48.55 49.49 46.12 41.69 40.25 42.02 44.11 50.50 49.37 50.13 48.28 48.56 45.67 44.40 46.12 43.49 45.24 49.80 50.33 48.32 45.79 47.81 42.68 36.46 30.60 37.16 42.09 39.45 42.28 42.36 40.29 29.80 30.34 31.51 37.15
46.97 47.29 47.59 49.00 49.94 51.47 50.43 47.60 42.13 47.96 42.27 43.67 43.45 43.73 44.10 43.85 44.89 49.53 50.14 46.52 46.47 44.68 39.80 42.96 42.15 46.38 47.01 49.38 47.03 47.03 45.40 38.04 39.68 41.82 44.08 44.38 42.68 42.93 42.54 38.97 39.42 33.18 36.77 39.13
46.47 46.83 47.18 47.95 49.44 51.24 47.82 44.74 43.98 47.61 44.20 46.28 44.45 43.21 43.53 44.43 46.08 47.37 46.05 45.86 46.33 45.50 42.55 44.64 42.47 46.46 45.84 44.67 46.34 44.32 45.76 37.71 38.30 36.82 43.29 42.26 39.61 41.82 41.88 41.74 41.48 39.78 39.89 38.88
46.52 47.14 47.00 47.25 49.34 50.66 46.18 46.75 49.57 48.76 45.39 44.35 42.68 41.97 45.74 45.93 48.09 49.01 49.36 48.50 46.70 44.59 47.84 49.39 49.99 49.66 49.59 48.88 45.37 42.78 42.20 36.80 33.41 31.44 37.12 36.40 29.44 37.19 40.77 41.82 42.69 40.79 35.29 40.40
46.70 46.92 46.88 46.93 49.10 50.24 48.91 47.19 49.30 46.92 41.33 44.08 43.19 46.07 48.45 47.18 47.90 47.17 49.26 49.73 46.55 50.46 53.13 51.40 49.68 48.30 49.37 49.43 49.02 48.85 39.72 37.90 32.77 29.43 29.75 21.33 37.99 44.32 43.09 41.95 42.27 42.07 42.23 42.89
46.62 46.79 46.42 47.60 48.85 50.51 47.24 49.97 50.47 48.18 37.51 45.60 45.02 47.12 47.67 49.78 49.93 48.17 50.54 52.28 52.94 53.33 50.04 42.62 39.06 35.42 35.55 40.52 46.53 46.60 46.80 36.51 32.37 27.28 27.62 34.14 38.56 41.56 41.03 38.75 38.00 42.85 41.58 42.71
45.93 46.10 47.00 48.21 49.04 50.68 48.52 47.73 50.55 50.98 46.55 44.52 48.45 47.02 48.82 45.49 43.58 46.30 49.22 52.78 53.16 53.64 45.68 35.93 32.79 30.83 35.81 35.50 39.97 44.62 43.10 39.32 31.79 29.07 25.69 21.16 35.88 42.75 45.55 44.02 31.71 43.84 43.82 42.95
46.33 46.22 47.78 48.02 49.18 50.22 49.40 48.01 50.70 48.18 48.70 49.39 49.49 46.98 47.28 49.13 47.65 44.90 49.10 48.48 46.55 51.01 35.14 35.00 30.88 32.13 42.53 34.16 33.48 31.86 31.01 31.20 28.22 25.42 23.48 31.14 43.61 44.45 44.89 30.61 33.05 44.16 44.60 43.90
46.91 47.55 47.91 48.55 49.08 49.38 49.69 48.04 51.05 50.50 49.94 49.88 51.82 52.27 48.71 48.37 48.41 42.57 48.92 45.73 45.49 40.18 37.09 35.00 33.29 32.51 35.18 35.03 40.51 36.45 33.16 30.79 28.22 31.68 28.91 27.02 44.79 43.03 35.68 41.13 43.69 44.55 43.97 43.69
46.67 47.66 47.67 47.83 48.05 48.04 48.40 45.78 51.75 53.39 48.94 51.87 55.75 55.69 55.15 55.20 54.43 50.46 48.13 46.30 47.76 47.33 41.33 39.49 37.14 33.14 34.28 33.72 30.10 43.43 34.20 38.73 33.96 35.96 33.82 42.85 43.62 43.47 46.33 45.52 44.25 43.95 44.48 46.17
47.13 47.67 47.65 47.80 48.02 48.24 48.03 46.92 51.27 52.01 49.61 50.49 53.01 52.00 54.20 56.49 57.13 57.68 48.18 49.82 52.21 50.22 51.32 43.58 40.25 35.41 34.08 32.81 33.22 37.09 42.40 44.88 37.12 37.62 41.65 43.45 44.37 45.04 46.40 46.94 46.66 48.02 46.57 46.00
47.27 47.31 47.29 47.39 47.77 48.32 48.74 46.70 51.02 51.58 50.24 41.20 48.45 56.87 52.75 55.78 57.22 57.40 56.54 54.80 55.41 53.99 51.52 40.46 38.25 37.18 45.49 34.42 39.14 36.79 41.70 42.76 40.84 39.44 42.07 45.03 46.34 46.90 47.91 46.90 47.10 44.40 43.14 42.02
47.34 47.55 47.61 47.84 48.33 49.42 50.47 49.94 51.50 53.16 49.41 43.72 46.11 52.89 54.25 55.21 55.34 55.29 56.19 54.99 52.39 48.93 40.96 35.34 37.33 39.23 40.64 35.82 37.45 34.05 43.24 41.19 34.88 32.00 44.68 43.61 43.31 45.13 45.47 43.68 42.79 43.18 41.11 39.50
47.45 47.95 48.36 48.79 49.41 49.65 49.86 46.41 51.58 52.79 52.93 48.67 39.92 50.66 51.20 53.02 54.34 53.48 54.06 53.42 51.46 50.76 45.57 40.15 43.42 46.91 40.58 33.54 31.07 43.48 44.92 46.01 46.21 44.13 46.37 44.02 43.17 42.47 42.74 40.85 40.57 40.61 39.80 39.49
47.33 47.84 48.65 48.84 48.95 50.11 47.53 48.39 51.77 51.71 51.09 47.02 40.13 39.51 49.14 52.63 52.97 50.62 50.63 52.15 50.80 49.05 46.40 39.51 40.61 42.40 44.36 32.89 32.48 42.64 44.61 44.70 45.36 46.21 44.41 41.47 42.49 39.64 40.90 39.50 38.97 39.25 38.43 38.11
47.78 48.10 48.37 48.53 49.08 51.00 49.27 52.59 50.14 50.45 51.32 48.57 37.19 38.60 42.51 51.73 42.47 41.31 49.01 44.11 45.54 45.09 42.33 40.95 36.59 40.71 35.21 33.63 41.21 42.72 44.40 44.61 43.59 42.92 43.69 41.72 40.94 39.87 38.81 38.86 38.16 36.50 35.46 36.60
48.16 48.46 48.72 49.62 48.81 49.88 50.32 50.13 49.27 54.39 49.32 38.42 37.00 36.99 36.82 48.82 42.36 40.79 43.22 45.23 36.99 42.04 35.17 35.92 38.17 31.69 35.24 41.08 40.99 41.50 43.01 42.96 41.93 42.26 41.42 40.22 38.72 38.41 38.13 36.95 35.81 35.88 35.70 36.04
48.50 49.67 49.15 41.75 48.29 49.49 48.82 50.04 43.77 42.82 44.87 42.93 36.44 42.40 38.45 45.13 36.66 37.20 37.61 36.64 34.65 32.08 34.13 41.17 36.23 29.98 38.81 40.85 41.42 41.80 43.19 42.53 41.51 37.24 36.24 36.96 36.98 36.78 36.84 36.61 36.98 35.97 33.84 32.83
50.23 47.35 42.80 48.45 49.09 49.41 42.30 35.76 36.23 37.98 34.42 37.85 37.84 39.37 38.65 45.10 37.40 36.12 37.33 34.80 34.40 32.03 33.80 33.09 28.69 29.89 37.69 40.02 40.08 41.35 41.06 41.37 41.42 41.29 40.11 38.79 37.63 36.66 35.35 33.54 33.04 30.62 29.73 29.26
49.91 49.67 49.89 48.49 46.26 40.83 35.45 33.51 34.88 35.90 34.19 36.00 36.61 38.42 42.51 38.09 43.62 34.58 37.28 33.68 33.30 29.59 36.92 34.51 31.79 33.93 37.28 38.76 39.34 40.04 39.72 38.63 38.32 39.15 38.21 38.09 37.00 35.63 32.99 31.39 30.72 30.01 29.85 29.97
48.57 42.47 37.91 41.11 35.44 33.71 28.48 29.97 31.82 32.89 33.69 35.14 34.83 34.46 38.29 39.00 40.59 35.73 36.28 35.37 32.71 34.76 32.97 31.88 31.37 36.39 37.51 38.71 39.03 38.94 39.09 38.65 37.07 35.83 35.40 34.37 32.93 32.62 31.93 31.33 31.67 30.23 29.71 29.71
38.26 34.49 30.59 32.83 31.87 30.11 30.41 31.31 31.91 32.28 32.47 33.92 35.91 34.65 34.65 34.48 34.45 33.56 33.29 32.82 34.28 31.91 29.50 29.38 32.94 35.47 36.85 38.16 39.22 37.83 35.30 33.06 31.95 32.11 31.61 30.88 30.49 29.72 30.10 30.11 30.03 27.00 26.41 27.86
32.43 32.32 29.23 29.22 31.17 32.08 32.09 32.28 32.82 33.17 34.96 34.65 35.91 35.36 37.02 33.20 33.17 32.98 32.73 31.21 29.68 30.31 29.54 31.73 34.27 35.92 36.45 36.27 34.72 33.45 32.70 32.25 31.95 31.70 30.33 29.84 29.49 28.81 28.59 28.15 27.43 26.56 25.08 23.99
33.09 31.45 31.01 32.06 32.08 31.51 31.87 31.90 32.12 35.29 33.92 35.01 34.81 33.54 32.77 31.46 32.64 32.08 30.60 30.45 27.33 28.64 30.63 32.64 35.01 34.99 35.62 34.37 34.43 35.26 34.66 33.22 32.13 32.03 31.42 30.23 29.07 27.09 27.34 27.21 24.79 22.14 20.91 18.46
31.82 30.56 31.76 31.73 31.69 30.62 31.55 31.76 32.79 35.64 33.92 32.31 32.62 30.76 28.69 31.69 30.59 28.69 30.17 27.66 29.72 31.17 32.06 33.86 35.22 34.78 35.22 34.45 34.31 33.42 33.23 31.84 31.18 30.91 30.58 30.14 29.41 26.77 26.06 24.96 26.08 25.83 23.66 17.29

GFSNW_sfc_wetblb_018.txt.gz
Wetbulb
47.32 47.75 47.65 48.24 49.08 49.88 49.30 46.50 40.43 51.51 52.98 41.85 41.81 40.43 43.01 44.13 46.43 49.63 48.35 47.27 44.77 41.24 41.71 40.80 40.23 40.62 43.93 48.52 47.03 42.78 44.49 40.28 32.03 40.00 45.78 46.67 43.17 40.51 38.81 29.14 30.68 29.55 27.69 31.88
46.75 47.16 47.52 48.07 48.27 49.66 46.35 42.76 44.60 51.74 50.33 36.53 36.08 41.79 43.58 44.71 44.55 46.46 46.77 45.28 46.47 45.66 42.52 38.93 41.66 43.21 48.05 49.77 46.91 43.88 43.99 37.65 29.41 35.01 40.11 43.05 40.25 41.30 41.52 39.06 32.64 30.17 25.27 30.75
46.98 46.60 46.83 47.28 47.98 49.64 47.51 44.03 38.50 45.32 46.96 44.01 38.75 38.70 40.30 40.46 46.04 45.79 47.96 47.26 47.21 44.25 41.80 44.19 42.72 43.92 47.73 49.08 48.19 46.02 45.89 39.36 34.87 30.10 35.54 39.85 37.19 40.63 40.59 38.87 29.06 30.18 30.22 35.51
46.27 46.39 46.73 47.13 47.28 49.13 47.28 44.37 41.44 43.10 37.27 39.99 40.30 40.56 41.10 39.30 39.39 47.20 48.21 45.60 46.08 43.49 38.48 40.30 40.53 44.78 45.39 47.19 45.44 46.43 43.50 37.09 38.30 39.26 41.44 41.57 40.20 40.00 39.95 37.86 37.02 32.24 35.88 36.34
46.06 46.36 46.64 46.90 47.46 48.96 44.81 41.25 43.36 44.17 42.12 42.33 40.28 39.77 38.92 39.09 41.00 43.78 44.10 44.23 45.81 44.13 40.42 41.86 41.56 44.84 43.55 42.72 44.62 42.84 43.57 36.12 36.62 35.56 39.72 39.82 37.35 39.60 39.35 39.77 39.50 38.36 37.90 37.38
45.73 46.27 46.61 46.51 47.58 48.97 43.43 45.46 47.85 46.04 41.55 41.49 39.62 39.93 40.08 40.50 42.63 45.61 46.47 46.67 45.40 41.88 44.48 46.67 47.02 48.19 47.35 46.55 43.83 41.11 40.12 35.46 31.84 30.79 34.46 34.56 29.26 35.65 38.67 39.80 40.42 40.21 33.97 38.10
45.46 45.09 45.58 46.89 47.71 48.81 47.07 46.69 47.20 44.61 38.82 42.33 41.08 42.43 42.68 41.68 43.85 42.29 47.75 48.15 45.12 47.43 50.67 48.44 46.79 46.26 46.33 47.63 46.38 46.07 37.45 34.75 30.53 27.76 28.44 22.00 37.72 41.87 41.80 39.35 39.19 40.03 39.90 39.93
45.32 45.06 45.84 46.58 47.05 47.28 46.87 48.76 46.35 44.88 33.81 43.49 43.58 43.34 43.44 44.52 45.81 45.80 46.06 48.76 49.97 51.58 47.29 40.24 36.81 34.00 36.05 40.57 44.94 44.99 46.24 35.25 30.80 26.36 26.55 32.68 37.55 39.60 38.39 37.02 36.03 40.68 39.55 40.85
45.37 45.62 46.19 46.98 47.03 46.95 46.78 46.91 48.89 46.25 41.72 41.82 46.83 43.85 44.69 42.21 42.88 43.79 47.08 50.73 51.22 50.54 40.98 34.23 31.27 29.24 33.85 33.98 38.15 42.40 40.82 37.75 32.89 28.27 24.64 21.62 34.13 40.81 43.35 41.57 31.23 42.01 41.93 41.23
45.48 45.79 46.16 46.28 46.61 46.81 46.92 46.16 48.86 45.45 44.53 47.37 47.85 43.32 43.28 46.32 44.75 43.93 46.60 47.04 46.09 47.00 34.10 30.61 29.45 31.11 39.11 31.91 31.67 30.45 29.80 29.61 26.62 22.26 22.13 28.64 38.89 42.94 42.10 29.63 31.43 42.71 42.62 41.95
45.39 45.70 45.88 46.19 46.48 46.98 47.63 46.89 49.83 46.87 45.01 47.57 50.46 49.04 46.57 47.58 47.36 41.86 45.69 45.81 44.72 38.31 35.53 34.33 31.72 29.31 34.38 33.78 37.65 34.88 32.02 28.94 25.75 30.35 24.28 25.32 43.36 41.14 35.21 37.57 41.55 42.72 42.26 42.44
45.48 45.55 45.98 46.43 46.68 47.86 48.33 45.64 49.71 50.59 45.87 46.78 50.86 53.35 53.64 52.15 51.52 48.79 46.67 45.93 46.71 46.72 40.41 36.47 34.86 31.15 31.04 32.08 29.94 40.82 32.22 35.37 31.59 33.41 32.31 41.08 42.09 42.55 44.52 43.91 42.52 42.10 43.97 44.31
45.13 45.69 46.30 46.88 47.76 48.66 48.48 47.28 49.81 47.79 44.94 46.55 49.09 49.09 52.89 55.62 54.71 55.17 46.40 47.00 49.99 50.06 47.41 40.04 38.75 32.85 32.22 29.51 30.27 35.53 39.72 43.48 36.12 36.60 40.30 41.24 42.00 44.58 44.97 45.70 44.75 43.76 44.14 44.80
46.16 46.23 47.22 47.76 48.02 48.62 48.41 46.96 49.62 48.98 47.37 39.83 46.16 55.02 51.87 55.42 57.10 56.18 53.90 51.99 52.62 52.05 45.75 38.56 34.45 34.18 39.95 31.20 36.67 34.69 39.68 41.55 39.23 37.05 41.17 44.10 44.43 44.42 44.08 41.99 41.48 40.27 40.47 39.89
46.58 47.50 47.55 47.70 48.09 48.53 48.37 48.80 49.19 50.30 47.14 40.72 42.68 49.81 53.24 54.94 56.90 56.31 55.96 54.08 50.95 45.48 39.99 33.91 34.27 35.10 38.89 30.93 34.89 32.12 41.27 39.47 34.30 32.89 42.04 41.07 41.26 42.11 42.80 41.16 40.07 39.79 38.47 37.39
47.24 47.42 47.69 47.95 47.90 48.43 47.77 42.19 48.13 49.56 50.47 44.31 37.56 50.61 51.06 52.67 54.94 55.07 54.34 52.85 51.17 48.58 41.89 35.09 40.85 44.99 37.40 30.47 29.22 41.31 43.30 44.20 44.05 43.06 44.10 41.60 40.28 40.53 40.91 38.88 38.58 38.48 37.59 37.21
46.99 47.39 47.56 47.79 47.90 48.54 45.15 43.18 50.39 50.23 51.32 43.70 38.81 40.04 48.79 52.06 51.73 49.86 50.19 50.82 49.08 47.52 44.06 37.46 38.96 40.90 39.52 29.09 31.12 41.37 42.40 43.70 42.71 42.91 42.29 39.48 40.18 36.74 38.66 38.07 37.65 37.98 37.13 36.68
47.30 47.39 47.85 48.21 48.61 49.59 46.99 51.15 50.60 51.94 48.54 48.04 37.68 37.97 41.46 50.48 41.18 41.98 47.07 42.84 43.37 43.93 42.05 39.78 35.70 39.63 32.04 32.26 39.56 41.36 41.36 41.60 41.35 40.90 41.56 39.85 38.47 37.94 36.93 37.14 36.60 35.19 34.58 34.82
47.71 47.96 48.13 48.15 47.64 46.12 47.05 49.45 49.35 51.42 49.05 40.09 36.72 36.69 36.52 45.98 40.85 39.39 40.76 41.00 36.87 42.09 35.21 35.60 37.15 34.32 32.33 38.61 39.98 40.44 40.78 40.35 38.48 39.15 38.62 37.88 36.19 35.98 35.75 35.17 34.77 34.02 32.98 31.65
47.68 47.34 46.16 40.36 46.74 49.88 50.56 49.22 44.84 42.97 43.02 40.47 36.36 41.13 37.59 42.87 35.45 36.37 34.89 36.52 33.98 30.94 33.68 38.85 33.68 28.05 37.45 39.10 40.09 41.48 40.85 40.03 39.45 35.72 34.47 35.27 35.20 35.68 35.97 35.28 35.00 33.21 31.58 30.09
46.89 45.18 41.45 48.48 49.18 48.26 42.86 36.09 35.80 37.74 34.29 37.48 38.30 35.90 38.45 43.99 36.33 35.27 35.42 34.18 33.00 27.45 31.29 31.71 32.75 30.23 35.33 38.22 38.22 39.90 40.61 40.46 39.69 39.60 38.39 37.49 36.43 35.34 33.48 31.46 30.97 29.93 29.80 29.99
49.15 48.53 48.91 47.48 44.13 37.01 34.47 32.32 34.25 34.40 32.70 34.90 35.95 37.64 39.70 39.68 43.95 36.95 35.60 33.24 32.18 31.89 35.21 29.51 26.41 32.78 36.47 37.03 37.10 37.73 37.87 38.03 37.62 38.13 36.86 36.96 35.51 33.96 31.49 29.62 29.23 29.76 30.02 29.69
47.05 42.22 36.53 38.83 33.65 31.29 27.49 28.55 31.21 32.10 33.08 34.51 34.35 34.71 36.36 38.34 39.70 34.56 34.32 33.05 31.75 30.59 30.49 29.92 29.80 36.75 37.53 37.12 36.91 36.97 37.98 37.00 36.01 35.01 34.48 33.44 32.21 32.04 31.01 29.82 29.61 29.88 29.16 27.65
36.03 33.32 29.83 32.40 30.08 29.55 29.59 30.86 31.80 31.99 32.37 33.28 34.00 34.00 34.71 33.46 34.51 33.11 33.64 32.72 33.63 30.29 27.57 28.39 32.46 36.09 36.73 37.15 37.12 35.08 33.64 32.45 31.69 30.93 30.43 30.22 30.36 29.77 30.43 28.76 27.43 26.68 25.37 24.59
32.16 32.04 27.56 28.41 30.86 31.95 31.80 32.19 32.35 32.70 34.33 33.46 34.54 34.71 36.33 32.91 33.26 32.70 32.26 31.00 29.02 29.77 28.70 31.04 34.09 35.95 35.19 35.32 33.79 32.41 31.36 30.61 30.21 30.14 29.58 29.20 29.33 28.34 27.20 26.35 26.51 25.87 23.41 21.79
29.87 31.33 30.87 31.93 31.72 30.64 31.56 31.80 32.04 35.01 33.28 33.82 34.40 33.02 31.77 30.68 32.26 30.71 29.16 29.01 26.84 28.49 30.15 32.17 34.21 33.36 33.24 33.31 32.88 32.52 32.02 31.24 30.43 30.13 29.68 28.74 27.07 26.44 26.11 25.00 23.76 22.84 21.11 18.44
30.21 29.55 32.02 31.98 31.57 30.83 31.61 31.78 32.85 35.47 33.62 32.02 29.83 28.82 28.37 31.72 28.63 26.42 28.94 26.29 28.67 30.71 31.61 33.24 34.67 33.15 33.21 34.19 33.65 32.52 32.04 31.29 31.08 30.26 29.53 28.01 27.15 26.20 24.55 22.98 23.88 24.21 22.42 18.80

GFSNW_sfc_wetblb_021.txt.gz
Wetbulb
48.75 49.48 48.90 48.80 49.14 49.31 48.09 43.58 37.56 50.96 53.09 42.97 41.76 37.82 41.58 43.95 44.06 47.00 46.43 46.31 44.32 40.89 40.11 38.75 38.56 38.58 41.91 44.86 44.99 40.85 42.66 37.73 30.44 38.02 42.93 43.75 41.45 39.30 37.18 28.74 29.52 28.10 26.60 30.06
48.59 49.07 48.61 48.24 48.31 48.63 45.01 38.90 42.78 50.97 50.17 37.70 37.62 40.41 41.54 44.26 42.60 43.31 43.88 44.21 45.27 43.56 39.73 36.84 39.62 40.60 45.13 46.81 44.00 41.70 42.93 35.84 28.81 33.97 38.67 40.89 38.81 39.86 39.53 36.68 31.03 29.64 24.98 29.92
48.14 48.22 47.95 47.79 47.48 48.40 46.09 41.17 36.33 43.86 46.11 44.36 39.86 38.31 38.74 39.83 45.88 43.53 44.72 44.66 46.13 43.23 40.34 41.92 39.94 41.51 45.89 47.37 45.46 45.59 44.23 37.48 34.75 31.33 34.92 38.13 35.15 38.96 39.01 37.06 28.52 29.02 29.04 33.96
47.50 47.57 47.50 47.46 47.13 47.78 45.46 41.76 38.15 42.14 36.16 38.97 39.77 40.27 39.53 38.93 39.61 43.65 44.11 41.57 43.62 42.42 36.89 38.15 38.26 42.93 43.92 45.44 44.72 43.75 42.84 36.82 36.15 36.77 38.43 40.26 38.94 38.57 37.59 36.57 35.64 31.48 34.96 34.81
46.97 47.18 47.22 47.20 46.64 47.75 42.74 38.25 40.78 42.97 38.94 41.31 39.27 39.64 37.88 38.44 40.76 41.62 40.49 40.03 43.95 42.99 40.31 40.18 38.82 42.69 41.68 41.71 42.97 40.72 41.71 34.13 35.71 33.67 37.85 37.80 36.30 38.93 38.51 38.12 37.47 36.73 35.74 35.56
46.84 46.92 46.63 46.29 46.20 46.53 40.10 43.29 44.58 43.54 39.87 38.69 38.13 37.24 38.46 39.13 42.20 43.03 44.06 44.41 43.68 41.08 43.36 45.07 44.04 44.96 45.29 45.10 42.57 39.23 38.36 34.08 31.59 29.92 32.89 33.21 28.99 34.45 37.55 38.02 39.12 38.74 33.57 38.21
46.93 46.65 46.25 45.94 46.78 45.63 42.79 44.41 44.66 42.36 35.04 38.81 37.99 39.24 40.43 39.75 41.38 39.65 43.67 43.83 41.49 45.55 48.54 46.58 45.41 43.94 45.26 46.06 44.79 42.99 35.13 33.06 29.81 26.85 28.22 21.39 36.24 39.95 39.73 37.61 37.19 37.98 37.77 39.07
46.09 46.06 45.76 45.86 46.72 46.40 40.78 46.24 44.32 43.66 34.78 38.99 40.33 39.73 40.02 41.83 42.46 41.37 41.92 45.07 46.26 49.06 45.08 39.04 37.24 32.84 36.19 38.41 41.94 43.68 41.75 33.10 29.31 28.09 26.95 31.74 36.47 37.77 37.41 36.16 34.89 38.58 38.55 39.88
45.45 45.50 45.66 46.12 46.40 46.53 42.25 45.53 47.47 44.96 40.93 38.76 43.94 40.66 41.72 39.25 38.91 39.49 42.34 47.22 49.47 47.54 38.94 33.08 31.11 30.04 34.57 33.09 37.15 40.65 38.27 35.60 33.17 26.54 26.48 23.42 34.44 38.95 41.32 40.43 30.26 39.89 39.75 40.05
44.95 45.05 45.40 45.62 46.35 46.18 42.21 45.90 49.17 45.54 40.20 44.91 45.89 41.93 40.71 44.00 41.34 38.87 42.47 46.76 45.12 45.97 32.56 28.32 29.52 29.04 37.67 31.53 31.54 30.48 30.10 28.74 28.57 23.56 23.32 28.95 37.03 40.95 40.77 30.34 32.07 40.92 41.12 40.62
44.45 44.66 44.81 45.54 46.20 46.68 44.98 43.89 48.80 45.39 41.47 42.35 47.26 47.77 43.99 44.67 43.73 39.17 42.71 46.27 43.58 35.29 35.21 33.26 30.32 29.24 33.62 31.67 35.23 33.20 32.89 29.34 25.92 25.18 22.05 25.92 40.58 39.84 34.31 36.88 39.53 41.66 40.93 41.07
44.26 45.02 45.19 45.76 46.57 47.01 46.24 42.50 48.84 50.42 44.79 42.27 47.18 47.10 47.75 47.67 48.89 46.35 46.02 44.39 44.79 44.22 39.21 36.14 33.26 30.05 28.48 32.02 29.46 38.44 31.64 34.74 31.87 33.13 31.88 39.24 40.73 39.30 41.19 41.91 41.53 40.77 41.67 42.76
44.79 45.40 45.89 46.43 46.57 46.78 45.50 45.12 47.68 46.86 42.08 41.17 43.38 46.86 49.65 53.38 52.95 53.33 46.06 44.99 49.10 47.10 47.47 40.67 36.41 33.40 32.34 29.57 29.88 33.48 37.77 40.76 35.33 34.96 38.48 39.79 40.25 42.53 43.17 42.43 42.41 43.50 43.70 43.70
45.22 45.38 45.76 46.22 46.39 46.90 46.48 44.60 49.01 46.29 44.38 38.24 44.65 53.32 50.75 53.27 53.28 52.47 51.51 50.54 50.48 49.16 46.82 38.15 33.93 34.88 38.54 30.02 36.21 33.60 38.33 40.59 37.20 35.81 39.73 41.52 41.93 41.52 40.28 39.85 39.72 38.84 38.47 37.58
45.29 45.57 45.97 46.47 46.80 47.12 47.22 47.51 48.50 49.74 43.83 39.31 42.30 49.27 51.59 53.20 52.99 52.91 52.00 52.06 48.55 43.22 39.40 35.31 37.04 36.70 38.25 30.22 33.86 30.27 39.88 38.22 34.25 32.87 41.74 40.02 40.87 40.53 40.85 39.17 37.85 37.97 37.08 36.13
45.20 45.71 46.40 46.65 46.98 48.03 46.50 40.81 45.54 48.94 48.89 41.78 36.38 46.64 49.15 51.34 52.34 52.07 50.35 50.75 48.43 45.32 40.16 35.85 41.32 44.10 39.04 32.73 30.01 40.02 41.77 41.89 41.58 40.86 41.57 40.53 39.35 38.94 39.32 37.82 37.38 37.45 36.75 36.45
45.31 45.82 46.62 47.45 47.64 46.88 42.30 39.58 44.96 47.23 48.82 41.87 37.36 37.89 48.06 50.44 48.82 47.43 49.26 50.12 48.21 47.18 43.16 34.81 37.71 40.28 37.05 26.90 30.89 40.38 41.74 41.75 40.64 40.51 40.23 37.25 37.87 36.02 37.82 37.21 37.03 37.25 36.15 36.09
46.70 46.79 47.18 47.39 47.44 47.01 44.30 50.12 48.96 49.04 45.81 45.19 36.05 36.08 41.08 48.66 39.68 43.43 46.93 43.87 44.04 43.37 41.59 37.85 34.84 39.13 31.18 31.90 38.53 39.65 40.49 40.63 39.39 38.54 39.91 38.71 37.25 36.51 35.58 35.85 35.20 33.87 33.02 32.64
46.87 46.87 46.87 46.43 45.46 42.46 45.03 48.59 50.11 51.54 47.65 38.72 34.78 34.00 35.31 46.57 41.91 40.73 40.70 42.34 36.76 42.31 36.60 36.78 40.75 35.26 33.94 36.65 38.77 39.08 40.02 39.57 36.57 37.26 37.01 36.48 34.90 34.53 34.56 34.09 33.68 32.04 31.11 31.54
46.93 46.08 43.72 39.43 42.38 48.65 48.60 46.57 43.34 43.63 44.34 40.81 35.15 40.74 37.30 43.89 36.04 36.60 36.40 35.84 33.86 33.75 34.90 39.15 34.37 33.06 36.85 37.20 40.25 39.72 39.42 38.63 37.99 34.63 33.18 33.71 33.10 33.24 33.52 33.52 34.29 32.61 30.78 30.14
45.18 41.77 40.04 47.58 48.42 46.66 40.45 34.19 35.08 37.18 34.18 36.53 38.20 37.49 38.34 43.35 37.41 35.30 34.92 34.22 31.58 28.72 33.72 33.59 32.17 31.36 34.30 36.20 38.54 40.14 40.18 40.15 39.65 39.00 37.55 36.51 35.21 33.89 31.97 31.05 30.71 30.25 30.19 29.68
44.95 47.43 48.03 46.71 42.82 38.44 32.93 31.66 33.79 33.53 33.24 34.84 36.04 37.14 41.19 38.23 42.39 35.74 35.25 33.05 31.43 27.94 35.08 29.19 30.94 30.96 34.08 34.59 35.41 36.50 37.36 37.51 37.13 37.37 36.20 35.59 34.66 33.09 31.29 29.86 29.70 29.87 29.62 27.51
46.57 41.89 36.94 38.22 33.12 30.72 30.35 29.37 31.13 32.02 32.56 34.42 34.24 34.22 35.31 37.30 38.80 33.82 32.82 28.88 26.40 33.80 26.85 28.30 28.91 35.85 35.32 35.69 36.47 36.55 37.55 37.74 36.57 35.20 34.30 32.84 31.22 30.80 29.61 29.19 29.82 29.03 27.21 26.60
35.94 35.67 29.17 30.83 28.45 29.06 29.26 30.53 31.45 32.17 32.23 32.96 33.86 33.68 34.39 32.97 33.97 32.77 33.36 32.22 33.42 29.31 26.96 26.16 32.55 35.33 35.25 36.21 35.82 34.86 33.44 32.86 32.30 31.81 31.27 30.36 29.65 29.07 29.50 29.26 27.09 24.89 24.28 24.59
32.58 32.58 27.00 28.27 31.10 31.82 31.82 32.23 32.41 33.08 34.16 33.88 34.75 34.72 35.72 32.96 32.46 31.99 32.20 31.61 28.65 28.99 24.28 30.75 33.82 35.64 35.15 34.15 33.25 31.97 30.85 30.45 30.32 30.61 29.70 29.03 28.59 27.06 26.12 25.55 24.47 23.24 21.85 20.58
32.34 31.18 29.81 31.21 30.74 30.77 31.52 31.75 32.26 35.17 33.14 34.00 34.81 32.32 31.58 30.72 31.78 30.26 27.35 28.25 25.83 27.64 29.64 31.84 33.17 33.88 32.80 32.44 32.24 31.78 31.42 30.63 29.88 29.86 29.74 28.65 27.33 26.20 25.53 24.36 22.76 21.25 19.84 17.62
29.84 29.20 31.85 31.25 31.25 30.75 31.30 31.63 32.40 34.99 33.65 31.64 26.78 28.17 27.94 31.33 27.15 25.55 27.95 24.45 27.03 29.98 31.28 32.50 32.64 32.17 31.52 31.83 31.63 31.08 30.63 29.86 29.39 28.76 28.27 27.08 25.39 24.46 24.12 22.96 22.62 22.42 20.37 17.37

GFSNW_sfc_wetblb_024.txt.gz
Wetbulb
48.51 47.98 48.11 48.63 49.57 49.27 47.41 43.38 33.35 49.74 52.58 41.66 41.58 36.87 39.88 43.04 43.83 46.35 45.07 44.90 43.88 41.52 38.94 37.24 36.96 36.98 40.71 43.05 42.84 39.18 41.15 36.55 29.35 36.88 40.58 42.62 39.40 37.84 36.07 29.12 29.12 27.56 25.71 28.48
48.40 48.06 47.76 48.08 48.95 48.81 44.03 39.08 39.88 49.90 48.58 34.34 36.42 40.05 40.51 42.15 42.04 42.23 43.25 42.56 44.62 43.13 39.02 35.56 38.40 38.87 42.94 43.62 42.00 39.94 41.28 33.84 27.46 32.10 36.36 38.93 36.84 38.20 37.68 34.74 30.68 28.64 24.10 29.45
48.33 48.00 47.56 47.84 48.63 48.58 44.61 40.03 32.72 42.02 44.10 40.98 37.66 37.05 37.43 37.86 45.04 42.84 43.61 42.77 44.67 42.56 40.26 39.92 37.51 38.68 43.80 44.55 43.20 44.67 43.59 36.04 32.81 30.32 32.45 36.55 34.15 36.96 37.09 35.86 28.03 28.97 28.74 33.17
48.29 47.87 47.67 47.97 48.30 48.19 44.53 40.00 34.61 39.95 33.93 36.26 37.67 38.67 38.80 36.88 37.77 43.55 43.86 40.29 42.00 41.03 36.76 36.69 37.38 40.71 42.44 43.56 44.48 42.14 41.12 34.31 34.27 35.50 37.27 38.00 37.75 37.59 36.21 35.10 34.71 31.49 34.31 33.24
48.08 47.73 47.89 48.20 47.59 47.99 41.93 36.91 36.55 41.38 36.61 38.42 37.78 39.20 37.07 37.31 39.18 41.32 39.63 38.92 41.23 41.93 39.32 39.42 36.76 41.03 40.18 40.29 41.51 40.08 39.64 34.26 33.31 32.77 36.61 36.74 35.02 37.29 36.53 35.81 35.24 34.66 34.62 34.53
48.01 47.84 48.42 47.85 47.56 47.04 39.95 41.17 42.22 41.08 37.73 37.18 35.26 36.10 37.90 38.49 41.14 41.96 43.23 42.21 40.67 39.01 41.84 44.53 44.12 43.51 43.59 42.48 41.14 38.55 36.69 33.39 31.11 30.58 31.53 32.63 29.13 33.91 36.35 36.31 37.08 37.60 32.85 37.55
47.98 47.72 47.52 47.20 46.95 45.84 40.43 40.65 43.43 39.59 32.37 37.21 35.57 37.11 39.50 39.60 40.65 39.59 43.04 44.02 40.10 43.46 48.14 45.92 44.28 42.62 43.35 43.96 42.32 40.90 33.50 32.37 29.67 25.89 27.80 21.49 35.78 38.24 38.26 37.12 36.92 37.31 36.45 36.84
47.65 47.49 46.87 46.85 46.86 46.77 40.83 42.59 42.12 41.09 33.08 37.37 38.82 38.14 38.41 40.57 42.01 40.89 42.18 43.83 45.81 48.02 45.57 40.06 36.89 33.60 34.48 36.49 40.08 40.01 39.19 32.52 29.17 27.22 26.52 30.85 34.77 36.78 36.54 35.63 35.03 37.91 36.54 38.13
46.87 46.94 46.79 46.45 46.66 46.81 42.54 42.06 43.49 42.77 38.58 35.54 41.17 38.98 39.03 36.53 37.16 37.85 41.07 45.94 46.98 46.08 40.65 34.25 31.94 31.67 34.24 32.59 35.87 39.01 37.61 34.46 32.27 25.44 24.08 22.75 33.64 39.22 39.85 38.91 30.44 38.66 39.48 39.25
46.36 46.40 46.36 46.32 46.41 46.50 43.59 39.82 44.02 41.96 37.59 42.82 41.78 39.06 38.24 41.35 39.51 36.71 39.07 41.41 42.89 45.06 31.13 30.84 29.82 31.08 37.38 31.85 32.61 31.50 30.13 28.39 27.86 21.98 23.13 29.74 37.35 39.18 39.74 30.42 32.79 39.16 40.98 40.20
45.85 45.87 46.01 45.92 45.71 46.18 43.12 39.65 45.27 44.09 39.96 41.38 44.99 45.61 41.36 41.91 41.28 35.72 40.32 41.86 41.07 35.16 34.08 33.42 31.76 28.16 33.05 31.21 34.93 34.41 34.21 30.14 25.61 25.24 22.49 27.23 39.04 38.30 34.58 37.65 37.41 39.55 40.38 39.96
45.54 45.58 45.61 45.50 45.73 46.09 44.37 38.58 43.55 44.71 42.81 43.09 46.24 45.85 45.16 44.54 46.07 43.24 41.81 40.97 42.70 42.72 38.51 34.64 32.24 31.40 26.99 31.43 29.06 36.79 33.11 35.67 32.38 33.57 33.16 39.17 39.47 38.56 40.13 40.15 39.93 40.04 40.30 40.80
45.12 45.16 45.33 45.59 45.99 46.13 44.00 39.78 43.23 42.81 41.76 41.21 42.11 41.53 46.39 47.31 47.55 49.44 42.05 44.06 47.11 44.31 45.78 38.77 36.48 31.96 32.35 31.97 31.17 33.16 36.11 37.97 34.15 34.35 37.56 38.08 39.65 40.47 40.37 40.62 40.12 41.13 41.72 41.20
44.56 44.68 44.76 45.07 45.54 45.82 44.80 41.06 45.93 45.57 43.33 35.73 40.03 50.31 48.65 52.43 50.75 50.53 49.94 48.58 48.70 47.02 46.34 36.06 34.11 32.92 37.42 32.88 36.29 33.54 36.71 38.98 36.24 34.34 38.11 39.75 41.17 40.99 40.07 39.25 39.37 38.31 37.64 36.64
44.52 44.85 44.87 45.49 45.78 45.92 45.09 44.32 46.77 47.15 43.11 36.91 38.33 44.28 49.55 52.41 51.90 50.96 50.83 49.41 46.43 43.20 39.95 33.66 34.97 35.30 37.04 33.27 35.33 29.82 38.64 37.75 35.07 34.39 40.02 39.17 39.10 39.71 39.68 38.41 36.96 37.12 36.20 34.98
44.55 45.03 45.42 45.70 45.90 46.19 43.10 38.22 44.73 48.51 47.88 40.32 33.83 45.42 44.88 50.96 50.62 50.28 49.53 49.93 45.29 43.34 40.15 37.33 40.26 43.47 40.13 34.88 33.20 40.32 41.25 41.31 41.79 40.97 41.30 38.53 37.64 37.71 37.96 36.63 36.22 36.55 35.74 35.52
44.86 45.30 45.54 45.94 46.13 43.92 40.14 38.25 42.73 47.53 47.88 39.70 34.42 35.61 43.16 48.95 49.96 46.80 46.77 46.66 45.18 44.94 41.44 34.61 36.71 39.80 40.22 34.23 35.51 40.86 41.61 41.55 39.73 39.70 39.79 36.83 37.13 35.85 36.42 36.13 35.89 36.26 35.25 35.09
45.40 45.71 45.91 46.10 46.52 46.03 41.51 46.05 48.19 47.76 43.34 41.74 34.43 35.89 38.80 48.17 41.51 41.71 44.98 40.52 41.42 42.36 41.43 37.99 35.79 37.67 32.52 31.75 37.20 38.85 39.53 39.37 38.33 37.55 38.62 38.60 36.40 35.64 34.69 35.17 34.71 33.29 32.13 32.51
45.36 45.87 46.40 45.14 43.69 39.47 41.99 47.54 47.42 50.16 43.76 35.57 35.22 34.30 32.26 45.80 41.86 40.54 38.50 39.36 35.31 41.44 36.13 35.93 37.57 34.28 34.12 36.64 37.84 38.36 39.03 39.04 35.88 36.20 36.31 36.03 34.36 33.48 33.59 33.25 32.57 31.41 30.97 31.66
46.19 45.19 41.20 34.28 39.78 47.43 47.63 45.23 41.70 43.14 44.54 42.22 34.87 40.33 35.90 43.48 36.67 36.84 34.99 34.12 34.84 34.46 34.98 38.85 34.16 33.39 36.61 37.68 39.21 39.38 37.78 37.56 37.19 33.95 32.64 32.90 32.27 32.44 32.51 31.88 32.17 31.72 31.22 31.46
43.71 41.18 38.10 44.91 47.36 44.18 39.69 33.91 33.57 35.76 33.69 36.87 36.86 36.23 36.84 42.36 35.91 35.37 34.83 33.21 32.08 31.80 34.16 36.16 33.51 32.79 34.79 37.22 39.25 39.64 39.46 39.21 39.77 39.14 37.56 36.73 34.94 33.34 32.03 31.15 30.59 30.63 30.89 30.38
43.50 45.08 45.84 45.03 41.91 36.74 33.11 31.27 32.59 33.54 32.90 34.45 35.55 36.82 40.34 37.36 42.27 36.93 34.78 32.61 32.25 31.37 35.04 33.51 31.27 32.27 34.33 35.12 35.30 36.50 37.33 36.71 36.51 37.02 35.53 34.74 33.61 32.73 31.10 30.36 30.02 29.80 28.73 27.12
46.88 41.07 35.47 37.34 31.91 30.06 28.51 29.42 30.81 31.98 32.28 33.94 33.95 34.87 34.83 37.06 37.83 33.88 34.09 32.05 31.12 33.63 32.14 29.92 29.70 34.90 35.18 35.38 35.74 35.52 36.27 35.59 34.68 33.39 32.71 31.89 31.10 31.33 30.46 29.17 28.94 28.06 27.20 26.93
36.14 33.32 28.21 30.04 28.36 28.72 28.93 29.85 31.49 32.05 32.07 32.64 33.39 33.39 33.54 33.03 33.50 32.31 32.85 31.75 32.94 28.66 25.83 26.64 32.25 34.10 34.91 35.36 35.69 34.52 33.12 32.56 31.98 31.29 30.68 29.68 29.10 28.36 28.55 28.00 27.56 26.79 25.19 24.60
31.81 31.60 27.04 28.33 31.19 31.57 31.55 31.94 32.47 32.97 33.89 32.85 33.39 33.91 35.30 32.83 32.40 32.05 32.26 31.53 27.50 28.18 26.20 29.71 32.96 34.16 34.08 32.60 32.09 31.46 30.87 30.54 30.38 29.81 28.58 27.76 27.71 26.53 25.19 25.09 25.20 24.67 23.10 21.52
32.07 30.62 28.68 30.57 30.40 29.69 30.86 31.04 31.88 34.70 33.35 33.85 34.13 32.41 32.01 30.23 30.59 28.00 24.76 27.32 23.18 25.98 29.14 31.33 32.73 31.92 31.56 31.56 31.36 31.00 30.98 30.36 29.94 29.51 28.78 27.86 27.08 25.72 23.81 23.36 22.57 21.77 21.06 19.92
30.61 29.08 29.73 29.85 30.04 28.36 29.47 30.20 30.28 34.10 33.36 30.80 30.96 26.22 24.06 29.94 24.79 22.78 24.89 23.40 26.52 29.11 30.57 31.30 31.64 31.27 30.70 30.83 30.58 30.02 29.89 29.28 28.92 28.49 27.49 26.24 25.72 24.20 22.83 21.08 21.52 21.75 20.63 19.82

GFSNW_sfc_wetblb_027.txt.gz
Wetbulb
49.74 49.77 49.24 48.65 48.61 49.05 47.78 41.68 32.59 45.25 48.58 37.37 39.66 35.44 39.03 42.23 42.36 46.28 44.61 45.45 44.34 42.40 40.74 38.07 38.44 39.44 42.95 43.94 44.25 41.82 44.35 41.04 35.79 40.18 43.78 45.43 43.88 41.87 40.50 36.65 33.88 33.57 33.20 34.86
49.63 49.66 49.02 48.54 48.42 48.63 44.59 37.28 38.10 45.96 45.63 31.56 34.58 38.56 39.17 41.68 41.32 42.47 42.74 42.54 45.14 45.97 42.13 36.76 39.94 40.57 44.44 43.94 43.52 43.01 43.67 38.43 34.48 36.79 40.14 43.12 41.97 41.76 40.41 38.12 36.77 33.42 34.30 36.87
49.60 49.71 48.77 48.17 48.18 48.97 44.43 39.22 32.02 40.10 41.59 40.82 37.09 35.55 36.52 37.74 43.30 42.31 43.70 43.40 45.21 44.04 42.17 42.01 40.00 40.31 44.61 44.39 44.66 44.60 45.44 39.20 37.95 34.20 37.59 40.53 38.71 39.78 39.95 40.69 35.51 36.16 35.96 39.23
48.43 49.61 48.75 48.13 48.16 48.36 44.01 39.55 35.24 39.13 32.29 34.57 37.13 37.71 37.57 36.06 37.00 42.82 43.89 41.37 41.60 42.45 38.59 38.84 38.54 42.78 44.68 44.95 45.10 44.36 45.12 38.28 37.57 38.48 39.27 40.22 40.35 39.86 39.05 38.89 39.88 37.68 40.05 37.56
47.83 49.38 48.37 47.85 48.07 48.06 41.48 35.50 36.08 39.42 37.34 37.38 35.69 36.77 35.98 35.94 38.42 39.81 39.60 39.58 41.53 41.83 40.73 41.37 38.96 42.62 43.12 42.54 43.85 42.74 42.58 38.34 37.85 36.71 38.89 38.99 38.85 40.24 40.16 39.94 38.59 39.13 39.22 38.47
48.01 48.64 48.21 47.76 47.84 46.94 40.12 41.43 41.62 40.45 37.17 36.04 34.26 33.68 36.57 37.80 40.60 41.85 43.26 42.22 41.08 40.24 42.60 45.64 45.35 45.55 45.83 45.65 44.62 41.11 40.55 37.23 36.05 34.13 35.59 37.47 33.74 37.70 39.50 40.24 41.00 41.97 37.95 43.36
48.04 47.79 48.07 47.32 47.60 46.55 43.69 41.84 41.24 37.09 32.85 35.99 34.48 36.05 37.98 38.12 39.76 38.80 42.12 44.22 41.45 44.35 48.05 47.71 47.20 44.62 44.53 44.46 43.31 44.13 37.83 37.65 35.54 32.76 32.76 29.75 40.60 41.91 42.57 41.60 41.44 42.17 41.42 42.65
47.46 47.35 47.74 47.22 47.27 47.35 42.98 42.62 41.53 39.01 34.00 36.66 37.15 36.66 36.66 40.33 41.80 41.00 41.80 43.98 46.39 48.20 45.32 41.37 38.13 37.38 38.47 39.25 40.89 42.02 41.44 37.05 32.24 32.76 32.58 35.50 38.12 40.11 40.54 40.03 41.07 43.09 42.44 42.09
47.06 47.27 47.26 46.90 47.18 47.57 43.23 42.79 44.09 42.10 36.68 35.11 39.58 37.57 38.48 36.28 38.23 39.32 41.30 46.64 47.16 46.38 40.55 36.09 34.48 33.32 36.46 36.04 38.04 40.75 38.28 38.25 39.13 30.84 31.41 29.76 39.44 42.59 43.11 43.59 36.41 43.28 42.62 42.09
46.52 47.29 46.85 46.95 47.23 47.38 43.28 40.55 44.55 42.92 36.93 40.34 41.71 38.34 37.48 41.22 40.09 38.15 40.48 42.00 42.43 45.71 35.63 33.92 32.72 34.54 39.56 34.69 35.05 34.98 35.43 34.44 34.24 29.96 34.02 35.87 41.20 42.23 43.51 35.95 39.93 43.71 43.82 43.87
47.10 46.74 46.92 47.01 46.85 46.91 43.21 39.69 44.39 42.62 38.91 40.05 41.70 43.53 41.28 41.27 40.87 36.21 40.10 40.22 41.19 38.62 34.82 35.26 35.44 33.82 37.14 36.39 38.10 37.00 37.05 35.41 34.53 32.39 33.33 32.97 42.33 40.28 39.12 44.68 43.02 44.05 44.83 45.26
46.37 46.57 46.83 46.72 46.78 46.56 44.74 39.09 44.56 44.80 38.60 40.42 46.28 46.14 46.22 45.04 45.88 42.44 42.63 40.61 41.11 41.44 38.83 37.12 36.14 35.19 34.80 35.67 34.41 38.70 37.15 39.91 38.44 39.21 40.00 45.04 43.19 45.61 45.20 44.42 44.90 43.65 45.64 44.47
46.21 46.14 46.24 46.54 46.54 46.60 44.16 40.88 42.50 42.06 38.20 38.47 41.40 40.99 47.12 47.19 46.73 49.70 42.15 43.96 46.91 44.64 47.13 41.47 39.84 35.51 37.28 34.35 34.92 37.40 38.86 40.25 40.25 40.59 42.74 42.12 43.37 44.16 45.09 44.65 44.92 44.67 46.59 45.02
46.41 46.39 46.52 46.19 46.36 46.35 43.66 41.45 42.69 41.85 40.38 34.92 38.24 48.46 45.60 51.15 47.77 48.21 49.38 48.72 48.93 48.30 46.94 40.54 37.84 37.66 40.73 37.14 40.01 38.65 40.45 40.47 38.68 39.13 40.84 43.14 44.55 44.70 45.55 43.34 44.03 42.91 42.86 42.72
45.95 46.04 45.97 46.02 46.11 45.90 43.67 42.98 44.07 43.48 40.64 35.74 38.47 43.72 46.73 48.83 49.80 47.68 49.65 48.93 47.71 45.55 42.34 37.13 38.84 38.42 39.28 36.30 37.94 37.03 41.24 40.10 38.49 38.64 44.19 44.85 44.50 45.70 43.28 42.24 42.10 41.63 39.65 38.37
45.37 45.57 45.76 45.90 45.93 44.80 42.48 35.72 42.49 45.97 44.68 37.64 32.30 43.87 44.92 50.00 51.81 50.58 48.85 49.13 47.53 47.40 43.06 39.32 40.98 44.13 42.05 36.98 36.38 42.59 43.53 44.60 44.38 44.27 43.87 40.93 39.77 40.37 41.10 39.98 39.94 39.34 39.27 38.56
44.77 44.89 44.91 44.84 44.98 42.67 38.87 36.50 42.14 44.75 43.90 39.61 34.05 35.66 44.39 48.85 50.04 48.87 48.60 49.10 47.19 46.55 44.60 40.48 41.69 42.42 42.42 36.39 37.13 43.39 43.29 43.68 42.39 41.56 42.18 39.99 39.62 39.57 39.07 38.70 37.89 37.87 37.03 37.11
44.84 44.85 44.99 45.18 45.22 44.33 41.36 45.84 45.62 44.40 42.72 41.47 33.10 33.76 37.81 47.42 41.03 41.90 45.57 43.84 44.21 44.53 42.70 39.91 40.20 39.37 36.32 36.17 40.33 41.00 40.98 40.87 40.25 40.34 39.85 41.36 38.58 37.19 36.39 36.50 36.51 34.93 34.15 34.31
44.73 45.07 44.61 43.59 42.49 38.91 41.26 47.14 47.06 48.35 42.58 33.69 33.34 33.43 33.75 45.28 41.47 40.58 40.44 41.70 38.15 42.69 37.60 38.54 39.87 36.66 36.20 39.58 39.84 39.92 39.28 40.62 37.89 37.18 37.41 37.58 36.70 35.50 35.22 35.38 35.00 33.61 33.28 33.75
45.23 43.21 39.87 35.32 40.81 46.50 46.82 44.84 40.58 40.71 40.96 40.81 35.02 40.13 36.66 41.82 37.06 36.88 37.59 36.50 36.32 35.97 38.21 39.19 37.04 37.63 38.43 38.98 39.89 40.51 39.16 37.96 37.84 35.03 33.60 34.18 33.89 34.01 34.13 34.24 34.92 34.51 33.74 33.14
41.89 38.63 35.77 41.03 46.71 43.60 38.79 34.28 33.40 34.77 32.81 37.43 37.93 37.05 37.57 43.24 36.79 35.95 36.57 33.24 34.11 34.34 37.06 36.88 35.56 35.36 35.56 37.53 39.45 39.85 39.29 39.36 40.10 40.26 37.70 37.64 36.45 34.51 33.05 32.78 33.41 33.47 33.04 31.90
42.70 42.93 44.00 43.49 40.07 35.41 32.38 31.35 31.74 31.18 32.80 34.65 35.92 37.65 40.81 37.73 43.11 36.45 35.30 33.42 32.68 33.22 36.19 35.00 33.18 33.69 35.20 36.92 37.11 37.58 38.37 38.57 37.21 37.66 35.59 35.38 34.50 33.86 32.67 31.98 31.57 30.40 29.04 28.66
45.03 38.85 34.78 36.96 32.50 30.15 28.16 27.51 30.61 31.02 32.33 33.75 34.14 33.96 35.74 36.90 38.58 33.91 33.31 31.98 31.91 34.02 32.86 30.91 31.35 34.38 35.42 35.78 35.79 34.90 35.66 35.27 33.87 32.77 32.73 32.60 31.88 31.93 30.58 28.56 28.56 28.66 27.91 27.90
35.53 32.35 28.30 29.63 28.02 28.52 28.17 29.48 31.00 31.76 31.94 32.31 33.40 33.43 34.31 33.24 33.40 32.53 32.89 31.98 32.80 29.95 27.28 27.34 31.47 33.34 34.03 34.42 34.38 33.15 31.95 31.86 31.09 30.68 30.45 29.59 28.92 28.24 28.89 28.89 29.07 28.27 26.59 26.78
32.22 31.65 26.80 28.12 31.39 31.59 31.77 31.79 31.97 32.50 33.72 33.22 34.70 34.67 35.65 32.87 32.33 31.73 32.28 30.84 26.74 26.41 25.19 28.52 31.07 32.81 32.48 31.87 31.65 30.90 30.21 29.50 29.01 29.03 28.09 27.58 27.70 26.93 26.62 27.23 27.17 26.31 24.92 23.89
31.55 27.94 25.23 28.63 28.35 26.06 27.53 27.48 29.14 33.11 32.36 33.64 34.60 32.50 30.96 29.01 28.60 26.27 23.38 25.07 20.93 24.01 28.15 30.33 31.68 30.91 30.69 30.26 30.24 30.27 30.23 29.43 29.06 28.99 28.67 27.92 26.58 25.22 24.51 24.61 24.13 23.54 22.80 21.71
29.75 26.26 26.68 25.34 25.90 24.28 25.74 26.64 27.94 32.20 33.05 30.42 29.01 20.99 21.43 27.37 21.92 18.98 21.25 19.72 22.70 23.27 28.46 30.68 30.72 29.95 29.56 29.91 29.84 29.64 29.74 29.08 28.49 27.48 26.21 25.02 25.10 25.02 23.97 21.87 22.11 22.28 21.87 21.63

GFSNW_sfc_wetblb_030.txt.gz
Wetbulb
50.43 50.18 50.08 50.10 49.73 49.24 47.94 43.20 33.67 47.82 51.19 36.53 38.68 34.77 40.25 42.82 43.32 48.17 47.40 47.95 46.45 44.90 44.24 43.39 42.70 41.73 44.66 48.88 49.65 45.22 48.56 45.56 40.69 42.69 47.64 49.34 48.77 46.24 46.36 40.80 38.73 41.32 39.63 39.70
50.16 50.02 49.80 49.86 49.46 49.11 46.43 37.20 38.81 47.74 48.09 31.63 33.33 39.32 39.91 42.61 42.45 44.02 45.80 45.64 48.17 49.08 45.44 41.79 43.93 43.88 48.46 48.82 48.36 46.91 48.11 43.59 38.61 40.21 43.84 46.87 45.42 46.99 47.08 45.59 44.25 39.72 38.39 40.57
49.46 49.82 49.78 49.67 49.32 49.09 46.57 38.24 32.24 39.37 41.57 42.02 37.94 36.88 36.21 37.98 43.90 43.70 46.86 46.65 48.43 46.74 45.25 46.12 42.77 43.29 45.37 48.08 49.05 47.31 48.51 45.28 41.60 37.58 40.67 44.71 42.73 44.70 46.29 45.27 40.72 40.75 41.25 42.65
48.50 48.60 49.53 49.75 49.13 48.65 45.45 38.79 35.99 39.26 31.43 36.89 38.61 40.99 39.41 37.00 37.23 43.84 45.84 44.44 45.43 45.26 41.83 42.95 41.78 43.22 45.41 45.77 45.78 48.23 48.82 42.06 43.93 44.05 44.60 44.58 43.78 43.57 44.52 43.06 43.91 40.93 42.89 43.81
48.00 48.43 49.26 49.49 48.92 48.43 42.02 35.38 38.48 42.38 38.83 38.80 36.79 38.52 37.93 36.57 39.17 40.49 40.82 42.12 44.87 46.21 42.80 43.30 41.44 44.26 43.94 44.86 47.19 47.18 48.80 42.49 44.58 41.92 44.55 43.69 42.18 44.14 44.47 44.38 44.47 44.20 44.99 44.92
48.00 48.09 48.10 49.36 48.51 47.34 40.51 42.67 45.22 43.20 38.64 37.61 35.79 37.52 38.39 38.83 41.11 42.88 44.13 43.28 42.11 41.84 43.55 46.73 48.00 47.35 47.15 47.36 46.71 45.98 45.83 44.22 41.51 38.08 42.57 41.88 37.07 42.48 44.10 44.84 46.08 45.57 43.03 47.60
47.79 47.92 47.43 48.86 48.32 46.45 44.98 44.55 44.30 40.07 35.27 37.98 36.19 37.25 39.55 39.27 41.15 40.47 43.76 45.64 43.65 45.54 48.90 49.30 48.17 46.74 48.30 48.65 48.61 49.85 44.81 43.67 43.19 39.10 37.54 33.03 44.11 47.46 47.96 45.92 46.74 48.65 48.20 48.97
47.31 47.55 46.83 48.10 47.94 47.13 45.66 47.15 44.18 41.35 37.11 39.07 37.71 36.84 38.36 40.97 42.68 41.60 42.99 46.47 48.07 50.01 47.21 41.27 37.07 37.98 41.65 44.31 47.29 47.34 48.38 45.13 40.34 38.55 37.53 41.95 42.55 44.27 45.17 44.97 45.43 49.73 48.73 49.56
47.01 47.14 46.24 48.09 47.38 47.25 45.55 46.78 48.51 45.28 39.59 37.83 41.36 37.07 38.88 38.36 39.81 41.78 43.47 48.40 50.56 48.23 44.78 41.43 34.63 31.08 36.00 38.43 41.89 44.57 44.56 45.60 44.32 37.46 35.89 34.64 44.27 48.54 50.11 48.86 41.51 50.37 49.96 49.49
46.72 46.63 46.39 47.59 47.10 47.05 45.68 45.75 49.79 45.49 39.78 43.12 43.17 38.87 39.22 42.48 42.00 41.17 43.16 45.25 45.22 47.29 41.47 39.04 36.54 36.88 40.34 35.48 38.19 38.10 39.20 40.49 39.63 39.46 39.00 42.48 47.89 48.24 49.18 40.26 43.86 50.99 51.17 50.52
46.45 46.33 46.73 47.23 46.89 46.95 44.78 43.84 49.71 45.92 41.60 42.73 43.76 44.43 42.35 42.87 43.72 40.75 44.12 43.30 43.81 42.06 38.19 39.21 39.16 38.66 40.76 40.57 42.39 41.56 40.33 39.69 39.54 41.23 38.69 36.62 48.79 46.20 44.76 50.54 51.73 51.58 51.54 51.66
46.25 46.68 47.09 46.63 46.96 47.05 45.79 41.92 48.74 50.33 44.57 42.10 44.37 42.54 44.76 46.88 47.96 46.54 46.78 43.88 43.55 44.15 40.72 42.69 43.51 39.81 39.78 41.79 37.98 43.92 39.13 44.73 43.61 44.28 44.46 51.15 49.92 51.48 52.50 52.84 51.90 50.71 51.65 51.54
46.45 46.91 46.80 46.70 47.22 46.38 45.83 43.86 46.85 46.60 42.77 42.56 42.55 40.14 47.57 50.32 50.62 52.89 44.15 46.57 47.44 46.47 49.89 46.92 46.48 42.49 43.80 38.93 40.83 42.91 44.66 45.73 44.88 44.00 48.87 49.29 50.04 51.71 50.66 50.90 51.33 51.20 52.13 51.82
46.20 46.73 46.33 46.36 46.19 46.08 45.64 43.98 46.87 45.87 42.42 36.22 38.95 46.85 45.78 50.08 51.51 50.81 51.46 49.82 50.79 51.19 50.07 46.80 45.47 43.32 46.43 43.70 46.34 43.17 46.11 44.51 46.02 46.43 48.85 46.57 49.35 51.27 52.00 50.12 50.09 49.82 51.73 50.97
46.70 46.56 46.68 47.34 45.98 45.94 45.77 46.10 46.31 47.72 42.91 36.51 37.78 43.86 45.62 47.21 48.94 49.80 50.29 49.94 50.27 50.06 47.07 44.32 42.76 47.74 45.35 45.08 44.39 44.41 46.28 46.15 44.11 45.08 50.64 50.54 51.88 53.11 52.29 50.08 49.05 49.97 50.21 48.69
46.66 46.99 47.00 45.56 45.08 45.05 44.56 37.67 45.44 47.96 47.74 38.90 32.94 42.99 43.85 47.24 49.41 49.38 48.89 49.65 49.39 49.70 47.54 47.07 48.02 47.43 46.51 42.31 42.19 46.82 48.21 49.47 50.60 48.94 49.43 51.15 47.48 48.99 51.67 50.02 49.92 49.59 49.45 49.16
46.08 46.17 45.99 45.06 44.67 44.14 40.31 38.67 44.26 46.55 46.82 40.33 35.06 36.37 44.16 46.91 48.43 48.64 49.52 50.67 49.17 48.08 47.19 46.79 47.67 47.45 46.29 44.16 41.63 47.56 49.32 49.36 49.04 47.51 46.67 46.02 45.94 47.63 47.29 48.29 47.91 46.38 48.23 47.36
45.18 45.49 44.91 44.62 44.76 44.21 43.06 48.07 46.04 46.91 43.45 40.13 34.76 34.68 38.50 47.67 43.47 42.35 46.91 46.26 47.77 47.86 46.55 47.98 46.28 46.15 44.74 41.64 46.98 49.21 47.45 46.73 46.42 46.06 45.00 44.91 46.42 45.71 44.59 45.10 43.93 42.91 42.60 42.46
44.93 44.95 44.79 45.05 43.43 39.49 39.37 46.22 45.17 47.90 42.24 36.82 35.16 35.13 34.69 46.16 42.58 43.53 42.31 44.29 39.12 44.61 43.50 44.85 46.93 44.62 41.27 44.10 43.53 47.02 46.83 45.57 46.27 43.01 43.06 42.54 42.52 42.21 41.84 41.93 42.53 41.73 40.16 40.29
44.91 43.50 39.90 36.43 41.34 45.78 45.34 41.58 39.00 39.90 40.68 42.38 37.81 43.70 39.06 45.66 40.60 38.99 38.31 37.87 37.14 35.89 42.51 44.93 42.13 42.88 44.04 42.29 43.59 44.45 43.89 43.31 42.83 40.57 38.88 39.23 39.18 39.46 39.20 39.78 40.27 39.99 38.78 38.70
41.81 38.88 38.37 45.46 46.15 44.85 40.23 35.14 34.81 35.94 34.25 39.44 40.56 41.89 40.18 46.38 41.53 40.25 40.30 35.71 36.04 38.61 41.13 41.26 39.38 40.24 40.65 40.12 40.79 41.62 42.30 42.83 43.43 44.22 43.72 43.41 42.05 40.02 39.21 38.99 38.39 38.56 38.12 36.88
43.55 44.38 46.41 44.95 42.18 38.87 33.46 32.45 32.76 32.81 33.80 37.96 38.07 39.73 41.64 39.52 45.20 40.47 38.80 36.95 36.87 33.91 38.11 38.17 35.64 33.89 36.53 37.50 38.24 41.06 41.58 42.06 41.09 41.63 41.00 40.70 40.36 39.67 38.89 37.54 34.45 33.51 32.21 31.52
46.85 43.49 39.23 38.38 34.74 31.19 29.73 29.10 31.88 32.42 34.46 35.24 36.91 36.27 43.47 40.89 39.44 37.18 38.25 34.27 34.64 36.10 33.50 29.74 29.78 33.68 34.83 35.82 36.19 35.57 36.70 36.68 35.44 34.99 36.51 34.13 33.21 33.46 31.75 29.84 29.78 29.76 29.36 29.44
38.39 35.66 30.29 31.37 30.08 30.73 31.75 32.04 33.37 34.27 33.01 33.91 36.09 36.09 35.36 34.09 33.55 33.01 33.37 32.82 34.26 32.64 29.16 26.99 30.86 31.86 32.85 33.02 33.59 32.02 31.16 31.27 31.75 31.33 30.99 29.51 29.10 29.18 29.87 30.08 30.47 30.26 29.74 30.15
32.69 32.26 26.40 29.04 31.34 30.33 31.34 31.92 32.82 33.10 33.87 33.90 34.46 34.77 36.12 32.82 32.64 31.92 32.61 31.72 27.07 26.78 24.74 28.40 30.69 32.82 32.33 31.05 30.87 29.91 29.13 28.82 28.72 29.02 28.51 28.45 28.80 28.27 28.54 29.59 29.37 28.43 27.28 26.09
30.35 25.56 23.88 26.86 27.58 25.42 26.36 26.68 28.52 32.54 32.02 34.42 35.28 32.98 31.92 29.61 30.44 27.05 24.43 24.99 20.55 23.75 25.99 28.74 31.97 30.73 30.55 30.16 29.95 29.82 29.59 28.98 28.41 28.19 27.94 27.49 27.02 26.40 25.67 26.08 25.86 25.82 25.51 24.45
27.96 24.99 25.66 24.26 24.64 23.30 24.82 26.19 26.76 30.83 33.35 30.64 30.58 25.23 23.70 29.52 24.44 21.13 23.36 20.83 23.20 25.47 25.80 28.10 29.84 29.30 29.13 29.31 29.31 29.52 29.29 28.19 27.78 27.46 26.97 26.73 27.05 26.68 25.07 22.99 23.60 23.70 23.06 23.19

GFSNW_sfc_wetblb_033.txt.gz
Wetbulb
50.47 50.91 50.76 50.81 50.54 50.25 48.29 42.75 34.69 49.29 50.43 37.61 37.45 33.34 39.42 42.50 44.45 46.07 45.59 46.13 46.34 43.95 45.31 45.26 43.61 43.79 46.98 49.85 49.58 45.48 48.55 46.67 42.14 44.41 49.06 49.81 48.60 46.95 47.01 42.04 40.23 43.04 42.32 41.86
50.10 50.05 50.63 50.57 50.32 50.04 45.76 38.09 39.41 50.16 49.08 31.96 33.89 38.76 38.71 40.98 41.08 44.12 43.17 43.58 47.44 48.62 45.43 42.70 46.10 46.37 49.61 50.29 48.90 47.54 49.03 44.86 39.49 42.15 45.69 48.38 46.06 48.30 48.36 46.84 46.58 39.76 38.99 40.89
49.59 49.59 50.19 50.33 50.09 50.10 46.27 38.56 33.01 39.67 42.53 42.80 38.40 36.73 37.05 36.94 42.26 43.24 45.18 43.80 46.45 45.55 45.28 47.92 44.88 45.91 48.80 50.34 49.90 48.52 49.61 45.73 42.46 39.29 42.41 45.63 43.36 45.32 47.27 46.54 42.99 42.33 42.90 44.09
48.30 48.58 48.96 49.78 50.00 49.80 45.71 38.28 36.22 40.02 32.69 36.13 39.89 40.46 38.79 36.88 37.09 42.03 45.02 43.06 43.95 43.66 41.55 43.62 44.12 46.28 47.36 48.18 48.32 49.19 49.33 43.04 44.37 44.83 45.90 45.65 44.47 44.50 45.38 44.58 45.38 41.72 44.62 44.68
47.72 48.19 48.33 49.03 49.91 49.79 42.93 33.51 37.45 41.47 39.36 40.08 38.80 38.12 37.33 37.52 39.23 40.90 40.85 41.53 44.04 44.19 42.24 44.41 42.30 45.89 45.71 44.88 48.36 47.57 49.75 43.08 44.69 42.72 45.25 44.82 43.06 44.75 45.31 45.67 45.96 45.84 46.16 45.49
47.85 48.03 47.90 48.36 49.46 49.08 40.34 41.18 45.24 42.83 39.14 37.65 37.70 38.48 38.30 37.95 41.23 43.13 44.36 43.80 44.12 43.15 44.14 48.83 49.15 48.72 47.37 48.43 47.28 45.98 46.05 44.67 42.15 38.89 43.96 43.60 39.79 43.79 44.96 45.52 46.62 46.33 43.27 47.31
47.79 47.84 47.67 47.88 48.67 48.67 43.07 44.66 44.88 41.67 35.33 37.04 38.00 39.20 40.42 39.51 40.67 40.22 43.08 45.09 43.95 47.52 51.24 50.60 48.22 45.79 45.43 46.16 46.56 49.04 45.81 44.87 43.89 40.37 41.47 33.40 44.13 49.15 48.44 46.70 47.32 48.31 47.89 48.63
47.28 47.58 47.56 47.57 47.91 49.32 43.99 46.56 45.36 41.80 37.15 39.42 39.12 38.97 39.91 41.49 42.19 41.75 42.81 44.92 47.26 50.27 48.45 42.97 38.53 37.79 38.66 40.00 42.56 45.83 48.72 45.84 41.98 38.85 37.96 41.74 44.00 46.94 46.95 45.81 45.54 49.65 48.99 50.16
46.83 47.06 47.16 47.44 47.05 48.24 45.63 47.15 49.69 45.44 40.36 38.54 41.81 39.52 41.05 39.23 40.46 40.55 43.80 48.47 51.67 50.87 44.96 41.04 34.00 32.15 35.28 33.38 39.41 46.84 47.18 48.37 44.00 41.30 36.26 33.54 44.13 49.06 51.51 50.52 42.97 50.53 51.10 50.96
46.91 46.73 47.12 47.18 46.52 47.54 46.03 47.36 50.50 46.41 39.66 43.18 43.30 39.62 39.96 43.27 41.93 41.13 42.24 44.61 46.22 49.33 42.86 39.65 36.16 35.79 39.67 34.27 35.27 37.74 40.37 41.34 40.32 40.55 39.05 42.37 48.43 50.39 52.18 41.75 44.11 51.66 51.92 51.89
46.58 46.83 46.62 46.48 46.85 47.07 46.29 46.98 52.07 47.18 41.66 42.95 44.42 45.68 43.21 42.24 43.75 40.75 43.57 43.03 43.50 44.27 39.90 38.95 38.27 39.15 40.71 39.76 40.85 39.50 39.75 39.49 40.30 42.05 39.03 36.80 50.79 50.39 45.70 50.42 53.49 53.72 53.86 53.05
46.31 46.56 46.58 46.06 46.96 46.65 46.99 44.15 49.99 50.16 45.75 43.26 47.99 48.48 49.64 48.33 48.05 46.03 46.84 44.42 44.55 45.85 42.08 43.38 42.34 42.80 43.73 41.31 37.20 44.72 37.08 44.80 43.31 44.89 44.49 51.46 52.79 51.99 53.94 54.31 53.92 54.66 54.00 53.63
46.29 46.46 46.06 46.74 46.54 46.95 46.94 46.60 48.40 47.53 42.42 44.25 44.64 43.80 48.64 50.36 51.47 53.17 45.15 47.73 49.20 47.83 49.95 45.52 45.49 41.45 45.56 38.99 41.41 43.51 45.73 48.15 45.41 46.62 49.48 50.83 52.92 53.86 54.85 55.41 54.98 55.38 55.14 54.27
46.20 46.73 46.79 46.79 46.24 46.70 47.59 47.03 48.22 46.34 43.02 37.97 40.94 48.48 46.16 49.92 51.32 51.24 52.06 50.48 50.68 50.83 49.59 46.84 46.17 42.99 46.28 43.98 44.28 43.31 45.54 47.53 45.60 46.37 48.95 51.05 52.38 53.72 54.75 54.55 54.50 53.87 53.66 54.28
46.43 46.84 46.81 46.47 46.49 46.81 47.53 48.22 48.80 49.23 43.58 38.07 39.47 44.89 46.56 48.19 48.93 49.37 51.22 50.58 49.63 47.93 46.36 46.04 43.55 46.36 46.04 47.51 46.98 44.78 47.34 45.98 44.33 44.90 49.84 51.73 52.10 54.31 55.75 54.42 53.22 52.91 52.70 53.12
46.19 46.42 46.72 46.47 46.45 46.54 44.81 38.78 47.29 48.05 49.58 43.71 36.65 44.57 44.10 46.15 47.88 47.45 48.69 49.62 49.30 48.73 46.66 46.90 47.37 48.27 46.20 42.99 41.45 45.14 47.72 50.56 51.46 49.11 52.19 52.45 54.02 52.85 53.71 54.37 54.46 53.85 53.02 53.39
45.73 45.77 45.82 46.06 46.10 46.34 41.92 41.06 45.39 47.22 49.08 42.50 36.32 36.40 43.98 46.67 47.17 47.51 47.85 49.63 48.27 48.62 47.45 46.94 47.01 47.30 47.46 44.88 41.38 46.29 48.79 48.96 50.78 52.54 50.79 48.46 50.30 50.53 51.80 52.74 53.41 51.45 52.98 53.24
45.26 45.17 45.42 45.49 45.31 45.69 44.64 46.86 46.33 47.98 44.49 42.03 32.71 33.58 35.67 45.89 41.63 41.88 48.89 46.39 47.65 46.36 44.73 47.37 46.13 47.80 47.59 41.77 45.13 46.90 48.06 49.95 49.84 50.81 50.21 49.60 49.32 49.43 48.74 50.37 49.95 49.30 49.93 50.56
45.08 44.65 45.09 44.67 43.66 40.55 43.24 45.82 45.96 49.98 44.20 35.03 35.81 32.60 32.28 44.07 41.71 43.42 45.24 47.89 41.06 46.95 43.69 44.35 46.00 44.39 41.02 44.68 46.17 46.81 47.19 47.55 47.18 48.53 47.40 47.12 47.19 47.17 46.47 46.58 46.65 47.13 46.93 47.33
44.56 45.55 41.33 37.27 42.56 45.71 45.22 44.08 40.99 41.19 42.52 40.77 35.88 39.83 33.73 43.55 39.30 38.08 38.51 40.95 38.91 37.68 42.43 46.62 43.13 42.67 43.70 42.28 43.83 45.34 46.22 46.76 47.02 45.52 45.59 45.34 44.82 44.87 44.19 44.58 45.37 45.22 44.58 44.75
45.43 41.79 38.80 44.20 45.37 42.06 39.23 35.83 35.43 37.18 34.50 39.09 39.55 39.52 36.33 43.97 38.40 36.96 38.48 35.00 38.34 35.71 38.83 40.42 39.98 38.61 34.32 37.62 39.24 42.93 45.31 46.25 46.51 46.45 46.40 46.88 46.70 44.88 43.25 42.79 43.24 42.96 42.39 40.84
43.62 44.25 44.73 43.32 36.33 35.03 34.37 33.22 35.02 35.20 34.37 41.25 39.57 41.33 42.46 39.35 44.74 41.94 41.48 35.27 35.91 34.46 39.39 38.55 31.79 30.40 33.00 33.95 35.49 36.72 38.76 40.57 42.82 44.35 43.92 44.20 43.25 43.77 42.11 40.13 36.36 33.91 32.16 31.58
48.00 42.91 38.75 38.61 36.43 31.36 32.09 28.06 30.58 32.31 37.54 38.16 39.96 38.21 44.22 43.37 42.42 39.76 39.97 37.10 34.28 36.39 32.18 28.50 29.79 32.25 32.64 32.77 33.08 32.59 33.65 34.89 34.58 33.04 33.68 32.92 32.29 32.92 31.91 30.66 30.82 30.62 29.37 29.08
38.17 35.83 30.47 32.46 31.50 29.92 28.65 29.59 31.92 33.37 33.91 36.63 37.72 38.81 37.44 35.73 34.28 32.65 33.55 32.46 34.99 32.10 28.76 26.52 29.51 30.96 31.69 32.05 31.53 29.78 29.03 29.43 29.43 29.56 29.82 29.30 29.33 29.60 30.54 30.93 31.11 30.25 29.37 29.65
31.15 31.32 25.30 26.77 30.01 31.26 30.76 32.09 33.37 34.36 34.35 33.52 35.18 35.73 35.12 33.19 33.01 32.83 34.10 32.10 26.95 26.31 24.89 27.35 30.80 31.31 31.46 30.81 30.76 30.01 29.29 28.75 28.40 28.61 27.67 27.36 27.86 27.42 27.49 28.62 28.78 27.78 26.49 25.73
29.75 25.24 24.31 25.58 27.60 28.01 27.93 28.36 30.61 31.90 30.72 34.44 34.76 33.01 33.01 30.59 31.35 27.08 26.13 25.61 21.42 24.07 26.91 28.52 30.78 29.80 29.65 29.51 29.48 29.64 29.71 29.32 28.72 28.17 27.75 27.16 26.07 25.50 25.33 25.77 25.83 25.97 26.03 25.36
27.41 24.58 25.61 24.44 23.91 23.92 27.27 29.05 30.66 32.50 31.89 31.29 32.81 26.59 25.94 32.10 26.11 22.24 24.71 21.30 23.80 26.34 27.14 27.69 27.55 27.67 28.11 28.62 28.57 28.87 29.05 28.52 28.36 27.88 27.37 26.91 27.35 27.05 25.92 23.94 24.13 24.25 23.88 23.85

GFSNW_sfc_wetblb_036.txt.gz
Wetbulb
49.93 50.16 50.62 50.81 51.05 50.85 48.99 43.50 34.47 47.27 50.55 37.06 37.05 33.39 36.78 41.00 41.20 43.49 42.56 42.82 41.74 40.63 42.28 42.65 44.32 43.56 46.21 49.73 49.16 45.01 47.76 45.42 40.11 42.93 48.14 49.33 47.79 45.99 45.41 39.73 39.24 42.48 41.45 40.50
49.57 49.85 49.89 50.26 50.64 50.74 46.78 39.33 39.02 47.59 47.31 30.18 32.53 36.49 38.32 39.24 39.51 40.71 40.92 41.33 43.36 44.51 42.86 39.85 43.43 45.90 50.30 50.44 49.01 45.91 47.55 42.54 37.41 40.77 44.89 48.09 45.19 46.13 46.80 46.73 45.59 41.17 37.81 39.84
49.35 49.37 49.90 50.11 50.16 50.90 47.39 39.47 32.33 39.75 41.75 42.17 36.74 34.67 36.43 36.13 41.37 40.56 41.74 41.39 44.10 42.91 42.17 44.24 41.80 41.82 48.62 51.49 49.71 47.82 49.19 45.05 41.18 36.50 41.20 45.06 43.27 44.81 46.15 45.85 40.73 40.95 41.44 43.51
48.30 48.64 48.97 50.21 50.18 50.67 47.05 38.47 34.11 38.98 32.67 34.96 38.46 38.65 37.60 35.58 35.88 40.51 42.11 40.88 41.49 41.59 38.22 39.45 39.35 42.01 44.60 48.53 49.14 49.11 48.82 41.84 43.40 44.49 45.20 45.45 44.65 44.17 44.44 43.45 45.34 41.74 43.23 44.03
48.30 48.14 48.72 49.55 50.22 50.36 45.01 32.21 36.93 41.07 38.79 38.56 37.00 36.97 36.94 36.23 38.29 39.30 37.06 38.46 40.69 42.50 39.94 41.92 39.70 43.42 43.64 44.88 48.37 47.32 49.67 41.66 43.34 41.14 45.03 44.41 42.63 44.78 45.06 44.70 44.82 44.47 45.42 45.09
47.85 48.03 47.93 48.65 49.21 49.40 44.04 39.36 43.84 41.42 38.02 37.63 34.96 35.72 37.90 38.13 40.93 41.89 42.12 41.24 40.98 41.26 43.15 47.10 46.54 47.45 45.77 44.41 45.26 45.33 45.53 43.89 41.41 37.59 43.59 41.97 37.11 42.91 44.41 45.26 46.53 46.06 42.35 47.23
47.35 47.45 47.48 47.71 48.56 48.41 43.23 39.83 43.32 38.31 34.50 37.40 36.50 37.87 39.39 39.06 40.03 39.52 42.36 43.70 41.51 45.59 50.76 50.00 48.11 44.98 44.84 44.31 44.48 46.16 42.66 44.24 42.67 37.91 38.80 30.63 43.09 48.14 47.02 45.29 46.26 47.68 47.48 48.20
47.29 46.99 47.12 47.29 47.52 48.13 44.98 42.16 43.04 39.48 35.38 38.53 38.28 38.33 39.16 40.32 41.67 40.98 41.87 44.03 46.54 49.41 46.98 40.79 37.85 37.60 38.36 39.17 41.53 41.50 43.83 42.73 40.33 36.27 36.27 40.62 42.76 45.90 45.73 44.96 44.51 48.73 47.69 49.16
47.31 46.97 46.96 47.21 47.36 47.88 46.45 42.89 46.30 43.97 37.10 37.64 41.35 38.92 40.49 37.58 38.54 39.80 42.50 46.76 48.09 48.69 43.18 39.37 32.57 31.08 35.05 32.82 34.93 41.62 42.14 44.88 41.59 39.73 34.31 31.63 42.86 48.08 50.18 49.55 40.21 49.81 49.90 49.89
47.18 46.85 46.69 47.09 47.22 47.75 46.54 43.11 45.18 44.94 39.18 42.44 42.45 38.67 38.19 42.35 40.66 39.67 42.34 43.73 44.60 47.85 37.12 33.40 34.26 34.01 38.69 33.17 33.42 33.96 33.70 38.40 38.08 37.73 36.44 40.95 47.36 49.07 50.22 39.56 42.08 52.13 52.44 51.40
46.92 46.73 46.85 46.73 47.02 47.50 46.29 42.97 47.36 45.55 40.71 43.62 44.59 44.58 41.78 42.29 42.08 38.59 42.89 41.79 41.88 43.01 37.44 36.31 37.02 37.21 38.19 36.88 39.33 38.94 35.70 35.75 38.06 39.70 35.47 33.41 50.63 48.71 43.91 48.88 53.97 54.21 53.49 54.34
46.45 46.53 46.73 46.74 46.98 47.03 46.39 42.48 47.98 51.13 44.32 43.38 48.19 48.18 48.89 47.71 47.01 44.65 45.37 43.20 42.50 41.90 38.92 41.76 41.57 41.48 42.09 40.21 34.30 43.50 35.86 39.57 40.01 40.28 41.86 50.06 50.22 49.46 52.99 54.96 54.51 54.36 54.86 55.01
46.46 46.69 46.78 46.85 46.94 46.89 46.55 45.05 46.29 46.41 42.86 42.77 43.71 42.68 47.37 50.97 51.32 52.51 44.17 46.35 47.37 46.04 48.29 45.68 45.11 40.55 44.80 38.70 38.73 40.79 43.26 45.24 40.29 39.84 45.83 47.49 51.28 53.04 53.81 54.60 54.41 54.40 55.27 55.18
46.31 46.46 46.57 46.43 46.58 46.48 47.15 45.43 47.55 46.54 43.45 36.96 39.62 48.84 46.69 51.29 51.35 51.08 50.69 49.29 49.39 49.19 48.48 45.56 44.97 41.74 46.58 41.49 43.10 40.40 43.66 43.96 43.12 42.63 44.30 44.50 48.23 50.99 53.29 54.42 55.11 55.31 55.08 54.75
46.34 46.15 46.64 46.79 46.86 46.94 47.52 47.54 48.67 50.35 43.01 36.75 39.50 45.80 47.58 48.48 49.05 48.60 49.12 47.94 47.41 44.90 41.98 44.27 42.45 45.64 46.02 48.22 45.70 42.34 45.55 43.97 41.55 40.50 47.66 48.13 49.28 51.67 53.65 52.69 52.03 54.37 53.41 52.90
45.99 46.52 46.31 46.34 46.53 47.39 45.40 38.69 46.48 49.05 48.95 41.72 36.00 45.20 44.00 45.82 46.95 46.62 46.62 47.73 48.59 48.34 45.74 43.86 45.93 48.37 45.58 42.87 39.57 45.07 46.79 47.53 48.31 46.76 50.98 51.73 51.94 52.07 53.55 51.90 52.36 53.93 53.87 53.32
46.22 45.85 46.64 46.82 46.55 47.54 42.55 40.76 45.12 47.53 48.98 40.97 36.16 36.94 43.56 45.79 45.72 45.78 45.86 47.81 46.47 47.64 44.60 44.80 45.30 45.88 45.54 42.19 38.10 45.20 46.91 48.40 48.99 51.05 50.49 49.20 50.63 49.52 51.90 51.56 52.11 53.10 53.20 53.31
45.45 45.69 46.23 46.11 46.46 46.57 43.45 46.74 46.71 48.78 44.68 42.20 34.75 34.66 37.00 44.63 41.62 40.80 46.61 44.36 45.66 45.57 45.18 46.41 44.69 46.36 45.08 39.96 43.62 46.13 47.01 48.51 48.47 49.84 51.37 50.30 49.27 48.94 49.43 49.92 50.55 50.51 50.32 51.16
45.69 45.66 46.01 45.63 44.55 41.88 43.06 45.30 46.64 51.77 44.77 36.28 35.36 32.26 30.48 39.56 42.83 45.40 44.79 46.25 39.82 45.62 43.00 42.93 44.86 42.39 37.42 36.69 38.41 41.49 44.09 44.75 45.08 47.17 48.07 48.04 47.29 47.57 48.15 47.32 47.01 47.00 48.94 49.84
45.76 44.94 41.51 37.29 42.78 45.19 44.86 43.49 40.79 40.51 41.81 41.59 34.56 38.30 32.75 37.84 37.12 40.15 41.84 43.53 39.42 36.45 41.49 44.94 40.43 37.18 34.99 34.47 36.28 38.84 39.09 42.51 45.73 43.46 43.10 44.43 45.23 46.77 46.21 45.23 46.50 47.04 46.93 46.14
43.74 40.44 37.18 43.77 45.22 44.72 40.93 35.85 34.89 36.39 33.64 37.92 36.87 36.68 34.25 37.83 33.63 35.46 39.51 35.39 38.66 34.86 38.80 38.66 37.41 32.13 31.24 33.51 33.70 36.48 36.63 39.81 41.49 43.27 43.91 43.63 44.79 45.78 44.28 42.86 39.36 36.18 35.23 33.11
42.80 42.55 43.60 43.25 39.62 35.90 33.64 32.75 34.66 33.74 32.23 38.06 36.93 37.81 36.82 34.01 43.08 36.67 37.72 34.60 34.96 32.69 42.47 36.17 26.77 28.99 32.10 31.64 31.74 31.84 33.69 35.21 35.02 36.40 35.81 35.39 35.43 36.06 34.54 32.66 31.64 31.19 30.43 29.07
46.96 42.92 37.39 35.41 34.38 30.58 30.19 26.75 30.08 32.65 32.84 35.56 36.64 34.01 37.58 39.15 41.01 36.18 36.90 31.88 32.04 34.50 31.55 26.51 26.84 29.65 31.05 30.94 30.32 29.63 30.70 30.97 30.97 30.15 30.85 30.73 30.00 30.40 29.59 28.18 28.45 28.25 27.13 26.73
37.34 34.62 29.53 30.87 28.00 27.92 26.72 27.61 30.17 32.60 32.78 32.42 33.94 36.57 34.58 34.41 32.95 32.60 32.06 31.68 32.56 30.21 26.57 22.39 26.53 28.76 29.91 30.39 30.47 28.81 27.86 28.16 27.61 27.50 27.78 27.02 26.36 25.87 26.65 27.69 27.72 26.29 25.37 26.20
30.31 30.99 24.42 25.61 29.34 29.87 30.04 32.00 32.95 32.42 32.71 32.57 34.58 34.58 34.76 33.33 32.01 32.57 33.36 30.76 22.98 23.25 21.52 24.44 27.89 28.95 28.99 28.61 28.83 28.47 27.67 27.18 26.64 26.67 25.72 25.20 25.34 25.10 25.19 26.12 26.05 25.42 24.57 24.00
28.02 25.23 24.53 26.01 27.24 26.38 27.85 28.73 30.20 32.78 30.32 32.36 34.37 32.60 31.86 29.54 29.73 25.89 24.53 23.15 19.34 21.43 24.62 26.22 28.37 27.16 27.63 27.75 27.73 27.61 27.75 27.33 26.79 26.78 26.04 25.26 24.15 23.42 23.34 24.12 24.14 24.03 23.75 22.92
27.36 24.50 26.91 26.68 26.15 25.96 28.74 29.93 30.00 33.51 32.36 31.32 31.01 26.42 26.06 30.93 24.56 20.40 23.87 19.95 22.33 24.37 25.58 25.94 25.98 26.44 26.34 26.12 25.84 26.24 26.73 26.88 26.92 26.66 26.43 26.04 26.22 25.66 24.42 22.84 23.92 24.20 23.87 23.29

GFSNW_sfc_wetblb_042.txt.gz
Wetbulb
47.93 48.36 48.71 48.90 49.57 50.28 48.67 44.33 34.55 45.43 47.49 35.16 35.01 30.13 33.64 38.76 36.94 39.75 37.28 38.21 36.55 34.03 35.79 34.58 34.87 36.39 40.82 46.36 45.60 40.92 42.47 38.00 33.72 37.20 43.42 45.01 42.53 41.39 40.77 33.36 33.01 33.92 30.43 34.44
47.84 47.98 48.39 48.70 49.02 49.72 46.42 39.44 38.39 45.72 43.68 28.89 29.86 33.49 33.68 35.81 35.81 36.21 36.42 35.67 37.50 37.77 34.96 32.44 35.97 38.34 47.20 47.21 45.28 42.06 43.66 37.49 30.13 34.33 38.87 41.37 39.32 40.98 42.49 40.78 37.51 33.29 29.53 33.84
47.77 48.06 48.17 48.39 48.74 49.48 46.39 38.83 31.60 38.99 40.03 36.56 32.43 30.43 30.82 31.47 37.72 35.76 36.91 36.15 37.41 34.98 33.04 35.93 33.75 37.12 44.54 47.14 46.12 46.06 46.24 40.81 36.24 30.68 34.72 38.71 37.42 40.78 41.69 40.61 31.59 32.56 33.73 37.80
47.57 47.61 47.90 48.11 48.61 49.00 45.63 38.45 32.40 36.75 32.10 33.13 33.98 33.82 32.64 30.61 30.50 36.66 37.97 34.88 34.54 33.60 29.86 31.73 31.71 36.55 41.55 46.00 45.48 45.80 44.81 37.35 38.41 39.48 40.96 40.81 40.42 40.61 40.75 39.22 38.39 34.57 37.17 38.50
47.14 47.68 47.82 47.93 48.28 48.74 43.62 32.36 34.03 37.88 34.24 36.48 34.02 33.88 31.04 30.81 32.52 34.13 33.04 33.64 35.23 34.85 31.52 32.84 30.85 34.34 35.50 39.06 43.55 41.89 42.09 36.75 36.02 33.95 40.07 40.42 38.35 40.64 41.45 41.66 40.84 39.37 40.01 39.76
47.57 47.85 47.90 48.11 48.37 48.16 41.72 42.33 40.11 38.84 36.42 35.34 33.19 31.68 31.63 32.64 34.41 36.31 37.06 36.32 35.16 33.19 34.89 37.92 39.95 40.27 41.32 41.64 40.21 37.25 38.92 35.45 33.07 29.01 36.65 37.56 32.36 38.50 40.76 41.37 42.22 42.54 37.29 42.18
47.82 47.74 47.58 47.65 48.19 48.30 45.11 42.81 41.65 35.84 32.03 33.79 33.13 34.17 34.59 33.23 35.53 32.69 37.22 37.86 34.95 38.48 42.11 44.26 42.61 42.12 42.23 42.75 41.91 41.76 36.74 35.00 33.73 29.49 32.47 27.06 38.62 42.86 43.52 42.02 42.37 43.01 42.23 42.98
47.33 47.24 47.15 47.11 47.59 48.04 44.73 43.99 41.25 37.64 31.68 34.87 34.08 34.66 34.62 35.50 36.28 35.73 35.73 37.90 40.64 41.70 38.83 34.96 33.36 29.84 32.59 36.49 40.97 41.07 41.26 36.01 31.21 28.64 29.50 34.81 38.02 41.67 40.00 38.93 39.59 43.83 42.90 44.65
46.79 46.63 46.79 47.00 47.21 47.92 45.63 44.08 44.02 39.90 34.78 33.95 37.22 34.56 35.45 32.85 32.45 33.55 35.95 41.60 43.38 40.91 35.27 33.08 26.41 23.47 29.99 30.34 35.14 42.40 38.55 38.20 33.20 30.53 26.08 26.52 35.80 43.00 46.47 44.76 33.74 43.81 45.81 45.03
46.85 46.98 47.10 47.04 47.07 47.61 45.53 44.00 43.86 39.34 32.57 38.08 38.28 34.26 34.22 37.28 35.13 32.74 34.55 36.89 37.83 41.31 30.68 28.73 26.82 25.88 34.30 28.26 28.87 31.46 31.52 31.30 30.33 29.44 27.95 33.28 41.84 43.07 46.46 35.37 35.62 45.59 46.54 45.90
46.85 47.08 47.12 47.06 47.16 47.27 45.65 42.75 43.95 40.39 35.43 37.76 41.05 41.42 37.57 37.20 36.69 32.11 34.63 35.33 36.99 35.88 31.08 29.56 27.50 25.68 31.31 30.44 34.04 32.12 30.57 29.33 28.49 31.34 28.67 27.96 43.95 43.42 38.57 41.99 45.53 47.96 47.75 45.71
46.66 46.99 46.96 47.08 47.19 47.25 46.99 41.27 44.35 45.69 39.15 39.03 44.10 43.69 44.73 42.95 42.23 39.00 38.44 36.98 37.28 38.29 34.29 31.93 30.21 26.45 24.77 29.52 25.25 38.40 30.90 34.91 32.35 33.85 33.07 43.25 45.50 45.07 46.27 47.68 46.84 47.27 46.76 47.72
46.45 46.82 46.44 47.30 47.19 47.31 46.77 42.73 43.62 42.73 38.22 35.36 36.88 39.31 45.14 48.90 47.23 46.58 37.56 38.90 41.89 41.77 42.90 36.42 33.86 28.57 29.84 24.13 28.35 32.23 37.08 40.59 36.99 37.84 40.32 41.47 44.27 45.57 47.49 47.40 47.62 48.91 48.75 48.86
46.52 46.68 46.91 47.21 47.30 47.57 47.21 42.40 44.02 41.61 38.92 32.67 34.08 43.04 42.51 48.37 47.89 47.13 44.89 43.28 45.62 43.30 40.06 37.31 34.71 28.76 36.30 27.96 33.36 31.21 37.48 40.66 38.59 38.01 40.91 42.65 44.37 46.45 47.35 46.62 48.83 49.12 49.00 49.24
46.43 46.47 46.48 46.77 47.23 47.51 45.46 44.54 43.88 43.83 37.89 30.57 35.18 42.37 45.17 46.77 47.22 46.18 46.46 44.76 42.03 40.55 37.79 33.17 31.87 35.66 35.49 35.17 36.25 31.97 39.51 38.52 35.91 34.20 40.85 40.23 41.74 45.95 47.18 46.59 47.97 48.43 48.02 48.65
46.08 46.45 46.72 46.78 46.83 46.73 43.70 37.91 43.67 44.16 45.24 39.60 32.03 41.44 42.78 45.31 44.83 44.62 43.59 44.09 42.21 41.81 40.27 34.42 37.68 40.60 36.72 30.01 30.63 39.03 39.06 39.78 41.90 40.20 43.46 44.47 45.82 45.97 47.80 47.43 47.67 50.36 49.37 48.72
46.11 46.43 46.61 46.77 46.18 44.35 39.54 36.00 41.40 46.35 46.35 39.46 33.38 34.77 40.73 42.74 43.75 42.85 43.31 44.88 43.59 40.62 40.58 38.86 36.51 37.65 39.86 28.05 28.84 35.93 37.93 37.66 41.55 41.11 43.70 42.94 43.52 42.68 44.83 45.37 45.76 47.12 47.67 47.56
46.23 46.13 46.06 46.27 46.48 46.13 42.40 44.10 45.92 45.73 41.75 38.55 30.20 31.39 35.64 39.70 33.83 35.14 41.65 38.20 39.86 41.30 39.31 39.54 37.02 38.61 37.90 30.35 31.78 33.91 35.51 36.74 38.71 38.60 40.57 40.96 43.08 42.29 40.99 42.29 43.58 40.56 37.95 38.31
45.94 45.69 46.36 45.04 43.32 40.00 41.45 46.46 46.27 46.63 41.17 29.23 26.98 25.07 29.31 37.65 35.31 35.36 36.15 38.65 30.88 39.69 34.72 35.38 38.64 30.66 24.55 28.29 29.75 30.94 31.67 33.40 35.50 38.34 37.84 38.60 36.89 35.70 35.04 35.18 34.70 33.16 30.98 30.70
45.90 43.83 38.95 34.74 40.48 45.24 45.39 42.39 38.13 36.89 38.02 35.24 27.91 30.74 28.98 36.61 33.23 32.14 30.89 30.26 30.79 29.65 33.01 39.55 30.96 26.66 29.76 29.84 30.97 30.71 31.46 34.07 34.96 35.10 34.01 34.72 34.57 32.46 30.72 30.07 29.95 29.08 27.88 26.88
40.68 36.94 35.48 40.92 44.46 41.16 37.32 31.51 30.36 31.81 28.64 31.07 30.65 29.69 31.90 36.45 28.74 32.61 29.56 27.78 29.12 26.81 29.90 30.53 25.86 22.15 25.75 28.31 27.95 29.13 30.96 32.14 32.32 34.04 33.35 32.68 32.23 30.89 28.80 27.21 26.97 26.18 25.53 24.67
40.19 39.27 40.49 38.54 36.92 31.39 28.49 26.11 27.91 28.10 28.85 31.56 28.32 30.48 34.09 34.50 37.22 33.88 33.88 28.72 31.11 25.55 31.78 25.35 19.26 23.01 26.38 26.47 25.99 26.51 27.58 27.92 27.48 28.38 27.69 28.09 27.59 27.36 26.17 25.36 24.78 24.51 24.55 24.31
42.27 37.06 33.43 31.95 26.86 18.79 18.72 22.91 27.31 27.78 30.25 30.98 32.31 32.52 32.69 34.38 35.46 32.70 32.03 30.26 28.81 32.69 23.37 16.53 19.86 24.13 25.22 25.45 25.00 24.36 25.27 25.64 25.45 24.82 25.07 24.28 23.86 24.59 24.28 23.19 23.54 23.39 22.30 22.33
29.79 25.40 16.64 17.82 15.81 20.50 21.44 23.06 25.11 29.52 30.46 29.34 30.25 31.57 31.62 31.78 31.24 32.33 28.81 28.27 28.06 20.31 14.83 14.11 20.49 22.90 24.11 24.64 24.74 23.01 22.22 22.77 22.64 22.70 23.03 22.68 22.43 22.22 22.92 22.73 22.74 21.98 20.68 21.36
23.56 22.36 15.14 16.55 23.04 23.34 23.81 26.36 27.50 29.88 31.56 30.04 31.38 31.62 32.67 30.04 27.35 26.44 26.68 19.89 15.16 15.98 13.14 17.98 21.81 23.78 24.04 23.47 23.68 23.13 22.56 22.05 21.67 22.04 21.46 21.50 21.83 21.36 21.28 22.20 22.36 22.10 21.57 21.02
21.60 20.33 15.04 17.51 14.95 17.71 19.38 23.61 25.90 29.94 29.57 31.39 31.35 29.51 26.60 21.82 22.50 18.31 17.34 15.46 12.20 15.07 19.02 21.31 22.22 21.34 21.89 22.29 23.38 23.77 23.52 23.13 22.60 22.59 22.36 21.94 21.16 20.41 20.49 20.96 20.62 20.32 20.58 19.38
17.31 15.41 13.78 14.06 13.33 18.49 23.38 25.81 25.53 28.93 29.70 26.55 26.15 19.13 19.73 24.82 19.55 15.05 16.62 12.82 15.67 17.66 18.91 20.97 21.73 20.98 20.84 21.34 21.17 21.15 20.96 20.09 20.10 21.17 22.14 21.68 22.15 21.77 20.06 18.42 19.51 20.16 19.92 19.02

GFSNW_sfc_wetblb_045.txt.gz
Wetbulb
47.08 47.19 47.84 48.32 48.35 48.64 47.53 42.47 33.55 45.63 47.04 34.57 35.31 29.08 32.13 37.33 36.14 38.89 36.86 36.48 35.84 33.53 34.65 32.18 33.20 33.64 37.39 45.51 44.35 39.67 42.22 36.06 30.78 36.14 42.28 42.61 39.55 38.08 38.11 32.64 30.80 31.98 29.08 33.90
46.62 47.10 47.66 47.93 48.01 48.67 44.82 37.09 37.40 45.98 44.05 29.76 30.07 33.25 32.04 34.97 34.74 35.19 35.35 34.51 36.11 36.61 33.26 29.80 33.96 35.94 44.54 46.39 44.06 40.95 43.24 37.00 29.22 31.94 37.39 39.15 36.87 38.53 39.25 38.31 35.11 33.31 29.21 33.20
46.71 47.01 47.35 47.83 48.15 48.61 44.48 36.37 30.97 38.18 40.44 36.29 32.44 31.22 30.99 30.93 36.26 34.55 36.07 35.09 35.80 33.73 32.03 34.16 31.35 34.87 39.87 46.44 44.89 46.08 44.59 39.27 36.73 31.89 33.68 37.78 35.11 38.47 39.85 38.91 31.20 31.03 34.00 36.07
46.56 46.87 47.11 47.76 48.01 48.11 43.90 36.91 31.35 37.48 31.07 33.17 33.78 33.64 32.85 30.63 30.25 35.61 36.12 32.97 33.21 31.77 28.27 29.72 29.27 34.12 38.69 43.64 45.48 44.94 42.48 34.08 36.48 36.73 37.24 38.29 37.14 38.46 39.51 37.38 37.76 34.04 35.88 36.66
46.21 46.56 47.19 47.40 47.88 47.67 40.86 32.08 34.30 37.58 35.86 36.82 33.88 33.82 31.18 30.73 32.19 33.84 32.16 31.94 34.56 33.83 30.23 31.18 29.36 32.65 32.79 35.67 41.41 39.99 42.69 33.60 35.56 32.01 38.01 36.61 34.62 37.16 38.07 39.46 38.87 37.23 38.06 37.00
46.38 46.84 47.18 47.04 47.30 46.65 39.70 39.78 40.54 38.66 36.53 35.38 32.99 31.66 32.49 32.49 34.79 35.07 36.03 34.79 33.04 31.87 34.00 35.96 36.76 36.73 37.18 37.95 38.53 37.21 37.81 35.24 32.57 27.29 33.08 34.13 28.91 34.99 37.36 39.61 41.25 40.32 36.34 40.72
46.78 46.95 46.90 47.06 47.53 46.88 42.85 42.11 40.97 35.04 30.93 33.73 32.94 34.63 34.57 33.09 34.46 32.05 35.47 36.15 33.62 36.93 40.31 40.41 41.69 41.45 41.21 41.29 40.68 40.00 34.66 33.37 32.09 28.56 30.17 22.51 33.91 39.50 39.98 39.36 41.47 42.78 42.59 42.98
46.43 46.78 47.05 47.36 47.37 47.46 44.35 44.34 41.13 37.29 30.64 34.76 34.46 35.21 35.15 35.38 35.27 34.16 34.30 36.54 38.98 41.62 37.14 33.90 30.53 28.45 31.78 35.63 40.15 38.58 38.34 33.37 29.53 24.79 25.58 30.64 32.95 38.10 38.32 35.55 36.55 42.99 42.26 43.50
46.47 46.43 46.73 46.90 47.01 47.52 45.62 44.67 44.70 40.35 34.04 31.87 36.92 35.24 36.20 32.79 31.53 31.92 34.55 40.05 41.33 39.82 35.11 32.44 26.75 22.02 27.94 29.27 35.47 40.64 38.20 36.58 28.20 30.15 22.28 19.53 32.27 39.72 43.99 43.56 34.20 42.82 44.83 42.58
46.24 46.50 46.66 46.89 47.20 47.45 45.09 43.76 45.20 40.16 32.27 37.35 38.24 34.49 34.38 37.65 34.71 31.52 33.68 35.83 36.68 39.69 29.73 29.65 26.89 25.77 31.93 27.09 28.45 31.15 31.91 31.80 30.41 30.07 28.14 29.01 37.89 41.87 44.79 33.07 33.47 43.67 46.31 44.92
45.97 46.24 46.41 46.52 46.82 47.11 44.95 42.06 45.66 40.40 34.94 36.29 40.94 40.94 37.80 37.14 36.40 30.83 34.04 35.04 35.79 34.61 29.04 29.99 28.27 23.33 28.68 28.95 32.32 30.73 29.60 29.05 28.12 30.95 28.47 25.53 41.83 43.11 37.06 41.09 43.95 45.40 46.92 45.80
46.13 46.03 46.45 46.93 47.09 46.94 46.52 40.94 45.06 45.47 38.87 36.33 41.30 42.81 44.95 43.35 41.75 38.36 37.53 36.02 36.42 36.61 32.54 30.94 29.31 24.32 23.38 28.78 25.17 35.00 28.27 31.29 28.65 31.61 30.84 40.34 44.77 44.30 45.76 45.82 45.26 46.36 46.51 47.36
46.58 46.68 46.77 47.05 47.26 47.41 46.59 42.82 43.49 42.09 38.41 37.58 35.97 36.31 42.42 46.28 45.98 45.39 35.95 36.63 39.62 39.13 39.03 33.40 32.09 27.43 28.42 24.03 25.75 30.55 34.28 37.68 33.67 34.15 38.36 40.20 42.33 44.89 45.95 47.31 47.32 47.91 47.78 47.29
46.47 46.79 46.89 47.07 47.21 47.36 47.30 42.89 43.77 41.25 38.42 32.42 31.52 41.77 39.49 44.70 46.53 46.82 44.31 40.92 43.35 41.68 39.50 34.64 32.15 28.65 34.51 26.96 32.19 29.98 33.86 37.36 35.02 35.24 39.55 41.90 43.41 44.48 45.84 46.88 48.13 47.10 48.70 47.49
46.41 46.66 46.79 46.99 47.27 47.51 46.70 45.21 44.20 44.35 38.00 29.94 30.06 39.60 42.33 43.76 45.11 45.02 45.67 43.93 40.90 38.42 36.21 31.20 29.99 33.89 35.12 34.85 33.00 29.31 37.54 36.04 33.23 31.51 40.46 39.73 41.30 44.05 46.13 46.01 45.98 47.69 47.43 47.12
46.63 46.90 46.86 46.96 46.87 47.17 43.45 36.78 43.88 44.66 42.47 34.14 26.77 38.39 39.86 42.87 44.55 43.93 42.98 43.80 42.76 40.91 37.46 32.98 35.91 39.09 37.97 32.70 31.26 37.29 38.34 38.34 38.97 38.12 39.31 40.46 42.78 45.47 44.19 44.93 45.16 47.38 47.36 45.69
46.29 46.65 47.03 47.12 46.96 44.82 38.54 36.25 40.89 45.14 44.05 36.74 32.18 34.45 39.21 43.07 42.78 42.12 41.22 42.82 42.27 40.34 39.07 35.91 37.16 37.62 38.97 31.21 30.21 33.81 35.70 35.95 37.99 38.41 39.57 41.11 41.82 39.43 38.69 38.89 40.90 38.57 36.77 35.33
45.99 45.83 45.75 45.95 45.71 45.71 42.08 43.62 45.05 44.28 39.25 37.52 31.10 31.99 35.72 40.96 36.79 37.44 41.86 39.91 40.14 38.96 36.29 39.42 36.20 38.02 34.73 27.39 29.50 31.55 32.45 34.36 37.37 36.26 38.82 38.28 38.75 36.76 34.01 34.81 34.66 31.93 30.32 29.88
46.04 45.82 45.45 43.60 42.52 39.68 41.47 45.63 45.30 43.46 40.12 32.01 30.34 29.30 29.25 39.02 36.26 36.64 37.53 39.30 31.81 39.27 32.94 36.21 36.95 27.98 22.03 25.50 27.21 27.83 29.55 30.98 32.80 35.09 37.71 37.00 34.98 32.55 30.98 30.06 29.19 27.74 26.38 26.64
45.68 43.58 37.79 32.25 39.88 45.61 45.01 41.93 36.05 34.33 36.41 35.49 30.52 31.96 30.89 35.65 32.82 32.05 32.87 31.98 30.97 29.45 34.19 36.09 27.29 23.81 27.00 27.24 27.50 27.81 29.11 31.89 32.63 32.33 32.19 31.49 32.37 30.48 28.44 27.42 27.53 26.67 25.26 24.74
40.33 37.53 32.96 41.83 45.32 42.16 37.20 31.65 30.46 32.07 28.04 31.18 31.75 30.43 31.20 34.97 29.84 30.67 31.30 27.93 27.48 25.03 32.01 26.91 23.25 20.16 23.62 26.47 25.51 26.79 28.28 29.28 29.73 31.08 29.55 28.76 28.59 27.46 26.13 25.39 25.36 25.05 24.80 23.81
40.05 39.41 39.97 38.32 34.13 29.20 26.29 24.82 25.34 29.06 28.65 31.34 26.84 28.81 33.90 34.57 37.78 33.91 33.68 27.39 30.04 25.04 30.43 22.10 15.97 21.35 24.24 25.18 24.17 24.74 26.22 26.35 25.69 25.92 25.37 25.63 25.39 24.92 24.03 23.32 22.58 22.30 22.36 22.24
39.02 33.50 28.21 26.74 22.43 16.52 16.06 21.62 25.35 25.68 29.79 29.48 32.01 31.34 32.93 34.24 35.25 32.51 32.14 28.73 27.97 29.32 19.96 15.48 18.38 22.14 23.34 23.32 23.19 22.64 23.84 24.35 23.95 23.72 24.02 23.36 22.77 23.42 23.29 21.98 22.24 22.08 21.21 21.55
27.49 24.18 15.54 15.90 13.28 16.83 18.78 20.98 21.20 26.87 26.75 29.15 29.95 31.29 31.30 31.65 30.74 31.87 26.62 25.70 24.54 16.56 9.28 10.78 18.42 21.35 22.43 22.53 22.65 21.54 20.83 21.79 21.48 21.35 21.60 20.98 20.45 20.09 21.14 21.34 21.19 19.96 18.60 19.24
22.98 21.17 12.23 15.60 20.70 22.89 23.14 25.15 26.05 28.19 30.64 29.96 30.92 31.31 30.39 24.93 25.21 22.79 22.11 17.40 10.51 13.47 9.45 14.49 20.09 22.20 22.11 21.56 21.90 21.39 20.94 20.78 20.45 20.81 19.86 19.59 19.79 19.05 18.99 20.27 20.08 19.62 19.09 19.10
22.20 19.37 15.16 16.31 15.51 17.98 20.59 23.00 23.52 27.71 27.21 30.70 30.26 27.71 23.43 19.14 21.30 13.92 12.77 11.59 7.35 10.52 15.22 19.20 19.62 19.01 19.06 18.87 19.54 19.62 21.44 21.61 21.25 21.21 20.81 20.27 19.35 18.80 18.86 19.39 19.17 18.72 18.40 17.24
17.51 15.89 18.45 15.90 14.12 16.15 19.29 23.11 23.47 26.97 27.33 24.79 24.19 17.97 18.46 22.51 15.23 12.27 14.20 10.17 13.63 16.25 17.19 19.07 19.78 18.68 18.74 19.44 19.77 19.96 19.93 19.13 19.17 19.50 19.43 19.58 20.37 19.90 18.25 16.49 17.95 18.02 17.37 16.61

GFSNW_sfc_wetblb_048.txt.gz
Wetbulb
45.32 45.30 45.57 46.09 46.55 48.08 45.54 40.66 32.51 45.84 47.26 35.39 34.11 29.90 32.03 36.30 34.47 38.15 35.62 35.49 33.93 31.96 32.78 30.65 31.48 32.22 38.40 44.96 44.02 38.49 41.13 34.38 28.74 34.27 40.33 41.27 38.03 36.21 36.46 29.68 29.54 30.24 26.77 31.49
44.89 45.00 45.55 45.76 47.19 47.32 43.10 36.40 36.53 45.87 45.21 30.31 30.53 33.41 32.72 33.14 33.83 34.66 34.61 33.67 34.97 35.71 31.44 28.23 32.64 36.21 42.56 42.90 43.27 40.75 41.20 36.60 28.98 31.09 35.66 39.46 36.42 37.14 38.30 36.02 32.97 29.11 25.73 29.94
44.47 44.93 45.45 45.78 46.77 47.45 43.67 35.41 29.58 37.67 40.31 38.47 33.42 31.72 30.91 29.88 34.75 33.60 34.83 34.15 35.14 33.08 31.25 33.35 31.16 32.76 38.58 43.58 44.36 45.58 43.73 38.17 33.15 30.16 33.74 36.82 34.07 35.91 37.43 36.56 28.19 29.10 31.75 33.06
44.09 44.67 44.87 45.61 46.85 47.16 43.29 35.39 31.30 37.07 30.95 32.37 34.19 33.95 32.75 30.10 29.89 34.49 34.64 31.73 32.36 31.21 27.77 28.89 28.72 33.82 35.59 38.47 43.61 42.47 40.42 32.57 35.76 37.94 38.43 36.98 36.01 35.01 35.71 33.71 34.77 30.68 33.96 34.72
44.30 44.40 45.07 45.95 46.74 47.10 40.74 31.98 33.14 36.27 35.43 35.82 33.97 33.64 31.37 30.85 31.92 33.01 31.41 30.41 33.36 32.66 29.32 30.46 28.44 31.52 31.25 31.70 36.48 38.35 39.83 30.53 34.48 31.59 37.33 36.76 33.44 35.30 35.75 36.62 36.88 35.92 36.47 36.09
43.83 44.27 45.16 45.84 46.39 46.13 39.59 39.49 40.18 37.81 33.31 34.55 32.65 32.13 32.36 32.03 34.20 35.11 35.15 33.93 32.14 30.61 32.91 34.73 35.77 34.95 35.15 34.19 32.93 33.29 35.74 33.88 31.40 27.05 32.87 32.79 27.33 31.89 35.45 35.92 37.00 36.99 32.63 37.60
43.93 44.92 45.56 45.77 46.15 46.20 42.49 40.44 39.31 33.91 29.54 31.59 32.69 34.10 34.42 33.50 34.03 32.04 35.44 36.09 32.92 36.73 38.62 37.86 36.30 35.70 34.70 34.62 34.27 37.34 33.89 31.75 29.71 26.66 28.31 21.77 31.04 37.47 37.95 35.47 37.67 38.88 38.36 39.10
45.25 45.20 45.37 45.58 46.39 46.88 43.40 42.44 39.58 35.23 29.29 32.70 34.37 34.84 34.95 35.26 35.97 34.45 34.95 36.35 38.76 39.00 37.31 33.11 29.64 27.76 31.80 33.43 36.99 36.66 37.34 31.34 25.56 22.62 24.81 29.01 31.68 34.51 35.29 35.41 34.28 39.21 38.24 40.77
44.56 44.95 45.39 46.08 46.54 46.94 44.44 42.54 43.69 39.46 33.93 31.41 35.48 35.41 36.32 33.10 32.53 32.95 34.55 39.08 40.86 38.03 32.53 29.77 25.63 21.25 26.70 28.87 33.29 38.73 36.01 34.12 30.71 28.64 21.58 17.12 28.46 37.23 42.66 40.48 29.22 40.58 42.21 42.86
45.02 45.49 45.73 45.98 46.58 46.98 45.09 43.23 44.39 40.74 32.18 36.86 37.18 33.89 35.03 37.54 34.57 32.28 33.73 35.40 36.57 38.70 30.74 28.41 25.76 24.58 30.81 25.95 28.24 31.01 31.47 31.89 29.97 28.56 27.36 27.86 35.25 38.99 42.62 28.36 29.18 41.81 41.86 41.95
45.35 45.44 45.73 45.94 45.82 46.30 45.12 42.87 45.72 40.75 34.47 37.58 40.39 39.95 37.37 37.86 36.29 31.67 34.68 34.30 35.24 34.03 29.69 27.62 27.46 24.48 28.45 27.47 30.86 30.23 28.74 26.41 28.08 30.04 27.49 22.95 38.31 40.97 34.19 38.02 42.20 41.85 42.28 43.71
45.34 45.56 45.80 45.77 45.84 45.84 45.50 39.74 44.83 45.07 38.03 37.74 41.55 42.69 43.85 42.44 41.24 38.21 37.02 34.03 35.35 34.91 29.99 29.73 28.18 23.68 22.61 28.03 23.83 33.06 27.51 30.55 28.19 30.14 29.43 36.76 41.50 42.24 44.43 44.39 41.97 43.39 43.45 44.67
45.50 45.86 46.07 46.15 46.44 46.56 45.30 41.60 42.85 42.10 36.89 36.55 38.11 36.36 41.72 45.28 45.30 44.99 36.37 36.31 39.74 38.54 37.39 32.49 30.48 25.96 26.66 22.82 25.25 30.07 33.00 35.60 31.73 32.24 35.15 37.74 39.19 41.30 42.61 44.99 44.81 46.66 45.83 46.05
46.31 46.44 46.28 46.24 46.40 46.68 46.58 42.65 44.01 41.02 38.12 31.93 31.98 40.15 38.83 44.39 45.08 44.37 43.34 40.74 43.21 42.29 40.83 35.19 29.30 26.75 32.49 25.50 30.38 28.76 32.20 34.80 33.17 33.56 36.02 38.57 40.31 41.46 43.04 44.11 45.56 46.72 46.72 46.87
46.54 46.79 46.93 46.84 46.91 47.23 46.70 45.19 44.32 43.32 36.33 30.48 29.94 38.00 40.49 42.11 44.01 43.20 44.05 42.81 41.11 39.64 36.46 34.18 29.89 31.39 32.65 31.32 31.47 28.32 35.11 33.44 31.00 29.29 36.92 37.69 38.20 41.70 39.98 41.69 41.38 43.08 45.91 45.81
46.22 46.69 46.82 47.01 46.72 47.02 44.01 34.89 43.44 44.11 41.71 35.58 27.06 35.24 37.38 39.28 40.47 41.16 42.44 43.10 42.00 40.38 37.98 35.22 35.32 37.64 36.34 26.97 24.51 35.96 36.99 37.55 37.82 37.00 37.73 37.38 38.62 40.63 38.03 37.16 37.39 38.01 37.37 35.04
46.13 46.29 46.77 46.98 46.55 45.34 38.87 36.40 41.52 45.18 44.24 36.41 28.79 27.42 36.72 39.72 40.17 39.85 41.01 42.18 40.73 40.88 37.88 36.38 35.53 35.81 37.66 27.16 25.82 32.62 33.39 33.70 35.27 38.45 37.60 37.86 38.42 36.07 35.05 34.46 34.94 35.11 32.55 30.98
46.37 46.40 46.59 46.61 46.60 45.54 41.94 43.50 45.40 44.97 39.97 37.74 25.58 31.61 35.25 40.16 33.62 36.12 39.87 38.52 40.32 40.07 35.42 37.98 36.24 37.43 34.25 29.48 26.97 28.94 29.98 31.23 34.73 34.64 35.53 37.46 36.69 33.45 31.35 31.89 31.24 28.88 27.00 26.21
46.56 46.58 46.38 43.87 42.11 39.57 41.48 45.56 45.02 44.62 39.62 31.08 31.17 28.70 28.56 38.66 36.70 37.47 37.62 37.82 32.09 38.33 33.56 34.29 35.75 27.13 18.87 22.75 24.58 25.75 26.99 27.78 30.15 32.15 34.55 34.58 33.82 29.76 28.74 28.16 27.37 26.03 24.78 25.24
44.87 42.18 38.12 32.34 40.91 45.35 44.68 40.61 35.90 36.05 35.88 35.24 27.41 33.41 31.01 35.84 33.05 31.98 33.07 32.60 31.90 29.99 32.43 32.75 25.62 21.68 25.73 25.57 26.26 26.64 26.84 28.29 29.48 28.65 28.83 28.42 29.27 27.56 25.91 25.20 26.12 25.49 24.52 24.07
40.03 36.29 35.87 42.17 45.15 40.49 36.05 30.77 30.45 32.28 30.09 32.82 32.60 32.27 32.67 35.58 30.56 30.73 29.65 29.28 28.27 28.27 30.86 26.38 21.98 18.53 22.09 24.87 23.81 24.87 25.69 26.48 26.47 27.99 27.22 26.70 26.02 25.00 23.97 23.25 23.61 23.05 22.48 21.41
40.81 39.95 41.09 38.63 33.16 30.47 29.32 27.53 29.62 29.44 28.54 31.72 31.18 32.82 34.21 34.62 38.08 32.35 33.17 27.71 28.69 24.58 28.09 21.14 13.82 19.61 22.34 22.45 22.48 23.21 24.76 24.62 23.92 24.86 23.96 24.28 24.14 23.90 22.67 22.18 21.35 20.95 20.81 20.05
36.05 33.11 27.87 27.69 21.03 13.96 12.98 23.21 24.51 24.98 28.70 28.92 31.85 30.58 32.30 33.65 35.59 32.75 30.13 28.46 24.64 26.73 18.57 14.55 16.72 20.44 21.78 22.15 22.49 22.12 23.35 23.17 22.66 21.94 22.37 22.09 21.13 21.47 20.89 19.62 19.97 20.21 19.31 19.27
26.21 22.58 11.39 11.11 8.39 15.26 19.04 18.19 19.80 26.31 27.63 28.61 30.19 31.39 31.00 31.39 29.55 29.69 23.71 21.25 21.28 11.36 5.93 9.46 17.30 19.84 20.92 21.65 21.97 20.50 19.73 20.31 19.96 19.75 20.01 19.55 18.77 18.14 19.03 19.43 19.63 18.70 17.16 16.92
21.87 19.24 9.57 13.13 19.33 20.83 21.55 23.19 24.17 25.88 27.73 29.09 30.79 28.66 26.79 23.55 22.62 21.02 20.11 13.18 5.87 10.84 7.38 12.77 18.21 19.91 20.65 20.34 20.78 20.01 19.61 19.46 19.08 19.26 18.81 18.34 18.29 17.64 17.26 18.19 18.17 17.68 17.15 16.81
20.52 17.44 14.17 15.50 15.96 16.51 17.60 18.93 19.25 25.93 25.26 29.45 29.56 25.34 17.52 17.38 19.87 12.23 9.19 9.73 4.49 6.60 10.66 16.46 18.32 18.21 18.44 18.42 18.94 19.13 19.48 19.46 19.46 19.45 19.18 18.64 17.58 16.69 16.42 17.20 16.65 15.96 15.53 14.66
16.64 13.43 16.43 13.48 12.39 14.01 17.06 20.67 21.85 25.90 26.09 22.68 22.86 16.41 14.94 19.45 12.14 10.05 13.04 3.46 7.33 13.71 16.58 18.43 18.60 17.51 17.55 18.43 18.56 18.39 18.37 17.80 18.14 18.27 19.01 18.74 18.88 18.41 16.56 14.48 15.39 15.80 15.54 14.78

GFSNW_sfc_wetblb_051.txt.gz
Wetbulb
45.34 45.83 45.60 45.36 45.68 46.28 44.11 40.31 30.03 45.07 47.54 34.08 35.05 31.10 32.61 36.00 33.88 37.72 35.92 35.77 34.15 32.62 32.90 31.13 32.44 33.11 38.55 41.57 44.86 40.17 42.72 36.94 32.95 36.14 41.65 42.64 41.20 39.72 39.76 34.79 32.92 33.94 32.89 35.14
44.97 45.08 45.16 45.26 45.61 45.93 41.26 35.89 35.03 44.74 44.71 28.59 29.55 34.79 33.67 33.87 33.69 34.32 34.70 33.86 35.23 36.39 32.84 29.22 32.73 35.38 41.28 41.16 43.87 41.96 42.90 37.04 32.06 33.72 37.77 41.28 38.67 39.83 39.61 38.57 35.97 32.78 31.30 34.32
44.31 44.77 45.04 44.87 45.54 45.76 42.73 35.78 29.63 36.07 38.76 37.56 33.22 32.11 31.15 30.47 34.75 33.87 35.17 33.88 35.81 33.80 32.11 34.49 32.02 33.46 38.35 40.52 42.62 44.99 44.54 39.28 34.68 30.99 33.47 38.26 35.52 37.17 38.24 37.98 33.96 33.81 34.62 37.09
44.03 44.59 44.69 44.71 45.10 45.61 41.95 36.10 30.91 35.30 29.82 30.89 33.49 33.75 33.60 29.90 29.60 34.31 35.62 32.73 33.14 32.18 29.25 30.29 30.87 34.32 35.31 38.18 40.62 43.67 41.71 34.67 37.30 37.50 38.35 38.33 37.43 36.51 36.93 35.37 36.57 33.14 36.57 37.88
43.89 44.08 44.44 44.31 44.77 45.39 39.22 32.20 33.06 36.15 33.41 35.11 32.83 32.88 32.45 30.57 31.80 33.24 31.35 31.06 33.52 33.86 30.49 31.74 30.28 32.37 33.44 33.08 36.67 38.94 38.67 33.57 36.06 33.59 37.99 37.65 34.64 36.53 37.09 37.11 37.57 37.75 38.47 37.93
43.66 44.12 43.95 44.26 44.42 44.83 37.67 39.14 39.63 36.50 33.01 31.84 30.99 31.11 32.33 32.56 34.61 35.35 36.12 34.72 32.89 31.82 33.75 37.03 37.54 37.84 37.23 36.23 33.68 33.09 33.75 35.18 32.62 28.96 33.70 33.47 29.57 34.24 36.06 37.43 39.35 39.00 34.91 39.92
42.97 43.07 43.69 44.15 44.78 44.73 40.06 40.15 39.12 33.22 28.23 31.18 30.44 32.71 34.37 33.62 34.60 32.70 35.58 36.35 33.54 37.29 41.35 40.75 38.62 36.67 35.86 36.12 35.45 36.74 33.72 34.37 31.64 29.20 30.64 22.64 34.09 38.87 38.94 37.45 39.10 40.75 40.81 42.15
43.76 44.08 44.25 44.68 44.92 45.50 41.41 41.13 38.39 35.35 28.60 31.68 32.04 32.57 33.60 35.97 36.24 34.49 34.72 36.85 39.28 41.27 37.84 33.02 30.45 30.77 32.70 34.54 36.46 36.27 36.89 35.19 31.04 27.81 27.56 31.28 34.18 36.75 36.49 35.34 35.80 40.88 41.21 43.90
43.92 44.03 44.01 44.81 44.64 45.88 42.75 41.35 42.85 38.16 33.21 30.32 34.45 33.66 35.12 32.88 33.12 33.97 35.11 39.97 42.37 40.06 35.05 31.98 25.23 24.46 28.53 28.30 32.37 38.87 37.11 37.50 33.75 30.17 24.99 22.23 32.18 40.02 44.31 42.78 32.39 43.58 43.84 43.51
44.18 44.41 44.59 44.61 44.75 45.64 43.18 41.50 43.76 39.03 31.82 36.04 35.97 32.60 32.96 37.24 35.33 33.35 34.91 36.42 35.98 38.58 32.69 28.23 26.56 25.75 31.52 26.59 28.12 29.19 31.13 31.78 30.06 30.37 27.92 31.05 37.80 40.32 43.20 31.43 34.62 43.14 44.44 44.87
44.68 45.04 45.34 45.00 45.09 45.11 43.67 41.75 44.82 39.38 34.14 37.28 39.22 39.21 36.47 37.09 36.57 32.70 35.15 34.61 35.40 34.53 29.91 29.49 29.36 28.28 30.80 29.86 33.14 31.48 30.03 29.37 29.57 31.20 28.11 25.09 40.06 42.78 36.79 41.18 45.02 45.05 45.29 46.10
44.60 44.47 45.61 45.40 45.14 45.65 45.51 39.92 44.72 43.97 37.44 37.68 42.44 43.12 43.92 42.44 41.48 38.22 37.73 35.88 35.50 36.68 32.95 32.47 32.13 29.44 29.70 31.26 27.18 35.23 30.98 34.40 32.21 33.49 33.52 39.75 42.15 43.01 46.33 45.27 44.46 45.56 45.70 46.92
44.82 44.93 45.05 45.56 45.66 45.87 45.67 40.99 43.91 41.50 33.45 36.57 38.59 37.61 42.68 45.45 45.50 46.03 36.60 37.94 39.94 38.53 40.81 36.50 34.45 29.77 31.76 28.87 29.68 33.70 35.38 37.54 34.57 33.97 38.19 39.83 41.76 42.97 43.36 43.04 43.84 44.87 46.42 47.45
44.54 44.61 45.21 45.19 45.36 45.17 45.01 41.17 43.47 40.36 37.00 32.71 34.35 42.25 40.60 44.97 44.79 45.59 45.05 42.60 44.07 43.19 42.56 37.29 34.68 31.64 34.97 31.91 34.19 33.38 36.40 36.93 35.54 35.54 38.76 40.07 42.03 42.22 40.39 41.08 41.83 41.65 42.36 44.77
46.19 46.26 45.45 46.00 45.92 45.89 44.49 43.54 43.64 42.99 37.80 31.53 32.43 38.90 41.07 43.17 43.05 42.31 44.28 42.74 41.49 41.26 37.19 34.51 33.81 35.00 35.72 34.59 34.40 32.69 37.09 35.88 34.66 33.78 36.89 36.52 37.93 41.68 39.84 38.16 37.72 38.44 37.36 38.05
46.24 46.56 46.60 46.68 46.52 46.01 42.93 35.47 43.28 43.53 43.90 35.22 30.27 37.85 37.87 40.00 42.34 41.14 40.78 41.83 41.64 40.27 37.67 36.03 37.77 39.39 37.79 31.66 30.91 36.38 37.00 36.74 37.42 36.51 38.20 38.84 40.04 40.70 36.22 35.10 34.85 35.87 33.57 32.40
45.98 46.26 46.66 46.89 46.44 44.80 37.00 36.43 41.33 44.39 43.80 36.16 30.12 30.02 37.18 39.33 39.19 39.72 40.94 42.25 40.89 40.16 37.85 36.52 36.64 37.87 39.34 34.34 30.81 30.56 31.97 32.54 34.43 37.68 36.91 38.28 38.12 35.00 34.24 33.52 33.21 32.53 30.65 29.47
45.89 46.21 46.20 46.57 46.44 45.25 41.08 44.19 45.26 44.61 39.32 37.73 28.59 29.14 34.80 40.38 35.09 34.69 40.34 37.46 38.43 37.34 35.25 36.97 36.60 38.08 36.48 32.68 26.33 27.45 28.47 29.76 33.56 32.43 34.34 34.64 36.84 33.12 30.72 31.40 30.96 28.55 26.93 26.82
46.24 46.15 46.29 44.91 41.33 38.33 41.04 45.62 45.22 44.72 39.76 31.54 30.28 26.42 27.54 39.10 35.71 37.41 37.88 38.92 33.66 39.29 33.98 35.54 35.10 28.64 28.48 23.15 23.76 24.63 25.52 26.29 27.72 29.98 32.42 33.40 31.82 28.88 27.65 28.01 27.75 26.47 25.19 25.38
44.92 42.62 36.75 32.57 40.76 45.46 44.42 40.47 36.50 37.00 37.11 36.59 30.79 32.61 30.39 35.65 34.64 34.31 33.82 34.58 32.92 30.45 33.04 31.95 25.73 22.04 24.30 24.47 24.39 24.56 24.97 26.54 27.64 26.87 27.77 26.75 26.90 25.84 24.84 24.56 25.14 24.68 23.96 22.98
40.87 37.13 35.51 41.69 44.94 40.00 36.65 31.58 30.45 32.60 29.55 31.84 32.59 31.73 31.93 36.54 31.95 32.14 33.31 31.40 32.23 28.76 29.21 27.09 22.17 19.55 22.37 23.83 23.35 24.49 25.19 25.48 26.29 26.78 25.88 25.76 25.74 24.58 23.27 22.38 22.44 21.99 20.92 19.74
40.51 39.14 39.22 36.30 31.86 31.56 30.20 27.22 30.17 30.13 28.49 32.50 30.90 32.97 33.99 34.32 34.40 32.15 32.52 30.37 30.28 25.21 27.82 21.85 15.73 19.67 22.01 22.21 21.91 22.72 23.93 23.87 23.30 24.02 23.54 24.06 23.74 23.46 22.68 21.83 20.53 19.83 19.20 18.62
35.48 31.12 26.41 26.73 21.77 15.17 16.41 20.99 23.95 24.62 27.43 28.98 31.97 31.46 32.03 34.10 35.92 32.51 32.30 28.03 22.21 26.09 17.95 14.36 16.70 19.98 21.12 21.25 21.70 21.30 22.84 22.40 21.62 21.16 21.54 21.07 20.57 21.09 20.34 18.74 19.18 18.67 17.48 17.99
26.52 24.01 14.31 15.47 11.87 16.12 18.78 19.00 20.73 25.53 27.77 27.46 30.53 31.83 29.43 30.29 27.24 27.91 22.84 21.63 21.61 13.01 10.60 10.51 17.26 19.16 19.89 20.76 21.23 20.36 19.49 20.04 19.87 19.67 19.60 18.62 17.90 17.48 18.37 18.56 18.19 16.98 15.36 15.68
21.16 19.74 12.65 14.71 18.46 20.25 21.01 22.16 23.71 25.22 27.20 28.25 31.17 25.68 27.28 23.90 20.95 20.21 19.37 14.58 10.48 12.42 10.86 14.59 18.23 19.52 19.92 19.82 20.32 19.66 19.14 18.73 18.40 18.94 17.81 17.11 16.91 16.15 15.86 16.96 17.50 17.21 16.51 16.15
19.65 16.54 14.47 15.67 16.08 15.96 16.96 18.08 20.00 24.89 24.68 29.15 28.22 21.24 18.89 17.69 18.73 13.21 9.82 12.04 7.97 10.40 14.06 17.76 18.95 17.85 18.13 18.18 18.81 18.92 19.47 19.49 18.95 18.94 18.36 17.65 16.38 15.64 15.71 16.32 15.78 15.29 14.83 13.25
16.29 14.29 16.61 15.51 15.45 15.35 17.34 20.06 21.11 25.58 25.56 22.09 22.44 15.51 15.47 18.25 12.09 9.76 12.99 8.36 11.57 16.14 17.31 18.68 18.80 17.72 17.29 17.87 17.98 18.14 18.13 17.93 18.13 18.47 18.30 17.62 18.18 17.58 15.93 13.81 15.23 15.54 14.99 14.09

GFSNW_sfc_wetblb_054.txt.gz
Wetbulb
44.90 45.24 45.71 45.80 46.12 45.65 44.32 41.49 32.26 47.54 50.21 35.83 35.51 30.84 34.80 37.98 37.40 39.80 38.21 38.13 36.28 34.59 35.64 34.00 34.64 33.87 39.46 43.71 44.95 41.19 43.04 40.47 37.00 39.27 43.99 46.21 46.04 43.37 43.44 37.83 36.78 39.63 38.98 40.13
44.85 45.13 45.34 45.49 45.71 45.80 44.35 36.80 35.87 47.25 46.84 29.09 30.24 34.54 34.87 37.53 36.60 37.20 36.58 36.35 37.65 38.52 35.41 31.70 35.40 37.15 42.28 42.64 42.81 42.02 44.47 39.62 33.44 36.06 40.31 43.75 42.32 43.12 43.71 42.50 41.76 38.20 35.92 39.98
44.56 44.66 44.54 44.90 45.01 45.85 44.24 38.01 31.54 36.62 40.49 38.50 34.72 32.82 33.23 33.14 38.61 37.55 38.44 37.21 38.60 36.25 35.22 38.15 34.44 35.68 39.43 41.84 41.86 43.01 45.32 40.93 37.21 33.36 36.61 41.51 38.72 40.16 41.19 41.54 37.88 38.42 39.15 40.85
44.19 44.18 44.23 44.83 44.78 45.48 43.57 36.54 32.51 36.92 30.18 32.70 33.73 34.99 34.15 33.14 32.02 37.53 38.69 35.92 36.14 35.14 31.89 34.52 34.32 37.08 38.44 40.25 41.48 44.17 43.20 35.22 38.58 38.77 39.25 39.30 39.18 39.77 40.04 38.66 39.78 36.55 39.88 40.11
44.05 43.93 43.99 44.83 44.31 45.36 40.73 32.53 32.75 37.01 35.27 36.56 33.77 33.85 32.00 32.83 33.55 34.82 34.03 33.89 36.34 36.60 33.81 35.54 33.70 35.84 37.05 36.20 39.57 39.84 42.28 35.91 37.85 34.76 37.96 38.80 36.96 39.30 39.84 40.08 39.92 40.11 41.19 41.46
43.85 43.81 44.01 44.23 44.54 44.84 39.81 39.23 40.49 36.45 33.81 33.88 33.09 33.00 33.63 33.28 36.65 37.60 38.43 37.58 35.76 34.83 36.91 40.26 40.95 40.71 40.67 40.08 37.61 36.49 37.18 38.47 35.32 30.91 36.55 36.30 32.01 37.42 39.36 40.82 42.79 41.62 38.02 42.44
43.28 43.18 44.27 44.42 44.31 44.70 42.56 41.04 39.48 33.66 27.76 31.79 32.64 33.85 34.86 34.59 35.18 35.27 38.16 38.23 35.56 38.96 43.35 43.15 42.31 41.30 40.24 40.07 39.68 40.10 35.90 37.76 37.54 32.80 33.89 24.92 37.32 42.01 41.27 40.11 41.52 42.75 42.26 43.09
43.04 43.56 43.54 43.56 44.21 44.44 44.34 43.86 38.44 34.75 29.65 33.15 33.17 34.10 34.43 36.16 37.50 35.25 36.64 38.35 40.77 41.94 38.41 34.97 33.23 34.04 35.26 36.82 38.45 38.67 39.53 37.57 33.78 30.51 31.05 34.95 36.91 39.15 39.08 38.34 37.82 43.18 43.33 44.80
43.29 43.51 43.71 43.97 44.27 44.71 44.48 44.43 44.40 38.25 30.43 31.95 36.14 34.29 35.68 33.43 33.03 34.16 35.30 40.27 42.41 40.25 36.02 34.53 27.68 27.28 31.20 30.78 34.05 39.73 38.91 39.40 35.47 32.65 26.87 24.40 36.60 41.95 44.98 44.35 34.95 45.18 45.25 45.49
43.06 43.44 43.45 43.69 44.03 44.48 43.99 42.63 45.61 39.14 31.03 35.04 36.52 33.88 33.74 37.35 35.77 33.56 35.94 36.85 37.39 39.60 34.47 30.60 29.52 28.66 34.60 29.51 30.06 30.81 32.06 33.99 31.18 31.16 30.43 33.66 41.12 42.81 44.57 34.53 37.22 45.67 46.11 46.40
43.33 43.60 43.87 44.09 44.42 44.41 44.05 41.76 45.96 40.04 33.02 35.55 39.60 39.30 36.45 37.37 36.76 32.16 36.95 35.57 35.32 34.37 32.85 31.89 31.44 31.17 33.54 32.55 35.36 33.21 30.88 30.96 31.20 32.72 28.71 27.03 43.62 42.45 37.67 44.56 47.04 46.56 47.12 47.35
43.62 43.93 44.29 44.48 44.79 44.83 44.78 40.94 45.69 45.91 36.45 36.83 42.85 42.77 44.78 42.68 41.99 38.52 38.50 37.48 37.12 38.20 35.10 35.49 35.98 32.94 35.99 33.96 29.49 39.60 32.89 36.87 35.14 36.08 35.97 43.20 45.62 45.68 46.98 47.28 46.14 46.95 47.11 48.15
43.85 44.11 44.36 44.71 45.40 45.70 44.75 42.00 44.75 41.10 35.51 35.53 38.52 39.28 43.72 46.60 45.91 46.14 37.06 39.39 41.47 40.76 43.74 39.36 37.97 32.72 37.46 31.66 33.39 36.12 39.13 42.47 38.32 38.42 41.38 43.00 44.55 46.55 46.18 46.22 45.79 46.20 46.47 47.14
44.40 44.26 44.53 45.22 45.28 46.19 45.70 40.73 42.74 40.92 37.36 32.44 36.09 43.89 42.59 46.72 46.89 45.79 44.78 42.82 43.85 43.26 43.05 39.26 37.50 34.49 39.92 35.86 37.51 36.90 39.77 41.30 38.90 38.86 41.60 43.26 44.47 44.98 44.71 44.09 45.11 44.24 44.83 43.94
44.90 45.03 44.92 45.07 45.56 46.16 44.55 43.27 43.85 43.61 39.02 34.35 36.51 40.73 42.43 45.29 45.18 44.01 44.42 43.05 41.71 40.85 38.39 36.01 35.02 39.16 38.71 40.03 39.13 36.66 41.35 39.00 37.35 36.27 41.41 41.40 41.73 44.55 42.54 42.54 41.81 41.95 40.77 40.79
44.98 45.39 45.03 44.95 45.24 45.68 40.78 33.36 42.95 44.59 44.95 37.53 32.53 41.46 39.59 42.26 43.89 42.37 42.05 43.06 42.22 40.89 38.23 37.17 39.65 42.48 38.89 35.23 34.26 40.41 40.78 40.48 41.04 39.84 41.28 42.04 43.37 44.19 40.19 39.60 39.26 38.78 37.67 37.04
45.38 45.85 46.30 45.41 45.39 42.99 37.98 38.43 42.94 44.82 44.84 37.06 34.04 34.74 40.31 41.97 42.16 42.03 41.06 43.00 41.37 41.09 38.92 37.00 37.67 39.04 40.44 35.91 33.24 34.22 34.64 36.20 37.27 37.85 36.50 38.88 37.82 37.05 36.80 35.84 35.51 35.16 35.44 34.56
46.12 46.39 45.96 45.53 45.45 43.33 40.20 45.82 44.90 44.99 40.26 39.67 33.07 33.21 36.45 41.76 37.26 36.44 42.23 39.16 39.85 37.57 36.64 37.70 36.89 39.18 38.29 32.97 28.64 31.39 33.06 33.86 35.76 33.80 34.93 33.92 35.63 34.03 31.97 32.97 32.97 33.20 31.05 31.08
46.02 46.12 46.78 45.32 41.56 38.49 41.01 45.59 44.92 46.35 40.75 34.62 33.78 31.41 29.64 41.07 37.93 39.25 39.12 39.80 32.44 38.23 34.05 35.57 38.35 34.82 32.29 25.12 26.93 27.31 27.64 28.19 29.42 32.47 34.72 33.71 31.59 29.54 28.32 29.00 28.30 29.10 26.47 26.04
45.82 43.34 36.79 34.10 41.00 45.43 44.47 40.26 35.02 35.61 38.57 39.39 35.01 38.82 32.32 37.52 36.85 36.26 36.39 37.82 33.99 31.25 33.79 34.88 33.54 28.02 25.74 26.42 26.31 26.28 26.94 28.02 29.50 29.20 30.57 29.43 28.84 27.75 25.37 24.67 25.12 23.98 22.92 22.52
40.97 35.99 35.32 42.18 44.87 42.12 37.61 33.00 33.87 33.45 31.32 34.63 36.79 36.17 33.76 39.29 34.23 34.21 37.87 33.17 34.66 29.37 30.71 32.61 29.06 26.32 24.18 26.27 25.96 26.34 26.63 27.55 27.36 27.44 27.39 27.56 27.33 26.86 24.89 23.49 23.38 22.61 21.91 20.77
41.48 39.34 39.01 36.31 35.20 35.17 32.38 30.50 31.17 30.68 29.07 33.10 32.77 34.31 36.72 36.74 38.68 36.45 35.91 32.91 33.09 28.73 33.41 30.79 25.22 22.05 23.75 23.95 23.72 24.41 24.94 25.16 24.67 25.92 25.50 25.53 25.24 25.12 23.90 22.69 21.19 20.42 20.35 20.17
39.97 36.04 29.97 31.80 28.15 25.04 27.00 25.73 28.85 28.97 31.35 32.89 33.00 32.27 34.82 34.73 36.18 33.56 34.89 31.56 28.22 31.50 27.87 23.54 21.46 22.22 23.04 23.36 23.84 23.56 24.74 24.04 23.09 22.71 22.73 22.49 22.08 22.33 21.05 19.49 19.97 19.84 18.69 19.24
31.20 28.16 20.51 23.25 21.13 22.78 23.11 24.85 26.38 28.15 29.72 31.74 32.66 33.37 32.83 32.83 31.00 29.87 27.11 26.69 28.79 23.62 21.30 17.14 20.66 21.28 21.79 23.01 23.58 22.45 20.99 21.48 21.00 20.27 20.02 19.10 18.82 18.81 19.35 18.80 18.99 17.75 16.52 17.19
24.86 25.30 18.24 19.78 22.82 24.07 24.56 26.25 27.71 28.83 29.80 30.86 32.60 31.03 32.79 29.25 26.29 26.02 25.57 22.75 19.55 20.54 19.17 19.63 21.73 22.22 22.09 21.90 21.72 20.75 20.05 19.83 19.47 19.68 18.57 18.05 18.02 17.45 17.23 18.06 18.08 17.66 16.96 16.55
23.77 21.42 19.45 22.98 23.99 22.76 24.12 25.02 26.78 29.07 27.95 32.03 33.17 27.98 25.91 22.45 23.88 20.29 16.86 20.95 18.16 16.94 19.93 21.75 22.14 20.56 20.45 20.43 21.02 21.02 21.05 20.54 20.02 19.63 18.86 18.20 17.49 17.19 17.46 17.39 16.67 16.37 16.09 14.92
20.40 19.47 22.95 21.98 22.11 20.65 22.73 24.57 25.57 28.97 29.24 27.63 27.42 22.31 18.83 23.63 19.49 15.08 18.05 16.55 18.32 20.12 20.91 22.56 22.30 20.68 20.19 20.57 20.63 20.67 20.81 20.67 20.53 19.95 19.78 19.40 19.82 19.64 18.27 16.66 17.42 17.35 16.40 15.00

GFSNW_sfc_wetblb_057.txt.gz
Wetbulb
45.39 45.62 45.28 46.01 45.75 46.08 43.96 40.64 32.26 49.21 50.81 35.61 36.56 33.06 37.39 39.88 39.51 41.77 39.95 39.98 39.05 37.42 37.62 36.43 36.38 36.79 39.60 44.58 44.24 42.02 43.42 41.07 36.76 40.10 44.79 47.25 45.73 43.45 43.88 38.64 37.45 41.14 40.84 39.62
45.21 45.38 45.44 45.44 45.50 45.64 42.99 36.61 36.42 47.33 47.57 31.75 33.30 36.38 35.93 38.22 38.11 38.87 38.98 37.70 39.85 40.62 37.67 33.72 37.70 38.85 43.23 43.25 41.72 40.34 43.63 39.28 33.66 37.43 42.30 45.02 42.68 44.24 45.33 45.18 44.02 37.99 37.07 39.70
44.72 44.84 45.11 44.95 45.07 45.63 43.52 38.10 32.84 37.78 42.16 40.53 35.80 33.89 33.98 34.16 40.20 39.56 40.24 39.02 40.68 39.11 37.01 39.02 36.16 37.89 41.08 42.97 42.07 42.96 44.28 41.39 37.52 33.58 38.13 42.59 40.76 42.86 44.44 43.81 38.98 39.37 40.21 42.38
44.20 44.28 44.66 45.01 44.99 44.88 42.67 37.63 34.12 37.60 31.81 34.61 35.89 36.67 35.77 33.19 33.69 39.41 40.20 37.41 38.00 37.45 34.31 35.71 35.46 39.21 40.47 42.12 41.88 41.85 42.12 37.71 40.32 40.79 41.75 41.78 41.99 42.20 42.42 41.40 42.63 38.97 41.62 42.58
43.88 44.22 44.47 44.66 44.97 45.15 39.99 34.75 34.09 38.31 36.22 37.79 35.16 35.36 32.98 33.79 36.09 37.11 35.46 35.74 38.12 39.06 35.88 36.83 35.67 38.25 38.28 38.49 41.34 40.18 42.65 35.51 38.03 37.25 40.30 39.91 38.92 41.51 42.39 42.48 42.29 41.90 42.79 42.28
43.97 44.13 44.31 44.48 44.73 44.77 38.98 40.83 41.61 37.91 34.22 34.81 34.19 34.59 34.62 34.91 37.19 38.76 40.19 39.19 37.98 36.87 38.81 41.21 42.47 42.52 41.31 41.37 39.45 38.95 38.79 36.69 34.88 30.97 38.12 37.81 33.62 39.05 41.15 42.32 44.04 43.48 40.37 44.72
43.48 43.76 44.27 44.56 44.44 44.73 41.63 40.92 40.65 34.58 30.65 33.58 33.48 35.50 36.49 35.90 37.10 35.80 39.40 40.99 38.62 41.10 45.02 44.58 43.18 42.02 40.83 41.07 40.84 42.04 37.95 37.88 37.55 33.01 35.06 25.44 39.26 43.71 43.29 42.50 43.57 45.14 44.02 44.24
43.16 43.33 43.87 44.09 44.32 44.53 44.42 42.85 40.47 35.91 30.87 33.57 33.93 34.99 35.85 37.44 38.20 37.25 37.99 39.94 40.73 44.14 40.79 35.02 32.89 34.30 35.11 36.78 40.54 40.61 41.38 38.32 34.67 31.42 32.13 36.71 38.74 40.81 40.65 39.58 39.82 43.67 43.23 45.19
43.36 43.41 43.88 43.92 44.34 44.27 45.43 42.11 44.66 39.18 33.35 32.32 36.71 34.83 36.53 34.29 35.27 36.40 38.36 42.39 43.95 41.01 36.84 34.31 28.31 27.85 32.45 32.08 35.29 41.39 40.45 40.08 35.90 34.22 28.54 26.73 37.73 43.30 45.87 44.43 36.04 46.09 46.21 46.06
43.29 43.10 43.49 43.83 43.80 43.80 43.85 42.99 45.65 40.02 32.17 36.91 36.79 32.96 35.27 39.24 37.54 35.52 37.43 37.99 37.43 39.62 34.80 31.20 30.55 30.49 36.04 30.80 31.28 32.10 34.23 34.74 31.31 32.40 30.70 34.95 41.94 44.51 44.72 34.80 37.87 46.50 46.51 46.83
43.37 43.32 43.57 43.86 44.03 44.07 44.54 42.52 45.83 41.36 35.50 37.18 39.29 39.99 36.79 37.12 38.69 34.71 37.26 35.16 35.74 34.53 32.67 32.15 33.05 32.65 34.96 34.25 35.78 35.10 32.74 31.24 31.30 32.69 29.83 27.83 44.89 43.52 38.32 43.95 46.84 47.34 47.11 47.73
43.21 43.28 43.47 43.50 43.57 43.78 44.32 40.37 44.17 45.99 37.53 37.66 42.83 43.36 43.51 42.91 41.61 38.00 38.65 37.68 37.53 39.42 36.43 37.45 36.62 34.31 36.67 35.12 30.30 40.12 32.40 37.35 35.24 36.22 36.30 44.28 46.43 46.59 47.75 48.05 46.64 47.07 47.21 47.99
43.35 43.38 43.59 44.00 44.27 44.73 44.59 42.14 43.71 41.75 35.83 37.05 38.43 37.64 42.55 45.37 44.69 46.78 36.63 40.18 39.45 42.24 45.00 40.23 38.99 33.41 37.45 31.72 34.63 36.67 40.81 42.06 38.97 38.06 42.53 43.15 45.01 47.71 48.03 47.67 46.95 47.43 47.56 47.20
43.48 43.64 43.92 44.32 44.42 44.96 44.99 42.26 45.06 42.09 37.93 30.80 34.67 43.79 40.13 44.67 46.66 44.93 44.89 43.72 44.70 44.15 43.35 40.64 38.18 35.69 41.12 36.23 38.48 37.98 40.81 41.19 39.80 39.43 42.71 44.06 45.53 47.09 46.40 46.15 47.00 46.27 46.59 46.29
43.94 44.14 44.36 44.61 45.02 45.32 44.34 44.71 45.79 46.37 38.33 32.30 34.00 41.72 43.99 45.18 44.88 44.42 44.24 42.84 40.93 39.32 38.71 37.33 36.87 40.13 39.59 40.28 39.98 37.66 42.53 40.28 38.46 37.65 43.54 43.85 44.43 45.69 45.72 43.94 43.86 43.99 43.22 42.84
44.15 44.64 44.95 45.13 45.05 45.12 42.21 35.10 42.31 46.83 45.43 34.81 31.54 42.00 42.33 44.04 43.93 43.32 43.18 42.21 40.72 40.16 38.42 38.05 40.02 42.89 40.87 35.80 34.36 41.21 43.33 44.24 43.10 41.55 42.92 43.26 44.47 45.39 43.64 42.09 41.32 40.43 39.90 39.09
44.75 45.10 45.36 45.49 45.45 44.28 38.02 38.15 43.44 45.60 45.37 35.61 33.44 34.92 41.85 42.85 42.57 42.07 41.14 42.48 40.98 38.60 37.14 35.83 38.85 41.27 40.43 37.04 33.76 38.01 39.32 40.21 41.01 40.71 40.43 40.53 40.10 38.99 38.99 39.10 38.99 38.88 37.86 36.65
45.27 45.36 45.30 45.16 44.56 43.92 40.72 46.70 44.97 44.68 39.35 39.39 34.64 35.00 37.65 43.49 38.24 37.17 42.77 38.75 40.14 39.27 39.76 39.41 38.58 40.12 39.89 33.77 34.13 36.50 36.85 37.54 39.02 37.64 38.54 38.36 38.71 36.39 34.41 34.97 34.62 33.89 31.21 30.02
45.73 45.90 45.78 42.65 40.42 37.32 42.03 45.16 45.19 46.27 41.47 35.15 35.46 32.62 31.55 42.16 39.07 39.74 39.88 41.01 34.60 40.38 37.43 36.58 38.73 36.87 31.84 27.93 30.74 30.90 30.46 31.47 32.72 35.29 37.61 36.01 33.58 32.81 32.86 32.41 31.65 30.13 27.28 26.90
45.44 41.36 36.77 33.67 40.12 45.32 44.27 39.42 34.81 35.50 39.32 40.14 35.34 39.63 34.49 39.68 38.44 37.08 37.08 37.79 34.67 31.94 34.39 37.57 34.55 26.60 28.42 29.43 29.11 29.25 29.94 31.47 31.72 30.98 32.37 30.14 30.94 29.79 28.56 27.72 27.62 26.79 25.41 24.36
41.23 35.13 35.45 41.84 44.99 41.34 36.66 33.30 34.54 34.75 33.57 37.69 38.42 38.66 34.67 40.27 35.36 34.82 39.13 34.12 35.74 29.65 33.17 33.39 32.60 26.18 25.31 28.30 28.24 28.69 28.80 29.16 28.74 28.90 28.50 28.24 28.67 29.04 27.50 25.31 25.15 24.53 23.88 22.54
41.58 39.45 40.69 41.26 38.07 36.46 34.14 32.50 34.01 32.93 31.80 35.29 34.93 37.04 39.30 38.22 41.66 36.73 37.94 33.64 35.00 28.34 36.70 33.40 29.20 24.45 26.05 26.44 25.35 26.13 26.73 26.28 25.78 26.97 26.05 26.24 26.37 26.13 24.87 23.64 22.61 21.94 21.85 21.42
42.96 37.17 33.67 35.80 31.68 29.76 29.90 26.06 29.40 30.89 33.62 34.67 34.68 33.93 37.02 37.55 37.96 35.60 35.49 30.45 31.08 36.20 31.23 27.94 24.31 24.99 25.67 25.78 25.95 24.81 25.61 25.26 24.44 23.35 23.69 23.36 22.58 22.95 21.73 20.34 21.16 21.35 20.46 20.97
35.66 32.05 23.39 28.33 25.86 26.20 27.03 28.13 29.54 30.25 31.74 34.13 34.38 33.30 33.65 34.03 32.38 33.49 29.50 30.27 31.86 27.11 25.58 22.27 23.14 23.48 23.82 24.50 24.86 23.56 21.89 22.27 22.03 21.38 21.28 20.62 20.07 19.78 20.15 19.90 19.96 19.04 17.69 17.99
28.69 29.57 22.23 22.78 25.68 26.79 27.50 29.27 30.28 30.51 33.06 34.38 33.95 34.35 35.25 32.20 28.45 30.08 28.77 26.32 25.08 24.86 22.28 22.28 23.93 23.96 23.72 23.08 22.81 21.81 21.21 20.90 20.62 21.02 19.66 19.20 19.12 18.52 18.25 19.13 19.17 18.78 18.03 18.06
27.11 25.42 24.35 27.52 27.59 26.68 28.18 29.01 29.62 32.13 32.77 34.95 34.74 30.65 28.57 25.62 28.61 24.71 22.79 25.35 22.15 20.96 23.10 23.46 23.40 22.49 22.66 22.64 22.73 22.64 22.43 21.77 21.06 20.99 20.30 20.02 19.05 18.25 18.19 18.38 18.18 17.99 17.48 16.22
24.43 22.61 26.51 26.41 25.45 24.65 26.45 28.13 28.34 32.16 31.95 30.39 31.41 26.03 22.53 28.74 24.54 19.63 21.67 20.51 21.43 23.56 24.37 25.10 24.22 22.54 22.10 22.56 22.53 22.72 22.80 22.30 22.06 22.09 21.88 21.61 22.23 22.43 20.94 18.81 19.11 19.09 17.88 16.56

GFSNW_sfc_wetblb_060.txt.gz
Wetbulb
44.84 45.16 45.40 45.63 45.68 45.72 43.43 39.57 31.58 47.21 49.20 36.37 36.34 30.79 35.59 39.16 39.91 42.05 39.43 40.04 38.25 37.58 37.99 36.64 36.69 36.97 40.29 43.99 43.83 40.05 43.73 40.05 34.17 37.51 44.34 45.20 43.23 41.54 41.23 35.94 35.22 39.07 38.07 39.14
44.70 44.74 45.16 45.70 45.75 45.22 43.27 35.92 36.12 46.08 46.87 30.76 32.02 35.36 35.47 37.79 37.81 38.49 38.26 37.53 39.13 39.66 36.75 33.87 37.27 38.71 43.72 43.43 41.52 39.59 40.76 38.08 32.20 34.96 40.89 43.94 40.47 41.85 43.12 42.47 41.40 36.19 35.28 37.73
44.31 44.70 45.02 45.13 45.29 45.17 43.88 35.77 31.46 37.36 41.31 39.28 35.03 33.37 33.58 34.03 39.33 37.89 39.53 38.75 40.30 37.97 36.64 38.84 36.04 37.62 41.86 43.14 42.13 43.09 41.92 38.75 36.01 32.15 36.15 39.04 36.39 41.39 42.65 41.97 35.65 36.98 37.83 41.41
44.22 44.56 44.60 44.79 45.16 45.40 42.46 36.16 32.85 37.06 31.46 33.92 34.90 35.26 35.15 33.41 33.44 39.04 39.60 37.34 37.78 36.62 33.65 35.25 35.21 38.06 39.45 42.05 42.80 42.23 40.64 35.61 38.69 39.53 40.95 40.60 40.58 40.37 41.65 40.25 40.22 36.84 40.23 41.44
44.02 44.28 44.33 44.87 45.13 45.16 39.27 32.07 33.10 36.75 34.27 36.24 34.66 34.77 32.90 33.15 35.10 36.59 35.83 35.22 37.31 38.10 34.67 36.05 34.17 37.63 38.57 37.97 42.02 40.07 41.56 34.04 36.52 35.73 40.64 40.65 38.49 41.30 40.87 40.74 42.54 42.19 42.37 40.44
43.63 43.88 44.12 44.58 44.58 44.51 37.74 38.84 40.16 36.65 33.13 33.65 32.49 32.85 33.88 34.31 36.82 38.18 39.75 38.56 37.51 36.22 38.02 40.56 41.80 42.50 41.50 40.85 38.90 38.14 37.38 35.75 34.27 31.32 37.51 37.66 33.77 38.53 40.65 40.80 43.06 42.49 38.56 43.51
43.41 43.48 43.91 44.56 44.44 44.07 41.82 40.59 40.10 33.09 28.73 31.00 31.76 34.49 35.31 35.08 36.52 35.23 38.12 39.75 37.84 40.25 45.56 44.84 43.44 41.86 40.92 40.71 40.07 41.19 36.39 35.41 34.22 30.79 33.97 25.94 38.35 43.74 43.35 41.99 43.16 44.52 44.70 45.25
43.43 43.41 43.90 44.10 44.07 44.26 42.57 42.33 39.25 35.27 29.37 32.04 32.64 33.92 35.00 36.68 37.38 37.21 37.77 39.58 42.43 43.63 41.49 35.85 32.48 33.41 34.25 36.69 38.93 38.81 40.33 36.56 31.93 30.07 30.20 34.44 38.15 40.73 40.02 39.44 39.69 44.49 43.06 44.66
43.71 43.61 43.61 44.14 44.09 44.22 43.17 43.84 44.31 35.46 32.52 31.23 35.50 33.73 34.87 32.61 34.40 35.51 38.21 42.71 44.65 41.95 36.54 32.91 26.67 25.62 31.01 30.97 34.44 40.34 39.82 40.00 34.04 32.57 27.28 25.31 37.56 42.90 45.59 44.06 35.37 45.43 46.24 45.70
43.74 43.79 43.71 43.93 43.66 44.19 43.91 42.58 44.05 38.63 32.22 36.48 36.88 33.37 33.15 37.01 35.77 34.43 37.29 38.72 38.31 40.18 33.15 29.90 28.30 27.87 35.02 29.15 30.27 32.07 33.27 34.06 30.57 30.73 29.22 34.14 41.22 43.79 44.94 33.62 36.26 45.75 46.32 46.03
44.32 43.88 43.60 43.83 43.83 44.12 43.69 41.30 44.50 40.07 35.28 36.60 38.89 38.66 35.09 35.82 35.96 34.21 37.64 36.34 36.01 35.06 30.15 30.46 31.17 31.26 33.84 33.38 35.20 33.47 32.50 30.96 30.45 31.62 28.62 26.76 43.63 43.57 37.68 43.20 45.60 45.60 45.89 46.95
44.13 44.01 43.48 43.69 43.84 44.05 43.96 39.35 44.24 44.71 37.60 36.50 41.97 42.40 42.68 40.66 39.90 37.30 38.84 36.87 34.82 37.81 33.70 35.44 35.99 33.49 36.60 34.30 29.25 37.99 31.40 36.47 33.84 34.78 33.94 44.33 46.48 45.66 47.17 47.37 45.38 44.67 45.51 46.25
45.11 44.48 43.35 43.84 44.01 44.31 43.50 40.01 42.29 42.14 36.94 36.29 36.98 36.34 42.01 44.79 44.02 46.10 35.78 38.33 40.52 38.49 40.21 38.64 37.90 33.62 37.28 31.45 32.75 35.71 37.92 41.83 37.40 37.29 40.97 42.36 45.34 46.90 46.81 46.72 45.60 45.73 45.45 45.30
44.81 44.01 43.31 43.77 43.94 43.95 43.66 41.30 43.33 42.25 37.71 31.07 33.95 43.24 41.05 44.89 44.78 44.04 44.26 41.26 41.45 41.60 40.02 36.72 37.11 34.84 40.13 35.63 37.06 36.40 38.48 38.76 38.75 38.99 41.35 41.65 42.80 44.59 44.63 44.73 44.43 43.23 44.15 43.18
44.74 44.14 43.85 43.82 43.88 44.03 44.22 44.98 44.60 45.35 37.24 32.00 34.65 39.98 42.88 43.90 44.27 42.05 42.38 42.60 40.75 38.48 37.02 35.88 34.96 39.59 38.75 39.74 38.93 35.60 41.05 37.44 36.71 36.47 41.15 41.56 40.24 42.27 43.90 41.92 40.96 40.86 40.15 39.43
44.36 43.87 44.06 44.15 44.18 44.39 42.81 34.80 43.74 45.58 44.72 35.07 29.57 39.93 40.10 42.67 43.36 42.86 41.65 41.07 40.95 39.84 36.42 36.21 39.87 42.60 39.34 35.02 33.21 38.79 41.14 42.00 41.01 38.75 41.07 42.54 42.53 41.17 41.01 40.14 39.71 39.87 38.36 36.37
44.03 44.08 44.16 44.28 44.38 44.20 36.93 36.98 43.54 44.77 45.39 34.77 30.57 31.38 40.09 42.61 42.78 42.20 41.56 42.22 40.01 38.09 37.11 36.69 37.63 39.72 40.37 37.26 32.33 37.04 37.33 39.33 39.93 39.57 40.09 40.63 38.74 36.08 37.25 37.54 38.11 38.23 34.96 32.81
44.39 44.37 44.45 44.59 44.57 43.23 39.57 44.49 45.85 45.98 39.42 37.31 30.30 31.98 36.91 42.10 37.43 37.25 41.48 38.04 39.04 38.06 37.47 37.87 37.75 39.63 39.35 32.86 34.40 34.94 33.93 37.57 36.35 36.38 38.89 37.30 37.63 36.59 35.26 35.70 35.45 31.89 29.87 28.78
44.68 44.86 45.28 43.48 39.94 37.61 40.45 45.65 44.84 46.39 40.11 31.95 34.04 31.14 30.95 42.13 38.93 39.51 39.94 39.96 33.30 38.87 36.64 36.97 37.57 37.53 30.86 27.88 29.27 29.07 30.40 31.29 31.80 34.55 37.02 36.02 33.87 33.13 32.05 31.28 30.74 28.95 26.91 26.01
44.90 40.39 35.81 32.76 38.70 45.24 43.33 39.93 35.22 36.64 37.58 38.47 34.03 38.27 33.83 38.91 38.94 37.49 36.78 38.47 34.74 30.14 34.39 39.73 34.74 27.05 29.45 30.20 29.51 29.37 29.73 30.66 30.28 29.70 28.51 29.42 29.70 29.77 27.64 26.65 26.94 26.15 24.59 24.15
40.69 36.82 35.81 41.78 44.71 40.80 36.71 32.58 32.75 34.15 32.43 36.36 37.06 38.05 35.39 41.13 35.41 34.48 38.45 33.87 35.65 29.13 32.97 32.81 31.51 25.25 26.06 29.02 27.84 28.37 28.22 28.40 28.50 28.72 28.02 27.50 27.40 27.30 25.46 23.87 23.60 23.09 22.55 21.16
41.25 40.43 41.60 41.90 37.54 34.42 32.19 31.58 33.15 32.60 30.88 36.90 36.23 37.31 38.58 39.29 41.61 36.39 37.24 32.92 34.52 27.44 35.69 31.98 25.17 23.92 26.27 26.31 25.58 25.94 26.43 25.93 25.66 26.56 25.35 25.48 25.34 24.91 23.51 22.21 21.08 21.01 20.85 20.48
42.91 38.84 34.75 35.21 33.83 29.82 29.01 25.98 29.18 30.60 34.48 35.71 36.61 34.34 37.46 37.94 38.59 35.97 33.87 30.79 29.75 36.72 30.70 25.02 23.24 24.71 26.03 26.11 25.45 24.63 25.61 24.72 23.78 22.58 22.65 22.17 21.45 22.04 21.13 19.99 20.46 20.39 19.24 19.40
35.18 32.46 24.92 29.55 26.61 26.90 27.13 28.16 29.22 31.68 33.26 35.10 36.96 34.03 34.06 34.36 32.87 33.92 29.59 31.10 32.49 28.09 26.29 21.37 22.79 23.45 24.10 24.72 24.25 22.90 21.79 21.88 21.11 20.59 20.48 19.70 19.32 18.60 18.98 19.07 19.29 17.86 16.58 17.24
29.40 30.50 23.63 23.69 26.86 28.20 29.20 31.38 31.59 31.73 34.30 35.07 33.65 34.34 35.30 32.64 29.84 31.45 29.57 26.25 26.29 23.39 20.13 22.25 23.17 23.60 23.25 22.51 22.12 21.25 20.83 20.73 20.50 20.29 19.41 18.80 18.40 17.99 18.08 19.06 18.93 18.40 17.63 17.06
27.82 27.45 25.39 28.97 28.00 27.76 28.97 30.76 29.65 32.58 33.56 35.48 36.03 32.63 29.50 27.49 29.43 26.72 24.10 25.52 21.24 21.25 22.35 23.44 23.54 22.28 22.28 22.22 22.51 22.25 21.99 21.37 20.98 20.97 20.18 19.38 18.73 18.17 17.75 18.42 18.06 17.58 17.54 16.35
25.70 24.14 28.75 29.04 27.54 27.03 28.25 29.35 29.28 33.62 32.54 31.25 32.06 27.28 24.02 28.23 25.85 20.45 22.09 20.72 21.68 23.82 24.10 24.41 23.63 22.23 21.76 22.44 22.46 22.53 22.88 22.43 22.36 22.25 21.81 21.36 21.61 21.84 20.28 18.05 18.36 18.16 17.11 16.18

GFSNW_sfc_wetblb_063.txt.gz
Wetbulb
45.10 44.93 44.95 45.35 45.71 45.53 42.14 37.99 26.43 41.09 44.64 32.48 33.65 27.61 31.59 36.21 34.60 38.38 36.53 37.17 36.75 34.47 34.93 34.23 34.75 34.92 38.91 42.03 41.74 38.24 39.64 37.40 31.21 34.22 41.12 43.50 42.48 39.98 38.69 33.88 32.88 35.64 33.20 35.27
44.80 44.58 44.87 45.12 45.44 45.24 37.91 33.97 31.14 39.65 42.25 28.38 26.83 31.89 32.55 34.06 33.33 34.30 35.35 35.48 37.53 37.55 33.85 30.29 34.92 36.62 42.51 42.16 40.00 37.01 37.87 34.66 29.54 32.54 38.35 42.52 38.89 40.49 40.52 39.94 38.94 34.63 31.88 34.97
44.37 44.44 44.44 44.94 45.25 45.27 41.33 34.18 26.68 31.36 34.60 33.52 32.59 30.67 30.78 30.83 37.02 35.49 36.95 35.66 37.11 35.48 33.45 35.56 33.03 35.55 41.32 42.20 41.76 42.89 40.41 36.28 33.92 29.57 34.03 38.38 35.94 38.93 40.73 38.56 33.74 34.64 36.36 39.35
43.78 44.17 44.45 44.42 44.78 45.03 40.34 34.12 28.32 31.78 28.29 28.18 30.47 31.67 31.62 30.22 31.64 36.70 37.24 33.51 33.97 33.57 31.15 32.88 32.66 36.18 37.23 40.82 42.54 40.79 38.85 32.62 36.28 36.53 37.63 39.43 37.51 37.11 39.33 37.64 38.04 35.77 38.74 39.58
43.70 43.82 44.04 44.57 44.27 44.58 37.78 29.75 28.00 31.58 30.05 32.02 31.35 32.18 29.30 29.77 31.38 33.77 32.85 32.66 35.05 35.06 32.33 33.44 31.73 35.48 36.19 36.16 40.21 38.80 39.23 31.93 34.87 33.04 38.35 38.29 37.23 38.67 40.36 39.92 40.44 40.65 40.88 39.65
43.56 43.64 43.75 44.21 44.44 43.62 34.96 37.59 36.79 33.14 30.06 29.33 26.69 28.41 31.02 31.46 34.14 35.40 36.53 36.27 34.76 33.65 36.74 37.95 38.28 38.86 38.97 38.10 36.19 36.10 36.21 34.00 31.84 29.02 34.09 35.07 30.58 37.00 39.18 39.39 40.77 40.78 36.50 42.36
43.61 43.63 43.68 44.43 44.27 43.91 36.80 36.37 35.94 30.02 24.05 26.99 27.22 30.26 31.53 31.99 33.37 32.05 36.46 37.61 35.58 38.98 43.33 41.71 41.45 39.39 38.88 38.72 38.55 39.57 34.69 32.74 32.55 27.91 30.79 24.83 36.59 41.91 42.90 40.35 41.02 42.95 43.31 43.97
43.28 43.82 43.77 44.11 43.85 44.36 40.17 38.93 36.65 33.19 22.36 28.34 29.11 30.61 31.05 33.04 34.91 33.38 35.07 38.17 40.76 42.93 40.22 32.61 30.04 28.54 30.06 33.30 36.36 36.43 37.09 33.00 26.90 26.71 28.12 32.34 35.67 39.75 38.74 38.91 38.72 43.53 42.71 43.92
43.68 43.71 43.34 43.53 43.68 43.99 40.96 40.04 40.93 35.98 28.56 24.56 32.17 30.26 32.37 29.87 30.16 33.13 34.59 41.22 41.63 38.46 32.65 28.22 23.76 21.47 27.97 27.72 32.36 37.75 36.47 35.05 29.18 27.16 25.22 23.87 34.53 41.37 44.62 43.15 33.58 43.42 43.39 43.24
43.88 44.07 43.90 43.97 43.43 43.77 41.12 38.35 41.24 37.09 28.99 31.77 32.07 29.21 31.08 34.48 32.21 31.70 35.07 35.96 35.24 37.10 31.01 22.91 24.74 23.64 32.23 25.36 27.51 28.50 29.05 29.42 26.82 26.42 25.20 30.98 40.36 42.77 44.72 32.31 34.83 43.40 44.24 43.25
44.35 44.17 44.15 43.98 44.10 43.83 41.35 38.10 41.95 37.38 32.45 33.46 36.17 35.98 32.74 33.72 34.10 31.11 34.27 32.27 34.97 32.08 25.92 24.14 25.07 23.91 29.07 28.89 33.18 32.43 29.62 28.02 26.90 26.56 23.97 23.66 42.81 41.00 36.75 40.29 43.18 43.24 42.86 42.84
44.38 44.66 44.35 43.98 43.95 44.20 43.29 36.98 41.91 41.29 34.86 33.27 38.51 38.70 39.00 37.60 36.64 34.74 36.20 32.48 34.24 35.31 31.65 28.78 29.93 25.40 29.42 31.38 27.15 37.26 29.97 34.19 29.68 30.57 29.21 39.83 44.57 43.38 44.51 44.22 42.57 42.48 42.35 42.93
44.88 45.00 45.27 43.88 43.83 44.19 42.63 37.61 38.19 37.46 34.37 33.40 32.82 32.52 38.34 41.43 39.95 40.92 33.37 36.15 39.57 38.10 38.63 34.08 33.94 29.60 33.23 27.05 29.73 33.90 37.03 39.71 35.14 34.97 38.17 39.63 42.14 43.41 43.89 43.11 41.95 42.11 41.84 41.78
45.61 45.55 45.10 44.88 43.74 43.97 42.75 37.29 37.94 38.14 36.18 22.94 28.27 39.40 36.86 40.79 40.61 39.99 39.41 38.07 40.16 38.81 38.06 34.46 32.99 31.91 37.63 31.27 34.22 32.56 37.38 36.27 35.81 36.03 39.50 39.89 39.84 40.33 40.59 40.30 41.58 40.17 40.06 38.88
45.94 44.87 45.09 44.67 43.61 43.55 41.51 38.81 38.52 40.09 34.53 28.31 30.90 36.23 39.13 41.73 40.05 38.79 38.34 37.38 36.61 36.61 34.85 33.35 33.11 36.60 36.50 35.64 35.46 34.01 38.61 32.31 33.70 33.49 38.22 38.75 38.42 40.40 40.26 38.40 38.21 37.54 36.56 33.36
45.00 44.76 44.75 43.84 43.81 43.83 37.77 32.81 38.33 40.66 39.45 31.33 23.51 35.80 37.09 39.62 39.29 39.11 37.38 36.97 36.39 37.45 35.17 34.94 37.43 40.48 36.60 28.51 28.94 36.28 37.09 37.24 36.20 33.13 40.47 37.80 36.46 36.81 38.44 37.58 34.07 33.10 31.43 31.47
44.70 44.69 44.00 44.02 43.69 40.16 33.28 31.56 38.55 42.32 41.59 33.93 28.84 29.61 37.91 38.68 39.22 39.02 37.83 39.09 37.89 38.47 36.61 34.42 35.36 35.43 38.83 29.07 27.10 30.93 33.96 36.17 35.15 37.29 38.44 34.16 34.62 32.48 35.49 35.44 33.30 31.44 28.86 27.93
44.53 43.83 43.76 43.65 43.69 41.42 36.29 38.78 44.73 43.12 36.32 36.52 28.56 28.11 32.15 40.89 36.43 35.69 40.59 37.16 37.64 36.83 36.11 36.37 35.70 36.73 35.36 29.62 29.32 30.17 31.16 33.35 31.83 33.82 35.91 34.62 33.74 31.54 30.70 32.49 30.88 27.11 25.23 24.25
44.00 43.73 43.73 40.94 38.30 36.04 35.49 44.63 44.90 43.90 36.43 29.00 30.00 25.10 27.95 39.38 37.04 37.65 37.09 38.63 31.17 37.94 32.93 33.71 34.04 28.20 25.04 27.06 27.06 27.12 28.52 28.07 28.23 32.45 31.43 31.76 29.21 27.50 27.05 26.85 26.29 24.40 23.70 23.41
43.93 40.58 34.60 30.62 35.99 44.35 43.77 39.20 35.17 34.64 35.71 35.27 28.99 33.42 28.42 36.64 34.79 32.68 33.31 34.33 31.92 28.00 30.33 34.78 31.43 24.51 28.53 28.02 27.52 26.91 27.27 28.13 28.38 26.43 24.88 26.80 25.78 23.96 23.28 23.42 23.78 23.57 21.76 20.40
39.82 34.36 32.81 40.96 44.39 39.30 35.81 30.61 30.34 30.66 28.71 31.90 32.10 32.00 30.53 38.45 31.43 31.47 33.45 29.48 29.54 25.50 29.18 29.01 28.04 23.17 24.98 26.12 25.20 26.15 26.44 27.15 27.57 27.10 26.38 25.51 24.71 23.13 21.52 20.87 20.47 19.83 19.43 18.16
40.29 40.12 41.91 40.51 35.99 32.48 30.72 27.89 30.18 28.42 27.10 30.90 29.56 31.24 35.83 36.40 39.34 33.17 34.01 30.32 30.47 25.80 31.92 28.67 18.14 22.58 24.44 24.21 24.07 24.51 24.68 24.31 23.25 24.00 22.60 23.00 22.52 21.66 20.69 19.68 18.80 18.59 18.42 17.87
41.83 37.95 34.81 34.20 32.09 27.70 26.63 21.36 23.75 24.05 30.90 32.69 33.47 32.81 34.09 34.47 34.94 31.17 31.86 28.37 26.21 32.70 28.32 20.03 20.16 23.39 24.16 23.35 23.07 22.54 23.40 22.45 21.44 20.26 20.20 19.42 18.91 19.54 18.19 16.40 15.40 15.06 14.09 12.43
33.85 29.81 21.09 26.85 25.12 24.95 24.68 26.50 27.85 30.83 32.28 32.89 32.72 31.48 32.06 32.45 30.54 30.67 26.71 27.85 26.57 25.44 20.25 14.03 19.04 20.89 21.41 21.54 21.58 20.00 18.50 18.68 17.46 17.04 17.10 15.91 15.33 14.64 14.61 12.85 10.43 12.19 12.51 12.47
27.69 27.25 21.35 21.32 25.46 25.41 27.82 30.05 29.83 31.06 32.98 32.92 30.10 27.57 28.40 26.30 27.13 28.97 26.60 21.60 21.35 18.90 12.27 16.38 19.03 19.36 18.72 17.50 18.47 17.37 17.88 16.78 15.91 15.81 15.00 12.60 11.11 13.44 13.99 12.04 11.66 12.38 12.23 12.19
25.47 25.32 24.53 27.14 23.56 25.16 27.11 28.97 27.79 31.25 31.88 33.26 32.36 27.74 27.04 25.92 27.42 22.17 18.53 19.63 12.93 13.68 14.77 18.96 20.15 18.58 18.89 18.70 18.81 18.64 18.97 18.05 17.65 17.28 16.42 14.46 12.03 12.76 13.00 12.61 13.48 12.12 11.35 9.87
21.97 19.73 23.62 23.51 19.33 19.20 25.65 27.77 28.71 32.42 30.40 29.33 27.60 20.71 22.07 25.13 19.99 16.76 18.66 12.03 16.12 18.90 19.85 20.33 20.06 18.87 18.68 19.02 20.03 19.87 20.36 20.31 19.59 19.11 18.23 17.49 17.46 17.25 17.00 14.40 14.56 15.66 14.72 11.04

GFSNW_sfc_wetblb_066.txt.gz
Wetbulb
44.95 45.10 45.17 45.01 45.14 45.23 41.14 32.81 23.62 38.67 43.05 30.33 32.56 27.04 29.99 34.45 32.60 35.77 33.98 35.80 34.08 32.61 33.49 32.06 32.10 34.39 37.78 40.73 40.87 36.72 38.43 35.57 30.90 34.05 40.08 42.36 40.92 38.61 38.34 33.04 31.82 34.45 33.07 33.73
44.44 44.64 44.63 44.65 45.07 44.64 35.68 34.05 29.60 36.79 38.44 25.77 24.81 29.87 31.05 32.44 31.51 32.13 32.15 33.73 35.07 35.09 31.79 28.89 34.16 35.54 41.37 40.77 38.91 35.55 35.75 32.50 28.43 30.67 36.08 39.83 37.16 39.58 40.25 39.55 37.42 33.65 31.40 34.41
44.22 44.43 44.58 44.54 44.77 44.93 39.79 34.44 23.80 27.58 32.04 31.66 30.18 29.09 29.09 29.25 35.55 33.69 34.26 33.56 35.22 32.70 31.92 34.42 31.27 34.08 40.55 41.48 40.35 42.36 39.63 34.01 32.12 28.91 33.36 37.01 35.40 38.25 39.30 37.87 33.43 33.13 33.25 37.87
43.90 43.92 43.97 44.26 44.45 44.54 40.59 32.99 25.54 28.72 25.59 29.13 30.01 31.01 29.62 27.50 28.14 34.33 34.71 32.33 33.11 31.24 28.35 30.86 30.24 35.09 36.64 40.05 42.33 39.65 36.47 29.06 34.32 35.50 36.78 36.80 37.07 36.98 37.46 36.59 36.57 33.98 36.78 38.22
43.84 43.86 43.96 43.91 44.08 43.88 37.96 30.21 23.31 29.55 27.83 31.56 28.84 28.83 27.59 27.89 31.12 31.64 30.55 30.65 33.14 33.47 31.14 33.20 30.15 34.63 34.71 35.11 38.34 36.62 37.64 29.30 33.20 31.36 35.85 35.31 34.03 38.18 38.50 37.89 39.27 38.23 39.05 39.24
43.69 43.79 43.75 43.92 44.13 42.99 36.52 37.40 34.10 30.76 26.82 25.99 24.95 26.90 29.10 28.43 30.75 33.96 34.93 33.97 32.26 31.81 34.59 37.25 37.50 37.73 38.07 37.03 34.91 34.01 34.42 32.66 28.87 26.37 33.52 32.69 29.69 35.43 38.01 39.48 41.42 40.73 37.05 41.74
43.76 43.79 43.74 44.33 43.91 43.13 35.60 33.31 32.59 29.07 22.44 24.76 25.68 28.28 29.04 28.73 30.86 29.89 33.52 35.42 33.32 36.90 41.58 40.36 38.52 38.13 37.83 37.59 36.67 37.22 32.44 30.80 29.79 26.39 29.29 21.50 35.20 39.65 40.32 40.33 41.17 42.10 42.16 43.37
43.34 43.49 43.76 43.76 44.01 43.98 39.88 37.96 34.39 32.40 22.51 28.34 27.90 29.08 28.98 30.61 32.91 31.49 33.17 35.94 39.15 42.23 37.55 31.50 29.04 27.19 29.14 32.07 35.75 35.90 36.48 31.39 26.07 23.99 24.88 29.91 33.54 38.99 38.16 38.28 36.64 42.31 40.81 43.94
43.57 43.91 43.84 43.76 43.74 43.83 37.97 38.85 40.23 35.51 26.34 24.81 29.98 28.18 30.51 26.83 28.05 29.86 33.77 39.21 40.94 39.75 32.97 30.71 23.75 21.46 26.60 26.79 30.70 35.66 34.94 32.81 26.80 25.13 23.24 20.62 33.93 40.44 43.25 42.66 33.97 42.67 43.92 43.35
43.76 43.67 44.04 43.62 43.46 43.74 38.61 35.88 40.12 36.54 29.31 29.89 30.32 25.25 28.61 33.28 30.67 29.23 33.98 33.56 35.51 35.00 25.59 24.38 22.68 22.99 30.71 24.01 26.38 26.77 26.98 26.68 25.49 24.18 22.73 27.99 38.54 41.82 43.62 30.32 34.34 42.41 42.56 42.84
44.03 44.21 44.38 44.38 44.13 43.72 39.95 36.33 39.78 36.22 32.60 31.99 34.16 35.28 31.43 32.71 33.43 28.18 32.24 31.66 33.08 31.39 22.41 23.56 23.80 22.48 27.31 27.02 29.85 28.52 27.46 26.07 24.17 26.06 23.64 21.89 40.59 41.27 35.14 39.86 42.99 42.44 41.82 41.91
44.32 44.45 44.65 44.90 44.45 44.31 43.06 35.83 40.26 40.94 35.45 29.96 37.22 38.02 38.51 35.98 36.47 33.36 34.86 31.88 32.13 34.70 28.99 29.52 29.25 23.73 23.54 27.60 25.39 36.74 29.78 33.22 29.36 29.13 27.77 38.33 39.46 39.43 42.16 43.72 41.61 41.52 41.49 41.14
44.56 44.73 44.94 45.08 44.98 44.14 43.51 37.04 38.28 38.81 34.09 30.99 30.77 30.83 36.50 39.60 38.69 39.10 30.14 35.10 36.85 34.71 36.82 33.41 32.62 28.44 32.08 26.36 29.32 33.24 36.95 39.17 34.77 34.68 37.07 37.31 38.09 39.24 39.81 39.98 37.92 38.18 39.70 38.79
45.05 45.55 45.74 45.53 45.22 45.01 43.56 36.41 37.31 36.04 35.13 24.90 26.43 37.40 34.23 38.70 38.03 37.34 38.02 37.61 39.68 38.81 37.22 34.02 32.18 28.78 35.64 30.87 34.29 32.65 36.59 36.48 34.93 36.38 37.37 38.18 38.46 38.52 39.06 37.83 37.66 35.24 34.60 35.09
46.02 46.36 46.19 46.08 45.32 44.29 42.36 36.50 36.39 37.49 32.50 28.22 29.16 34.12 36.65 38.79 38.01 36.60 37.28 36.67 35.66 34.20 34.98 31.70 31.19 35.78 34.62 36.61 35.88 32.68 35.80 31.51 30.53 31.27 37.22 35.04 36.93 38.59 38.88 35.26 32.63 32.92 31.55 29.75
46.12 46.21 45.27 45.22 44.86 43.39 37.24 29.80 35.95 38.91 37.43 31.64 22.14 31.79 34.50 36.77 37.86 36.28 34.83 34.58 33.80 34.59 34.73 34.18 36.45 39.76 36.05 31.13 31.11 33.47 36.17 35.13 36.79 33.16 35.61 33.32 35.14 36.45 35.74 32.16 30.65 29.91 28.74 28.22
45.28 45.32 45.53 44.59 44.02 38.92 29.86 27.64 33.34 41.12 38.78 33.87 26.79 25.57 34.17 36.40 36.05 35.01 34.94 35.86 37.07 36.70 33.65 33.95 33.71 34.26 36.81 31.86 27.75 30.87 32.69 33.24 34.96 37.71 37.68 31.73 32.40 31.27 32.41 29.96 28.09 27.44 25.29 25.14
45.11 44.63 44.06 43.83 42.61 39.71 34.63 41.05 44.12 40.77 34.22 33.68 25.81 25.88 30.27 38.34 31.10 32.08 35.80 34.48 37.01 36.22 35.25 35.35 34.19 35.80 35.54 25.21 28.18 28.88 31.31 32.07 32.13 32.79 32.23 30.23 29.65 29.50 29.39 29.27 27.37 24.36 22.76 22.47
44.33 43.88 43.37 39.87 34.81 30.29 32.27 43.73 43.28 40.97 33.46 27.46 29.20 25.50 22.84 33.34 34.70 35.09 36.87 37.61 30.19 36.94 32.59 32.50 34.01 26.25 21.23 26.05 25.25 25.41 26.82 26.74 27.80 30.56 30.83 28.80 26.61 25.72 26.15 25.60 25.13 23.11 22.19 21.75
43.38 39.03 34.62 30.59 34.07 41.91 42.13 36.49 34.95 34.38 35.46 35.05 30.58 31.68 27.71 33.49 34.08 32.45 32.68 32.98 31.63 29.03 32.11 34.27 27.87 22.96 25.96 25.92 26.05 26.11 27.17 27.14 27.97 26.59 25.97 25.14 23.40 23.26 23.21 23.05 22.77 21.74 20.68 21.81
35.33 33.28 33.19 36.70 42.43 36.84 34.32 29.42 28.24 30.46 28.01 30.90 31.21 30.28 29.12 37.08 32.06 32.03 31.74 28.28 30.59 25.83 26.98 29.67 25.08 22.09 22.56 24.53 23.95 24.69 24.70 25.55 25.13 24.92 23.98 25.59 24.08 21.82 20.57 19.86 20.24 20.06 19.21 17.42
38.61 38.36 41.61 39.96 35.86 32.95 29.63 27.33 28.80 27.77 24.83 28.82 27.82 29.06 30.57 33.70 39.08 31.61 33.05 28.66 28.59 25.61 33.55 28.32 17.05 19.93 22.99 22.63 22.16 22.40 22.70 21.86 21.74 22.69 22.24 22.17 21.18 20.35 19.28 18.60 17.99 17.16 16.53 15.32
42.06 37.76 33.88 33.84 31.62 25.73 21.04 21.44 24.99 24.63 30.42 32.90 32.74 31.95 34.00 33.44 34.43 29.35 31.60 28.65 23.98 32.13 23.62 16.26 17.86 21.48 21.97 21.65 21.46 20.95 21.22 20.39 18.87 18.31 18.70 18.33 17.20 17.72 16.69 14.80 14.05 14.03 12.74 11.74
33.34 29.45 20.75 23.90 23.55 21.35 21.89 23.04 28.15 30.58 32.06 32.55 31.36 29.80 27.10 30.49 29.84 29.31 24.00 24.68 27.31 24.11 14.23 11.52 15.97 19.77 20.22 20.33 20.03 17.69 14.65 14.79 14.73 14.60 14.34 13.48 13.20 12.64 12.57 10.20 9.65 10.23 8.59 6.55
26.27 25.32 15.15 16.41 19.90 20.85 26.14 29.27 29.77 30.42 33.11 31.77 31.01 28.66 26.26 25.53 25.91 26.94 25.25 20.75 15.50 15.52 8.71 9.68 14.38 16.10 16.31 15.00 14.93 13.84 13.82 13.60 13.40 12.17 12.30 11.11 11.06 12.15 11.25 10.74 9.44 9.69 8.82 9.59
25.59 23.36 20.56 23.71 21.30 21.51 25.64 27.36 27.60 31.17 31.29 32.62 28.19 21.80 24.77 25.12 24.80 21.38 17.65 17.29 8.70 6.83 7.88 15.09 17.97 14.60 12.80 14.33 16.15 16.66 16.22 15.48 14.79 14.78 14.89 13.82 13.26 13.41 12.36 12.24 11.06 9.02 8.77 7.77
20.83 16.65 14.55 16.32 12.49 19.42 23.81 26.86 27.69 32.15 31.27 25.13 24.10 16.51 21.52 23.96 16.09 13.35 14.45 5.67 8.14 13.90 14.91 13.92 10.47 12.87 15.25 16.04 17.43 18.05 18.14 17.44 17.29 17.42 17.13 16.04 16.06 15.40 14.90 12.80 13.94 14.57 12.60 8.58

GFSNW_sfc_wetblb_069.txt.gz
Wetbulb
44.36 44.41 44.55 44.88 44.68 44.63 39.28 31.16 20.08 34.86 40.69 29.57 27.64 22.52 27.95 33.17 31.50 34.55 32.25 32.89 32.10 30.98 31.54 29.98 32.04 32.15 37.21 41.07 40.54 37.01 38.59 35.95 30.06 33.11 38.30 41.31 40.04 37.77 38.07 32.24 31.29 34.04 33.59 33.70
43.71 44.09 44.16 44.35 44.41 43.68 34.42 31.08 28.28 35.38 35.14 15.18 26.27 28.16 29.19 31.23 30.04 30.02 30.80 30.58 33.25 35.08 30.59 26.75 32.66 33.84 41.05 40.45 37.30 34.52 35.69 32.29 27.49 28.99 33.70 38.75 36.92 39.02 39.12 38.51 37.40 32.54 30.61 32.89
43.54 43.69 43.98 44.31 44.17 43.77 37.52 33.42 20.72 25.18 30.42 30.19 27.08 25.12 27.30 26.50 33.47 32.55 33.61 31.96 33.18 31.07 30.16 33.57 30.52 33.05 39.07 40.98 39.53 42.05 38.99 33.07 30.12 25.30 31.31 36.17 34.08 35.76 39.16 38.22 33.09 32.78 33.02 38.13
43.51 43.56 43.64 43.56 43.86 43.43 38.27 33.12 25.63 27.24 14.39 26.62 27.53 28.34 28.51 27.50 27.37 33.13 33.58 30.16 31.11 30.61 28.38 29.58 28.75 33.89 36.29 39.43 41.51 38.10 34.31 28.26 32.59 33.48 34.18 34.72 35.39 34.82 37.15 36.51 37.03 33.83 34.89 35.97
43.55 43.53 43.70 43.95 43.67 43.25 37.51 28.74 25.17 28.09 27.15 29.39 27.38 28.09 26.92 26.44 26.97 28.44 29.70 29.20 31.76 32.28 30.13 31.38 29.51 33.75 33.40 33.38 37.25 35.86 36.73 28.45 31.11 29.29 34.30 32.91 30.82 34.35 37.45 38.24 37.96 38.25 38.09 37.10
43.98 43.89 43.56 43.63 43.70 42.16 35.74 36.77 35.85 28.53 25.52 25.50 24.06 24.83 26.00 27.27 29.38 30.52 32.71 31.60 31.10 29.88 31.76 35.84 37.01 36.85 36.34 35.90 33.78 33.25 33.91 31.39 28.37 25.32 30.86 29.67 26.79 33.37 35.01 38.59 38.95 38.18 36.15 40.17
43.65 43.53 43.87 43.98 43.82 42.05 38.46 34.55 33.27 27.52 19.90 24.92 24.78 26.90 27.89 27.49 29.40 27.65 31.96 33.61 32.42 36.34 39.47 38.75 37.74 37.03 36.98 36.18 35.57 36.54 32.00 30.06 28.37 24.72 27.34 18.40 31.36 37.54 39.13 37.34 40.31 41.94 41.61 43.17
43.46 43.48 43.50 43.79 43.75 43.58 35.84 37.55 35.31 29.94 21.25 25.67 26.79 28.11 27.88 29.06 29.81 29.56 31.44 35.13 37.72 40.59 37.98 31.24 28.58 27.09 28.88 31.17 34.88 34.60 35.00 30.26 24.96 21.46 22.39 27.26 31.05 37.75 36.89 35.36 35.99 41.58 40.81 43.27
43.58 44.04 43.79 43.72 43.77 43.74 36.64 36.08 39.92 35.14 24.91 23.08 29.02 26.19 27.76 26.28 26.99 27.58 31.79 37.92 37.96 39.58 32.39 28.13 23.16 20.99 25.66 26.07 29.48 34.77 34.15 31.91 26.62 25.22 21.63 17.60 29.31 38.24 42.80 41.32 31.85 41.48 42.35 43.62
43.47 43.97 43.65 43.50 43.69 43.73 37.12 34.50 38.39 36.43 29.10 29.97 29.72 25.93 24.98 30.75 29.39 26.54 31.66 31.34 33.82 36.66 28.07 25.34 23.28 24.24 29.30 23.62 25.63 26.54 27.02 26.84 25.64 24.52 22.05 25.89 34.79 39.50 41.92 29.20 32.88 40.84 42.36 45.38
43.43 43.39 43.61 43.82 43.81 43.70 39.75 36.50 38.26 35.33 30.87 30.58 33.93 33.64 29.01 30.62 29.97 24.04 28.86 28.49 30.01 30.25 24.68 25.79 26.32 23.33 27.34 26.08 27.83 26.44 26.59 24.91 23.54 25.74 23.50 20.22 37.17 39.22 33.17 38.14 41.51 40.70 39.42 37.58
43.46 43.59 44.11 43.90 44.02 44.07 43.25 36.06 39.58 38.09 33.54 30.74 35.48 35.73 36.01 35.14 34.50 31.43 32.31 31.50 31.22 32.32 30.60 29.87 29.20 24.67 23.10 26.52 22.31 33.88 22.21 31.68 28.12 28.31 27.28 36.29 37.36 36.42 39.89 42.22 41.23 40.89 39.66 38.28
43.71 43.82 44.18 44.58 44.55 44.34 43.52 38.67 38.97 38.22 33.86 32.18 30.45 30.14 35.53 38.04 37.60 38.47 30.98 33.20 35.32 33.48 36.06 33.10 31.19 26.37 31.78 22.26 25.28 29.84 36.29 38.70 33.39 34.26 36.07 36.14 36.30 36.91 37.00 36.31 36.12 38.47 39.06 38.00
44.07 44.28 44.84 45.17 45.08 45.12 44.20 37.73 39.50 37.00 34.82 24.33 26.03 35.81 33.14 37.57 37.19 37.58 37.87 35.91 39.07 37.93 37.36 33.66 30.90 27.77 35.01 30.03 32.19 31.84 35.50 35.90 32.17 35.06 36.67 37.56 38.04 37.08 36.05 35.05 33.95 32.64 33.15 32.99
44.69 45.09 45.47 45.84 45.92 45.99 44.16 38.87 40.24 38.87 31.63 26.81 27.92 32.59 35.32 36.77 36.28 35.46 35.78 36.07 35.12 34.56 32.65 31.68 29.05 32.94 34.19 33.07 34.52 31.20 34.27 30.57 29.40 30.34 35.55 35.44 34.70 36.27 36.29 32.84 31.21 31.27 29.40 27.83
45.22 45.67 46.43 46.75 46.68 44.63 36.19 31.52 37.39 38.34 35.84 29.41 23.17 30.20 32.28 35.74 35.33 35.36 34.09 34.43 33.16 33.76 33.32 33.09 35.80 38.35 34.70 30.54 27.92 32.34 34.35 35.13 36.43 32.26 34.05 33.53 33.15 32.07 31.66 28.90 28.75 28.36 27.13 26.87
45.87 46.32 45.20 45.30 42.57 39.24 31.71 27.52 32.07 40.34 37.55 31.63 27.02 25.06 31.46 34.98 34.67 33.03 32.60 33.54 32.87 32.39 32.86 30.84 32.82 33.44 36.31 31.10 26.19 30.19 32.71 34.83 35.47 35.36 34.99 30.88 31.69 28.04 28.52 26.83 26.08 26.11 24.42 24.18
45.50 45.63 44.40 43.08 42.24 39.77 34.15 40.16 41.88 39.99 32.85 32.92 23.33 23.37 25.56 36.40 30.09 28.71 33.07 31.51 32.94 34.18 33.97 34.44 33.04 34.25 35.30 24.55 27.07 28.20 29.85 31.57 30.73 29.49 30.22 29.15 29.39 28.49 27.45 27.26 25.74 23.23 22.02 21.82
44.89 44.07 42.86 39.08 34.84 29.95 37.06 43.09 42.11 37.46 31.34 24.20 25.84 19.28 15.02 33.69 35.03 33.73 32.88 34.57 28.81 34.95 30.81 32.38 33.87 28.53 21.18 24.39 24.81 25.20 26.53 26.04 27.21 29.53 28.42 27.78 26.06 25.16 24.91 24.59 23.61 21.86 20.44 20.04
42.64 38.76 33.06 27.10 31.15 42.17 42.14 37.91 33.21 32.13 32.01 33.54 29.33 31.62 26.98 32.06 31.87 31.87 32.47 32.74 29.52 28.20 30.79 35.15 26.53 18.17 24.32 24.93 25.51 26.02 26.36 25.79 27.56 26.96 25.19 24.94 23.70 23.16 22.67 21.52 21.86 22.06 21.37 19.70
34.28 30.85 31.14 32.31 41.94 35.09 32.32 27.25 27.05 29.28 28.50 30.05 30.65 30.65 29.36 35.85 30.13 31.08 32.54 29.11 31.20 25.59 27.24 29.92 24.30 19.78 21.15 23.95 23.44 23.89 24.26 23.86 23.44 23.09 22.93 23.04 22.70 21.36 20.30 19.98 20.02 19.23 18.04 15.97
34.65 37.72 37.58 35.26 33.49 30.83 26.34 25.52 28.21 27.84 24.52 27.60 28.56 29.69 31.18 32.39 38.52 32.21 32.53 27.95 27.78 25.33 32.52 26.23 16.20 18.60 22.20 21.97 21.60 21.62 21.55 21.27 21.22 22.50 21.48 21.32 20.60 19.54 18.57 17.69 16.47 15.29 14.33 12.73
40.03 35.92 32.50 30.97 28.88 24.81 23.33 20.71 24.64 25.17 27.07 32.64 33.31 31.61 29.39 33.31 35.79 30.92 30.53 28.09 21.24 32.58 20.98 15.69 17.07 21.04 21.99 21.51 20.95 20.08 20.31 19.68 18.72 17.89 17.67 16.93 15.75 15.96 14.93 13.13 11.84 11.92 9.81 8.25
32.82 27.65 24.81 24.36 19.20 18.15 15.99 15.69 21.98 30.37 31.82 32.20 31.78 29.97 27.34 30.47 29.30 29.03 25.20 24.57 26.44 18.72 10.51 11.99 15.05 20.02 20.42 20.23 19.62 16.95 14.38 15.32 14.80 13.76 14.06 13.25 11.83 10.63 11.17 11.03 10.28 9.79 7.98 7.73
25.82 23.27 12.77 13.44 16.89 19.94 21.00 27.92 29.60 30.59 32.56 32.20 30.52 27.68 25.12 28.03 25.81 23.82 25.40 19.91 11.11 12.07 8.90 8.15 14.54 16.86 15.34 12.86 12.89 11.13 11.45 11.76 11.76 11.88 11.66 11.52 11.85 11.43 11.20 11.91 11.86 11.75 10.49 8.49
25.14 21.97 19.98 22.09 21.84 20.03 25.29 26.79 27.39 30.98 31.08 31.57 29.08 20.23 18.62 22.65 19.21 20.49 11.04 13.86 8.08 4.78 3.78 11.30 15.08 10.29 7.97 10.60 13.80 13.25 13.05 13.16 14.20 14.19 13.98 13.80 13.29 12.89 12.10 12.97 10.41 8.47 9.09 7.41
21.62 18.07 17.17 16.31 16.45 16.63 23.93 25.74 26.16 30.39 30.84 22.44 26.06 13.66 22.50 22.04 12.60 11.46 10.86 3.02 2.44 4.11 8.78 13.25 9.42 10.99 11.55 12.77 16.35 15.84 16.32 16.14 16.14 16.11 16.61 15.75 15.92 15.49 14.27 12.07 12.82 13.74 12.26 8.34

GFSNW_sfc_wetblb_072.txt.gz
Wetbulb
43.40 43.49 43.93 44.18 44.14 43.76 38.40 29.51 18.32 33.43 38.43 24.36 24.87 18.26 26.50 31.50 29.64 31.88 29.56 30.79 29.39 27.52 29.44 28.82 29.33 30.55 33.99 40.57 40.17 36.45 37.81 35.36 29.22 31.71 37.28 39.61 38.98 36.69 36.31 31.82 31.37 34.15 33.27 33.03
42.94 43.01 43.42 43.56 43.78 43.05 33.15 28.43 28.17 34.42 32.75 10.44 18.09 28.08 28.69 30.35 29.00 29.12 29.08 28.84 30.46 31.65 28.30 25.50 30.84 32.85 37.62 39.25 38.79 36.54 36.70 32.95 27.75 28.75 32.71 37.81 35.72 38.05 38.31 36.94 34.95 32.50 29.22 32.20
42.71 42.67 42.86 43.22 43.68 43.98 35.19 28.46 19.99 24.39 29.20 27.28 22.12 21.51 24.43 25.89 32.74 30.21 31.76 30.71 31.90 29.61 27.59 31.37 28.88 30.39 35.36 39.30 38.93 42.21 38.67 32.20 28.62 24.88 27.87 34.54 32.07 34.56 36.50 35.05 32.22 31.60 32.04 36.80
42.87 42.97 42.87 42.86 43.02 43.68 34.96 31.17 24.26 26.26 14.56 23.33 27.00 26.98 26.82 24.65 26.41 31.75 31.76 29.65 30.52 29.60 26.41 27.56 27.36 31.92 33.93 37.44 39.59 37.02 33.88 28.40 31.43 31.67 32.89 33.63 33.19 33.15 34.22 33.82 34.84 32.42 34.82 36.17
43.09 43.06 43.14 43.34 43.19 43.42 33.84 29.57 25.92 29.28 26.93 27.45 24.82 25.53 25.28 25.31 26.58 26.99 25.62 27.21 29.18 29.27 27.99 28.74 28.97 31.41 32.63 32.92 37.48 36.28 36.38 29.43 30.16 28.21 32.14 31.06 29.31 30.46 31.40 33.68 36.88 36.78 36.92 36.07
43.46 43.56 43.58 43.34 43.33 41.04 34.20 36.64 36.01 29.12 26.19 25.29 22.68 23.06 25.27 25.05 27.58 29.69 31.31 30.44 28.26 27.41 30.27 33.32 33.93 36.50 37.16 35.83 34.28 32.61 32.55 30.19 27.43 24.84 28.41 28.09 24.45 30.08 30.54 33.44 38.90 38.09 33.18 38.29
43.44 43.31 43.48 43.68 43.61 40.49 33.93 34.89 35.38 25.85 19.85 24.91 24.52 25.84 26.26 26.08 27.50 25.98 29.38 30.67 30.80 34.69 38.49 37.53 35.71 35.82 36.35 36.33 35.68 35.30 30.77 29.56 28.17 24.94 26.46 16.56 28.55 35.14 36.19 36.42 38.39 40.58 41.13 42.86
43.44 43.26 43.34 43.49 43.60 42.84 34.50 36.48 35.43 26.85 17.66 25.34 25.22 25.84 26.54 26.92 28.04 27.67 28.77 32.66 36.33 36.48 35.35 32.24 27.95 26.77 29.75 30.32 33.04 33.36 33.72 29.40 24.63 20.84 21.77 25.43 28.67 35.12 34.84 34.42 33.54 40.06 41.15 42.67
43.65 43.38 43.39 43.39 43.51 43.33 36.06 34.09 39.44 34.94 24.28 21.48 27.85 25.80 26.37 24.14 23.98 26.07 28.61 35.50 36.58 38.01 32.62 30.49 23.15 20.59 25.27 24.77 27.58 34.28 32.24 31.01 26.25 24.94 20.29 15.33 27.15 35.48 38.84 38.66 28.71 39.35 40.05 41.04
42.97 42.95 43.47 43.62 43.57 43.29 36.46 33.97 36.67 34.89 27.38 29.01 29.01 25.17 24.71 28.76 26.36 23.33 27.95 29.95 32.43 33.69 29.52 26.71 23.67 22.51 27.73 22.90 24.56 26.25 26.96 27.41 25.24 23.99 20.65 25.00 32.24 36.33 39.29 26.55 28.69 37.36 38.14 42.17
42.59 42.74 43.04 43.06 43.31 43.46 39.23 36.35 36.84 32.94 29.29 29.94 32.10 32.34 28.33 27.78 27.84 18.71 24.72 25.79 28.42 27.57 26.10 26.07 25.99 22.11 25.96 25.73 27.35 26.17 25.66 24.14 23.72 26.42 23.65 19.86 35.41 36.55 30.47 35.84 38.21 36.88 36.33 37.28
42.73 42.88 43.19 43.35 43.62 43.78 42.70 36.27 39.43 36.93 32.65 28.21 34.53 34.89 35.33 34.18 32.71 28.65 28.78 26.96 30.38 31.19 27.61 28.25 29.48 26.18 25.35 26.43 22.12 32.21 21.94 28.51 27.51 28.47 27.00 35.26 35.80 34.44 36.23 41.02 39.75 37.27 35.86 35.31
42.18 42.72 43.40 43.78 44.09 44.17 42.85 39.31 38.81 37.42 33.28 31.36 29.13 28.90 33.84 37.19 36.74 35.70 27.92 30.29 35.46 32.96 35.61 31.85 31.01 26.29 30.85 25.67 24.69 30.38 33.35 37.27 32.04 32.57 34.86 34.64 35.42 35.22 34.70 34.48 33.99 36.63 35.48 34.93
42.46 43.04 43.31 43.65 44.08 44.56 44.26 39.55 39.39 37.27 33.45 23.89 25.69 34.61 31.74 36.43 36.09 36.06 36.39 34.49 37.42 37.08 36.71 32.60 30.85 26.36 34.42 28.30 31.02 30.07 33.87 34.64 31.02 33.54 35.69 36.58 36.45 36.08 35.08 32.92 32.13 31.42 31.42 31.23
42.78 43.15 43.63 44.04 44.32 44.78 43.76 42.13 39.96 39.54 32.91 24.76 27.46 32.03 33.43 35.32 34.62 34.06 34.96 34.70 33.54 32.51 30.25 29.83 28.72 32.92 32.44 33.28 32.84 30.27 33.04 30.59 27.96 29.09 33.58 33.82 31.67 33.16 33.04 30.26 29.68 29.38 27.78 26.78
43.05 43.91 44.67 45.28 45.63 45.37 35.15 30.79 36.33 40.41 38.41 30.11 23.05 30.02 31.19 33.51 33.63 33.18 32.57 33.81 33.70 32.61 33.84 31.28 33.37 36.69 34.53 29.44 24.98 31.25 33.13 35.13 35.84 32.09 33.34 31.01 30.26 29.63 29.83 27.61 27.08 27.12 26.83 26.90
43.82 44.46 45.03 45.94 45.93 39.46 33.40 30.59 34.36 40.37 38.75 27.42 20.88 25.41 30.58 34.20 33.84 32.19 32.36 34.12 33.78 32.39 30.00 29.02 28.29 31.15 35.83 30.91 26.11 29.61 32.17 31.59 31.04 32.47 35.00 29.85 28.69 25.72 26.95 25.08 24.29 24.72 23.31 23.21
44.11 45.31 43.81 42.73 42.16 40.73 37.00 39.52 40.78 39.49 32.37 32.06 23.80 23.63 25.00 34.83 28.64 27.86 32.44 30.64 33.60 33.30 29.24 31.50 31.60 33.63 34.80 25.51 25.89 27.49 28.20 30.98 28.99 28.33 29.52 28.29 27.65 26.43 25.46 25.54 23.63 21.78 20.36 20.00
45.03 43.46 42.58 38.89 35.11 33.37 37.41 42.26 41.25 35.25 30.23 24.18 24.89 20.57 16.20 33.21 32.97 32.83 34.29 34.37 28.32 30.73 29.77 29.20 31.46 28.24 23.08 23.59 24.31 25.02 25.75 25.22 26.28 27.82 27.31 26.80 25.15 24.36 23.92 23.28 21.73 19.61 18.93 19.08
42.03 38.73 32.61 27.28 35.35 42.68 41.04 35.91 29.41 26.67 28.57 31.42 27.43 26.05 21.38 31.12 30.70 29.70 29.45 27.50 22.25 25.51 29.02 32.87 27.25 15.74 23.78 24.81 24.87 24.44 24.21 24.13 25.45 27.24 25.28 24.89 23.09 22.35 21.20 20.74 21.60 20.60 19.08 18.40
35.83 31.30 29.56 32.10 42.64 33.25 29.47 27.33 23.11 20.55 25.86 27.41 28.43 27.54 27.85 33.34 27.57 30.12 32.13 29.05 28.87 24.63 27.54 29.35 20.99 17.47 20.94 23.62 22.66 22.80 22.57 22.80 22.49 22.53 22.11 22.44 22.48 21.31 19.96 19.46 19.20 18.11 16.72 14.63
35.66 34.72 37.80 37.63 32.83 24.03 24.69 24.61 26.64 27.03 24.08 24.90 28.20 29.88 31.58 31.33 36.60 31.09 31.06 28.43 29.20 25.73 31.78 25.79 13.61 15.49 21.27 21.05 20.30 20.30 20.54 20.60 20.47 21.60 20.73 20.48 19.75 18.91 18.09 16.96 15.11 14.11 13.14 11.41
37.19 32.40 29.47 28.62 27.94 22.74 19.67 14.73 22.83 24.54 25.50 29.52 32.44 31.12 31.05 32.38 35.09 30.91 30.61 25.87 23.41 31.67 22.12 14.95 13.97 20.13 21.00 20.70 20.32 19.20 19.54 18.94 17.60 16.64 16.32 15.23 14.39 14.61 14.08 11.93 10.89 10.55 8.02 6.77
31.63 29.31 23.99 25.20 22.15 21.93 22.07 16.50 17.71 27.79 31.47 32.01 31.68 30.16 29.96 29.13 28.65 28.39 23.39 26.01 27.47 17.34 12.73 12.63 15.42 18.98 19.46 19.93 18.68 15.57 12.59 12.78 12.94 12.14 12.18 10.84 10.14 8.84 8.26 5.96 4.30 7.49 7.18 6.63
25.77 22.51 15.49 19.58 18.99 16.59 16.67 25.05 29.89 30.78 32.54 32.06 29.62 25.95 26.77 27.75 25.56 23.33 25.05 19.85 12.23 13.83 9.46 6.67 14.51 16.76 15.46 13.24 12.96 11.04 8.97 7.19 8.28 8.94 11.36 11.04 11.13 10.64 10.77 11.06 11.04 10.22 7.55 4.91
22.36 18.22 17.03 19.38 18.17 16.45 19.95 25.02 27.42 30.81 31.29 31.64 25.32 19.36 17.70 19.90 18.06 16.53 8.08 12.47 8.64 5.66 2.49 8.57 13.20 7.78 5.62 7.60 11.16 9.59 10.57 10.34 10.07 11.59 12.42 12.27 11.51 10.85 10.66 10.47 9.74 8.67 8.34 6.23
17.76 13.07 15.19 13.80 11.98 14.89 22.69 24.82 25.45 29.37 29.78 18.47 18.08 13.34 14.29 21.57 11.50 10.73 9.25 3.55 2.09 0.86 7.17 9.93 6.52 8.67 8.04 11.88 13.24 14.06 15.09 14.41 14.41 14.58 15.30 14.47 14.60 14.72 13.97 11.79 12.79 13.50 11.64 7.70

GFSNW_sfc_wetblb_075.txt.gz
Wetbulb
43.62 43.49 43.74 43.94 44.10 43.19 37.66 31.58 22.72 35.21 37.95 27.18 26.29 23.78 26.90 31.07 29.65 31.60 29.34 30.36 28.52 27.17 28.03 28.23 29.36 30.08 34.24 38.44 38.56 36.54 39.37 35.87 29.90 32.58 39.04 41.47 40.04 37.13 36.98 30.82 30.32 33.96 32.84 32.84
43.29 43.09 43.26 43.66 43.98 42.06 34.40 28.71 28.51 35.76 34.81 18.93 22.91 27.57 28.20 30.08 28.78 29.18 28.98 28.33 30.68 31.54 27.57 24.45 28.81 32.42 37.66 38.74 36.25 35.70 38.42 34.17 28.99 30.19 35.90 38.97 35.92 37.70 38.29 37.28 34.80 31.40 30.43 33.40
43.02 42.84 42.81 43.34 43.76 43.18 35.50 28.24 20.22 27.43 32.16 27.92 25.24 22.43 24.28 25.06 32.63 30.79 32.05 30.12 31.61 29.52 27.62 30.46 27.32 30.62 35.53 37.89 37.09 40.02 39.46 33.69 30.77 26.20 29.25 34.27 32.08 34.59 36.18 35.31 29.67 30.02 33.12 36.35
42.54 42.58 42.69 43.06 43.51 43.54 35.79 29.00 24.10 27.82 21.64 27.10 27.00 26.81 26.32 24.72 25.07 30.33 31.21 30.38 28.50 27.06 26.08 27.43 27.56 30.88 33.33 36.57 37.09 37.73 36.38 29.30 32.32 33.58 34.36 34.38 32.69 32.80 33.52 31.88 34.37 31.09 34.36 34.26
42.97 42.76 43.02 43.09 43.28 42.94 34.66 28.74 26.82 29.89 27.84 28.01 26.26 25.62 23.93 24.26 25.97 26.45 25.45 26.74 28.19 27.13 26.69 27.78 26.97 29.97 31.21 32.62 36.03 35.43 37.66 30.72 32.83 29.90 34.02 31.97 29.94 32.57 33.26 33.84 33.94 35.15 36.92 36.53
43.28 43.17 43.17 43.24 43.63 40.61 34.80 35.87 34.95 30.64 26.95 26.16 24.32 24.25 25.01 24.76 27.26 29.18 30.44 29.59 26.76 26.04 30.43 33.96 34.82 35.08 34.96 35.34 34.28 33.32 33.29 32.07 30.19 25.59 30.67 30.26 26.47 30.87 31.88 34.11 37.35 38.16 34.43 39.42
43.29 43.39 43.34 43.43 43.80 39.70 34.68 34.26 34.60 29.14 22.34 25.43 24.96 25.99 26.49 25.67 26.97 26.08 28.94 30.87 28.06 33.30 37.82 36.23 36.02 35.07 34.94 35.62 35.46 36.55 33.23 31.98 30.88 26.95 28.39 18.60 30.71 36.41 36.83 36.97 39.09 39.81 40.06 42.19
43.43 43.41 43.36 43.13 43.66 42.26 35.93 35.37 34.02 27.79 20.99 26.14 25.84 26.07 26.36 28.03 28.59 27.64 28.83 32.36 35.10 37.12 34.37 29.84 27.45 28.83 29.91 32.18 34.44 34.82 35.98 32.74 28.46 24.54 24.51 27.77 30.79 35.08 34.09 34.65 34.63 39.90 39.46 41.92
43.53 43.48 43.29 43.44 43.56 43.33 37.05 35.95 39.62 34.22 25.62 23.70 28.44 26.23 27.05 24.75 25.64 26.54 29.23 34.34 37.16 35.90 32.40 29.72 23.37 21.25 25.39 25.94 29.29 35.03 33.78 33.82 30.48 26.15 21.60 18.39 29.70 36.07 38.96 39.19 29.23 38.75 38.41 39.97
43.14 43.35 43.47 43.39 43.41 43.34 37.51 36.01 38.00 35.27 27.95 30.25 30.35 26.71 26.64 29.91 27.94 25.38 27.06 29.82 30.97 33.98 27.57 25.87 25.45 24.41 29.40 24.35 25.42 27.74 29.29 29.76 27.19 26.72 24.35 27.70 33.59 36.71 39.41 26.43 29.37 37.45 37.18 40.15
42.72 42.51 42.61 42.74 43.24 43.34 38.75 36.23 37.31 33.88 29.25 29.32 32.90 33.13 29.62 30.23 28.95 24.64 27.83 26.90 28.82 28.73 24.51 26.35 27.12 26.10 27.85 27.44 29.31 28.61 28.02 26.45 25.88 26.99 23.90 20.91 35.93 37.31 30.92 35.07 37.84 35.90 35.29 34.37
42.68 42.60 42.90 43.30 43.42 43.17 41.29 34.93 38.69 37.89 33.32 30.16 35.46 35.68 36.04 34.25 33.90 31.10 30.97 28.63 28.35 31.01 27.87 27.85 28.04 27.59 29.59 27.56 24.50 33.37 27.48 31.15 29.91 30.00 29.42 35.67 36.02 34.58 34.59 39.51 37.82 36.00 34.74 34.05
42.36 42.28 42.55 43.07 43.23 43.74 42.70 38.90 38.82 37.21 33.21 32.46 31.00 30.72 35.29 37.29 37.14 38.12 29.59 31.28 34.22 33.53 35.74 31.70 31.45 27.22 30.47 25.89 27.83 30.80 33.52 36.31 32.80 32.24 34.62 34.52 35.04 34.21 33.61 33.91 33.91 34.33 34.25 32.02
41.69 41.90 42.43 42.93 43.42 43.89 43.80 39.08 39.35 37.48 33.78 25.29 26.90 35.03 32.63 37.13 37.13 36.29 36.61 34.86 37.58 37.02 36.04 30.41 30.73 27.86 33.67 28.65 30.40 30.04 33.33 34.56 30.56 32.49 33.80 34.07 33.04 33.66 33.11 31.66 31.68 30.80 31.32 30.24
41.30 42.09 42.91 43.19 43.54 43.91 43.31 42.40 40.08 40.02 33.58 26.53 27.81 33.36 34.84 36.68 35.93 34.72 35.64 34.84 33.74 33.02 30.14 29.33 29.12 32.95 33.21 33.01 33.45 28.86 32.10 30.24 28.76 27.58 32.00 30.26 28.71 30.40 31.37 29.70 29.03 29.40 28.09 26.99
41.86 42.36 42.81 43.35 44.08 44.42 41.39 31.19 36.68 40.68 39.20 31.43 25.62 33.87 32.54 34.91 34.66 33.73 33.37 34.14 34.00 33.71 32.03 32.46 33.94 36.40 34.25 28.76 27.49 30.40 31.21 31.52 32.65 30.82 30.73 29.04 28.85 29.05 29.33 27.20 26.66 26.93 26.47 26.08
42.09 42.46 43.42 44.11 44.86 42.84 33.33 32.01 36.35 41.23 38.33 30.65 25.50 26.43 32.42 35.35 34.23 33.80 33.42 35.28 34.79 34.18 32.60 31.35 31.64 31.94 34.14 32.47 27.26 27.79 30.43 30.17 30.19 32.28 31.88 27.46 28.55 25.08 26.33 25.09 24.44 25.17 24.35 24.15
42.51 43.26 43.86 44.10 42.68 40.33 36.96 39.65 41.70 40.03 33.78 32.24 23.94 23.80 26.85 36.25 31.37 31.00 33.56 32.02 33.88 33.81 32.60 32.94 32.15 33.56 34.30 26.68 26.19 27.40 28.71 30.58 28.83 28.57 29.23 27.81 27.17 26.32 25.11 25.26 24.14 22.02 21.11 21.22
42.82 43.39 41.47 39.18 35.94 35.28 36.65 41.92 41.16 38.24 33.03 25.62 25.10 21.34 20.32 34.20 33.01 33.38 34.45 34.73 29.09 32.96 30.52 30.01 32.12 29.25 26.54 23.93 25.21 24.61 24.97 24.94 27.06 28.10 27.67 26.92 24.77 24.15 23.39 22.92 22.03 20.65 19.43 19.26
42.79 38.64 33.53 30.36 36.66 42.07 41.47 36.59 30.54 29.05 30.39 31.53 25.80 27.72 24.77 32.07 29.78 30.34 30.46 30.38 27.35 24.62 29.40 33.72 30.59 22.04 24.52 24.61 24.66 24.19 23.98 24.10 26.33 27.00 25.35 24.59 22.95 22.29 22.01 21.34 21.27 20.74 19.40 18.61
36.59 32.17 30.26 37.82 41.75 34.33 31.78 26.42 21.77 22.22 23.93 27.42 28.01 28.34 27.77 34.17 27.99 29.30 31.53 28.19 28.13 23.19 28.51 27.85 23.66 20.88 21.90 23.33 22.06 22.41 23.46 23.51 22.79 22.68 22.57 23.78 23.90 22.24 20.67 19.38 19.21 18.59 17.59 15.75
35.81 36.34 38.67 38.33 32.65 25.54 24.20 24.84 26.87 24.67 23.89 27.84 27.51 29.63 32.11 32.58 35.39 31.31 31.15 28.48 29.24 25.47 31.70 27.04 20.61 18.99 21.49 21.29 20.24 20.21 20.99 21.18 20.90 21.93 20.88 20.75 20.22 19.93 18.53 17.33 16.07 14.83 14.04 12.96
37.94 33.89 30.84 27.48 24.83 15.29 18.80 16.08 22.24 24.34 27.36 27.17 31.10 30.63 33.09 33.96 34.37 31.35 31.48 27.04 26.06 31.66 25.82 21.14 17.20 20.72 21.25 20.66 20.01 18.62 19.43 18.76 18.06 16.78 16.61 16.03 15.49 16.04 15.42 13.32 13.20 13.01 11.58 10.94
30.61 25.89 21.69 22.55 16.78 21.39 19.29 20.86 20.94 26.25 32.05 32.44 31.94 31.55 31.75 32.27 29.69 29.50 25.22 27.48 28.92 21.73 18.23 16.77 17.58 20.11 19.95 19.33 18.38 16.01 14.37 14.66 14.41 13.92 13.97 13.06 12.20 11.53 11.72 11.53 11.67 11.24 9.06 8.56
25.91 24.88 17.55 20.58 20.42 22.45 19.49 22.93 29.98 31.17 32.92 32.43 30.80 28.91 30.10 28.90 26.84 26.77 26.21 23.03 20.11 19.20 18.42 15.00 18.39 18.70 16.92 14.95 14.19 12.18 11.03 10.91 11.62 13.17 12.50 12.02 12.45 12.23 11.97 12.46 12.73 11.18 8.91 7.95
22.80 19.14 19.59 22.21 23.91 23.44 25.27 26.73 28.70 29.97 31.27 31.79 29.52 24.76 22.48 22.26 21.75 20.70 17.10 18.62 17.01 15.90 13.24 14.14 16.24 12.11 11.17 11.35 11.53 10.22 10.15 11.02 12.08 13.56 13.95 13.47 12.82 12.53 12.25 11.97 10.79 9.65 9.44 8.01
18.07 13.19 17.45 17.77 13.75 18.09 22.04 22.80 23.69 27.42 30.09 24.72 22.84 18.74 19.03 23.58 17.06 16.13 14.48 15.44 14.28 11.37 12.10 14.83 13.26 12.40 10.76 10.08 12.22 12.86 13.81 13.93 14.62 15.07 15.41 14.97 15.19 15.17 14.79 13.34 13.84 14.17 12.61 11.46

GFSNW_sfc_wetblb_078.txt.gz
Wetbulb
44.38 44.25 44.22 44.32 43.97 43.40 41.46 40.05 33.22 42.36 44.33 34.31 35.76 30.48 29.89 31.44 31.74 34.15 31.92 32.09 30.65 28.92 29.84 28.49 29.51 30.25 34.91 41.35 41.41 37.16 40.79 37.41 32.98 36.12 42.10 43.76 42.44 39.38 39.44 33.69 31.27 35.26 33.89 36.68
43.92 44.07 43.99 43.80 43.74 42.36 41.94 36.54 35.44 43.38 41.57 28.97 29.47 30.92 29.86 31.67 31.05 31.93 31.14 30.17 32.30 33.51 30.08 26.20 30.33 31.92 37.29 40.26 38.84 35.85 37.62 35.06 30.78 32.78 38.04 41.65 38.94 39.96 38.08 35.62 35.88 32.58 31.06 36.00
43.83 43.58 43.40 43.60 43.55 42.62 42.65 36.83 30.25 36.55 38.54 36.46 30.80 26.87 26.37 27.98 34.04 32.18 32.29 31.72 33.61 31.00 29.87 33.13 28.90 30.93 36.15 39.47 38.84 38.34 37.47 35.26 34.19 30.30 30.56 38.04 35.73 37.96 39.46 37.01 32.65 33.54 33.12 35.54
43.23 43.23 43.06 43.55 43.28 42.46 42.32 36.69 31.40 34.07 28.11 30.88 31.06 30.95 28.92 26.40 23.61 31.27 33.18 30.81 27.57 27.68 25.27 29.23 29.39 32.39 33.61 36.88 38.84 38.40 34.88 33.26 35.07 34.99 34.00 36.02 35.54 35.62 36.50 35.58 36.34 32.38 34.95 36.39
42.79 43.20 43.36 43.37 43.43 42.16 40.86 32.81 34.21 35.83 32.48 31.09 29.33 28.32 27.56 26.36 28.18 28.76 27.92 27.23 30.87 30.90 26.79 28.45 28.08 31.10 32.44 32.26 36.62 35.39 35.02 32.61 35.44 32.38 33.62 36.15 33.94 36.11 35.71 36.34 37.14 37.14 38.11 37.95
43.40 43.38 43.33 43.60 43.74 42.45 39.68 37.46 37.99 36.96 29.92 29.83 29.63 28.95 27.88 27.23 29.86 31.38 32.77 31.54 30.51 30.07 31.04 34.70 35.76 36.50 35.85 35.21 32.37 33.11 32.69 32.41 32.72 27.95 34.37 33.41 29.64 34.44 35.57 36.19 38.51 39.35 35.46 40.60
43.67 43.60 43.58 43.67 43.94 41.89 42.67 40.01 36.66 34.58 27.73 30.05 29.29 28.31 29.30 28.52 30.10 28.61 32.48 33.51 31.65 34.98 38.97 38.85 38.73 37.38 36.51 36.90 36.68 36.17 32.49 31.59 32.13 29.12 30.79 21.65 34.73 39.32 39.51 37.99 39.75 41.81 41.59 43.34
43.79 43.79 43.69 43.64 44.09 42.40 43.21 42.21 39.64 36.14 29.52 31.16 28.68 28.81 29.21 30.85 32.49 31.10 31.60 34.05 36.98 38.88 36.74 31.90 29.20 30.41 31.46 33.55 36.22 35.68 37.00 34.57 29.54 27.67 27.83 31.12 33.21 37.14 36.74 36.40 36.57 41.92 40.86 42.80
44.13 43.81 43.70 43.65 43.80 42.95 43.08 42.35 43.75 38.41 31.80 29.83 31.01 29.39 30.17 28.94 29.80 30.62 31.70 37.08 39.44 38.55 34.02 29.53 23.37 22.92 27.05 27.00 30.66 36.81 34.62 36.17 31.91 30.06 23.86 20.11 34.64 38.66 41.60 40.95 32.67 41.02 40.79 40.79
43.99 43.74 43.72 43.64 43.55 43.80 43.05 42.01 42.99 38.16 32.61 34.64 33.65 31.20 30.57 33.26 31.64 30.07 32.34 32.76 33.58 36.52 30.49 26.03 25.88 25.49 32.06 26.33 26.98 28.49 30.40 31.70 28.87 29.19 27.32 31.08 37.43 40.09 41.93 28.77 32.21 40.07 39.22 36.89
43.87 43.45 43.61 43.43 43.67 43.80 42.95 41.37 43.52 38.55 33.09 34.78 35.19 35.43 32.76 33.36 33.18 29.33 32.70 31.98 32.99 31.29 27.64 26.61 25.76 27.57 30.94 30.81 32.11 30.78 30.05 29.03 29.35 30.16 26.12 23.47 39.43 40.08 34.39 36.38 38.96 38.27 35.87 33.28
43.40 43.15 42.73 42.83 43.21 43.73 43.21 39.55 42.93 42.75 36.05 35.03 38.69 39.08 39.59 38.19 37.87 34.53 34.64 32.00 31.77 33.06 30.25 29.72 29.24 29.40 32.10 30.74 27.61 35.44 29.96 33.36 32.04 33.51 32.53 37.07 37.17 36.33 36.11 37.76 37.08 36.36 34.94 33.47
43.03 42.96 42.91 43.25 43.58 43.58 43.10 41.39 41.30 39.45 34.98 34.92 34.43 35.19 40.05 41.73 40.66 41.61 31.48 36.22 35.43 34.78 36.79 31.87 31.40 28.79 33.04 27.83 29.86 32.68 35.39 36.47 33.29 34.02 31.76 32.97 34.38 34.22 33.69 33.73 33.15 32.64 32.56 30.71
42.91 42.77 42.64 42.79 43.12 43.36 43.40 40.40 40.75 38.76 36.67 30.56 33.57 39.85 37.32 41.25 41.49 40.44 39.99 37.64 38.87 38.70 37.17 32.09 30.90 30.01 35.54 31.11 32.20 32.12 32.51 35.67 31.64 31.52 31.91 32.36 32.37 32.92 33.50 32.71 32.29 31.08 32.09 31.71
42.47 42.22 42.06 42.38 43.10 43.34 44.12 42.85 42.62 42.64 36.32 31.31 33.61 38.12 39.63 40.75 41.00 39.33 39.14 37.30 36.15 35.06 31.02 31.54 30.56 35.22 34.74 36.29 34.06 29.88 32.12 29.53 29.21 29.63 31.67 30.67 29.38 31.71 32.79 31.63 30.95 31.72 30.86 29.28
41.68 41.42 41.81 42.69 43.33 43.53 42.43 33.18 40.88 41.25 40.57 34.00 28.56 37.85 35.58 38.59 39.51 38.36 37.56 37.61 36.23 34.63 33.35 33.07 35.50 37.85 35.43 30.21 30.44 30.91 32.18 32.32 32.91 30.61 31.63 30.77 30.52 30.81 31.50 29.92 29.03 29.06 28.62 28.60
41.25 41.67 42.33 42.62 43.16 42.43 35.08 36.38 40.34 42.26 39.73 32.82 29.30 29.62 35.55 37.91 38.13 38.94 37.86 37.91 36.93 36.70 34.49 33.37 34.76 35.37 36.28 32.79 30.18 30.39 30.79 31.27 32.00 33.80 33.14 29.72 30.73 27.72 29.37 29.29 28.88 28.88 28.47 28.35
41.64 41.92 42.52 43.28 43.23 41.11 36.83 39.61 40.94 40.39 34.35 34.63 29.04 28.92 31.97 39.09 34.75 33.55 38.82 35.65 36.37 36.75 36.04 37.05 34.20 36.06 36.41 29.82 28.16 29.20 30.61 30.98 30.14 30.50 31.96 30.18 29.79 29.32 28.18 29.03 28.66 27.11 26.67 26.14
41.82 42.45 42.73 39.60 37.74 35.82 38.40 42.00 40.95 40.72 37.41 31.14 29.72 28.04 27.40 37.20 35.34 36.61 35.83 36.42 30.19 37.92 32.21 33.32 34.74 32.18 28.99 26.49 27.03 26.43 26.73 27.41 29.21 30.21 29.72 29.50 27.85 27.03 27.11 27.29 26.91 25.43 24.50 24.46
42.09 39.21 35.88 32.82 37.23 42.20 40.70 37.55 35.44 35.52 35.89 35.98 29.81 34.00 29.98 34.39 33.40 31.29 32.62 34.30 31.81 28.05 32.30 36.10 31.64 30.02 26.59 26.08 26.54 27.15 27.04 27.46 30.05 28.10 26.32 26.99 26.00 25.77 25.54 25.04 25.67 24.89 23.49 22.95
37.25 35.22 33.53 38.93 42.41 39.52 36.88 29.85 29.42 30.74 27.78 32.32 32.06 32.73 31.39 37.75 31.85 31.44 35.04 30.16 32.07 25.28 31.22 29.77 29.03 26.81 24.38 25.82 24.77 25.82 26.31 26.95 27.08 27.45 27.24 28.17 27.51 25.42 23.92 22.89 22.92 22.58 21.87 20.56
38.65 38.62 39.79 39.53 35.32 32.39 27.69 25.95 28.35 27.08 25.75 32.48 30.42 31.38 34.28 36.40 39.18 34.40 33.21 29.98 30.42 25.06 34.10 29.82 26.96 22.20 24.38 24.39 23.30 23.66 24.69 24.85 24.40 25.41 24.63 24.77 24.23 24.12 22.63 21.51 20.16 19.19 18.15 17.14
40.62 36.22 33.05 30.85 30.50 24.05 23.02 20.27 24.22 26.06 31.05 33.96 32.71 30.21 34.33 36.11 36.37 33.14 32.19 27.68 29.34 34.38 30.23 28.55 24.29 23.35 23.86 23.85 23.57 22.54 23.27 22.85 22.10 21.14 21.57 21.79 21.06 20.98 20.30 18.10 17.76 17.57 15.59 15.11
33.12 30.07 23.78 26.26 23.93 26.39 28.08 29.49 31.30 34.01 33.80 33.92 34.07 33.55 33.18 34.09 31.55 32.28 28.62 31.01 31.91 27.90 25.22 22.90 23.78 23.32 22.60 22.85 22.12 21.13 19.33 19.01 19.06 18.74 18.10 16.77 16.12 15.49 16.02 16.13 15.92 15.03 13.76 13.00
30.96 30.71 24.69 25.06 30.57 30.13 30.95 32.28 32.58 32.39 33.85 34.09 33.37 33.70 34.80 32.02 30.10 31.17 29.87 27.24 25.94 26.05 26.15 25.30 24.20 23.00 20.87 19.24 19.08 17.74 16.51 16.64 17.12 17.69 16.74 16.26 16.36 16.15 15.93 16.74 16.86 15.01 13.34 12.38
29.38 26.84 25.64 27.19 27.54 27.50 30.30 31.19 30.16 32.64 32.70 35.54 35.47 31.23 29.50 27.16 28.88 26.05 23.73 24.08 24.01 24.95 24.18 23.44 21.98 19.16 18.17 17.66 17.56 17.09 17.72 18.22 18.13 17.94 18.04 17.52 16.64 16.88 16.35 15.59 14.83 14.07 13.77 12.48
24.71 25.55 27.12 28.09 28.58 28.93 28.55 29.76 30.61 33.21 32.84 31.54 31.51 27.13 23.62 28.67 25.55 23.53 25.38 26.50 24.93 22.58 22.35 23.67 22.44 19.28 16.96 16.34 16.47 16.50 17.88 18.77 19.01 18.95 19.28 18.34 18.07 17.55 17.19 15.97 16.61 16.60 15.87 14.48

GFSNW_sfc_wetblb_081.txt.gz
Wetbulb
44.33 44.54 43.98 43.95 44.17 44.09 41.96 42.93 36.64 44.98 46.97 39.23 39.60 35.38 33.59 31.94 34.07 36.32 34.28 34.20 32.62 31.00 31.96 31.35 31.55 31.29 34.45 40.31 41.31 36.65 41.01 39.06 33.77 36.66 42.88 44.95 42.66 40.70 39.35 33.17 32.45 36.34 35.56 35.71
44.61 44.31 43.89 43.70 43.91 42.82 44.14 40.11 38.89 45.25 44.98 33.70 34.26 33.53 32.68 34.34 33.64 34.10 33.42 32.46 34.18 35.47 32.41 28.49 32.27 33.49 38.07 38.88 38.05 35.66 35.99 35.63 30.76 33.44 38.57 42.46 39.73 41.14 41.78 39.95 38.05 33.49 31.67 34.81
44.00 43.72 43.50 43.42 43.76 43.24 43.69 40.79 34.36 38.96 41.92 40.14 34.26 31.41 30.94 31.19 35.86 34.36 34.76 33.80 35.19 33.36 31.94 34.64 31.31 32.93 36.64 38.66 39.17 39.30 37.88 32.12 32.44 29.48 32.56 37.51 36.01 39.33 41.13 39.54 34.05 34.14 35.62 37.73
43.97 43.50 43.20 43.27 43.31 42.69 43.09 40.85 35.51 38.24 32.53 34.59 34.59 34.19 32.14 29.96 28.60 34.45 35.53 31.04 30.84 27.65 27.38 30.12 30.83 33.55 34.98 37.39 38.40 38.08 37.36 30.35 32.59 36.17 38.42 38.07 35.51 35.97 39.19 37.41 38.05 33.59 36.54 37.30
43.57 43.25 43.05 42.95 43.07 43.31 42.09 34.95 37.97 37.83 36.55 35.29 32.95 30.04 30.68 29.47 31.33 31.40 31.02 28.08 32.81 33.51 29.97 31.69 29.36 32.82 33.46 32.41 36.91 35.80 36.82 29.93 33.42 29.90 37.59 37.61 34.24 37.14 38.28 38.22 37.69 37.85 38.74 38.63
43.41 43.47 43.49 43.32 43.20 42.91 41.53 42.11 42.37 39.60 33.06 33.95 32.50 32.56 31.03 30.25 32.04 33.50 34.64 33.69 32.47 31.53 33.78 37.06 37.62 37.88 37.34 36.68 34.26 32.97 32.52 32.15 29.48 25.03 36.26 34.80 28.87 35.27 37.37 37.87 39.51 39.12 36.22 41.41
43.92 43.75 43.72 43.44 43.69 42.15 43.70 42.80 41.96 38.46 31.54 33.51 32.20 31.19 31.83 31.09 32.14 31.05 34.33 35.52 32.95 36.42 41.15 39.86 39.38 38.70 37.99 38.05 37.18 37.85 32.82 31.28 30.34 26.10 33.72 23.52 35.02 40.17 40.15 38.08 39.92 42.34 42.01 42.47
44.04 43.82 43.81 43.78 43.79 42.99 42.72 44.03 40.88 37.94 32.22 35.25 31.96 31.51 31.95 33.20 34.37 33.39 33.77 35.77 38.47 40.70 37.69 32.42 30.41 31.37 32.64 34.75 36.91 36.94 36.69 32.12 27.55 27.36 29.70 31.88 35.28 38.14 38.14 37.26 37.02 41.71 40.56 42.05
44.69 44.22 44.01 43.71 44.22 43.32 43.52 43.59 44.73 41.07 33.78 32.55 33.56 31.73 32.95 31.89 32.72 33.02 33.94 38.56 41.32 39.44 33.37 30.99 24.40 22.07 26.79 27.77 31.97 37.34 35.84 35.41 29.38 28.85 25.05 22.91 35.02 40.48 42.82 42.16 33.26 40.07 41.03 40.85
44.08 44.13 44.08 43.86 43.96 43.84 43.74 41.92 45.08 39.68 34.75 38.22 35.70 33.99 33.81 35.89 33.95 31.95 34.60 35.31 35.85 38.41 31.99 27.85 26.88 24.87 32.32 26.44 27.58 28.38 29.98 30.73 27.80 28.63 28.59 32.78 39.36 41.41 43.11 30.49 32.17 40.31 39.76 36.92
44.10 44.05 44.30 43.83 43.80 43.95 43.70 42.11 45.35 39.45 34.59 37.85 37.65 37.20 34.91 35.96 35.07 30.22 35.31 34.05 34.62 33.08 28.95 29.25 27.22 24.53 32.07 31.23 33.28 31.56 30.51 29.33 29.30 31.04 28.02 23.40 39.58 41.05 35.39 36.10 39.67 39.31 37.24 33.99
43.72 43.95 43.63 43.63 43.66 44.00 43.67 38.79 43.87 43.31 36.22 37.19 41.68 41.61 41.97 40.31 39.42 36.52 36.08 34.12 32.98 34.94 30.91 31.36 29.62 28.65 32.98 32.02 28.08 37.25 30.00 32.88 32.16 32.39 31.61 35.78 36.65 35.28 35.90 38.22 36.51 36.32 34.58 32.81
43.76 43.62 43.24 42.97 43.29 44.03 43.61 41.41 41.46 41.55 38.13 37.36 38.73 38.08 42.75 44.41 43.00 43.57 33.54 37.03 37.49 36.83 37.84 34.22 32.37 29.64 33.91 28.85 29.87 33.19 36.06 38.79 33.99 34.92 31.14 31.50 33.32 34.80 34.35 34.37 33.19 32.91 33.14 32.79
43.50 43.16 43.05 43.14 43.53 43.76 43.59 42.12 43.60 40.98 38.65 31.94 36.20 43.10 39.99 43.56 43.94 42.61 42.06 40.18 41.14 39.56 37.97 33.36 31.97 30.09 37.08 32.53 33.49 32.54 34.42 36.86 33.01 30.85 32.08 33.34 33.14 34.51 34.59 33.33 33.03 32.74 33.61 32.76
42.65 42.93 42.98 42.85 43.05 43.27 44.22 45.13 44.06 43.45 37.59 33.09 35.09 40.77 42.62 43.12 42.89 41.30 41.71 39.94 38.16 36.01 33.16 31.55 30.99 35.88 35.92 36.99 36.13 31.15 32.96 29.13 29.37 29.39 32.83 32.24 30.39 32.89 34.35 32.90 32.43 33.55 32.04 30.54
42.74 43.02 42.39 42.36 42.69 43.18 42.90 33.07 42.69 43.71 43.23 35.84 30.62 40.68 38.72 41.09 41.70 40.89 39.70 39.78 37.01 35.02 33.42 32.65 36.15 39.00 36.67 31.33 30.69 31.84 32.60 33.46 33.53 31.06 33.23 31.64 31.92 33.04 33.70 31.78 30.99 31.10 30.74 30.94
42.21 42.01 41.91 42.22 42.97 43.93 38.09 37.60 39.01 43.52 40.75 33.07 31.41 32.52 38.83 39.73 40.31 40.67 40.04 38.69 36.45 35.18 34.48 34.73 34.80 35.50 37.49 34.27 30.13 31.75 31.70 32.50 34.11 34.44 35.14 31.92 33.03 30.03 31.65 32.26 31.85 32.00 31.45 30.90
41.87 41.48 41.95 42.40 42.69 41.91 38.97 42.74 42.30 41.32 34.97 35.48 30.28 31.16 34.05 39.76 35.44 34.32 39.61 34.84 35.38 35.48 36.11 37.71 34.42 37.30 37.13 31.08 30.01 31.08 31.97 32.60 31.93 32.45 34.05 32.67 32.51 32.18 31.64 32.33 32.02 30.25 28.84 28.33
41.64 41.89 42.21 41.88 39.25 36.04 38.06 41.83 41.75 40.51 37.17 32.38 31.75 29.18 29.19 39.09 36.90 38.46 36.32 37.44 31.96 38.93 34.08 34.66 35.54 34.27 29.63 29.09 29.48 28.68 28.93 28.67 30.61 31.94 31.93 32.32 31.00 30.81 30.83 30.83 30.43 28.95 27.33 26.57
41.71 40.51 35.10 32.54 36.53 42.51 41.07 38.07 34.67 35.48 36.95 36.83 31.89 36.61 32.40 36.36 34.60 32.66 34.63 36.41 32.54 29.66 34.11 37.97 32.30 31.98 28.60 28.83 29.19 30.08 29.60 30.38 32.26 30.42 28.26 29.09 28.41 28.55 28.29 27.95 28.72 28.03 26.60 25.19
37.66 35.01 34.34 39.17 42.04 38.00 37.43 31.96 31.25 32.36 29.52 34.28 34.82 35.61 33.31 38.76 32.27 32.10 36.11 32.76 34.03 26.73 32.01 31.00 30.68 28.67 26.36 27.84 28.07 29.32 29.97 30.55 30.66 30.66 30.12 30.06 29.81 27.94 26.60 25.45 25.57 25.11 24.07 21.83
38.03 39.79 40.26 39.25 36.98 33.97 29.15 28.24 30.61 29.69 27.86 34.46 33.48 34.78 36.73 37.78 39.83 34.88 35.34 30.63 32.14 25.45 35.70 30.27 28.70 25.64 26.99 26.53 26.30 26.87 27.90 27.97 27.38 28.10 26.82 26.78 26.11 26.24 24.89 23.49 22.10 20.88 20.08 19.59
40.64 37.13 33.67 33.24 31.64 25.79 24.01 21.68 25.96 28.40 33.45 35.03 35.45 32.16 35.83 38.07 38.58 34.91 33.96 28.62 28.77 36.48 30.82 29.89 26.38 26.25 26.87 26.97 27.04 25.97 26.27 25.57 24.72 23.89 24.44 24.04 23.32 23.45 22.29 20.12 20.10 19.90 18.05 17.73
35.17 31.89 26.52 28.08 25.59 28.18 30.55 31.57 33.82 35.48 36.36 35.48 36.10 33.10 33.77 36.66 32.13 32.54 29.99 33.63 34.21 28.42 27.14 26.76 26.83 25.52 25.41 25.81 25.67 24.86 21.92 22.08 21.96 21.26 20.58 19.44 18.68 18.38 18.88 18.52 18.61 17.62 15.84 15.62
33.27 32.84 26.70 28.23 32.91 32.71 33.07 33.76 34.35 35.08 35.61 34.86 34.53 35.68 35.06 33.47 31.63 32.04 31.05 28.69 27.31 29.52 27.24 26.50 26.05 25.27 23.60 22.69 22.22 20.68 19.93 20.10 20.17 20.39 19.32 18.80 18.86 18.75 18.73 19.32 18.74 16.79 15.28 14.17
33.61 30.25 27.92 29.91 29.61 28.89 31.09 33.44 32.72 35.92 35.77 35.80 35.97 32.86 31.09 30.35 31.45 27.73 27.50 26.92 26.90 26.51 26.18 25.55 25.00 23.04 22.41 21.57 21.35 21.21 21.71 21.55 21.14 20.74 20.49 19.95 19.51 19.51 18.54 17.78 17.15 16.37 15.86 14.55
28.16 28.18 29.92 30.97 31.24 31.37 31.45 32.81 33.00 36.18 34.52 32.54 35.00 29.49 29.24 32.07 28.38 25.96 30.80 28.12 26.82 25.70 25.09 26.33 24.77 22.75 20.92 20.28 20.20 20.48 21.63 21.91 21.71 21.62 21.53 20.76 20.35 19.15 19.38 18.31 18.19 18.97 17.91 16.18

GFSNW_sfc_wetblb_087.txt.gz
Wetbulb
44.56 44.36 44.16 43.88 43.95 44.15 41.68 37.76 32.00 41.69 43.24 34.18 35.96 30.41 34.47 34.88 34.84 37.12 35.15 34.82 32.81 31.07 31.77 29.88 29.88 29.55 32.80 37.86 35.82 30.39 35.51 32.34 25.32 29.02 36.51 39.07 38.07 36.71 35.95 28.41 28.10 31.07 30.53 31.34
44.84 44.64 44.27 43.66 43.88 43.98 38.12 34.80 33.51 40.34 41.92 28.99 28.81 33.24 33.40 35.48 34.14 34.44 33.90 32.99 34.72 34.45 31.00 26.78 31.62 32.03 36.83 37.52 35.22 32.04 33.03 27.99 22.11 24.80 31.91 36.45 33.94 35.95 35.55 36.28 35.88 30.69 27.46 30.59
44.50 44.17 43.75 43.13 43.46 43.92 39.17 35.56 29.81 33.18 36.39 35.41 32.75 30.10 30.85 30.64 35.75 34.07 35.25 33.95 35.31 32.33 30.39 32.17 29.25 30.36 35.78 37.68 36.46 39.64 36.46 29.20 25.81 20.44 24.89 31.32 29.28 32.25 34.39 34.17 30.65 31.61 31.42 33.95
43.88 43.36 43.03 43.28 43.53 44.09 39.21 36.51 32.70 34.84 27.46 28.92 31.80 32.92 32.69 30.99 29.92 34.95 35.34 31.39 31.72 30.40 25.78 27.43 26.83 30.97 32.71 35.27 37.73 34.90 32.58 24.07 27.27 28.63 30.05 30.99 30.22 30.47 32.82 31.19 33.00 30.77 34.33 34.73
43.68 43.03 42.90 43.08 43.45 44.05 37.38 32.28 32.27 34.36 32.24 33.57 31.65 30.59 29.62 31.08 31.88 31.70 30.69 29.57 32.26 31.06 26.69 28.45 25.30 29.31 29.49 29.24 32.94 31.26 31.86 23.63 27.37 24.36 28.89 29.99 28.71 31.37 33.31 34.27 35.46 36.06 35.57 35.10
43.33 43.00 42.82 43.47 43.79 43.05 37.13 36.65 37.77 34.71 32.81 29.75 28.07 28.21 31.82 31.60 32.73 33.79 34.32 32.48 30.23 28.97 30.40 32.43 32.38 32.55 32.28 31.85 29.32 27.09 26.42 23.23 25.38 20.54 28.20 28.56 24.80 30.77 32.57 35.29 37.68 36.16 32.13 37.39
43.01 43.16 43.04 43.35 43.92 43.10 38.04 37.38 36.19 32.18 26.90 28.10 29.75 33.20 33.09 31.70 32.35 29.90 32.64 32.94 29.61 34.40 37.03 35.46 34.24 33.65 33.05 32.40 31.42 32.58 26.17 25.34 25.96 21.03 25.03 16.04 29.46 37.67 37.59 36.23 36.39 37.62 38.34 36.51
43.21 43.29 43.25 43.44 43.81 43.89 38.27 39.75 36.41 32.64 25.83 32.16 32.00 32.15 31.54 32.36 32.55 30.33 31.39 34.43 36.00 36.13 32.97 27.47 25.29 24.81 27.39 30.08 32.88 33.43 33.14 28.52 24.15 21.34 19.69 26.23 31.84 34.27 33.22 33.92 33.44 36.09 34.67 35.26
44.42 43.99 43.45 43.64 43.71 44.08 39.93 39.62 40.54 35.11 28.89 27.19 34.22 30.30 32.03 25.36 26.17 28.34 33.42 37.85 37.47 34.30 27.14 23.37 21.00 18.92 23.77 24.75 28.64 35.14 32.43 30.87 24.52 25.26 20.21 16.95 30.19 34.14 35.59 35.76 29.60 34.66 33.52 31.79
44.71 44.38 43.74 43.34 43.79 43.94 39.97 38.50 40.69 36.40 29.38 32.63 33.99 28.88 29.22 32.48 29.34 25.76 30.84 32.15 32.26 34.18 21.52 15.13 21.84 21.03 28.78 22.87 25.37 24.96 25.44 27.09 24.00 24.17 20.52 27.19 32.24 32.89 36.42 26.75 27.57 33.17 31.89 29.31
44.55 44.57 44.04 43.47 43.67 43.77 40.53 39.24 40.68 35.84 30.41 33.21 36.60 37.06 31.19 31.22 30.45 23.25 29.10 27.27 28.38 26.52 21.50 25.36 18.80 16.21 24.57 24.98 31.14 28.97 26.70 25.79 25.37 26.47 22.84 21.15 32.42 33.11 28.15 33.44 33.86 32.33 30.54 28.65
44.17 44.62 44.28 43.74 43.42 43.65 42.59 36.60 40.44 39.79 32.53 32.43 37.52 38.23 38.50 36.51 35.39 31.01 30.61 28.57 29.44 28.25 22.49 24.29 24.86 25.17 27.76 28.27 24.18 32.92 27.43 31.06 27.28 27.48 25.59 32.64 32.55 31.07 33.40 34.03 32.62 31.96 30.59 30.00
44.14 44.17 43.94 43.71 43.37 43.44 43.13 38.72 38.66 36.48 30.56 32.03 32.74 33.74 39.08 41.40 38.83 38.48 28.15 33.08 35.86 31.99 33.20 25.03 26.31 23.56 29.65 25.47 27.75 29.52 30.77 33.60 30.35 29.83 29.33 29.34 31.91 33.26 33.13 33.97 31.71 30.87 30.97 29.48
44.07 44.05 44.26 43.69 43.25 43.55 42.79 37.72 40.40 37.70 34.06 24.41 32.69 41.82 37.50 41.98 40.80 39.19 37.49 35.15 36.44 35.23 31.95 26.11 24.46 23.57 32.77 29.18 31.32 27.87 29.20 30.41 28.42 29.51 30.56 30.05 30.67 32.99 34.18 32.93 31.71 30.94 31.15 30.11
43.90 43.90 43.42 43.05 43.04 43.42 40.52 39.38 39.80 40.34 34.88 27.74 28.20 36.37 39.71 40.28 39.69 38.63 37.83 35.64 33.13 29.81 26.81 24.27 24.28 28.74 31.85 31.36 32.15 26.19 30.28 27.31 24.37 24.26 29.64 29.08 29.73 32.46 32.37 30.62 31.85 31.07 28.91 27.77
43.59 43.43 43.12 43.17 43.06 42.36 37.22 28.98 38.69 40.86 39.02 28.21 21.96 34.74 36.16 38.09 38.85 37.72 36.67 35.26 32.53 30.34 26.97 25.44 30.27 33.70 32.58 23.10 22.96 29.51 30.67 32.30 31.97 28.06 31.66 30.44 32.17 32.85 32.40 30.09 30.12 30.02 29.17 28.18
43.33 43.75 43.38 42.80 42.96 38.38 34.99 33.73 38.53 43.03 41.07 30.71 25.56 26.76 34.93 38.30 37.40 34.94 35.03 36.57 33.24 30.87 28.58 27.45 28.94 30.00 35.11 26.12 24.16 28.98 29.95 31.59 32.21 33.58 32.71 29.37 30.91 29.37 31.51 30.32 30.33 30.71 29.29 28.84
43.12 43.11 42.79 42.82 42.51 40.40 35.19 38.72 42.55 41.75 35.28 34.16 26.41 24.80 28.65 36.53 29.35 28.29 34.90 31.52 31.01 30.40 28.41 30.56 29.89 31.74 31.84 25.41 28.52 30.49 30.94 31.50 31.15 32.63 32.53 31.56 32.08 31.71 31.08 32.16 29.57 26.61 24.79 25.27
42.65 42.55 42.38 38.58 35.37 32.85 36.53 43.37 41.71 40.36 34.60 28.16 24.96 20.61 17.42 36.50 31.83 31.56 31.75 33.30 22.04 31.31 25.73 29.36 30.91 23.52 22.96 28.71 28.19 27.88 28.99 28.83 30.24 32.55 32.10 31.47 29.90 28.41 28.29 28.83 26.96 23.99 23.35 23.64
42.48 38.03 32.88 29.01 34.12 42.68 40.39 37.06 32.69 32.39 33.67 33.91 27.98 30.42 23.25 32.85 25.82 24.24 26.31 26.76 24.64 23.66 27.59 32.00 22.97 24.28 28.85 29.77 30.04 30.20 30.90 32.13 31.04 30.75 27.41 29.07 25.77 24.61 23.96 23.64 24.49 23.64 22.08 20.34
34.47 30.92 30.45 38.46 42.77 37.11 35.16 29.37 28.09 25.04 27.77 28.82 29.04 29.12 25.59 34.19 22.47 25.10 31.39 27.77 27.91 24.56 28.24 25.74 21.73 23.54 26.11 28.73 28.11 28.39 27.66 28.84 28.52 28.01 26.84 26.11 25.95 23.49 21.97 21.03 20.47 19.40 18.74 17.56
35.36 37.20 38.89 38.46 34.98 32.10 28.66 26.02 26.03 27.07 24.51 28.11 26.22 27.73 30.65 31.40 35.33 28.78 30.14 26.85 26.62 23.20 30.15 24.41 17.63 24.02 26.40 26.01 25.38 25.12 25.24 24.64 24.55 24.66 23.58 24.42 23.86 22.42 20.50 19.21 18.19 17.25 16.21 13.59
38.79 35.71 32.02 32.10 29.10 25.29 18.14 14.65 20.44 18.40 25.64 27.50 27.07 24.50 29.21 30.47 32.70 29.37 30.33 26.06 22.96 31.97 26.67 22.17 22.48 24.58 25.16 24.72 24.29 23.39 24.05 23.75 22.98 21.11 20.44 19.74 19.11 19.38 18.23 16.33 13.34 13.87 11.44 6.89
32.39 30.46 20.72 23.74 18.94 19.15 20.27 22.40 23.24 26.80 26.94 27.20 26.37 24.83 24.61 26.81 25.39 26.03 25.07 24.27 30.05 26.17 20.48 21.17 23.10 24.75 23.68 24.10 23.16 21.13 18.27 17.72 17.83 16.19 16.57 14.62 12.48 11.55 11.87 10.83 7.68 7.79 4.37 2.10
30.48 31.05 20.82 18.84 27.67 30.42 31.18 31.92 31.86 32.70 33.65 27.42 25.55 25.83 27.74 29.38 26.43 28.46 25.47 22.03 20.42 24.58 21.40 21.74 22.85 21.97 19.99 17.93 17.51 15.48 13.90 12.96 13.70 12.25 13.14 13.03 12.69 14.02 11.66 6.20 5.61 4.63 2.02 1.60
31.21 28.75 26.97 26.88 28.58 28.35 28.86 30.04 30.59 33.40 32.04 32.70 32.47 29.57 27.48 24.55 24.85 24.66 24.22 25.19 21.86 22.13 22.80 23.12 23.01 19.81 18.36 17.03 16.42 15.75 17.76 15.79 13.87 13.32 13.96 13.36 11.90 9.80 7.26 5.98 5.39 3.74 4.14 1.73
28.67 25.78 26.56 29.75 30.46 30.37 31.07 30.89 31.01 34.32 32.26 28.52 29.50 26.48 24.13 31.01 24.46 22.52 23.23 22.98 23.38 24.08 24.12 23.93 21.24 19.44 17.54 16.58 18.56 16.92 16.94 17.20 17.04 16.42 16.19 12.02 11.84 12.97 14.89 13.69 13.53 14.90 14.26 6.95

GFSNW_sfc_wetblb_090.txt.gz
Wetbulb
45.47 44.89 44.64 44.50 43.55 43.43 41.24 36.46 30.48 40.75 42.55 33.75 34.78 28.27 33.64 36.76 34.90 37.40 35.05 34.38 32.92 30.60 31.31 29.30 29.41 29.03 32.05 36.74 35.33 30.08 33.37 29.83 24.90 26.54 34.05 35.84 35.23 33.65 35.50 28.99 26.49 28.75 26.87 27.81
44.67 44.43 44.19 44.20 43.70 43.20 37.27 33.72 32.57 39.36 41.40 26.35 27.03 32.65 33.30 34.76 34.33 34.10 33.97 32.78 34.32 33.98 30.28 26.29 30.94 30.82 35.74 36.66 34.13 30.47 31.32 25.99 19.79 21.63 27.59 33.39 30.80 32.72 33.09 32.90 32.81 27.09 26.29 28.01
44.75 44.24 43.48 43.30 43.38 43.58 38.27 34.84 26.28 31.07 34.05 34.92 31.19 29.02 30.63 30.26 35.69 33.85 35.19 34.16 34.64 31.38 29.59 31.27 27.78 29.26 34.31 35.85 35.40 39.39 35.12 26.90 24.31 18.27 22.63 28.07 24.96 28.57 31.08 30.82 26.84 28.21 28.84 32.84
44.05 43.43 43.12 43.10 43.20 43.56 38.12 33.46 29.86 33.80 26.47 29.25 30.79 32.22 32.78 30.21 29.05 34.52 35.34 30.82 31.09 29.44 25.44 26.09 25.56 29.18 30.72 33.32 35.88 33.11 30.60 23.53 26.20 27.32 28.39 28.63 27.77 27.46 28.80 28.11 29.21 27.33 31.96 33.08
43.57 43.25 43.00 42.95 43.58 44.26 37.27 31.13 31.56 34.08 30.76 33.29 30.64 30.38 29.32 30.39 31.09 32.17 30.26 28.44 31.54 29.56 24.91 26.61 24.55 27.43 27.69 27.20 31.35 29.04 29.22 22.70 25.21 21.91 26.89 27.37 25.18 28.47 29.36 30.34 31.08 32.47 32.71 34.94
43.36 42.87 43.15 43.57 44.31 42.91 36.00 35.67 36.39 33.73 30.49 28.97 27.78 27.30 30.71 30.62 32.16 33.07 32.72 31.08 28.66 27.41 29.00 30.88 30.93 31.01 30.79 30.04 27.77 25.79 25.15 21.11 21.10 17.80 25.84 25.84 21.60 27.35 29.37 30.89 35.06 35.52 31.64 36.65
43.18 43.17 43.04 43.52 44.21 41.94 37.12 36.48 35.47 30.42 24.53 27.68 28.52 32.06 32.29 30.98 31.10 28.19 31.37 31.53 28.30 33.02 35.11 33.68 31.96 30.96 30.96 30.45 29.64 30.35 23.33 23.01 23.26 20.03 23.49 14.34 28.17 35.22 35.58 34.21 34.72 36.37 35.39 36.26
43.30 43.15 43.25 43.84 44.03 44.69 37.88 38.01 34.96 30.65 24.49 30.44 30.99 31.27 30.47 30.54 31.32 29.23 30.36 33.90 34.86 34.30 31.61 26.97 24.69 24.50 26.59 28.57 30.38 29.95 30.07 26.80 22.83 18.34 19.77 24.94 28.71 33.57 30.94 28.55 30.02 33.11 32.73 35.01
43.77 43.44 43.49 43.55 44.11 44.70 38.36 37.04 38.12 34.54 26.95 26.33 33.38 29.32 30.31 25.31 25.05 26.83 31.71 35.87 35.76 33.83 25.88 22.40 20.33 17.40 22.79 23.83 26.61 32.87 31.13 29.84 24.06 23.73 19.07 13.85 26.55 30.85 34.59 34.24 26.38 33.04 31.50 29.71
44.11 43.70 43.40 43.89 44.13 44.14 39.04 37.06 38.29 34.94 25.88 32.01 32.41 27.80 27.03 30.16 26.20 24.42 28.35 30.19 30.22 31.33 18.42 14.39 18.47 19.83 27.18 22.94 22.13 25.72 24.80 26.50 22.88 21.92 20.86 24.82 29.37 32.27 34.13 25.89 24.99 30.03 28.87 27.75
44.66 43.99 43.55 43.55 43.62 44.01 40.22 36.99 37.68 34.63 27.93 31.46 34.90 35.55 29.72 29.03 27.93 21.92 26.74 25.15 25.90 24.93 20.71 20.92 15.48 14.48 22.70 25.20 28.15 27.77 26.47 25.19 24.32 25.80 21.97 19.37 30.46 30.84 26.13 31.11 31.87 29.64 28.20 27.49
44.68 44.09 43.63 43.57 43.57 43.77 42.41 34.17 38.76 38.01 31.17 31.29 35.21 35.72 36.55 35.20 34.22 29.23 28.23 26.73 27.60 26.11 20.59 21.40 21.55 21.02 24.21 26.02 24.00 32.10 24.21 27.03 25.31 25.71 23.58 31.31 31.90 31.16 33.38 33.44 31.21 30.01 28.90 28.64
44.60 44.58 43.72 43.59 43.40 44.06 41.97 36.00 36.86 34.83 28.11 29.53 31.58 32.15 36.84 39.17 36.71 35.96 27.57 31.10 34.15 30.23 29.65 22.61 22.73 19.79 26.39 23.56 26.56 27.65 29.15 31.93 28.32 27.45 28.13 28.86 31.48 32.89 32.06 31.88 29.14 28.81 28.07 26.28
44.36 44.39 43.89 43.40 43.28 43.50 42.31 36.53 37.73 35.19 31.25 24.10 32.27 39.99 36.13 40.12 38.41 36.70 35.45 34.10 34.69 33.32 30.35 22.96 20.68 21.58 29.92 26.20 30.47 25.78 27.97 29.31 26.98 26.35 28.75 29.19 29.45 30.66 32.04 29.84 29.61 29.01 29.13 27.88
43.98 43.82 43.67 43.17 43.59 43.38 39.23 36.99 37.19 38.16 31.46 24.45 26.19 33.77 37.40 38.68 38.16 37.03 35.79 34.13 31.33 28.12 25.31 21.75 21.52 27.11 28.03 29.91 28.45 25.39 29.54 26.45 24.45 20.24 27.98 27.01 28.27 30.60 31.16 30.72 28.49 28.03 26.66 25.69
44.13 43.50 43.16 43.24 43.12 40.72 33.15 25.75 36.74 39.38 36.29 25.43 20.39 32.08 33.43 35.42 36.74 36.08 34.52 33.22 30.47 28.27 25.69 23.42 27.37 31.68 28.53 23.62 20.68 28.55 31.01 31.50 31.40 24.06 30.18 29.71 31.08 30.59 30.88 28.77 27.78 27.02 25.93 25.43
43.60 43.91 43.07 42.99 42.50 36.62 30.96 29.16 38.25 42.21 35.79 23.68 19.45 24.96 32.63 35.96 35.69 33.42 33.52 36.50 32.29 30.05 27.10 25.88 26.21 28.03 32.70 25.55 23.69 28.39 29.92 31.86 31.91 34.36 31.24 28.06 30.28 27.75 30.74 29.69 28.33 28.67 27.78 26.84
43.23 43.50 42.93 42.86 42.80 39.50 34.14 39.15 42.58 39.68 32.50 32.63 18.88 22.75 26.92 34.54 28.10 28.49 32.17 29.41 30.75 30.04 26.84 27.26 27.46 29.81 30.44 24.09 28.13 29.46 30.41 30.50 31.28 31.39 32.54 31.08 31.40 31.73 29.80 27.99 26.05 24.29 23.53 23.64
42.87 43.02 41.92 35.99 32.69 29.08 34.82 42.38 41.35 37.85 31.10 27.69 24.07 18.23 14.93 32.03 29.12 29.06 29.96 30.75 20.71 29.00 23.36 26.35 29.77 23.72 23.11 25.10 28.61 28.64 29.47 29.87 29.19 33.12 31.72 29.30 27.13 27.60 27.70 25.63 23.87 22.38 21.98 21.91
42.11 35.48 29.31 27.72 30.06 42.13 40.16 35.97 31.35 32.37 32.72 31.59 26.67 27.64 21.69 28.57 21.09 21.16 23.86 23.99 23.16 20.54 25.42 28.82 22.28 23.31 28.49 29.28 29.49 30.28 31.20 30.01 32.26 29.71 27.53 25.56 24.68 23.48 23.50 22.97 23.13 21.63 20.64 20.52
31.67 29.35 29.02 38.02 41.73 36.10 33.02 27.49 25.29 26.18 25.73 27.18 27.26 26.71 23.94 31.57 20.94 21.61 28.57 28.22 28.72 25.00 25.81 26.64 22.96 22.77 25.91 27.13 25.63 26.48 28.65 28.54 27.89 27.19 26.65 27.24 24.53 21.80 20.60 19.74 19.61 19.07 18.44 16.61
32.30 35.25 39.01 38.48 34.00 30.38 25.74 23.05 24.18 24.32 23.45 25.48 24.00 26.00 27.98 28.80 33.12 24.21 29.12 27.18 27.48 23.50 29.94 24.24 16.30 21.00 25.00 24.84 24.07 24.02 24.34 23.46 22.50 23.52 22.72 22.61 21.58 20.68 19.41 17.94 16.52 15.09 13.34 10.00
37.82 35.52 30.58 29.57 28.64 23.04 17.93 11.90 18.88 15.68 23.01 24.35 23.38 27.76 27.32 28.72 29.09 22.90 28.93 26.77 23.00 29.92 21.17 19.81 18.42 23.10 23.96 23.06 22.65 22.41 22.53 21.36 20.32 19.02 19.26 18.97 17.78 17.78 16.14 13.48 9.72 11.01 8.26 3.08
28.33 28.17 22.54 22.63 15.01 14.90 16.80 18.58 17.99 23.23 22.34 24.43 22.11 21.94 22.57 22.67 22.46 21.28 24.57 23.37 29.48 20.59 17.21 17.43 18.71 22.96 22.69 22.55 22.20 20.55 16.83 15.68 15.78 14.08 13.43 11.87 11.21 8.66 7.69 6.72 3.55 4.47 1.48 -2.56
29.42 29.52 17.92 16.24 22.96 27.88 29.19 31.17 30.55 28.78 32.73 23.77 23.04 23.74 25.10 22.41 22.97 27.70 25.48 24.06 21.05 23.13 19.97 17.25 19.38 20.76 18.21 16.31 15.49 13.04 10.78 9.18 9.25 6.83 8.24 9.16 9.29 8.05 2.33 -0.61 -0.52 0.45 -2.14 -1.82
29.58 29.19 26.48 27.63 27.48 26.50 28.18 29.26 29.64 32.59 31.73 30.05 29.20 27.71 25.85 25.82 23.92 25.29 23.15 24.13 21.69 14.98 16.82 21.61 21.38 18.06 12.45 12.05 12.28 10.31 10.32 11.37 11.97 11.41 10.41 9.66 7.26 6.71 4.80 1.31 1.95 -0.20 -0.13 -1.28
28.95 24.96 26.28 28.17 28.45 28.16 26.91 29.87 30.75 33.18 31.38 26.59 28.54 25.32 21.80 29.04 21.37 22.16 24.20 21.80 12.77 19.41 21.09 21.84 19.23 15.81 12.00 11.76 15.07 15.63 15.05 13.33 12.12 11.42 12.95 10.25 9.03 10.61 13.07 12.31 11.94 12.04 12.17 3.31

GFSNW_sfc_wetblb_093.txt.gz
Wetbulb
45.91 45.12 44.72 43.90 43.75 43.56 39.81 35.96 29.13 39.28 42.25 33.61 34.19 29.89 33.08 36.69 34.41 37.03 34.74 34.84 32.80 30.53 30.75 28.49 28.90 27.74 31.36 36.07 34.46 29.55 32.02 27.67 23.37 24.26 32.06 33.15 30.94 32.14 32.39 26.17 24.60 26.71 27.06 25.04
45.08 44.80 44.44 44.20 43.83 43.13 36.44 32.43 29.57 38.65 40.51 27.67 27.31 31.48 32.41 34.07 33.76 33.09 33.21 32.03 33.88 33.50 29.40 25.54 29.31 30.46 34.94 35.23 33.67 28.87 29.25 24.58 18.36 20.16 25.96 30.66 28.45 29.72 30.68 29.97 29.72 24.76 23.86 25.61
44.54 44.44 44.22 43.71 43.63 43.63 36.62 32.89 24.05 29.51 34.48 34.74 30.70 29.37 30.39 30.07 35.61 33.20 34.87 33.39 33.69 30.37 28.86 30.40 27.83 28.92 33.03 34.69 34.90 38.48 34.20 26.40 23.03 16.87 21.53 25.98 24.31 26.72 28.54 27.16 19.45 22.54 24.60 27.01
44.44 43.85 43.34 43.26 43.11 43.42 37.93 33.05 28.17 32.45 26.14 28.51 30.87 31.36 32.10 29.36 28.77 33.72 34.66 30.35 30.58 29.23 25.91 26.40 25.52 28.50 29.64 32.16 35.13 32.33 29.36 22.81 25.33 25.79 26.60 25.80 24.23 24.28 25.73 24.81 25.87 22.18 25.12 27.84
43.50 43.26 42.90 42.78 43.20 44.04 36.50 31.11 30.18 32.21 30.55 32.61 29.71 29.45 29.11 30.05 30.63 31.68 29.54 28.53 29.95 29.12 25.26 26.15 24.22 26.92 26.72 26.18 29.62 27.34 27.97 22.19 23.99 22.13 24.21 24.05 23.05 26.15 26.94 26.92 27.60 27.51 28.61 28.13
43.15 42.96 42.88 43.20 44.14 43.04 35.09 35.19 35.69 32.44 29.76 28.27 27.12 27.51 30.26 30.38 31.33 32.09 32.44 31.08 28.39 27.11 28.33 30.38 30.53 30.52 30.04 29.07 27.54 25.48 24.38 20.74 19.94 17.46 24.50 24.36 19.99 25.79 29.19 27.95 29.81 30.58 25.44 32.82
43.16 43.05 42.85 43.50 44.50 41.41 36.82 35.88 34.37 29.46 24.51 27.48 28.46 31.64 31.61 30.17 30.50 27.93 30.70 30.87 28.03 31.91 34.11 32.28 30.54 29.06 28.43 28.29 28.16 28.53 22.97 21.92 20.25 17.68 21.77 12.60 25.81 32.80 32.39 31.89 32.72 34.48 36.08 34.16
43.28 43.05 43.13 43.57 44.70 44.12 37.62 37.22 34.02 31.02 24.76 29.34 30.17 30.41 29.79 29.95 30.55 28.59 30.84 32.84 33.74 33.44 31.11 26.19 24.47 24.19 25.87 27.26 29.02 27.76 27.94 24.28 17.31 14.01 16.82 22.90 26.95 30.31 28.68 28.16 28.57 32.38 32.88 32.47
43.35 43.19 43.28 43.84 44.48 44.50 37.68 36.27 37.32 33.67 27.55 26.57 31.65 28.39 29.03 25.10 24.80 26.92 29.94 34.36 34.23 31.76 24.73 21.84 19.79 16.63 22.38 23.04 26.29 32.10 28.39 28.51 23.19 23.10 12.49 11.57 22.49 29.38 33.01 33.29 24.59 30.46 30.35 29.43
43.60 43.33 43.48 43.58 44.45 44.72 38.21 35.81 37.21 33.13 26.35 31.61 31.23 27.39 26.87 29.39 26.13 24.61 27.24 28.94 29.10 29.16 17.20 13.38 12.86 18.84 26.11 21.80 18.34 25.27 24.94 24.84 20.68 20.63 18.80 22.34 27.38 30.48 33.24 23.55 23.10 28.97 27.68 27.38
43.73 43.29 43.31 43.19 44.12 44.69 38.12 35.73 37.07 33.73 28.11 31.21 34.31 34.89 29.46 28.59 27.27 21.65 25.73 24.01 24.60 23.04 19.93 18.92 13.78 12.25 23.64 21.76 22.18 26.79 25.38 22.78 22.92 24.09 21.42 18.85 29.65 29.73 24.01 29.02 30.18 28.89 27.51 27.35
43.95 43.39 43.33 43.13 44.19 44.81 40.49 34.63 38.64 37.31 32.09 31.48 34.37 34.89 35.16 33.56 32.49 28.13 27.31 25.68 26.47 24.73 20.17 20.05 20.48 19.14 21.19 20.93 19.50 30.73 23.38 25.65 23.60 23.87 22.42 30.29 30.78 29.52 31.08 32.20 30.16 28.89 27.75 27.43
44.01 43.68 43.28 43.48 44.26 44.15 40.92 35.76 35.71 33.86 29.22 30.65 31.34 31.08 34.94 37.34 35.23 34.32 28.49 29.71 32.60 28.89 27.65 21.32 21.09 19.93 24.61 17.39 20.72 23.18 28.42 30.97 27.00 26.71 27.13 27.63 30.09 30.35 30.82 29.61 27.51 27.73 27.47 25.88
44.31 43.68 43.32 43.46 43.80 43.78 41.36 35.99 36.35 34.30 30.51 24.67 29.23 37.68 34.59 37.91 36.89 35.27 34.31 33.67 32.93 31.35 28.82 21.65 19.09 21.00 27.61 23.39 27.63 22.76 26.85 28.25 26.74 25.70 28.02 28.53 29.11 30.35 29.49 28.60 28.80 28.28 27.81 26.58
44.10 43.44 43.41 43.73 43.85 42.36 38.52 36.61 36.79 37.32 30.61 24.27 26.51 32.30 35.89 37.44 36.81 35.33 34.51 32.75 29.85 27.34 24.51 20.85 20.90 26.22 25.58 30.53 24.89 22.12 29.20 26.27 23.99 20.88 27.91 27.28 27.33 29.63 31.55 28.20 27.05 27.33 25.31 23.71
44.13 43.31 43.34 43.24 42.74 39.08 33.18 27.20 35.43 38.90 34.05 24.65 21.38 30.25 31.75 34.09 35.44 34.62 33.08 31.81 28.85 27.39 24.88 22.44 26.17 29.05 26.08 21.43 17.65 26.93 30.97 31.18 31.21 25.84 30.16 29.76 29.77 30.25 29.71 27.10 26.43 26.09 25.07 24.46
43.63 43.35 43.00 42.94 42.47 36.92 30.80 28.35 36.04 40.15 32.96 21.15 19.25 24.93 31.25 34.14 35.34 34.92 32.68 36.15 30.32 29.95 26.43 25.28 25.08 26.57 30.32 21.75 19.56 27.77 30.35 31.36 31.06 32.93 30.09 27.84 29.62 27.30 30.24 28.24 27.45 27.31 25.81 24.65
43.49 42.59 43.21 42.90 41.11 38.30 33.98 40.22 41.27 35.61 29.58 26.35 18.37 21.67 26.47 33.09 27.77 30.65 31.39 30.73 29.05 28.36 25.94 26.42 26.36 28.17 29.65 22.27 25.02 28.64 29.74 30.34 30.00 31.96 31.87 29.01 29.95 27.77 26.05 25.97 24.79 23.30 22.55 21.93
42.70 42.07 39.89 34.55 31.16 28.60 34.46 41.23 39.26 34.97 29.73 21.31 21.71 18.51 15.40 29.85 27.87 28.47 28.85 28.82 21.25 28.53 21.90 25.09 26.38 21.98 24.74 25.52 26.13 29.12 29.84 28.23 25.42 31.52 30.44 28.49 28.95 27.42 24.86 23.57 23.07 21.48 20.85 20.68
40.27 34.13 27.47 18.74 29.49 40.63 37.84 32.19 27.59 28.83 31.00 31.67 22.12 25.85 20.53 27.05 19.65 20.13 22.02 23.12 23.41 19.44 24.11 26.80 20.13 22.41 27.96 28.93 30.10 30.25 30.13 30.10 32.01 25.84 24.58 25.02 23.71 23.55 23.22 22.37 22.20 21.57 21.19 20.52
30.20 23.24 28.65 34.96 41.32 35.96 32.03 25.44 24.38 25.88 24.80 26.46 26.85 25.25 23.01 30.07 20.24 20.54 24.98 25.49 25.61 22.27 22.32 23.21 23.12 21.86 24.95 26.64 27.22 28.17 27.99 27.35 26.11 26.26 27.01 26.72 24.51 22.49 20.83 19.91 19.98 19.60 18.70 16.18
30.41 35.10 37.74 37.43 33.13 29.63 25.25 23.39 24.77 23.93 22.38 24.46 23.02 25.04 26.41 27.44 30.71 22.29 25.01 27.85 27.78 23.13 30.74 25.99 17.18 18.38 24.11 24.76 23.87 23.40 23.71 24.16 24.19 25.40 24.08 23.58 22.36 21.42 19.31 17.70 16.41 14.13 12.46 8.80
38.56 33.87 30.93 29.10 28.68 20.95 17.11 15.16 20.11 15.11 22.42 22.73 23.10 20.82 23.88 27.36 27.30 21.69 24.00 26.16 23.07 28.22 24.16 16.90 15.91 22.29 23.59 22.56 22.13 21.58 22.25 21.78 21.10 19.88 19.78 18.90 17.62 16.63 15.36 12.71 8.46 9.34 6.78 0.37
27.72 27.01 21.80 20.91 18.53 18.11 15.78 17.33 16.67 22.54 21.09 22.88 21.05 21.33 21.83 21.75 21.33 22.70 22.74 18.81 26.77 19.06 16.15 16.51 16.73 21.36 21.70 22.08 22.31 20.30 16.22 14.92 15.05 13.16 12.53 10.61 9.32 4.80 3.73 2.63 -0.55 3.07 0.37 -4.24
27.07 28.42 16.06 19.90 23.46 25.30 29.11 30.21 29.76 28.63 29.75 21.77 21.97 23.15 23.29 19.64 16.93 26.50 24.47 23.07 20.28 23.27 20.27 14.51 20.62 21.53 19.27 16.58 14.30 12.62 10.54 7.88 6.88 3.82 6.46 6.01 5.49 4.93 0.30 -3.15 -3.17 0.09 -4.24 -4.42
28.13 28.11 24.50 26.57 26.62 25.82 27.81 28.53 29.02 32.51 31.21 29.16 25.11 22.54 17.99 19.78 24.29 23.95 21.89 22.82 18.50 19.73 14.32 11.86 18.16 15.83 12.01 11.07 11.53 8.32 8.11 7.91 7.30 7.63 6.74 5.14 4.39 4.85 2.75 -0.54 -0.41 -2.86 -2.32 -2.92
25.49 24.89 25.84 27.00 26.74 27.06 26.46 29.39 30.06 32.81 30.92 26.70 27.63 24.10 19.89 26.06 23.30 20.59 24.33 21.05 12.13 21.15 15.69 14.32 14.59 14.58 10.28 8.50 9.71 10.62 12.73 11.32 10.96 9.72 11.18 8.21 7.57 8.44 11.59 10.81 10.70 10.33 10.90 0.53

GFSNW_sfc_wetblb_096.txt.gz
Wetbulb
46.36 45.11 44.42 44.06 44.11 44.81 40.15 34.30 28.25 40.99 41.42 32.33 32.43 28.20 33.52 36.45 34.09 36.62 34.56 33.42 32.01 30.12 30.23 28.38 27.97 27.27 30.75 35.11 34.26 29.26 31.92 28.60 22.77 24.60 31.06 33.52 30.85 31.80 30.34 23.20 23.11 25.48 25.70 23.97
46.04 45.13 44.61 44.13 44.06 43.64 35.61 31.07 32.06 37.88 39.73 26.94 28.88 32.08 32.35 33.78 33.20 32.81 33.15 31.84 33.58 33.15 29.18 26.06 29.52 29.78 34.23 35.60 33.24 28.50 29.93 24.58 18.26 20.37 26.20 29.67 27.31 28.33 29.42 27.88 25.94 20.24 18.67 22.97
45.04 44.64 44.67 44.30 44.18 43.96 37.20 31.00 22.79 31.44 35.14 34.56 29.10 28.24 29.80 30.03 35.44 33.31 34.38 32.67 33.52 30.91 28.55 30.01 27.52 28.41 31.94 34.04 35.03 37.28 33.49 25.92 21.85 16.32 20.93 25.40 23.85 25.52 26.51 24.36 11.03 16.09 20.49 23.49
44.65 44.30 44.15 43.70 43.86 43.98 37.37 32.60 25.01 30.41 23.23 27.66 29.37 30.74 31.86 29.34 28.69 33.71 33.94 30.51 30.74 29.10 25.14 25.87 25.28 27.84 28.77 31.59 34.21 31.16 28.78 22.37 24.82 25.04 25.73 24.93 24.25 23.10 22.66 21.58 23.17 17.32 22.31 23.27
44.44 43.77 43.59 43.44 43.40 44.15 36.52 29.09 30.15 30.86 29.15 31.76 29.92 29.74 29.07 29.74 30.10 31.31 29.22 27.67 29.60 29.01 25.63 26.15 24.23 26.68 26.55 25.70 28.69 26.94 27.40 21.94 23.23 21.22 24.51 23.29 21.74 23.29 23.89 24.73 25.21 25.19 25.30 24.68
43.56 43.26 43.12 43.21 44.08 43.51 35.33 34.97 35.07 32.04 29.33 28.18 27.25 27.58 30.01 29.31 30.62 31.25 32.06 30.44 28.07 27.02 28.29 29.99 29.74 29.82 29.24 27.27 26.30 25.01 24.27 20.15 18.82 15.95 23.72 22.76 18.23 23.26 27.62 28.37 30.21 30.04 23.31 27.76
43.26 42.94 42.99 43.44 44.23 43.69 37.00 35.70 33.94 29.42 25.20 27.43 28.18 31.10 31.16 29.63 29.95 27.18 30.25 30.80 28.53 31.49 33.42 31.73 30.14 28.29 27.10 26.16 26.19 27.76 22.98 21.50 19.31 16.74 20.34 7.99 23.96 31.92 31.34 28.51 31.07 29.91 31.91 34.42
43.27 42.92 43.09 43.46 44.66 43.40 36.94 36.50 33.80 30.63 23.97 28.89 29.37 29.87 29.06 29.38 30.61 29.25 30.22 31.98 32.69 32.27 30.74 26.17 24.30 23.56 25.27 26.39 26.88 25.78 26.59 23.13 16.10 11.48 15.09 20.45 24.54 28.09 26.30 26.45 26.41 29.90 29.89 31.04
43.17 43.27 42.92 43.58 44.95 43.76 37.23 35.88 36.60 31.83 27.65 25.94 31.13 27.69 29.01 24.96 25.87 27.27 29.53 33.19 32.83 30.42 24.39 21.52 18.97 15.99 22.24 22.05 24.85 28.87 26.68 27.67 22.00 20.74 11.39 8.56 20.86 27.96 32.06 31.77 22.40 28.33 28.31 28.94
43.37 43.12 43.39 43.83 45.06 43.37 37.30 35.32 36.09 32.91 26.37 30.40 30.91 26.97 27.10 29.05 27.13 25.17 26.88 28.53 28.45 28.42 17.32 13.87 11.97 18.12 24.80 20.23 18.34 23.93 22.96 23.65 19.48 18.77 16.01 18.91 26.09 29.00 31.50 21.88 20.56 27.82 27.60 27.38
43.25 43.25 42.90 43.88 44.99 43.49 37.58 35.29 36.83 33.57 28.88 30.80 33.52 33.66 29.23 28.70 27.71 22.44 25.45 23.28 24.00 22.28 19.01 18.31 12.83 11.49 20.45 20.25 15.67 25.13 23.26 21.68 21.28 22.40 18.24 14.49 28.36 28.55 21.84 26.60 29.04 28.65 27.55 26.54
43.36 43.18 43.15 44.59 44.54 43.69 39.77 34.41 37.70 36.89 31.94 30.65 33.88 34.58 34.82 33.05 31.35 27.29 27.26 24.52 25.87 23.59 19.73 19.89 20.41 19.41 16.48 17.63 17.88 27.28 18.02 21.59 21.32 23.16 19.97 28.94 29.51 28.14 29.42 29.58 27.97 27.39 26.39 25.56
43.33 43.13 43.62 44.28 44.42 43.51 40.30 35.50 35.15 33.75 30.74 31.68 32.15 31.36 35.48 36.37 33.78 34.16 27.85 28.77 30.73 27.77 26.32 20.49 20.84 18.58 23.13 15.50 20.70 22.91 27.12 30.22 25.43 25.46 26.80 27.21 29.12 29.23 29.41 28.26 26.50 26.42 25.53 24.01
43.54 43.08 43.55 44.01 43.99 43.54 40.99 35.77 35.83 33.81 31.08 25.91 29.37 36.60 33.56 36.18 35.55 34.48 33.67 32.35 31.13 30.00 27.62 21.39 18.46 21.16 26.56 21.54 26.60 22.75 26.36 27.30 25.83 25.23 27.09 27.71 28.48 28.86 28.94 27.84 27.30 25.34 25.06 24.19
43.31 43.46 44.06 43.60 43.50 42.51 38.99 37.12 37.46 36.41 31.15 26.18 27.97 31.93 34.44 35.98 35.20 33.80 33.17 31.53 28.90 26.53 24.04 20.57 20.30 25.87 24.81 29.82 24.48 22.63 28.67 24.19 21.69 18.44 27.34 26.51 26.66 29.73 29.87 27.17 26.17 25.79 23.69 22.31
43.80 43.38 43.39 42.88 41.28 38.57 33.51 28.54 35.08 37.94 32.83 27.63 22.16 29.31 31.23 33.58 34.46 33.32 31.81 30.38 28.14 26.80 24.11 21.98 25.54 28.27 25.26 18.85 19.11 27.51 29.97 31.25 30.58 22.44 28.90 27.56 28.74 28.65 28.24 25.81 24.97 24.72 23.57 22.70
43.62 43.13 43.21 42.92 41.95 37.79 30.67 28.83 36.10 39.24 32.28 23.67 20.81 25.30 30.11 32.53 34.22 34.82 32.24 32.55 28.54 27.64 25.84 24.78 24.55 25.79 28.69 22.35 20.05 27.32 30.78 31.15 31.05 29.76 28.84 26.47 28.42 25.73 28.03 26.85 26.04 25.64 23.75 22.89
43.21 43.39 41.79 41.92 41.58 39.46 35.26 37.75 39.48 35.02 28.17 25.72 19.21 21.45 26.51 33.08 27.32 30.75 30.15 30.88 29.61 27.82 25.17 26.11 25.83 27.14 27.41 25.03 25.69 29.12 29.91 30.35 30.29 31.24 30.44 28.57 27.75 26.37 25.42 25.49 24.56 22.78 21.41 20.91
42.46 40.38 39.22 35.37 32.55 30.39 35.95 41.14 38.11 33.82 29.44 21.19 21.24 19.41 15.53 29.19 27.75 31.17 28.83 27.97 22.70 28.38 21.71 24.58 25.40 18.66 22.11 23.64 27.00 28.12 27.41 25.68 29.51 30.63 29.69 28.79 26.69 24.84 24.18 23.93 22.75 21.07 20.65 20.24
39.12 33.95 28.45 23.12 33.03 40.27 37.25 31.28 25.29 25.37 27.03 27.48 20.66 24.90 20.79 26.20 18.88 19.53 21.32 23.05 21.95 18.84 22.91 25.88 23.80 18.39 26.96 28.82 28.27 29.01 30.73 30.67 29.30 25.21 24.17 25.94 24.58 23.72 23.56 22.61 22.00 21.65 20.85 19.20
29.35 26.71 28.97 35.71 39.61 32.69 30.61 21.90 20.18 24.76 21.69 24.76 24.56 24.79 23.42 29.35 19.63 19.84 24.00 21.70 23.45 20.43 20.97 21.89 21.73 19.63 24.75 28.03 27.97 27.65 26.38 26.41 28.90 26.71 26.14 25.89 25.46 23.75 21.34 20.31 20.43 19.50 18.18 15.71
29.73 33.61 37.36 36.19 32.15 28.60 24.72 22.49 24.73 23.30 21.86 24.16 22.79 23.95 25.41 26.61 29.16 21.63 23.95 26.44 27.53 21.73 25.78 23.84 19.90 17.89 23.73 24.50 24.53 24.22 24.58 25.66 25.08 26.09 24.37 24.09 23.14 21.90 19.33 17.39 15.82 13.49 11.69 8.34
37.58 31.88 30.17 29.27 26.80 20.06 17.93 14.84 20.56 15.20 22.01 22.20 22.24 19.91 22.33 26.32 26.45 20.37 23.45 20.96 23.94 28.11 24.81 19.17 16.71 20.99 23.58 22.87 22.68 21.72 22.37 22.12 21.23 20.30 20.17 19.00 16.73 16.23 15.05 12.04 7.98 8.93 5.31 -1.10
25.60 26.30 20.44 18.35 18.31 17.51 14.47 15.90 15.12 24.33 23.26 22.16 19.94 20.98 20.19 24.97 20.11 21.49 21.67 17.10 25.32 19.45 18.35 14.46 14.03 21.54 21.17 22.36 22.23 20.16 17.14 16.58 15.81 13.58 12.23 10.28 8.82 4.46 4.28 2.67 -1.56 2.66 0.90 -6.69
26.89 27.44 13.76 20.27 22.45 23.94 26.89 28.83 28.67 30.04 28.89 21.55 23.03 22.19 21.94 18.53 15.11 23.78 22.65 20.19 16.82 19.81 13.08 12.74 13.11 19.60 19.90 17.58 14.55 13.03 10.27 7.80 6.64 4.04 6.22 4.52 4.27 4.61 -0.53 -5.60 -4.16 1.03 -2.24 -4.35
25.38 25.65 23.09 25.40 25.66 25.17 27.18 28.03 28.54 32.24 30.88 25.32 23.93 21.36 14.34 15.99 21.28 22.02 19.36 19.64 13.84 17.32 14.67 10.80 22.99 16.45 12.44 11.04 11.96 9.26 8.52 7.61 5.60 5.88 5.16 3.98 3.21 4.87 2.46 -0.66 -1.61 -4.21 -3.45 -4.39
24.53 23.33 21.50 23.55 22.88 24.40 26.25 28.18 29.39 32.16 30.19 23.62 27.33 21.92 17.38 24.36 22.95 22.68 24.94 20.95 17.68 12.74 18.64 10.14 11.05 14.14 9.21 9.44 9.06 9.42 10.64 9.26 8.87 8.75 10.27 8.33 7.73 8.10 10.87 9.99 9.48 9.72 9.16 -0.45

GFSNW_sfc_wetblb_099.txt.gz
Wetbulb
46.93 46.37 45.62 45.27 45.41 44.93 40.25 36.03 29.41 40.80 43.21 31.68 33.37 28.20 31.76 35.92 34.31 37.12 35.24 34.35 32.14 29.94 30.55 29.05 28.70 28.08 30.82 35.09 34.52 29.85 32.36 29.96 24.53 25.92 32.26 34.16 33.46 31.69 31.35 25.88 24.38 27.21 26.79 27.93
46.94 45.57 44.66 44.47 44.96 44.12 36.61 34.22 34.98 40.89 40.78 26.72 27.68 31.93 31.84 34.23 33.59 33.84 33.80 32.53 33.41 32.89 29.35 26.47 29.33 29.43 33.76 36.07 33.47 30.72 31.70 26.75 21.04 23.18 28.60 31.65 28.34 29.66 29.59 28.64 28.01 22.21 22.89 27.07
46.49 45.53 44.94 44.32 44.66 44.53 39.02 31.04 27.48 32.53 35.73 34.64 31.34 29.23 30.22 30.09 35.17 33.68 35.16 33.96 34.17 31.69 28.53 30.84 27.96 28.08 31.97 35.06 36.12 36.96 35.12 27.71 24.12 21.18 23.68 27.72 24.73 27.01 28.13 26.39 22.84 22.40 24.99 27.21
45.95 45.09 45.05 44.55 44.45 44.66 38.80 33.20 27.50 31.72 25.30 28.51 30.34 30.49 32.10 29.71 28.99 33.83 34.47 31.49 31.39 30.31 26.06 26.48 25.71 28.45 30.04 32.39 34.18 32.30 31.79 24.32 26.49 26.96 27.37 27.23 26.45 26.00 26.12 23.63 25.00 20.58 24.51 24.95
44.84 44.53 44.59 44.28 44.31 44.37 36.80 30.10 31.06 32.65 30.25 32.59 29.63 29.99 30.22 29.72 29.59 31.62 29.82 28.95 30.03 30.30 26.93 27.81 25.25 28.08 28.16 27.81 30.71 29.38 29.92 24.60 25.41 22.77 26.80 26.58 23.67 26.01 25.80 25.96 26.13 25.95 27.41 27.78
44.84 44.26 43.98 43.74 43.76 43.43 36.88 36.05 36.12 33.48 30.01 29.26 28.43 28.95 31.04 30.39 31.33 31.56 33.31 31.44 29.38 27.98 29.14 31.70 32.13 32.08 31.53 31.24 29.05 27.11 26.70 24.85 21.57 17.37 24.08 23.76 19.63 24.53 25.90 28.07 30.56 30.01 25.13 30.65
44.10 43.83 43.49 43.59 44.35 44.15 39.59 37.02 35.61 31.52 27.17 28.63 29.48 31.59 31.90 30.47 30.81 28.66 30.92 32.17 30.34 32.26 35.34 34.38 33.06 31.19 29.99 29.96 29.25 30.17 25.76 24.31 22.81 18.85 21.35 11.31 26.03 31.14 31.29 27.45 30.15 30.18 30.02 32.29
43.62 43.31 43.42 43.71 44.66 45.54 38.65 38.26 35.51 32.07 27.82 30.15 30.08 30.53 30.33 31.35 32.02 30.57 30.97 32.51 33.26 34.93 32.98 28.20 25.48 25.63 26.75 27.09 29.33 28.54 29.57 26.20 21.28 17.87 18.03 22.19 25.89 27.68 26.21 25.56 25.81 27.95 26.90 30.72
43.29 43.25 43.29 43.69 45.00 44.59 38.76 37.31 37.93 34.27 30.54 28.12 31.41 29.49 30.91 28.09 27.97 29.08 30.42 34.07 34.81 33.05 28.37 25.79 20.27 18.37 22.89 22.34 25.55 28.85 28.21 28.96 23.88 21.05 15.50 13.75 21.95 27.88 30.93 30.81 22.10 27.42 26.93 26.87
43.30 43.29 43.51 44.46 44.44 44.75 38.29 36.74 37.87 35.17 29.85 32.01 32.27 29.03 29.06 30.92 29.50 27.53 28.97 30.08 30.76 31.76 24.57 20.68 20.04 20.81 25.88 20.95 20.61 23.80 23.59 23.29 20.60 20.53 19.72 22.29 26.37 28.61 30.75 21.20 21.28 27.42 26.93 26.24
43.30 43.57 43.25 44.61 44.59 43.42 39.03 37.17 38.20 35.46 31.39 32.22 34.37 34.34 30.66 30.63 30.19 27.20 28.56 27.59 28.18 26.47 22.90 22.40 20.20 22.06 25.05 23.34 20.87 25.40 24.08 22.40 21.67 22.31 19.43 16.63 28.51 27.98 22.39 26.01 29.11 27.59 26.39 25.89
43.40 43.08 44.01 44.44 44.18 42.92 40.16 35.77 38.58 37.82 33.60 32.64 35.88 36.26 35.98 35.60 34.37 30.25 29.23 27.78 27.77 28.06 24.52 25.22 24.88 24.09 24.90 22.55 21.47 27.89 22.70 25.16 23.90 23.66 22.66 29.01 29.25 27.43 29.01 29.23 26.66 26.84 25.53 25.11
43.13 43.84 44.35 44.52 44.10 43.43 40.68 37.06 36.55 35.97 33.55 32.82 33.51 33.04 37.46 37.65 35.84 37.40 30.95 31.48 32.04 30.43 29.77 27.25 27.13 24.41 27.47 23.34 23.58 24.16 28.09 30.10 26.01 25.44 26.88 27.47 28.80 29.24 28.60 28.10 26.20 26.14 25.52 24.58
43.09 43.94 44.26 44.16 43.97 43.27 40.84 36.97 37.39 35.36 33.11 28.89 31.48 37.80 35.08 38.34 37.39 36.30 35.98 34.05 33.43 32.54 31.35 28.45 27.09 25.84 29.45 27.08 27.49 25.82 27.21 28.37 26.40 25.06 27.22 28.17 28.46 28.89 28.25 27.18 26.79 25.32 25.58 24.74
43.01 43.95 44.09 43.71 42.90 41.95 39.53 38.27 37.79 36.17 33.56 29.24 30.41 33.78 35.48 36.71 36.63 35.15 35.26 34.00 32.17 30.47 29.18 27.86 26.68 29.25 30.12 30.33 27.68 25.30 28.57 25.41 25.24 23.17 28.01 27.34 27.40 29.44 29.68 27.17 25.89 25.36 23.72 22.60
44.13 43.66 43.12 42.09 40.99 38.29 35.14 30.98 36.46 38.34 34.60 31.46 26.91 31.55 33.31 35.35 35.88 34.95 34.01 33.06 31.38 30.75 29.01 27.63 29.02 30.36 30.03 25.40 23.76 27.74 29.87 30.99 30.49 27.06 29.93 28.95 28.68 28.62 27.95 25.39 24.64 24.68 23.73 23.41
43.31 43.10 42.96 42.80 42.00 38.83 33.41 31.42 35.99 38.93 34.48 29.95 26.33 27.91 32.07 34.41 35.89 35.19 34.80 33.84 31.59 31.35 29.52 28.34 28.26 29.50 31.46 27.06 24.15 28.08 31.14 30.28 30.14 30.14 29.20 26.42 27.83 25.21 27.20 26.19 25.30 25.05 23.82 23.57
43.30 43.37 43.00 42.55 41.76 39.63 35.47 38.09 38.87 35.65 30.47 30.42 24.94 25.67 29.98 34.14 30.36 31.11 32.85 31.55 31.74 30.54 29.00 29.87 29.13 30.55 31.19 25.42 26.94 30.37 30.99 31.41 30.88 30.12 30.81 30.05 28.45 27.47 26.00 26.32 25.26 22.86 21.68 21.63
41.10 40.32 39.52 36.20 33.61 33.01 35.17 40.86 37.07 35.53 32.23 25.83 25.59 24.05 22.70 31.73 30.00 32.39 31.50 31.33 26.52 30.66 28.01 28.20 29.19 25.85 24.39 27.34 28.56 29.16 28.99 28.56 30.25 29.92 28.66 27.67 26.22 25.24 25.15 24.67 23.62 22.20 21.26 21.13
39.04 35.08 30.77 25.94 34.56 40.39 37.42 32.31 27.96 28.33 29.39 29.20 25.11 27.20 27.82 29.47 25.62 26.82 28.52 27.51 27.23 24.07 26.74 29.38 26.24 25.86 28.40 30.03 31.07 31.08 30.35 31.09 30.43 27.17 26.30 26.79 25.03 24.52 24.07 23.68 23.44 22.89 21.49 20.11
32.06 29.95 29.73 35.24 39.41 33.71 29.97 23.78 24.08 25.07 24.50 26.59 26.80 27.46 27.94 31.71 26.96 27.21 27.63 26.74 26.54 21.53 25.02 24.61 22.88 23.17 26.28 29.73 29.83 30.40 31.91 31.57 29.88 29.47 29.55 30.22 27.91 25.32 23.11 22.01 21.86 21.16 20.14 18.26
33.18 34.29 37.02 34.96 31.42 26.93 23.17 22.42 24.85 23.76 22.61 25.87 25.62 26.95 29.13 30.32 31.60 28.16 27.05 26.44 27.36 21.90 27.82 24.24 22.36 22.42 26.81 26.18 25.68 26.24 27.65 28.26 28.45 28.22 26.73 26.51 25.51 24.20 21.72 20.11 18.44 16.32 14.62 12.53
34.73 31.91 29.26 27.24 25.49 16.46 13.74 14.84 20.77 20.65 25.21 26.09 27.28 26.12 27.80 29.95 29.84 26.55 27.06 21.61 25.03 29.53 25.99 23.21 22.42 24.10 24.88 24.50 24.30 23.60 24.58 24.46 23.66 22.95 22.59 21.52 19.73 19.14 18.39 14.88 12.58 12.46 9.12 7.39
28.09 26.21 20.11 16.20 18.56 17.55 18.45 20.31 20.95 25.90 27.35 26.03 25.71 25.59 26.53 27.39 25.61 24.81 22.21 22.95 25.32 20.77 19.76 21.15 21.12 23.38 23.32 23.82 23.55 22.04 20.70 20.09 19.50 17.94 16.40 14.14 11.66 8.84 8.39 8.01 8.60 8.24 7.48 3.55
26.67 25.93 17.52 20.01 23.69 24.59 27.20 28.18 29.50 30.48 28.91 26.60 26.40 25.87 26.32 24.24 21.84 25.54 24.31 20.93 18.90 21.85 21.38 23.12 21.49 22.59 21.72 20.80 19.36 17.48 14.94 13.97 12.71 12.89 11.16 9.26 9.02 8.45 5.17 4.60 7.59 7.15 4.67 4.98
26.36 25.52 22.26 23.87 24.54 26.13 28.60 29.50 29.32 32.75 31.40 27.96 27.47 23.52 20.13 20.78 22.72 22.33 20.74 20.95 18.77 23.20 22.98 20.39 21.27 20.03 19.11 17.77 17.10 15.32 13.51 12.75 10.67 11.10 10.69 9.51 9.00 10.63 9.29 6.85 7.65 6.03 7.77 6.87
25.11 21.99 21.95 23.39 21.15 24.44 26.95 29.82 30.79 33.08 31.29 27.62 28.05 18.17 19.40 25.30 22.97 21.98 25.67 22.43 24.42 20.36 20.93 20.43 20.08 19.71 16.02 14.13 13.89 12.83 12.61 12.02 11.76 11.53 12.39 11.38 10.93 10.01 11.78 11.92 11.03 11.29 11.66 9.34

GFSNW_sfc_wetblb_102.txt.gz
Wetbulb
47.69 47.62 47.51 47.02 46.83 45.40 42.75 41.96 33.50 43.23 44.99 33.79 35.22 32.28 34.07 36.73 35.59 38.41 36.91 37.10 34.45 31.52 32.64 32.88 31.98 30.80 33.77 37.49 36.95 32.98 36.22 33.25 28.98 30.21 35.80 36.68 35.15 34.59 34.47 30.19 29.05 32.41 31.39 31.89
47.92 47.42 47.01 46.75 45.90 45.30 42.98 36.75 35.29 41.77 41.79 30.98 31.90 34.76 33.94 35.55 34.78 36.02 36.15 34.08 35.12 35.10 32.77 29.39 33.29 32.06 35.28 36.61 35.18 33.15 34.89 30.99 25.58 27.39 32.16 34.48 31.79 32.85 33.00 32.26 31.92 28.38 26.37 30.55
47.72 46.98 46.10 45.93 46.15 45.26 43.63 38.65 31.50 36.30 37.85 37.09 34.02 32.16 32.20 31.74 37.50 36.22 37.44 36.22 36.05 33.20 31.23 34.21 31.51 31.31 33.93 38.04 37.21 37.02 36.46 31.56 28.95 26.04 27.87 31.66 27.86 30.26 31.32 29.74 27.15 27.72 29.06 31.04
47.32 46.17 45.16 45.18 45.91 45.05 42.75 38.44 34.62 36.72 30.56 32.59 34.18 34.83 34.07 32.10 31.63 37.05 37.41 34.42 33.74 32.91 28.80 29.94 29.53 31.63 33.01 34.88 35.22 35.69 34.84 27.63 28.84 29.17 29.93 29.80 28.95 29.26 30.02 28.20 29.37 24.85 29.16 28.96
47.16 46.55 45.71 44.89 44.97 44.75 40.30 35.83 35.10 36.67 35.39 35.69 33.80 33.28 32.34 32.36 33.46 34.71 32.71 32.47 33.76 34.49 30.56 30.95 28.70 31.42 32.68 31.69 33.54 33.06 33.25 26.94 28.57 25.81 29.11 29.09 27.20 29.82 30.33 30.03 30.02 29.72 30.23 30.39
46.51 45.68 45.27 45.10 44.76 43.90 39.72 43.04 42.28 38.63 34.39 33.34 32.02 32.74 33.56 34.06 35.46 34.74 36.18 35.65 33.22 32.13 32.20 35.46 35.88 36.46 35.62 34.85 32.43 30.26 29.26 28.56 25.15 22.35 26.64 26.17 23.35 28.25 30.09 30.78 32.18 32.41 28.72 33.52
45.17 44.85 44.65 45.06 44.72 44.23 44.19 43.50 42.08 37.41 31.90 33.06 33.04 34.50 35.76 34.71 35.44 33.26 34.93 35.89 33.48 34.43 39.18 38.41 37.18 35.49 34.09 33.86 33.06 33.72 28.77 27.84 26.86 23.96 24.56 16.18 28.43 33.90 33.02 29.50 32.32 32.19 32.06 32.44
45.20 44.45 43.59 44.09 44.14 44.78 43.50 44.82 41.04 38.80 32.90 34.46 34.02 34.82 34.48 35.41 35.92 34.23 34.34 34.95 36.56 39.74 36.50 32.19 28.74 28.79 29.99 30.45 32.44 31.41 33.25 30.23 25.78 23.52 23.58 26.30 26.84 28.96 28.12 27.25 26.22 29.75 28.68 30.31
44.60 44.49 43.49 44.16 44.55 45.39 44.52 43.69 44.10 40.45 35.65 33.34 36.08 34.36 35.85 33.04 33.11 32.95 33.37 36.90 38.94 38.13 35.08 31.04 23.94 22.13 26.35 25.41 28.09 33.63 31.97 32.74 29.41 25.60 19.41 17.79 27.64 31.09 33.29 30.65 23.57 28.53 28.22 28.32
44.33 44.06 43.91 44.57 45.34 46.18 44.18 42.21 43.82 40.78 36.52 35.91 36.38 34.17 33.80 36.37 34.61 32.89 33.49 34.19 34.39 37.26 32.72 28.92 26.76 25.11 29.85 24.95 25.02 25.43 26.26 26.16 24.36 24.83 23.67 25.75 26.95 31.85 32.71 22.97 23.79 28.31 27.77 27.45
44.02 43.92 44.20 45.24 45.83 45.02 42.93 41.26 43.15 40.94 37.24 36.36 37.57 37.27 35.48 35.56 36.29 31.87 33.82 32.82 33.14 33.21 29.00 29.52 27.60 28.47 29.66 27.65 27.54 27.32 26.77 25.04 24.85 26.34 22.73 19.30 31.46 31.47 26.72 27.44 29.96 28.89 28.20 27.36
44.31 43.82 44.36 45.14 45.17 44.54 43.08 40.16 42.60 43.16 39.94 36.14 39.88 39.36 39.32 38.70 38.90 36.81 35.52 33.17 32.14 34.88 32.10 32.41 32.27 29.54 30.94 28.97 24.29 30.92 26.00 28.48 28.21 26.69 25.55 29.79 30.25 28.40 29.82 31.14 29.54 28.66 27.23 26.81
43.98 44.50 44.74 44.62 44.59 43.69 43.21 42.52 42.16 42.53 38.65 37.42 38.00 36.24 40.59 42.62 40.93 42.08 35.74 36.73 35.68 34.92 37.57 36.73 35.04 28.84 35.03 28.55 28.47 28.23 30.02 33.14 29.42 28.72 29.02 29.33 29.60 29.82 30.13 29.68 28.25 27.90 27.91 26.82
44.47 44.75 44.38 44.43 44.05 43.46 43.35 41.80 42.75 42.26 39.25 32.94 34.02 41.36 38.24 41.93 42.88 41.84 42.35 39.11 39.45 39.02 39.99 36.61 35.57 32.59 35.21 31.15 31.42 32.38 32.57 33.23 29.17 27.49 29.26 29.61 29.76 30.18 29.41 28.36 28.36 27.23 27.23 26.54
44.48 44.38 43.94 43.69 43.25 43.14 43.20 42.57 41.65 41.58 39.81 32.88 32.96 38.83 39.75 41.34 41.85 40.52 41.41 40.37 38.56 38.44 35.61 35.00 32.73 35.66 34.72 34.88 34.63 30.48 33.41 30.52 28.82 28.18 31.13 30.89 29.15 30.24 30.39 27.88 26.72 27.16 25.98 25.27
44.42 43.91 42.87 41.95 41.02 39.43 42.29 36.42 42.52 42.35 42.64 36.84 30.62 37.20 37.22 39.74 41.37 40.33 39.67 39.69 39.02 39.18 36.67 34.50 35.36 35.35 36.15 31.68 29.13 29.28 31.20 32.12 33.72 29.94 32.86 31.26 30.81 30.44 29.83 27.66 26.91 27.10 26.39 26.11
44.01 43.08 42.99 42.24 42.06 42.77 38.53 36.81 40.05 40.36 42.25 38.67 31.39 31.52 37.29 38.75 39.80 40.44 39.99 40.19 38.99 38.65 36.88 35.24 35.33 35.03 37.49 33.75 29.32 29.84 31.61 33.01 32.43 33.30 31.79 27.83 29.40 26.90 28.77 28.45 28.11 28.02 27.44 27.04
43.71 43.39 42.78 42.06 42.00 42.01 38.90 40.90 39.88 40.30 39.68 39.80 31.31 29.67 33.53 38.70 36.40 35.59 40.35 37.98 39.04 37.00 36.37 36.53 34.93 35.23 36.38 29.69 31.00 31.59 31.78 32.26 32.30 32.64 33.80 32.61 30.73 29.81 28.23 28.37 27.84 26.22 25.59 25.54
42.68 41.29 40.07 41.81 39.47 37.43 38.64 40.81 39.17 42.47 39.78 33.17 33.30 29.06 27.72 38.40 36.85 38.60 38.07 39.10 32.59 37.57 34.52 34.62 34.47 31.92 28.25 30.46 31.59 30.43 31.27 31.34 30.60 31.65 32.43 31.27 29.54 28.19 28.28 28.06 27.60 25.95 25.02 24.78
39.59 39.34 35.66 33.27 37.90 40.26 39.52 38.70 37.02 36.04 35.75 36.47 32.08 36.22 29.82 36.21 35.78 34.06 34.23 35.53 32.49 28.87 32.12 35.36 31.49 31.10 32.12 33.08 34.55 34.84 34.68 33.81 33.03 29.13 27.25 28.82 28.18 28.34 27.79 27.71 27.96 27.03 25.35 24.55
38.74 34.78 33.06 39.04 40.05 38.60 34.77 30.73 30.77 31.99 29.16 34.03 34.35 35.38 32.13 37.95 32.60 32.63 35.69 31.96 32.69 26.13 29.68 29.36 27.50 27.22 28.69 33.02 33.58 35.33 35.26 34.52 33.91 33.93 33.50 32.83 31.49 29.06 27.27 25.97 25.74 25.27 24.58 22.99
38.13 37.93 39.85 39.60 35.34 31.71 27.60 26.21 28.22 28.72 26.92 32.22 32.70 33.72 36.46 36.34 39.06 34.62 33.48 29.44 30.28 22.18 32.85 27.65 24.32 27.44 30.24 31.30 31.46 32.74 33.26 32.68 32.47 33.44 33.05 32.06 30.21 29.05 26.98 25.19 23.85 22.50 20.23 17.69
40.13 35.96 31.32 31.40 29.17 23.13 20.92 19.48 24.50 26.91 31.31 32.50 33.70 32.16 36.44 36.56 38.37 32.58 30.69 24.86 27.42 32.68 27.22 26.74 28.80 28.23 28.67 28.33 29.26 29.71 30.75 30.73 30.40 29.61 29.49 28.55 26.84 25.90 24.24 21.60 19.34 18.74 17.14 16.32
31.73 27.95 21.78 24.95 22.68 25.18 26.71 28.17 29.34 30.77 31.97 33.53 34.61 30.90 34.59 33.72 32.59 31.26 24.53 28.89 28.62 24.50 22.86 24.03 28.71 27.85 27.89 28.15 28.68 27.90 26.35 26.29 26.06 25.30 23.75 20.96 18.37 17.37 17.78 17.72 16.61 15.22 14.08 13.80
29.43 29.45 22.39 24.90 28.60 30.28 31.17 32.42 32.98 31.10 33.61 35.72 34.33 33.67 35.45 31.56 28.32 28.91 26.00 23.43 22.75 26.46 27.73 31.31 30.57 28.13 27.24 26.32 26.23 24.58 22.82 21.53 21.25 20.74 17.91 15.62 15.03 15.15 14.47 15.54 17.33 15.15 12.79 13.33
31.55 29.54 27.53 30.28 30.72 30.18 31.92 32.82 31.92 35.53 36.06 36.33 35.89 30.52 29.04 27.13 28.66 24.41 23.67 23.50 24.27 29.69 31.72 30.22 28.19 26.26 26.31 25.44 24.17 22.79 22.08 20.99 19.66 18.47 17.62 16.59 14.83 15.40 15.63 15.13 14.91 14.20 14.96 14.28
28.81 28.72 30.65 31.12 31.33 30.47 31.19 34.03 33.80 37.77 35.21 30.83 31.39 24.33 22.86 30.07 25.34 22.82 28.67 28.91 31.18 29.92 28.06 28.17 29.10 26.96 25.26 22.74 21.14 19.08 18.91 18.96 18.99 18.57 18.74 18.27 17.89 15.75 16.53 16.07 15.91 17.49 17.42 16.87

GFSNW_sfc_wetblb_105.txt.gz
Wetbulb
49.43 49.06 48.59 48.10 47.03 45.48 42.12 42.51 36.22 42.24 45.01 33.94 35.32 34.23 37.31 38.30 39.14 40.81 39.11 39.43 37.74 36.22 37.41 36.22 36.32 37.07 37.91 40.20 40.66 37.37 40.36 36.57 31.93 34.22 38.39 39.30 38.26 37.00 36.22 30.25 29.05 31.99 31.51 31.99
47.49 48.67 48.61 48.01 47.60 46.21 44.74 39.29 36.53 42.67 42.32 31.72 32.32 36.92 37.41 38.43 37.31 38.01 37.67 36.83 38.91 39.14 36.37 32.51 35.80 37.14 38.85 40.11 39.89 38.05 38.78 33.79 29.11 30.47 34.90 37.92 35.41 37.00 37.14 36.32 34.96 29.92 27.70 30.04
48.23 48.33 48.42 47.93 47.45 46.61 43.74 39.23 33.53 34.63 36.41 37.80 36.18 33.55 34.11 34.48 39.99 38.61 39.41 37.63 38.85 36.89 35.28 37.98 35.00 34.85 37.38 39.01 39.16 36.82 37.55 35.01 32.55 27.54 30.63 35.73 31.63 34.04 35.52 33.63 29.43 30.30 31.31 33.03
45.59 48.11 48.14 47.94 47.37 46.18 42.29 40.35 37.13 39.14 31.44 33.59 36.38 36.93 35.65 34.28 33.90 38.81 39.65 36.67 36.73 35.79 31.81 33.57 33.33 36.19 35.90 37.56 36.69 37.25 37.25 29.94 32.61 32.41 32.57 32.66 32.45 32.76 33.34 31.34 32.22 27.86 30.92 31.38
44.84 48.34 47.66 47.23 47.18 45.88 39.95 37.52 37.68 39.91 37.83 37.72 34.98 35.10 34.74 34.96 36.11 36.91 35.37 34.92 36.62 37.41 33.52 33.83 32.54 34.98 35.36 33.46 35.89 35.72 35.62 30.56 31.53 29.79 31.95 31.58 29.55 32.13 32.67 32.33 32.53 32.43 32.51 31.65
44.86 47.50 47.01 46.65 46.72 44.71 39.34 43.34 44.16 40.11 36.54 36.37 33.89 34.91 35.89 36.38 37.93 37.73 38.72 37.86 36.49 35.47 35.82 38.25 39.81 39.94 38.37 37.69 35.79 34.18 32.96 31.69 28.61 25.92 29.12 28.89 25.86 30.69 32.17 32.97 34.32 33.70 29.66 34.81
45.14 47.14 46.25 45.97 46.04 45.03 45.15 44.39 42.89 37.98 33.45 34.31 34.21 36.21 37.62 36.48 37.57 34.93 37.52 39.35 37.05 38.30 41.36 40.69 39.54 38.41 37.18 36.93 35.85 37.15 31.43 30.63 29.61 27.31 27.17 19.01 30.56 35.98 34.33 32.37 34.11 35.54 34.52 34.66
46.70 46.63 46.06 45.76 45.68 45.28 43.68 44.48 42.31 39.34 34.85 35.78 36.17 36.82 36.73 37.82 38.42 37.02 37.14 38.03 40.65 41.95 39.11 33.62 29.82 29.89 30.44 31.47 33.60 33.66 35.28 32.50 28.55 24.96 25.09 29.34 30.22 31.90 29.58 27.84 29.21 30.83 31.05 32.88
46.51 45.78 45.40 45.50 45.45 44.79 44.20 43.94 45.70 41.86 36.92 35.19 39.16 36.87 38.04 35.28 34.75 35.34 36.21 39.98 42.71 40.86 35.94 32.68 25.96 24.16 28.65 26.84 29.66 35.85 33.69 35.30 31.00 28.12 22.80 19.90 29.51 33.08 36.19 33.20 26.26 30.83 30.27 30.32
45.08 44.88 44.62 44.90 44.81 44.57 45.02 43.22 47.43 42.18 37.73 39.28 39.70 36.32 36.50 39.25 37.30 34.72 36.36 36.78 36.53 39.30 33.36 29.80 28.23 27.53 32.61 26.64 25.90 26.65 28.40 29.43 27.22 27.39 25.69 26.63 30.42 34.33 35.46 23.67 24.73 29.45 29.10 28.29
44.45 44.35 43.91 44.87 44.97 45.61 44.96 42.86 47.10 43.32 39.85 38.79 40.89 40.42 38.27 38.94 39.03 34.67 37.48 35.08 35.38 34.14 30.40 30.56 30.19 30.15 31.80 30.42 30.50 29.68 28.20 27.37 26.96 29.30 25.14 22.64 33.47 33.48 26.72 28.15 31.17 29.51 28.85 29.03
44.43 43.74 44.69 45.21 45.75 45.96 45.08 41.86 45.42 45.43 41.44 38.37 42.79 42.19 42.98 41.44 41.58 39.90 38.69 36.79 36.13 38.13 34.46 35.30 35.24 31.58 33.03 31.11 25.98 33.85 28.72 30.83 31.11 28.53 27.60 30.04 32.13 29.58 30.73 31.93 30.63 29.55 28.94 28.93
44.22 44.31 44.97 45.12 45.73 45.78 44.30 43.82 44.13 43.95 40.32 39.53 40.24 38.59 42.68 45.04 44.30 45.63 36.93 39.42 39.08 37.46 41.78 39.99 37.93 31.29 35.65 29.78 29.68 30.27 32.72 35.42 30.87 30.28 29.30 29.32 29.82 31.15 31.42 31.62 29.79 29.96 30.06 28.52
43.97 44.50 45.24 45.09 45.26 45.35 44.05 44.04 45.13 44.23 41.36 35.02 35.20 43.42 40.63 44.78 45.07 44.23 45.02 42.20 42.81 41.67 41.76 39.61 38.38 34.14 38.02 34.24 34.63 34.35 35.63 34.91 30.58 27.98 29.09 30.53 30.15 30.70 30.47 29.59 29.71 28.60 28.82 28.24
44.47 44.64 44.74 44.74 45.04 44.33 46.24 44.99 45.61 45.57 41.67 34.41 34.72 40.63 42.36 43.66 43.70 42.71 43.32 42.05 40.39 39.09 37.16 37.53 36.56 38.69 36.48 36.80 36.72 33.14 36.69 32.93 30.06 31.06 33.26 32.68 29.77 30.92 30.91 29.23 28.39 28.76 28.20 27.23
44.50 43.76 43.61 43.63 43.87 43.84 44.80 39.13 45.53 45.97 45.58 37.99 32.25 39.84 39.26 41.98 43.05 42.04 41.26 42.01 41.92 42.22 39.31 37.72 38.58 39.06 37.73 32.55 30.23 31.38 33.94 35.54 35.92 32.06 35.03 33.51 31.75 31.73 31.69 29.37 29.02 29.78 29.09 29.04
43.93 43.21 43.11 42.87 42.13 44.85 41.68 39.32 41.34 41.49 46.36 39.86 32.50 32.81 38.90 40.99 41.33 42.61 41.63 42.34 41.81 41.32 40.09 38.15 38.08 37.58 38.56 35.31 30.50 32.16 34.11 33.56 33.63 34.28 33.42 29.00 31.07 28.68 31.46 30.87 30.28 30.02 29.81 29.63
43.56 43.38 43.61 43.67 43.50 42.85 41.10 42.38 42.26 42.95 44.58 42.05 32.87 31.65 34.62 40.63 37.88 37.31 42.50 40.48 41.96 39.68 39.23 39.30 37.72 37.15 38.47 32.03 32.80 32.99 33.50 32.70 32.99 33.20 35.05 33.97 32.96 32.17 31.20 31.36 30.49 28.46 27.88 28.24
42.53 41.97 42.25 44.04 42.73 40.71 40.44 40.93 41.44 46.31 43.00 36.31 35.42 30.57 29.09 40.62 37.82 38.78 39.85 41.00 35.34 39.86 37.19 37.03 36.59 34.29 30.22 33.32 31.71 31.73 32.92 32.18 31.56 33.52 33.68 33.19 31.23 30.51 30.04 30.26 29.59 28.51 27.59 27.56
39.91 41.14 39.93 36.49 39.82 40.30 41.53 42.06 40.58 40.51 39.93 40.58 36.02 38.51 31.19 37.49 37.17 35.94 36.42 38.50 34.81 30.03 34.45 37.81 33.33 32.73 35.10 35.96 35.44 34.70 33.98 34.44 34.59 30.36 29.20 29.97 29.28 29.65 30.07 29.88 30.39 29.93 28.39 27.56
40.63 37.91 34.91 40.65 40.25 41.54 39.38 34.12 33.64 34.75 31.67 37.25 37.19 36.84 33.79 39.90 33.81 33.65 37.90 33.55 34.30 27.56 31.57 31.27 29.40 29.11 32.31 34.54 34.64 36.10 35.63 34.85 34.44 35.32 34.64 34.32 33.00 31.27 30.40 29.66 29.48 28.63 27.84 26.36
39.97 40.09 41.85 42.41 38.88 35.53 30.74 29.24 31.44 31.46 28.89 34.93 34.98 36.25 37.40 38.38 41.67 35.63 35.51 31.06 32.80 23.74 36.39 30.15 25.90 29.93 32.71 33.01 33.48 33.68 34.36 34.49 34.18 35.18 34.14 34.13 32.98 32.07 30.43 28.65 27.43 26.21 24.31 20.89
42.56 39.02 33.89 34.99 32.65 26.89 26.07 22.50 27.31 29.10 33.13 34.82 36.39 34.33 36.93 38.48 39.33 34.48 32.80 26.60 28.51 35.77 29.02 27.63 29.59 30.30 31.97 33.00 33.62 31.78 33.26 33.55 33.95 34.23 33.74 32.30 30.87 30.44 28.51 26.13 23.85 22.13 20.96 20.70
35.93 30.80 24.70 28.51 26.69 28.26 30.08 31.21 32.55 32.43 34.84 36.44 36.78 33.75 35.39 37.25 33.05 33.05 27.02 30.34 31.60 25.65 24.81 24.30 31.22 29.92 30.24 31.83 32.82 31.46 30.24 31.42 31.00 30.28 29.29 27.52 26.11 24.20 23.22 22.34 21.82 19.36 18.19 17.98
31.97 32.08 24.31 26.79 30.58 32.60 32.60 33.92 32.89 33.23 37.68 37.29 36.28 36.19 36.14 32.57 28.77 29.91 27.72 24.85 23.72 27.42 28.89 30.47 32.09 30.67 29.68 29.67 29.93 28.50 27.71 27.53 27.00 26.01 23.71 22.39 21.06 20.27 20.09 20.41 21.47 19.52 17.30 17.64
32.82 31.35 29.30 32.48 32.31 30.34 32.34 32.88 32.26 36.05 37.69 39.24 37.84 32.19 30.81 28.74 30.18 26.26 24.83 25.59 25.73 29.89 30.02 30.51 30.30 29.17 28.78 28.78 28.37 27.53 26.73 26.24 25.14 23.39 22.09 20.85 19.45 19.89 20.74 19.79 18.10 17.30 17.94 16.65
30.35 29.89 32.34 33.97 33.24 31.79 31.79 36.06 35.81 40.51 37.64 32.15 33.74 27.10 24.50 32.12 27.68 25.22 30.07 28.85 30.36 29.44 29.54 30.45 30.02 28.53 28.36 27.48 25.90 24.65 24.65 24.62 23.83 22.97 22.07 20.91 21.99 19.41 18.78 17.74 18.37 20.30 20.21 20.04

GFSNW_sfc_wetblb_108.txt.gz
Wetbulb
48.38 47.49 48.95 50.15 49.47 48.23 44.00 41.98 33.88 43.18 45.62 32.95 34.03 33.36 39.06 41.94 41.79 43.17 40.17 39.94 39.37 38.22 38.32 36.99 36.98 36.27 38.59 44.28 44.11 38.38 41.30 36.92 31.44 34.31 40.50 41.01 39.94 36.68 35.81 31.05 28.92 31.66 30.41 30.07
47.76 46.61 45.41 49.33 49.03 47.75 43.34 38.31 35.77 42.82 42.61 29.81 31.45 36.55 38.17 40.49 39.40 39.77 38.88 37.65 39.77 41.04 37.37 33.50 36.93 38.53 40.31 41.18 39.81 37.57 40.05 34.45 28.05 29.91 35.38 38.42 35.45 37.44 37.86 36.07 34.83 28.53 25.45 28.16
47.24 47.54 46.42 47.89 48.48 47.54 43.63 37.94 31.69 34.03 35.62 36.08 35.16 33.95 35.36 36.02 40.66 39.57 40.32 39.07 40.58 38.20 36.29 38.49 35.31 36.75 38.79 40.82 40.90 38.54 39.26 35.47 31.93 27.16 29.43 35.34 32.76 35.04 36.37 34.75 28.47 29.20 29.78 31.56
46.33 46.44 47.80 47.87 48.25 47.61 42.73 36.66 35.25 37.28 28.47 30.49 34.87 37.70 36.87 35.15 34.45 39.52 40.54 37.65 38.02 36.43 32.71 34.49 34.48 37.38 37.27 38.98 36.94 38.30 37.83 30.55 33.89 34.78 33.90 33.80 34.01 33.45 34.15 31.99 32.53 28.55 30.92 31.24
45.91 46.10 45.36 46.04 48.13 47.57 39.77 35.52 36.62 39.40 38.01 36.37 34.02 36.08 35.72 35.26 36.12 36.95 35.54 36.00 38.02 37.85 34.57 35.61 33.10 36.35 36.04 34.12 36.30 35.90 37.37 29.87 32.80 30.03 33.84 33.08 30.52 32.51 32.85 33.14 33.22 32.45 32.39 31.43
46.13 46.20 45.98 45.32 47.96 45.28 37.39 41.94 44.16 40.45 37.61 35.72 34.11 34.91 35.91 36.53 38.68 39.66 39.95 39.09 37.73 36.32 37.61 39.94 40.51 41.13 40.40 38.42 34.35 33.83 33.48 32.03 28.82 25.29 31.75 29.64 25.25 30.46 31.86 32.93 34.39 33.93 29.02 32.71
45.38 46.44 45.17 46.21 47.29 45.73 43.87 45.30 44.03 37.90 33.23 35.30 35.21 36.63 37.28 36.82 37.85 35.85 39.88 40.45 37.37 39.31 43.26 41.41 40.75 39.85 38.24 37.76 37.52 38.44 32.61 31.64 30.32 26.22 27.61 18.19 30.84 35.70 34.92 32.09 33.18 34.07 34.15 33.77
45.39 44.22 45.63 47.37 47.04 46.65 44.45 45.08 41.64 38.59 34.71 36.52 36.72 36.96 36.73 38.33 38.98 36.89 38.18 38.87 41.38 42.71 39.17 32.73 28.71 29.02 30.02 31.99 34.78 34.58 35.77 32.46 27.23 23.89 23.67 28.81 30.68 32.22 29.60 28.13 28.64 31.31 31.06 32.57
45.29 45.14 44.44 46.51 46.64 46.93 43.64 43.68 44.38 40.54 34.20 35.21 39.35 36.92 37.71 35.84 34.54 35.44 37.21 41.03 43.34 41.58 36.98 32.17 24.87 22.63 27.05 25.80 29.31 35.05 34.28 34.88 30.63 27.39 22.47 20.26 28.78 33.78 36.72 33.97 24.69 30.13 29.67 28.94
45.13 45.69 46.53 46.05 46.33 45.87 43.43 42.98 46.38 41.84 34.79 38.92 39.56 35.65 35.96 38.88 37.25 34.73 36.05 36.71 36.76 40.28 34.44 29.70 27.34 26.32 32.98 25.56 25.41 26.18 27.69 29.29 26.16 26.70 25.35 25.82 31.77 34.83 36.11 23.70 23.35 28.82 28.04 28.01
46.05 46.23 45.88 45.83 45.44 45.46 43.39 42.92 45.72 42.09 35.68 39.10 40.08 41.26 37.85 39.77 38.80 33.77 36.82 35.03 36.06 34.29 30.45 29.89 30.51 29.47 30.97 30.11 31.06 29.01 27.50 25.93 26.04 28.62 25.70 22.05 33.23 33.92 28.20 28.95 30.88 29.00 27.94 28.67
44.87 44.83 45.06 44.67 44.31 44.27 44.82 40.50 45.81 46.36 39.23 38.09 43.59 42.82 42.95 42.01 42.11 39.89 39.73 36.93 36.38 37.47 33.27 33.78 33.60 31.13 33.34 31.45 25.82 34.77 28.41 30.63 29.74 27.40 26.34 30.06 31.59 29.77 31.59 33.48 30.24 28.87 27.57 27.93
44.56 44.32 44.80 45.06 44.36 44.68 44.92 41.48 44.31 43.45 39.81 38.75 39.30 37.97 42.52 45.18 44.94 46.85 36.99 39.15 40.53 38.53 42.29 40.14 36.93 31.71 34.79 29.03 30.53 31.80 33.53 36.16 30.02 29.52 28.83 28.48 29.54 30.95 31.28 31.43 29.19 29.49 29.38 28.25
44.10 44.42 44.72 45.08 44.94 45.10 45.16 41.25 45.46 44.24 40.02 33.75 34.76 43.55 40.78 45.12 45.08 45.09 45.49 42.89 42.99 42.47 41.85 38.88 37.31 33.64 38.41 33.21 34.36 33.18 34.92 35.35 30.52 28.10 29.50 29.77 29.82 30.30 29.88 29.16 29.66 28.78 29.13 28.15
44.42 44.44 44.50 44.32 44.57 45.29 45.36 43.87 45.57 45.83 40.28 33.72 33.84 40.68 42.42 44.02 43.96 42.60 43.37 42.43 41.47 39.66 37.06 37.57 34.97 37.30 36.79 37.78 36.80 32.64 36.56 33.24 30.71 31.31 32.42 32.39 29.54 30.32 30.87 28.72 28.05 28.90 28.31 27.73
44.27 44.61 44.80 45.09 45.39 45.37 44.01 37.49 45.35 46.62 44.91 37.79 31.59 39.81 39.93 42.35 43.08 42.02 41.60 41.95 41.88 40.56 38.14 36.53 37.96 40.46 37.13 32.85 30.67 33.70 36.18 37.03 37.10 33.57 35.54 32.83 31.51 31.86 31.72 29.81 29.94 30.34 29.51 29.25
44.11 44.19 44.70 45.04 44.77 44.51 39.62 38.46 40.86 41.80 45.92 40.81 32.40 31.98 38.81 41.47 41.35 41.43 40.76 42.38 40.78 40.48 37.63 36.24 36.45 36.60 37.42 35.15 30.36 33.79 34.79 35.25 35.42 34.75 32.76 28.68 30.36 28.56 31.35 31.17 30.90 31.05 30.51 30.09
43.97 44.07 43.87 43.61 43.39 42.36 40.08 41.73 43.01 43.02 44.64 41.91 33.50 31.57 34.09 40.85 36.60 35.66 41.24 38.17 39.61 39.06 37.72 37.48 35.81 36.61 36.53 31.08 33.74 33.97 33.48 33.21 33.14 33.28 35.48 33.11 33.16 32.55 31.40 31.28 30.67 28.86 27.95 28.55
43.72 44.22 44.36 43.36 42.92 39.59 39.41 40.36 41.67 47.50 42.69 35.48 33.92 29.63 28.58 40.14 37.72 38.88 38.25 39.65 34.83 38.57 35.51 35.51 35.78 34.31 29.77 33.69 32.66 32.32 32.06 31.73 32.13 34.07 33.67 32.85 31.63 30.90 30.58 30.29 29.48 28.07 27.48 28.01
41.82 39.66 39.71 37.26 39.53 40.00 41.18 42.33 40.07 40.44 39.02 39.55 34.62 38.03 31.64 37.04 37.95 36.23 35.53 37.01 33.74 29.60 33.68 37.33 32.71 31.90 35.85 37.39 35.80 35.00 33.93 34.30 33.89 31.12 29.67 30.64 29.53 29.56 29.73 29.71 30.44 29.51 28.16 27.55
40.09 37.77 35.71 40.30 40.28 42.07 38.96 35.06 33.32 34.64 31.79 36.50 36.95 36.03 33.36 39.46 34.53 33.63 37.04 33.01 33.63 27.30 31.57 30.62 29.23 28.61 32.84 36.39 35.32 35.38 35.38 34.93 34.53 35.34 34.29 33.77 32.47 30.89 30.27 30.04 30.16 29.14 28.35 26.40
39.93 40.63 42.21 42.19 38.70 35.29 30.87 29.54 31.57 31.63 29.07 34.99 35.08 35.72 37.34 37.87 40.52 34.97 34.40 30.69 31.97 25.35 35.50 29.74 25.71 30.29 33.69 34.65 34.68 35.20 34.97 33.92 34.19 35.38 34.22 33.83 32.53 31.98 30.29 28.98 27.73 24.66 21.75 20.27
42.56 38.89 34.98 34.33 32.75 26.93 26.03 22.52 26.99 29.12 33.49 36.24 37.51 35.01 36.91 37.74 38.44 34.20 32.20 27.52 27.78 34.91 28.42 26.55 28.79 31.46 32.96 33.57 33.42 33.39 34.22 33.64 34.43 33.67 33.49 32.17 31.32 30.36 28.54 24.48 21.89 21.88 20.52 20.39
35.50 31.21 25.60 29.13 26.76 28.40 30.18 31.58 31.89 34.89 37.00 37.66 37.84 35.19 35.49 36.92 32.54 32.94 27.20 31.02 30.99 24.98 24.12 25.71 29.49 30.51 32.48 32.34 32.79 32.65 32.15 32.68 32.74 31.06 28.56 26.73 25.30 23.68 22.94 22.43 21.95 20.02 18.16 17.55
32.52 32.42 25.33 27.30 31.11 33.17 33.79 35.16 35.06 36.15 39.50 38.29 36.35 35.67 35.11 31.47 28.37 30.76 28.75 25.03 22.97 26.60 26.97 29.54 31.58 31.58 31.69 31.31 31.20 30.77 30.34 29.61 29.12 28.22 25.86 23.91 22.58 22.49 21.74 21.23 20.77 19.18 17.31 17.90
32.95 31.93 29.29 32.85 31.71 30.73 31.89 32.98 33.49 38.22 39.31 40.01 37.53 32.48 30.41 28.15 29.68 26.11 25.14 25.69 24.87 27.78 28.59 30.54 30.91 30.23 30.07 29.82 29.44 29.21 29.39 28.66 26.71 24.93 23.58 22.65 21.73 20.75 21.64 21.18 18.36 17.32 17.76 15.88
31.46 30.11 32.25 33.16 32.96 31.32 32.07 35.33 35.80 39.83 37.63 33.02 33.19 27.24 26.32 32.32 27.74 26.90 30.67 28.39 28.86 29.00 29.11 30.73 30.99 29.70 29.08 28.59 27.65 27.15 26.88 25.68 24.53 23.80 22.82 22.11 23.53 20.83 18.80 16.96 18.00 19.41 18.92 17.79

GFSNW_sfc_wetblb_111.txt.gz
Wetbulb
48.01 48.32 49.09 49.22 49.56 49.11 44.93 41.19 32.82 43.33 45.76 34.01 32.94 32.01 35.99 41.14 40.02 43.72 41.70 40.12 38.18 36.38 37.46 35.51 35.34 35.58 38.77 41.71 41.69 38.24 40.21 35.64 29.17 32.67 39.44 41.30 38.93 35.00 34.82 27.89 27.02 29.95 29.05 29.44
47.08 47.61 47.63 46.60 48.79 49.05 41.50 36.77 34.71 43.31 42.75 28.83 30.28 33.71 36.01 39.71 39.33 40.07 38.63 37.13 38.75 39.05 35.41 32.37 35.53 36.56 41.26 41.20 39.33 38.91 39.13 32.31 26.89 28.17 33.49 36.92 34.04 35.89 36.86 35.51 33.41 27.20 23.71 27.61
46.09 46.65 47.18 46.96 47.53 48.56 43.95 35.91 29.05 34.21 34.51 34.47 33.32 32.10 32.96 35.18 40.51 39.45 40.31 38.47 39.15 36.41 34.42 37.22 33.84 35.43 38.73 40.83 40.28 40.65 39.93 34.89 29.53 24.21 28.53 32.57 29.94 33.30 35.81 33.24 24.75 26.02 26.96 31.33
45.51 45.89 46.43 47.23 47.17 47.91 43.00 37.06 33.12 32.26 26.94 29.64 33.03 35.36 34.97 32.90 34.54 39.09 40.05 37.05 36.17 34.43 30.73 33.06 31.79 36.07 37.53 38.74 38.53 37.94 36.66 28.56 32.58 34.03 34.76 33.88 32.40 32.90 34.04 32.43 31.43 25.36 29.42 29.23
44.59 45.03 46.24 47.04 47.60 48.12 38.63 32.38 34.19 37.57 32.09 32.62 31.61 32.62 35.63 33.29 34.99 36.39 34.28 34.18 36.55 36.21 32.37 33.69 30.06 35.77 34.87 32.73 34.83 35.64 36.30 28.44 31.44 28.82 33.72 32.43 29.29 31.69 31.26 31.99 32.12 31.52 30.35 28.42
44.58 44.80 45.71 46.27 47.21 45.51 34.56 38.99 39.84 37.04 33.23 33.28 30.59 29.43 32.14 34.68 36.70 38.64 38.66 36.57 36.04 35.61 36.66 37.92 37.79 38.51 39.23 37.32 32.96 31.26 30.76 28.87 27.34 23.46 30.98 30.27 22.84 29.30 31.44 32.41 31.67 32.29 25.92 30.56
44.33 44.91 46.17 46.14 46.31 45.52 41.49 40.55 38.28 35.56 29.84 32.32 31.62 33.75 33.80 35.36 36.79 35.33 38.68 38.62 35.97 39.43 42.08 39.66 39.58 38.46 37.63 36.23 35.79 36.68 30.84 28.82 27.58 24.57 24.57 16.83 28.43 34.28 34.02 30.51 29.75 31.54 31.55 31.10
44.69 45.25 45.67 46.02 45.70 45.84 42.21 43.58 40.43 36.97 30.27 34.00 34.51 34.78 34.59 36.04 37.83 37.02 37.51 40.03 41.42 41.65 37.26 30.28 26.97 26.37 28.52 31.69 35.33 34.75 35.36 29.88 24.14 20.75 21.63 26.87 29.08 31.41 27.43 24.55 25.85 29.19 28.77 30.41
44.77 45.28 45.86 45.95 45.63 46.09 43.86 42.59 43.08 38.48 33.36 30.17 36.85 34.34 36.11 33.44 33.56 34.25 35.59 40.84 40.97 38.34 30.43 26.56 23.72 20.75 24.80 24.30 28.53 35.03 33.51 32.87 25.16 24.07 18.89 15.27 24.29 32.94 34.96 32.94 19.45 27.87 27.09 26.62
45.30 45.20 45.01 44.08 46.49 47.24 43.76 41.29 43.12 40.09 32.97 35.49 37.88 35.05 34.47 38.52 35.47 32.61 33.17 33.07 33.73 35.99 26.63 23.35 24.12 25.03 30.81 23.36 24.34 24.48 25.46 25.70 23.93 23.06 20.51 24.29 32.10 34.45 36.15 18.03 18.93 27.53 28.26 26.39
44.40 45.01 45.25 44.16 46.81 46.69 43.52 41.09 43.38 40.91 33.85 35.37 39.70 39.70 36.96 38.16 36.44 30.94 32.36 29.57 30.90 30.10 26.45 27.78 27.26 27.80 28.73 27.94 27.02 26.77 24.86 23.52 22.46 23.76 19.81 17.76 30.56 31.79 25.42 24.51 28.70 27.72 27.93 25.76
44.44 45.00 44.91 44.95 46.02 46.26 44.08 39.44 43.78 45.38 36.38 36.99 41.44 41.02 41.93 41.13 41.42 35.01 33.99 32.61 32.30 32.60 29.56 29.13 30.56 28.56 27.80 28.51 23.94 33.52 21.73 24.83 23.95 25.22 23.19 29.21 30.53 28.85 32.31 32.03 27.71 27.87 27.41 27.53
44.78 45.05 46.10 46.07 45.81 45.55 44.04 41.04 42.37 41.91 37.63 37.34 36.97 36.66 40.79 43.46 42.24 43.89 33.25 34.89 37.63 35.49 37.72 33.29 32.13 28.28 29.92 23.77 23.99 28.02 32.09 34.92 24.97 25.39 26.81 27.28 28.94 31.08 31.27 30.63 28.82 28.55 28.66 27.37
45.22 45.48 45.28 45.02 45.11 44.66 44.24 40.50 42.89 42.36 39.45 31.66 32.40 42.43 39.71 43.45 42.99 42.57 41.42 39.29 39.47 38.09 37.21 32.53 31.77 28.76 34.56 28.32 30.34 27.61 30.89 32.40 27.57 26.95 28.18 28.71 29.16 29.71 29.41 29.12 29.11 28.08 26.50 25.40
44.61 44.75 44.54 44.44 44.61 44.24 43.33 42.64 43.15 44.43 38.67 29.48 31.20 38.20 41.17 42.34 41.61 40.87 40.58 38.96 36.05 34.26 31.39 29.96 28.82 32.12 31.34 33.07 31.15 28.38 33.37 28.11 23.95 25.17 28.68 28.59 27.34 29.61 29.74 28.00 27.38 28.37 26.88 26.78
44.33 44.65 44.87 44.58 44.53 45.24 40.70 32.96 42.97 43.98 42.38 32.94 28.50 36.79 37.95 40.51 40.87 39.74 38.79 38.04 36.11 34.88 31.93 30.59 34.64 37.52 31.77 26.23 25.67 32.56 33.73 34.19 34.15 28.56 30.82 28.87 30.29 30.50 30.50 28.47 28.95 28.52 27.78 27.08
44.23 44.36 44.03 44.02 44.79 41.98 36.42 35.44 38.87 41.17 41.19 33.50 27.81 28.40 36.16 39.66 39.65 37.61 36.71 38.08 35.72 35.40 31.06 29.79 30.97 32.05 33.80 26.30 23.94 30.78 33.02 31.70 30.93 31.12 30.11 28.04 29.67 27.96 30.52 30.79 30.28 30.44 28.89 28.20
44.40 44.61 44.82 45.02 44.67 43.05 37.72 39.24 41.92 40.93 39.49 37.36 28.18 27.71 29.80 38.13 32.12 31.15 36.28 33.50 34.63 33.32 31.70 31.58 30.59 30.91 31.12 24.96 27.83 31.17 32.10 31.85 31.42 32.15 32.09 30.66 31.58 31.01 30.43 29.89 29.16 27.60 26.72 26.75
44.10 44.18 44.36 41.47 40.22 36.89 36.25 40.81 41.43 43.24 39.16 30.00 29.61 25.60 22.47 36.06 32.98 33.66 32.99 34.33 27.50 33.31 29.14 29.78 30.12 26.12 24.14 29.07 28.44 28.81 29.98 31.16 31.36 32.76 31.53 31.29 29.47 28.98 27.94 28.08 27.85 26.11 25.47 25.25
43.86 40.88 37.13 32.58 37.78 40.41 40.89 39.78 34.61 34.72 34.31 35.06 29.28 33.02 26.74 33.29 30.49 29.60 29.69 29.96 27.68 24.89 27.66 31.42 25.02 23.58 32.52 33.53 31.69 31.42 32.78 33.32 33.78 29.22 28.00 28.81 27.39 27.05 27.02 27.36 27.68 26.93 25.49 24.44
37.22 35.28 32.72 36.99 40.67 38.73 36.11 28.75 28.61 30.10 27.75 31.62 32.81 30.91 28.83 35.01 27.18 27.36 31.24 26.83 26.86 22.58 25.28 24.03 22.48 22.17 26.65 31.70 31.27 32.10 34.10 33.73 33.59 32.62 30.09 29.31 28.98 27.21 27.03 27.53 27.35 26.67 25.43 22.07
38.19 37.91 39.43 38.84 36.85 31.98 27.82 26.05 27.81 27.50 26.10 30.04 29.46 30.73 32.68 32.97 36.30 27.79 28.49 25.68 25.37 22.75 28.02 22.72 17.19 27.27 29.48 29.94 31.71 32.22 32.58 32.79 33.07 33.15 31.40 29.21 29.45 28.89 27.59 25.49 23.84 21.67 20.27 17.72
39.13 36.73 33.17 31.93 28.98 19.21 20.08 17.52 23.51 24.03 29.02 30.90 31.36 28.44 30.75 32.35 32.54 25.68 25.39 17.40 18.28 28.44 17.41 18.65 24.02 30.44 32.28 32.41 31.82 30.93 31.65 32.24 31.98 31.07 30.15 29.01 28.09 27.14 24.87 21.58 19.79 19.29 17.57 16.13
31.15 27.47 16.58 22.21 18.82 23.67 26.73 29.19 26.66 28.70 30.09 32.10 31.09 28.27 27.15 26.91 24.36 23.91 17.40 22.34 24.72 14.81 14.23 20.99 26.29 30.72 31.08 31.79 32.03 31.48 31.51 31.38 28.67 27.51 26.02 23.60 22.11 21.54 21.76 20.96 19.99 18.20 15.49 13.26
28.81 28.74 19.53 22.13 27.78 28.03 31.01 28.67 29.51 30.64 32.93 31.20 28.53 27.54 27.41 23.25 17.89 23.76 22.89 16.70 14.78 17.70 22.59 26.01 29.63 31.08 30.61 30.69 31.08 30.25 28.35 26.28 24.31 23.96 22.45 21.13 20.83 19.53 18.32 18.52 17.36 16.65 15.16 12.98
30.07 29.30 25.36 27.09 24.73 27.48 30.26 31.05 31.16 33.62 30.69 29.92 29.26 25.42 20.42 19.99 23.11 21.16 16.92 21.16 19.06 23.39 26.56 29.23 30.20 29.18 29.32 29.13 29.27 28.68 27.37 25.77 23.08 21.82 22.37 21.09 19.60 18.50 18.17 16.54 15.58 14.29 13.56 10.24
28.97 26.80 31.63 31.77 29.34 29.65 30.32 32.40 29.32 33.95 29.51 26.66 25.92 19.32 22.41 24.93 21.99 22.93 24.13 20.77 26.09 26.95 27.63 29.30 29.47 28.53 27.85 27.28 26.16 25.47 23.93 22.64 22.08 21.37 21.15 20.78 20.71 18.38 17.37 15.28 16.24 17.55 14.84 11.04

GFSNW_sfc_wetblb_114.txt.gz
Wetbulb
47.47 47.94 48.27 48.75 49.50 49.43 46.23 41.22 33.11 42.80 46.52 34.91 32.75 32.65 36.19 39.82 39.10 41.86 39.60 39.84 37.92 35.29 35.56 33.66 33.95 35.38 38.08 40.48 39.80 37.06 38.70 35.16 30.11 31.92 39.07 39.83 38.17 35.06 34.97 25.63 23.65 27.36 25.51 27.91
47.14 47.54 47.81 48.55 48.71 48.75 43.27 36.58 35.71 43.27 42.85 29.97 30.39 34.04 36.06 37.90 38.07 38.21 38.88 37.71 38.75 38.04 34.10 31.56 34.65 36.31 40.98 41.07 38.71 37.60 38.55 33.40 27.81 28.66 33.27 35.89 33.11 35.27 35.88 34.48 32.74 27.06 21.65 25.44
46.14 46.50 46.90 47.81 47.82 48.47 43.86 34.49 28.68 33.82 34.90 35.30 33.08 30.72 32.81 33.91 39.35 38.38 40.23 38.78 39.07 36.04 33.94 36.62 33.10 34.99 38.85 39.54 38.78 41.60 41.22 34.98 30.90 25.57 28.64 31.97 29.41 33.08 35.60 33.33 26.13 24.92 24.99 29.55
45.53 45.83 46.26 46.55 47.47 47.34 42.06 34.19 31.59 32.66 27.24 29.19 32.76 33.72 33.36 31.13 32.89 38.60 38.03 37.36 35.58 33.20 29.96 32.46 33.02 36.35 35.75 36.99 40.05 36.85 34.99 27.27 30.81 33.13 34.33 33.70 32.59 30.71 33.02 32.50 31.21 25.46 28.07 29.90
44.83 44.88 45.25 46.06 46.50 46.94 39.97 32.15 32.71 35.08 30.32 31.65 31.06 32.81 33.85 31.14 33.13 35.22 34.47 34.17 35.01 34.83 30.93 32.16 29.44 34.27 34.31 31.70 32.74 33.36 34.45 27.25 30.37 29.10 33.66 32.57 28.83 30.97 30.52 31.25 31.22 30.57 30.51 29.52
44.49 44.54 45.26 45.73 45.88 45.64 36.18 38.00 40.37 37.11 33.66 29.70 29.59 29.25 31.17 32.44 35.40 36.58 38.13 35.98 35.67 35.06 34.93 37.03 35.88 37.74 37.32 36.02 32.63 30.02 30.41 28.98 28.24 25.92 30.70 30.20 24.15 26.94 31.03 30.36 30.55 31.39 25.11 29.72
44.02 44.15 45.05 45.48 45.91 45.42 39.69 39.77 39.71 34.64 29.56 32.17 30.80 31.79 31.92 31.47 33.52 34.09 37.28 38.18 35.88 37.59 40.26 38.98 37.61 37.03 36.55 34.98 34.24 34.54 28.47 28.63 28.25 24.20 27.06 19.23 27.30 34.52 34.48 29.11 28.25 31.28 30.50 30.13
43.79 44.50 45.12 45.45 46.06 46.04 40.42 41.15 39.46 35.15 27.52 32.76 33.44 33.52 33.13 33.22 33.89 34.73 37.08 39.37 39.68 39.39 35.85 30.62 28.46 27.43 29.20 31.86 34.38 33.95 34.02 30.26 26.08 21.45 21.77 25.74 28.48 31.00 28.77 26.72 24.36 28.23 29.43 28.10
43.98 44.18 44.81 45.28 45.61 45.99 42.21 42.04 42.62 38.47 32.42 29.67 35.48 34.35 34.40 30.83 28.51 33.76 36.98 40.91 42.48 36.33 29.87 28.27 23.80 19.86 23.82 23.69 27.88 35.71 34.40 32.76 26.17 23.43 19.27 15.51 23.94 32.19 34.22 30.86 18.02 26.51 27.78 29.26
44.11 44.38 44.78 45.00 45.68 45.99 43.21 41.50 42.95 39.15 32.90 34.68 35.72 33.61 31.08 36.62 35.47 30.49 34.03 36.55 33.25 35.88 26.94 20.57 22.31 23.61 29.55 22.32 23.01 24.74 25.84 25.16 23.06 23.71 20.57 23.73 30.47 34.08 34.72 17.88 19.46 26.75 25.61 23.39
44.38 44.45 44.62 45.28 45.43 46.12 43.51 40.48 43.50 39.79 34.55 35.87 36.71 38.20 36.65 37.76 34.07 28.75 33.67 32.11 32.53 27.86 24.41 25.54 23.73 23.41 26.37 24.78 25.38 26.40 24.49 23.44 23.06 23.91 18.63 17.28 29.84 31.62 25.66 22.96 26.64 26.30 23.16 22.89
44.48 44.86 45.22 45.45 45.29 45.11 44.53 38.74 43.60 44.49 34.47 36.20 40.05 39.82 41.77 41.71 40.72 34.67 33.87 32.31 31.27 31.48 27.12 26.89 28.48 26.84 29.98 27.15 23.53 32.80 21.53 23.87 22.67 23.82 20.21 27.16 29.70 27.15 28.68 28.50 26.05 26.96 23.65 24.14
44.69 44.84 44.77 44.91 43.91 46.31 43.33 40.20 41.77 41.02 36.39 35.75 36.89 35.74 40.19 44.14 43.43 42.26 32.89 32.69 36.28 34.46 35.97 31.44 31.24 28.45 30.56 25.61 24.09 28.16 31.02 31.85 22.89 24.06 26.54 27.27 29.19 30.83 30.90 29.87 27.04 28.53 27.66 26.36
44.48 44.69 44.82 44.19 45.40 45.26 43.18 40.82 42.78 41.81 38.37 29.74 32.69 41.79 39.28 43.41 42.73 41.07 39.58 38.43 37.93 37.00 36.19 30.86 31.39 29.81 33.12 28.29 29.22 27.50 30.32 30.65 26.71 25.53 27.26 27.99 29.03 29.17 29.36 28.61 28.88 27.83 27.10 25.07
44.14 44.93 44.39 45.41 45.78 44.88 43.44 42.28 42.65 43.63 36.66 28.06 30.86 37.40 40.60 41.52 41.20 40.13 39.31 37.18 34.80 32.86 30.57 29.04 29.55 32.77 31.48 31.07 29.99 27.22 31.97 26.65 23.19 21.21 28.21 26.61 26.75 29.28 29.61 27.74 26.50 24.88 24.21 23.65
45.12 45.62 45.66 45.50 45.35 44.02 40.02 32.75 41.47 43.69 39.90 29.98 26.44 34.52 36.62 39.08 39.72 38.25 37.42 36.70 34.79 33.02 30.84 30.29 32.80 36.14 31.30 26.60 24.27 30.88 32.34 32.95 31.92 25.77 30.41 28.49 28.79 29.82 30.08 28.17 26.93 26.27 26.33 25.96
44.60 44.67 44.72 44.97 44.39 41.92 35.32 34.85 38.96 42.57 40.41 29.18 26.05 27.62 34.39 38.39 38.02 36.08 35.82 36.26 34.09 32.43 29.97 29.03 30.65 31.73 33.31 25.74 22.85 30.13 30.42 30.43 29.70 30.18 29.12 26.90 28.35 26.98 29.67 28.68 28.19 29.18 27.14 26.37
44.24 44.21 44.33 45.03 44.15 42.38 37.99 38.58 41.54 41.28 36.37 34.07 26.73 26.75 29.32 36.76 31.43 30.37 34.76 32.27 32.77 31.62 29.44 30.15 29.01 29.75 30.50 25.08 28.44 29.66 29.60 29.36 29.60 30.32 30.80 29.39 30.53 30.10 29.56 29.55 27.96 25.99 25.18 25.01
44.11 44.25 43.83 41.60 39.01 35.76 37.06 42.15 41.63 39.21 36.96 28.10 27.95 23.66 20.18 34.43 31.07 31.84 31.57 32.51 26.31 31.65 28.04 28.56 29.44 25.39 23.91 28.06 29.13 28.92 28.97 28.33 30.30 30.80 29.52 29.21 28.88 28.93 28.58 27.16 26.63 25.45 25.31 25.09
43.77 40.74 36.92 32.39 36.68 41.31 41.20 38.03 32.51 32.34 32.59 34.00 28.03 30.18 25.81 31.51 27.61 27.79 27.84 28.26 26.29 24.22 27.11 29.57 25.84 23.31 30.98 31.90 30.80 31.03 30.69 32.14 31.28 26.95 26.60 27.86 27.72 26.91 26.20 25.94 26.38 26.15 24.82 23.35
38.17 33.87 30.15 36.03 41.52 38.40 33.94 26.34 26.16 27.25 26.65 30.76 30.61 29.18 27.77 33.38 26.02 25.69 29.10 26.10 25.86 23.28 25.28 24.43 22.13 22.25 25.71 29.83 29.75 30.46 31.09 33.38 32.27 30.45 29.01 28.62 27.78 26.34 25.93 25.51 26.09 25.41 24.21 22.37
37.31 37.08 37.87 37.34 35.27 29.94 26.17 24.05 26.30 26.45 25.78 29.14 28.26 28.96 31.09 32.01 34.40 27.01 28.15 25.70 25.05 23.19 26.44 21.81 15.73 25.65 27.36 28.54 29.11 29.10 31.02 32.39 31.61 30.82 28.97 27.66 27.52 27.57 27.61 27.05 25.52 22.94 20.46 18.30
39.23 36.57 32.39 29.00 25.72 17.47 17.74 15.30 22.25 21.75 27.65 29.38 29.12 27.18 29.34 31.53 30.20 25.36 25.40 17.02 17.13 26.04 12.93 17.19 25.05 29.79 30.49 30.58 30.83 30.48 30.30 31.37 30.28 27.79 27.66 27.48 26.52 27.57 26.41 23.16 21.22 20.00 18.05 16.20
29.88 26.14 16.24 18.03 14.92 23.30 27.30 27.69 24.39 27.29 28.34 30.34 28.74 26.97 27.46 25.48 24.18 21.61 16.01 20.72 22.41 11.02 11.99 17.73 26.42 30.62 30.71 30.58 31.04 30.87 27.15 27.54 27.97 25.59 24.76 25.23 25.43 23.25 22.67 21.63 20.58 18.67 16.27 15.11
28.04 27.69 19.91 20.13 27.51 28.20 29.93 29.39 30.22 29.44 31.46 30.00 28.00 27.24 26.58 22.12 16.63 19.90 20.32 14.52 10.83 14.71 13.11 23.93 29.07 30.86 30.83 30.39 31.04 30.12 24.80 24.48 23.21 23.25 22.51 22.49 22.02 21.29 19.57 20.30 19.86 18.05 15.49 13.77
29.07 28.04 23.87 24.02 26.21 27.33 30.33 30.82 28.69 33.07 29.35 28.93 28.74 24.07 18.44 18.41 20.72 18.96 14.69 18.07 13.39 15.14 24.93 28.71 30.70 30.36 30.69 30.68 30.03 27.32 24.66 23.46 22.10 22.23 22.39 21.00 20.27 19.11 17.53 17.75 17.73 17.16 16.09 13.87
27.84 26.24 31.74 24.22 27.56 28.65 30.14 29.47 27.95 31.04 28.44 21.66 25.57 18.69 20.23 23.22 19.90 21.32 24.11 20.79 24.64 26.31 27.97 28.83 28.98 28.24 27.16 26.58 25.15 24.43 21.95 21.56 21.33 21.32 21.55 20.28 19.54 18.54 17.51 15.61 16.11 16.99 15.65 13.64

GFSNW_sfc_wetblb_117.txt.gz
Wetbulb
48.22 48.17 48.68 48.69 49.34 49.30 46.51 41.04 33.56 40.66 47.89 35.78 34.51 32.79 35.36 39.29 37.54 40.16 38.02 38.50 36.61 34.27 34.76 32.86 32.56 33.74 36.46 40.03 39.84 35.03 38.08 34.50 30.54 32.53 36.65 39.43 37.06 34.48 32.79 22.24 22.16 27.91 19.89 21.19
47.19 47.70 48.03 48.17 48.40 48.68 43.68 36.89 36.25 42.11 43.34 30.30 30.01 34.26 35.60 37.76 36.21 36.36 37.15 35.63 37.57 38.13 33.94 31.17 33.71 34.71 38.97 39.71 38.89 36.22 37.56 32.44 25.86 28.72 32.18 35.99 34.03 35.18 35.60 33.33 31.14 26.82 21.49 24.02
46.74 47.15 47.07 47.44 48.05 48.54 43.75 34.96 29.35 33.20 36.49 36.42 31.51 31.24 33.20 33.61 38.98 37.26 39.00 37.44 38.51 35.65 33.48 35.62 32.72 33.94 38.05 39.14 38.89 42.49 41.03 34.14 29.63 24.42 26.63 31.31 30.80 33.62 35.48 33.32 26.64 26.39 26.55 29.52
45.97 46.51 46.60 47.12 47.34 47.62 43.70 35.77 31.01 33.05 26.86 30.22 33.33 33.80 32.64 30.76 32.67 37.64 38.69 35.92 35.75 33.61 31.03 31.95 32.36 34.82 35.22 35.78 41.42 38.45 36.02 29.43 31.18 32.57 33.27 33.10 32.04 32.72 33.52 31.73 31.18 26.72 27.75 29.10
45.89 45.73 45.94 46.75 46.65 47.08 41.04 30.98 32.07 34.96 30.12 31.74 32.15 32.23 31.07 30.78 32.09 34.45 35.01 33.63 35.26 36.07 32.47 32.86 30.64 34.19 33.57 32.29 34.74 32.77 33.16 26.85 28.50 27.58 32.82 33.15 29.91 31.95 30.52 32.83 33.62 32.49 30.92 30.79
45.02 45.01 45.57 45.85 46.04 45.11 38.09 36.33 38.96 35.99 31.86 28.99 30.02 29.54 30.56 31.12 33.78 34.67 35.94 35.39 34.42 34.01 35.01 37.11 38.13 37.93 37.09 36.95 32.85 30.31 30.89 29.42 28.15 25.18 30.90 31.98 27.06 28.35 30.78 29.65 30.01 30.80 26.50 30.20
44.30 44.42 45.02 45.52 45.33 44.37 38.83 39.57 35.62 32.04 27.08 29.87 29.10 30.87 31.26 30.81 32.12 32.11 35.67 36.45 33.81 36.78 41.15 40.29 38.50 35.79 34.80 35.13 33.62 35.01 29.12 29.37 28.94 25.10 27.14 20.23 26.98 33.21 34.04 29.58 28.97 30.78 30.15 30.86
43.86 44.44 45.02 45.09 45.41 45.00 38.40 38.98 37.90 34.57 28.62 30.36 32.19 31.87 31.22 32.14 32.85 32.30 33.04 35.85 39.12 40.44 37.85 32.02 29.61 28.39 30.20 31.47 33.99 33.16 32.55 28.63 25.91 20.94 22.46 25.23 26.99 29.72 27.16 27.59 25.89 28.66 28.87 27.51
43.47 43.82 44.42 44.88 45.35 45.01 41.47 37.92 41.68 37.16 31.39 30.31 34.87 32.69 33.21 30.19 31.46 31.26 32.48 40.25 42.77 39.91 32.26 29.75 24.26 21.46 25.53 25.45 28.15 34.36 32.88 31.93 27.11 24.32 18.77 16.51 21.81 31.79 34.13 30.18 18.01 27.38 27.49 26.20
42.93 43.23 44.10 44.63 44.95 44.76 40.96 39.51 42.06 39.31 32.25 33.30 35.89 32.32 31.15 35.40 33.23 30.92 32.86 36.74 36.27 37.16 29.78 24.32 21.83 22.12 28.14 22.61 23.67 25.95 27.17 27.10 23.67 22.75 20.52 21.89 29.36 33.23 33.55 16.05 19.51 26.27 27.47 26.90
42.01 42.86 43.85 44.35 44.59 44.64 42.71 40.49 43.67 38.66 32.50 35.58 37.38 37.31 34.66 34.76 34.50 28.35 32.77 33.08 32.52 30.60 27.48 27.73 25.34 22.24 24.64 23.72 20.99 25.73 24.33 23.41 22.13 23.58 19.34 15.07 30.58 31.88 24.77 23.18 25.57 24.92 21.56 22.95
42.73 42.96 43.83 44.01 44.37 44.90 44.28 38.85 43.65 43.79 35.77 34.93 39.54 38.93 39.98 39.03 39.24 32.14 32.23 31.23 31.18 32.65 29.39 28.16 28.99 26.54 24.43 24.45 20.66 29.64 19.29 23.38 21.72 24.59 21.16 27.67 29.62 27.09 26.57 27.14 25.56 22.69 21.47 24.08
44.02 44.12 44.20 44.47 44.87 44.83 43.93 40.29 42.28 41.31 36.50 35.51 37.17 34.39 39.77 42.41 43.22 41.36 32.67 31.52 36.83 33.66 35.49 31.60 30.22 26.26 26.80 21.68 21.18 27.26 29.54 30.75 23.61 24.85 26.07 26.95 28.42 29.18 28.33 27.81 25.47 23.75 23.62 23.45
44.21 44.32 44.83 44.88 45.26 45.54 44.89 40.44 42.10 41.21 38.14 28.54 33.38 41.00 38.79 42.77 42.51 42.62 39.64 37.65 37.75 36.86 34.64 27.92 26.35 27.74 31.58 27.78 28.64 27.98 30.23 30.09 26.37 25.15 27.13 28.18 28.80 28.08 27.65 27.25 26.92 25.72 25.49 23.44
44.26 44.51 44.69 44.45 43.33 44.87 43.50 42.04 42.83 43.49 36.27 27.68 31.24 37.84 40.51 42.27 41.33 41.52 39.39 37.54 33.76 31.07 29.28 27.72 27.23 31.03 31.90 29.20 29.83 26.65 31.15 27.03 23.62 22.75 28.12 27.05 27.04 27.85 28.68 26.98 26.67 26.11 23.38 22.52
44.59 44.61 44.73 42.63 45.24 44.45 39.80 33.42 41.20 43.18 41.88 29.77 27.79 35.23 36.67 39.04 39.38 37.81 36.67 35.82 33.33 31.22 30.28 29.99 32.65 35.98 32.97 26.89 24.29 30.40 31.48 32.02 31.30 27.35 30.10 28.16 28.55 28.64 30.02 27.30 26.16 25.14 24.34 23.83
44.51 44.65 44.25 44.69 44.78 40.30 35.47 32.63 37.00 42.67 39.13 28.21 25.09 27.38 33.65 37.65 37.37 35.58 34.37 35.22 33.24 30.92 29.46 29.73 31.39 31.63 32.68 26.95 24.76 28.66 29.46 29.33 29.14 29.37 28.61 26.70 27.05 26.37 28.92 26.22 25.99 27.55 25.50 25.10
44.65 45.30 44.97 44.90 44.22 42.53 37.71 38.13 43.62 41.70 34.77 31.23 23.58 24.82 28.29 35.04 30.28 29.75 33.44 31.20 31.54 31.09 28.62 30.10 28.60 29.56 29.90 25.11 29.01 27.96 28.17 28.58 28.49 29.00 29.72 28.54 28.71 29.46 28.40 27.19 26.67 24.55 23.70 23.83
45.05 45.01 44.51 42.20 39.67 36.62 37.93 42.70 42.47 38.97 35.44 26.62 26.02 22.30 18.81 32.44 29.63 30.80 30.63 31.32 25.40 30.44 27.64 27.97 29.10 25.06 23.37 27.05 29.14 27.06 27.67 27.61 27.79 29.02 28.50 28.32 27.37 27.66 26.65 26.40 24.88 23.75 23.83 23.78
43.23 41.34 37.08 32.70 37.57 42.47 41.12 37.85 32.61 31.62 31.48 32.52 26.94 29.02 25.77 30.64 26.89 26.82 27.21 27.71 25.29 23.62 26.66 28.40 25.48 22.60 28.91 30.79 30.34 29.61 29.35 29.97 29.44 25.93 25.61 26.38 26.15 26.60 25.93 25.25 25.56 25.54 24.94 24.35
38.22 31.87 32.02 36.93 40.81 36.78 33.80 27.51 25.45 25.87 26.38 29.81 29.36 28.90 27.72 31.96 25.34 25.60 27.90 25.72 25.51 22.99 24.97 23.58 21.98 20.99 25.11 29.06 29.48 30.24 30.39 30.26 29.39 28.54 28.73 28.52 28.64 27.30 25.56 25.39 26.31 26.11 24.97 22.50
36.69 36.05 38.03 36.94 34.62 29.40 25.62 22.34 25.87 25.78 25.75 27.56 26.80 28.34 30.21 30.97 32.31 27.11 27.76 25.73 25.06 22.88 26.07 22.48 16.13 20.85 26.10 27.71 28.49 28.61 29.20 29.61 29.97 29.21 27.31 26.95 27.46 26.89 26.61 26.03 24.90 23.69 21.54 18.79
38.24 35.26 31.60 29.83 25.62 15.81 16.33 14.85 21.45 20.62 26.34 27.82 27.68 26.11 28.48 29.21 28.96 24.81 24.82 18.08 16.90 25.48 13.52 16.28 20.86 27.12 28.61 29.85 30.11 29.16 28.68 28.59 27.83 27.01 27.39 27.20 26.98 27.32 26.55 24.07 21.95 20.33 18.60 17.31
29.51 26.28 16.87 19.22 16.20 24.95 26.34 26.31 24.03 26.45 25.69 28.78 27.86 25.51 25.62 24.69 23.51 21.53 17.50 20.22 21.27 10.70 10.73 16.34 25.84 28.48 29.89 30.52 30.47 29.39 25.46 24.91 25.04 24.06 24.49 24.29 25.35 25.24 24.43 22.44 20.65 18.78 16.47 15.39
27.47 26.78 18.46 22.18 27.96 29.21 30.03 30.73 29.47 26.97 27.21 28.43 26.25 25.16 25.72 21.27 17.69 19.73 19.65 15.66 9.58 13.57 10.74 21.76 29.28 30.45 29.83 29.69 28.73 21.37 19.52 19.73 20.81 23.21 23.74 23.20 22.85 22.18 20.82 21.34 20.72 19.08 16.91 16.13
29.21 27.87 24.51 25.17 23.99 27.76 31.10 30.57 27.96 32.21 27.01 26.83 27.46 23.34 18.69 18.46 20.26 17.90 13.35 15.68 10.24 12.94 24.54 28.76 30.70 30.50 30.01 30.83 29.44 24.31 18.78 19.13 21.30 22.16 23.50 23.26 22.05 20.91 19.31 19.34 18.77 18.03 17.17 15.29
27.79 26.50 27.71 21.01 23.99 27.86 29.71 30.56 29.97 30.24 28.89 22.68 24.95 18.24 20.47 22.91 18.62 20.07 23.98 17.27 21.96 26.05 27.92 28.97 29.48 29.84 29.78 28.82 26.21 21.96 19.32 21.54 21.33 21.31 22.26 20.63 19.69 19.45 18.98 16.96 17.62 18.14 17.21 15.61

GFSNW_sfc_wetblb_120.txt.gz
Wetbulb
48.94 48.72 48.70 48.34 48.84 49.14 45.78 39.93 32.24 41.15 48.08 35.96 35.38 31.78 33.83 38.09 36.11 38.80 36.66 36.91 35.07 32.82 33.83 32.19 32.05 31.98 34.59 39.00 38.10 33.95 36.17 32.93 28.68 31.56 36.62 37.92 37.00 33.86 32.56 27.10 22.74 25.44 19.29 20.90
47.85 47.82 48.06 48.61 49.20 48.61 43.47 36.20 36.02 41.45 43.16 29.90 31.01 33.97 34.83 36.28 35.60 35.67 35.77 34.52 37.05 37.01 33.05 30.55 32.88 34.13 38.62 39.43 38.54 35.65 38.05 32.27 26.73 25.06 30.82 34.60 33.55 34.29 34.74 33.66 31.40 27.05 20.49 22.90
47.26 47.27 47.59 48.05 48.18 48.84 43.59 35.34 29.33 33.72 37.75 37.48 32.48 31.80 32.43 33.32 37.99 36.68 37.77 36.31 37.12 34.58 32.59 34.63 31.55 32.21 36.99 38.12 38.07 42.34 39.95 32.65 29.43 24.48 26.21 30.38 29.90 32.57 34.93 34.04 28.48 28.00 26.50 28.17
46.83 47.46 47.51 47.88 48.00 48.07 43.23 36.45 31.52 32.82 27.44 31.31 33.24 33.96 32.75 31.21 31.50 37.36 38.25 35.86 35.22 33.12 30.10 30.65 30.30 32.84 34.53 35.48 38.99 38.01 35.60 30.00 31.32 31.92 32.77 33.41 31.40 31.69 32.71 33.03 32.83 28.52 29.33 28.74
46.94 46.88 47.24 47.08 47.03 47.53 41.56 31.73 31.86 34.97 30.29 33.11 33.00 32.35 30.67 30.22 31.81 33.89 33.69 32.66 34.31 34.99 31.96 32.03 28.72 33.10 32.53 32.13 36.29 34.80 34.04 27.00 29.98 27.96 32.08 33.10 30.30 31.55 31.64 32.75 33.79 32.76 31.49 29.96
46.04 46.02 46.50 46.67 46.87 45.68 37.01 37.49 39.06 31.63 29.07 28.53 30.54 30.33 30.36 30.81 33.31 34.26 35.41 34.90 34.59 33.64 34.25 36.56 37.38 37.06 36.21 37.28 34.16 30.58 31.21 29.50 27.76 24.76 29.18 28.01 26.74 29.74 30.13 29.26 29.55 31.35 29.26 31.52
45.27 45.38 45.82 45.71 46.05 44.53 39.65 38.58 37.19 32.20 26.12 28.31 28.79 30.07 31.59 30.72 31.77 30.72 34.66 34.99 32.82 35.60 39.73 39.13 36.73 35.30 35.01 35.50 34.69 35.20 30.93 29.13 29.36 25.73 27.47 20.06 26.48 30.64 32.31 29.53 30.38 31.24 30.77 30.78
44.18 44.62 45.27 45.55 45.72 45.10 37.09 39.66 37.01 33.37 26.42 29.63 31.35 31.34 30.03 30.76 32.60 32.33 32.54 34.74 37.47 39.33 37.33 33.36 30.42 29.33 28.95 32.26 33.72 33.78 33.12 28.86 26.64 23.07 22.62 25.19 26.00 28.89 25.91 25.18 25.20 28.91 29.58 29.57
43.70 44.18 44.28 44.35 44.81 44.84 37.87 36.06 40.73 36.79 27.45 25.84 32.31 30.89 31.94 28.05 27.50 28.16 31.14 35.82 39.47 37.42 34.01 30.57 24.57 21.13 27.61 26.69 29.33 33.98 32.59 31.88 28.56 24.09 16.96 14.17 21.55 29.80 32.79 29.62 20.22 27.98 29.08 27.41
43.22 43.56 43.78 44.24 44.45 44.37 39.92 39.02 39.13 37.02 31.76 31.87 33.67 32.03 31.80 32.42 30.19 25.37 30.64 34.05 35.08 37.11 29.91 25.16 25.04 24.06 29.01 24.77 25.11 26.05 27.91 27.41 24.64 22.81 20.55 21.97 27.45 31.47 32.26 18.08 21.07 29.60 29.56 28.11
42.32 43.12 43.68 43.83 44.06 44.42 41.47 38.60 40.32 36.16 33.13 33.87 35.71 37.00 34.81 35.83 32.79 27.77 33.26 33.51 33.16 31.53 27.83 27.06 26.31 23.21 25.97 25.31 23.89 26.84 25.63 23.89 22.86 24.20 20.48 14.81 30.71 31.04 24.63 24.88 25.86 26.31 25.78 27.23
42.01 42.26 42.85 43.35 43.66 44.04 42.59 33.88 40.20 40.70 35.63 35.24 39.55 38.39 38.13 38.78 37.90 33.04 34.27 30.35 29.72 30.20 28.79 29.41 29.43 28.17 25.23 23.97 19.49 28.61 23.59 22.31 19.35 23.12 20.29 25.30 29.00 28.05 27.67 27.63 24.46 22.24 23.32 24.71
41.70 42.11 41.96 42.76 43.36 43.88 42.40 35.65 38.62 37.79 34.88 34.41 36.01 34.71 38.45 40.35 39.89 40.52 33.94 34.40 34.16 32.14 34.16 29.70 28.30 28.08 28.06 24.76 21.71 25.32 27.20 28.44 20.43 22.78 23.86 25.90 28.19 28.09 27.64 26.88 25.07 23.79 25.23 25.44
42.93 42.10 42.48 42.28 43.13 43.82 43.06 38.25 40.58 39.05 36.86 30.03 29.22 39.43 37.24 41.27 41.75 41.73 40.50 37.66 38.44 36.74 36.86 32.21 31.51 29.64 31.68 25.30 26.04 24.63 27.27 28.24 25.69 23.83 26.64 28.23 28.67 28.44 27.03 25.13 24.70 23.81 23.97 24.07
43.52 43.69 43.64 43.53 43.87 44.26 42.54 41.84 41.99 42.76 36.82 28.72 29.60 35.93 39.62 41.32 41.71 40.68 41.57 39.19 36.86 35.38 31.33 29.91 27.71 30.28 27.86 26.88 26.86 24.40 29.80 27.18 25.52 23.85 28.83 27.36 26.62 27.40 27.50 24.83 23.74 23.39 21.92 21.70
43.50 43.90 44.47 44.66 44.65 44.72 40.06 32.15 39.62 42.42 42.33 31.96 28.45 36.29 36.02 39.23 39.99 40.48 38.51 37.14 33.72 33.22 30.69 28.88 29.89 33.53 29.15 22.99 24.86 29.49 31.80 31.21 30.84 27.03 29.90 28.47 28.63 28.17 27.84 25.32 24.36 24.36 23.37 22.55
43.90 44.20 44.76 44.80 44.91 42.21 35.84 33.69 38.04 43.06 41.50 32.30 28.83 29.66 35.02 38.22 38.70 37.09 35.52 35.91 33.79 30.76 27.74 27.28 28.73 29.72 32.71 29.28 25.82 29.17 28.68 28.97 28.93 29.25 28.71 26.76 27.37 26.43 27.62 25.83 25.15 26.30 23.69 23.63
44.34 44.16 42.97 43.65 44.23 42.76 38.61 38.57 43.35 43.27 37.50 32.90 27.07 27.98 30.05 35.75 31.04 30.67 33.15 30.34 30.09 28.97 26.70 27.84 27.37 28.94 30.16 27.67 28.78 27.38 27.74 28.14 28.31 28.80 28.91 28.40 28.01 27.32 26.37 25.97 24.29 23.15 22.62 22.35
44.36 43.72 44.05 41.67 39.68 36.52 38.45 43.46 43.50 40.33 37.20 27.54 25.40 22.45 20.32 31.25 28.97 29.64 28.96 29.20 25.00 29.40 26.89 26.94 27.79 24.78 23.00 27.08 28.74 27.05 27.67 27.60 27.37 27.66 27.60 27.44 26.33 25.08 25.17 24.53 23.98 22.94 22.51 22.73
44.10 41.17 36.96 32.14 37.81 42.97 42.29 38.51 34.53 34.00 32.90 30.40 23.55 26.40 23.22 28.37 24.39 25.97 26.72 26.95 25.33 23.86 25.84 27.66 24.51 22.26 28.63 29.71 29.52 28.57 28.75 28.36 28.19 25.47 25.11 25.88 25.47 25.00 24.82 24.27 24.48 24.31 23.87 23.41
36.30 31.25 32.13 37.84 42.29 36.59 33.15 25.88 25.83 25.08 25.41 27.68 27.48 28.22 26.90 31.43 25.54 25.48 27.39 25.28 25.06 21.96 24.37 23.05 21.71 21.95 26.10 28.81 28.78 29.22 29.91 28.79 28.17 28.17 28.58 28.33 27.71 25.89 25.18 24.64 25.10 25.03 24.58 22.82
34.56 37.41 38.45 36.73 33.87 28.80 26.13 22.31 25.79 25.02 25.52 27.03 27.08 28.16 29.80 29.52 31.01 27.24 26.85 25.19 24.36 22.17 24.18 21.13 16.08 21.22 26.89 28.21 28.67 28.88 28.26 28.32 27.61 28.19 27.66 27.80 27.81 26.89 26.07 25.83 25.49 25.24 22.90 19.26
37.82 34.82 30.01 28.86 25.25 16.96 16.75 14.50 21.21 20.56 26.57 27.14 27.28 25.36 27.78 28.09 28.56 24.56 24.59 17.94 17.29 25.47 14.56 17.08 19.46 26.19 26.99 27.03 27.34 27.09 27.62 27.85 26.88 26.15 26.59 27.09 26.64 26.81 25.99 24.64 23.34 20.92 19.05 17.93
30.39 27.57 18.91 20.00 15.63 23.18 23.42 24.98 23.87 28.13 25.77 27.83 26.99 24.71 24.83 24.28 22.89 20.71 17.74 20.15 21.51 12.08 10.92 14.50 18.86 26.52 26.63 27.63 28.01 27.16 24.34 23.64 24.27 22.90 22.72 22.30 24.13 23.34 23.68 22.66 21.58 19.07 17.12 16.42
27.53 26.67 19.71 22.99 27.33 28.70 30.16 30.71 30.54 29.43 26.47 26.19 25.27 24.99 24.97 20.64 17.69 20.10 20.11 16.39 9.59 12.96 9.01 17.81 28.20 27.74 27.12 28.97 27.93 20.37 17.71 16.45 17.20 17.64 19.22 19.88 23.20 22.32 20.28 21.34 20.76 19.27 17.27 16.54
28.57 27.80 25.11 24.77 25.29 29.12 30.96 29.67 28.38 28.70 25.78 26.51 26.97 22.69 19.35 19.11 20.39 17.72 12.98 14.41 8.49 11.38 23.33 28.12 30.37 28.83 29.06 28.62 25.65 15.21 17.62 18.58 18.70 16.37 19.42 20.27 21.43 21.59 20.37 20.24 19.48 18.92 18.09 16.15
26.84 22.52 26.37 21.78 23.45 26.57 27.88 29.00 26.56 29.13 27.86 21.19 25.09 19.18 21.01 22.34 17.88 19.06 22.32 17.92 20.33 25.46 28.08 29.35 30.29 29.62 29.97 27.31 22.35 19.14 16.60 19.26 20.51 18.51 20.25 19.84 20.43 19.75 19.30 17.55 18.04 18.80 18.47 17.22

GFSNW_sfc_wetblb_123.txt.gz
Wetbulb
46.64 48.61 48.82 50.12 49.68 49.36 46.39 40.12 31.65 43.00 48.22 34.00 33.89 30.86 33.82 37.64 36.09 38.88 37.13 37.58 36.28 34.38 35.47 34.12 33.53 33.82 36.45 40.92 40.11 36.09 39.41 35.92 31.77 33.77 38.40 40.61 39.03 36.57 35.72 29.46 27.24 28.68 27.23 29.29
45.36 46.30 48.51 48.27 47.69 48.55 43.04 36.32 35.36 42.47 43.89 28.35 29.54 32.87 32.91 35.57 35.54 35.75 35.63 35.10 37.74 38.52 35.05 31.66 35.06 35.92 40.00 41.09 40.38 37.92 39.48 34.05 29.55 30.95 34.55 37.70 35.96 37.22 37.08 35.82 33.47 29.19 25.96 29.26
45.88 47.08 48.65 48.55 47.93 48.00 42.82 35.43 30.22 34.62 37.90 37.72 33.50 30.46 30.54 31.26 37.26 35.70 36.78 36.52 38.07 35.92 34.30 36.36 33.83 34.25 38.91 40.33 39.96 43.02 41.56 35.17 32.47 27.90 30.06 34.27 32.21 34.97 36.88 35.27 30.14 30.20 31.04 32.60
46.77 48.35 48.32 47.80 47.65 47.61 42.33 35.87 32.43 34.39 28.28 32.06 33.24 33.80 33.16 30.47 30.30 36.95 37.61 34.43 35.43 34.31 31.11 32.51 32.20 35.11 36.40 37.97 39.72 40.42 38.72 32.08 33.48 34.64 34.77 34.75 34.33 33.91 34.98 33.45 34.10 29.82 32.28 32.57
45.28 46.77 47.09 47.35 47.24 47.50 40.71 32.25 32.96 35.18 31.92 34.63 32.51 32.26 30.59 30.24 32.66 34.33 34.31 33.46 35.06 35.82 33.01 33.54 31.31 34.83 35.09 34.87 37.25 37.74 36.87 31.90 32.60 31.07 33.65 34.29 32.18 34.21 34.40 34.53 34.76 34.88 35.07 34.08
44.99 44.18 46.08 46.60 46.53 46.89 36.40 36.02 38.86 35.13 31.80 32.10 31.21 31.04 31.50 31.70 34.14 35.31 36.72 36.40 34.91 33.88 35.51 38.00 39.04 39.01 38.38 38.43 36.05 33.79 33.50 32.27 29.71 26.82 31.58 31.62 27.97 32.05 33.32 33.92 35.61 34.79 30.75 35.95
43.67 45.92 45.59 45.32 46.30 45.59 38.58 38.53 36.06 31.69 27.37 30.59 30.07 32.18 32.60 31.58 33.38 31.99 35.12 36.93 34.56 36.86 41.03 40.08 38.61 37.22 36.69 36.70 36.52 38.13 33.62 31.71 31.43 27.18 29.46 21.17 31.77 33.61 34.69 33.86 35.56 35.79 35.06 34.97
45.29 46.11 45.71 45.85 46.04 44.15 39.91 40.89 37.00 33.32 28.62 30.96 30.52 31.07 31.40 32.95 34.05 33.32 33.53 36.17 38.44 40.90 37.93 32.37 29.18 29.41 30.06 30.97 34.54 35.23 36.54 33.30 28.68 25.35 24.89 27.96 30.70 31.74 30.96 30.48 32.00 34.48 34.18 33.04
44.68 45.05 45.33 45.47 45.55 44.83 39.70 40.87 41.02 35.25 30.02 29.40 32.92 31.44 32.51 29.18 29.43 30.43 32.43 37.74 40.29 39.24 34.23 30.48 23.77 22.18 26.53 26.20 29.28 34.76 35.33 34.94 29.66 26.58 21.94 19.45 29.70 32.21 35.06 33.88 26.66 33.40 34.34 30.71
42.55 44.05 44.66 45.09 44.97 44.93 40.65 39.14 40.83 36.92 31.72 33.11 34.12 31.15 30.90 33.60 31.77 29.50 31.82 34.38 35.31 37.68 29.97 26.32 24.25 24.11 30.18 24.15 25.79 26.53 28.73 29.48 26.74 24.87 23.20 26.83 32.46 33.80 34.31 25.26 29.69 32.91 33.61 31.23
42.80 43.34 43.83 44.42 44.64 44.55 40.99 37.67 41.14 37.42 32.40 32.92 36.97 37.20 34.63 35.32 33.95 29.39 33.04 33.59 34.22 32.69 28.32 26.88 26.90 25.92 28.51 27.67 28.43 29.07 27.81 26.32 25.84 26.27 23.91 20.98 33.80 32.28 28.53 32.35 28.84 32.44 31.35 30.35
41.24 42.63 43.43 43.71 44.04 44.01 41.59 35.78 41.45 40.44 35.86 33.46 39.63 39.68 39.60 39.18 39.19 36.03 35.82 33.50 33.23 34.19 30.55 29.86 30.31 27.71 28.61 27.30 24.35 31.25 27.10 31.20 27.65 28.68 28.66 29.20 31.43 30.89 30.37 31.14 30.16 29.52 30.90 29.52
40.96 41.54 42.91 43.58 43.71 43.77 41.80 36.91 39.15 38.48 34.22 33.24 34.07 32.95 38.93 40.95 41.08 42.51 33.94 35.49 36.72 34.97 37.13 33.93 32.98 28.99 31.44 25.72 26.03 28.15 30.07 30.64 28.83 28.69 28.93 29.08 30.42 30.04 30.65 30.20 29.34 28.63 30.16 29.02
41.65 41.70 42.23 43.23 43.47 43.86 42.72 37.88 39.01 36.78 35.14 27.81 30.86 39.93 37.86 41.85 41.48 40.38 40.58 38.41 39.12 38.65 38.33 35.09 32.75 30.06 33.12 29.80 30.95 29.16 31.01 30.85 28.28 27.07 27.36 28.85 30.28 31.04 30.66 27.66 28.26 28.67 29.51 29.03
42.61 43.30 42.22 42.58 43.05 43.50 42.30 39.47 39.92 40.10 33.62 30.08 29.99 36.55 38.96 41.26 40.39 39.42 39.97 38.86 37.67 37.13 33.91 33.44 30.75 34.08 32.69 31.92 30.85 29.60 31.91 29.80 29.15 29.49 32.16 31.99 30.64 31.39 28.79 26.89 26.26 27.15 26.40 25.42
42.54 42.36 41.85 42.06 42.48 43.30 38.88 32.83 39.74 42.10 41.87 33.11 28.84 36.54 36.57 38.91 39.94 39.40 38.66 38.90 37.69 36.38 33.97 33.32 33.40 35.84 32.78 29.74 28.40 31.20 32.96 32.77 32.43 32.23 32.19 30.42 30.63 29.56 29.20 26.57 25.94 26.18 26.26 25.89
42.19 43.11 43.30 42.90 43.12 40.55 34.10 33.93 38.10 42.44 41.19 31.92 29.28 30.34 35.16 36.06 38.82 38.58 37.29 37.45 35.20 35.03 32.33 31.01 32.89 33.68 34.98 30.68 28.84 30.31 29.92 30.48 30.47 30.88 30.19 27.23 28.78 27.16 28.04 26.98 26.33 27.19 25.47 25.32
43.01 43.85 44.08 43.89 43.68 41.65 36.94 40.40 42.82 42.93 36.39 33.13 28.62 29.32 31.59 35.99 32.69 32.90 35.94 33.40 32.97 31.88 31.34 31.16 31.72 32.64 33.36 29.82 30.00 29.13 28.93 29.66 29.82 30.25 30.75 30.82 29.76 28.28 26.52 26.93 25.30 24.09 23.52 23.59
44.15 44.02 43.91 41.55 38.52 33.97 37.84 43.88 43.94 42.14 37.33 30.72 28.54 27.05 26.14 34.27 32.40 33.08 32.13 32.08 28.90 31.84 29.96 30.45 31.05 28.50 27.84 29.69 29.80 28.33 28.78 29.35 28.32 28.80 28.87 28.65 27.46 26.27 25.89 25.47 25.09 24.12 23.28 23.95
43.06 39.95 34.15 31.74 37.54 44.18 43.21 38.97 33.01 33.90 34.61 32.81 27.90 28.93 28.95 31.91 29.86 29.36 30.33 30.03 28.20 27.50 29.31 30.70 29.44 28.46 30.28 30.61 32.14 31.08 30.52 29.93 29.54 26.72 25.68 26.50 25.90 25.71 25.57 25.41 25.98 25.52 24.68 24.07
38.07 33.69 32.43 39.05 42.52 37.03 33.56 29.69 29.55 29.27 27.33 29.80 29.59 29.80 29.64 32.97 29.46 29.10 29.96 27.87 28.11 24.27 27.08 27.33 25.72 26.29 28.41 30.44 30.08 31.21 30.84 30.54 30.56 31.04 30.76 29.93 28.61 26.94 26.13 25.59 26.03 25.82 25.09 24.00
36.09 38.38 39.09 35.99 33.61 30.87 26.86 22.90 26.83 26.54 26.31 28.80 29.24 29.81 31.60 31.84 32.78 30.74 29.59 26.93 27.18 23.38 27.14 25.90 22.16 25.10 28.98 29.84 29.73 30.32 30.41 30.38 29.84 30.24 29.60 29.44 28.39 28.04 26.93 26.35 25.65 25.39 24.48 21.69
38.51 34.78 30.08 29.94 27.15 18.97 18.82 14.96 21.82 23.17 28.56 28.90 30.11 28.54 29.93 30.68 31.11 27.79 27.83 23.17 22.77 27.10 22.69 22.17 24.04 27.76 29.14 29.88 29.93 29.31 29.88 29.66 28.85 28.47 29.23 28.73 28.24 28.27 27.29 26.22 25.83 23.27 21.33 20.42
30.36 28.34 22.11 22.68 18.72 23.83 23.87 26.22 26.43 29.73 28.04 29.62 29.78 27.32 28.68 27.67 26.11 23.60 22.89 23.80 23.90 19.80 18.63 20.05 24.18 28.35 29.03 29.36 29.82 29.38 27.50 26.66 27.18 26.48 26.18 24.70 24.54 24.35 25.22 24.49 23.55 21.12 19.17 18.29
28.64 27.73 20.91 24.23 27.83 29.80 29.86 31.28 31.47 30.01 29.58 29.07 28.67 27.72 27.68 24.28 22.36 23.05 22.72 20.55 17.90 19.29 19.00 23.58 28.30 29.14 28.30 27.45 27.18 24.23 22.30 20.69 21.26 22.53 22.02 21.82 22.68 22.57 22.41 23.23 23.05 21.53 19.03 18.47
29.69 27.68 25.92 26.76 27.29 29.39 30.64 30.24 29.56 30.59 29.31 29.66 29.39 25.12 23.42 22.30 22.52 20.51 17.98 18.29 15.58 19.09 24.23 29.16 30.79 29.95 30.23 27.18 24.88 21.66 20.94 21.83 20.57 21.21 22.25 22.01 20.88 21.01 21.70 21.74 20.99 20.49 19.90 18.21
26.85 24.99 25.87 24.38 25.96 26.68 28.00 29.11 29.27 30.72 30.11 26.04 27.09 21.78 22.04 24.75 21.28 20.71 22.37 20.50 23.84 26.97 29.24 30.45 31.44 30.94 30.24 25.76 20.98 19.71 20.91 21.81 22.17 21.96 22.28 21.07 22.15 21.80 21.03 19.30 20.14 20.57 20.50 19.50